<?xml version="1.0" encoding="UTF-8" standalone="no" ?>
<gpx xmlns="http://www.topografix.com/GPX/1/1" xmlns:xsi="http://www.w3.org/2001/XMLSchema-instance" xsi:schemaLocation="http://www.topografix.com/GPX/1/1 http://www.topografix.com/GPX/1/1/gpx.xsd" version="1.1" creator="VisuGPX - https://www.visugpx.com">
  <metadata>
    <name>Rando Silex 2018</name>
  </metadata>
  <trk>
    <name><![CDATA[Rando Silex 2018_1]]></name>
    <trkseg>
      <trkpt lat="45.011" lon="1.08902">
        <ele>73.6</ele>
        <time>2022-05-29T07:57:39Z</time>
      </trkpt>
      <trkpt lat="45.01121" lon="1.08904">
        <ele>73.2</ele>
        <time>2022-05-29T07:57:45Z</time>
      </trkpt>
      <trkpt lat="45.01144" lon="1.08912">
        <ele>72.9</ele>
        <time>2022-05-29T07:57:52Z</time>
      </trkpt>
      <trkpt lat="45.01167" lon="1.0892">
        <ele>72.7</ele>
        <time>2022-05-29T07:58:00Z</time>
      </trkpt>
      <trkpt lat="45.01188" lon="1.08928">
        <ele>72.6</ele>
        <time>2022-05-29T07:58:07Z</time>
      </trkpt>
      <trkpt lat="45.01208" lon="1.08938">
        <ele>72.6</ele>
        <time>2022-05-29T07:58:14Z</time>
      </trkpt>
      <trkpt lat="45.01232" lon="1.08949">
        <ele>72.7</ele>
        <time>2022-05-29T07:58:22Z</time>
      </trkpt>
      <trkpt lat="45.01244" lon="1.08952">
        <ele>72.7</ele>
        <time>2022-05-29T07:58:26Z</time>
      </trkpt>
      <trkpt lat="45.01265" lon="1.08954">
        <ele>72.7</ele>
        <time>2022-05-29T07:58:33Z</time>
      </trkpt>
      <trkpt lat="45.01287" lon="1.08955">
        <ele>72.7</ele>
        <time>2022-05-29T07:58:40Z</time>
      </trkpt>
      <trkpt lat="45.01306" lon="1.08956">
        <ele>72.7</ele>
        <time>2022-05-29T07:58:46Z</time>
      </trkpt>
      <trkpt lat="45.01313" lon="1.08956">
        <ele>72.7</ele>
        <time>2022-05-29T07:58:49Z</time>
      </trkpt>
      <trkpt lat="45.0133" lon="1.08957">
        <ele>72.7</ele>
        <time>2022-05-29T07:58:54Z</time>
      </trkpt>
      <trkpt lat="45.01354" lon="1.08962">
        <ele>72.6</ele>
        <time>2022-05-29T07:59:01Z</time>
      </trkpt>
      <trkpt lat="45.01369" lon="1.08967">
        <ele>72.6</ele>
        <time>2022-05-29T07:59:06Z</time>
      </trkpt>
      <trkpt lat="45.01382" lon="1.0897">
        <ele>72.6</ele>
        <time>2022-05-29T07:59:10Z</time>
      </trkpt>
      <trkpt lat="45.01413" lon="1.0898">
        <ele>72.7</ele>
        <time>2022-05-29T07:59:19Z</time>
      </trkpt>
      <trkpt lat="45.01437" lon="1.08994">
        <ele>73.1</ele>
        <time>2022-05-29T07:59:27Z</time>
      </trkpt>
      <trkpt lat="45.01459" lon="1.09006">
        <ele>73.5</ele>
        <time>2022-05-29T07:59:34Z</time>
      </trkpt>
      <trkpt lat="45.0147" lon="1.09015">
        <ele>73.7</ele>
        <time>2022-05-29T07:59:38Z</time>
      </trkpt>
      <trkpt lat="45.01489" lon="1.09034">
        <ele>74.4</ele>
        <time>2022-05-29T07:59:45Z</time>
      </trkpt>
      <trkpt lat="45.01509" lon="1.09052">
        <ele>75.1</ele>
        <time>2022-05-29T07:59:52Z</time>
      </trkpt>
      <trkpt lat="45.0153" lon="1.09074">
        <ele>76</ele>
        <time>2022-05-29T08:00:00Z</time>
      </trkpt>
      <trkpt lat="45.01548" lon="1.09092">
        <ele>77.1</ele>
        <time>2022-05-29T08:00:07Z</time>
      </trkpt>
      <trkpt lat="45.01561" lon="1.09104">
        <ele>78</ele>
        <time>2022-05-29T08:00:12Z</time>
      </trkpt>
      <trkpt lat="45.01575" lon="1.09118">
        <ele>79.1</ele>
        <time>2022-05-29T08:00:18Z</time>
      </trkpt>
      <trkpt lat="45.01587" lon="1.0913">
        <ele>80.1</ele>
        <time>2022-05-29T08:00:25Z</time>
      </trkpt>
      <trkpt lat="45.01589" lon="1.09133">
        <ele>80.2</ele>
        <time>2022-05-29T08:00:27Z</time>
      </trkpt>
      <trkpt lat="45.01594" lon="1.09137">
        <ele>80.6</ele>
        <time>2022-05-29T08:00:30Z</time>
      </trkpt>
      <trkpt lat="45.01605" lon="1.09146">
        <ele>81.1</ele>
        <time>2022-05-29T08:00:36Z</time>
      </trkpt>
      <trkpt lat="45.01618" lon="1.09157">
        <ele>81.9</ele>
        <time>2022-05-29T08:00:43Z</time>
      </trkpt>
      <trkpt lat="45.0162" lon="1.09158">
        <ele>81.9</ele>
        <time>2022-05-29T08:00:44Z</time>
      </trkpt>
      <trkpt lat="45.01622" lon="1.09169">
        <ele>82.8</ele>
        <time>2022-05-29T08:00:49Z</time>
      </trkpt>
      <trkpt lat="45.01617" lon="1.09183">
        <ele>83.8</ele>
        <time>2022-05-29T08:00:56Z</time>
      </trkpt>
      <trkpt lat="45.0161" lon="1.09198">
        <ele>84.9</ele>
        <time>2022-05-29T08:01:04Z</time>
      </trkpt>
      <trkpt lat="45.01603" lon="1.09209">
        <ele>86.1</ele>
        <time>2022-05-29T08:01:11Z</time>
      </trkpt>
      <trkpt lat="45.01593" lon="1.09217">
        <ele>88</ele>
        <time>2022-05-29T08:01:18Z</time>
      </trkpt>
      <trkpt lat="45.01588" lon="1.09224">
        <ele>89.2</ele>
        <time>2022-05-29T08:01:23Z</time>
      </trkpt>
      <trkpt lat="45.01587" lon="1.09228">
        <ele>89.9</ele>
        <time>2022-05-29T08:01:25Z</time>
      </trkpt>
      <trkpt lat="45.01586" lon="1.09232">
        <ele>90.4</ele>
        <time>2022-05-29T08:01:27Z</time>
      </trkpt>
      <trkpt lat="45.01586" lon="1.09236">
        <ele>91</ele>
        <time>2022-05-29T08:01:30Z</time>
      </trkpt>
      <trkpt lat="45.01587" lon="1.09245">
        <ele>92.2</ele>
        <time>2022-05-29T08:01:35Z</time>
      </trkpt>
      <trkpt lat="45.01588" lon="1.09249">
        <ele>92.8</ele>
        <time>2022-05-29T08:01:37Z</time>
      </trkpt>
      <trkpt lat="45.01588" lon="1.09253">
        <ele>93.3</ele>
        <time>2022-05-29T08:01:39Z</time>
      </trkpt>
      <trkpt lat="45.01587" lon="1.09257">
        <ele>93.9</ele>
        <time>2022-05-29T08:01:41Z</time>
      </trkpt>
      <trkpt lat="45.01587" lon="1.09263">
        <ele>94.6</ele>
        <time>2022-05-29T08:01:44Z</time>
      </trkpt>
      <trkpt lat="45.01586" lon="1.09271">
        <ele>95.4</ele>
        <time>2022-05-29T08:01:48Z</time>
      </trkpt>
      <trkpt lat="45.01586" lon="1.09277">
        <ele>95.9</ele>
        <time>2022-05-29T08:01:51Z</time>
      </trkpt>
      <trkpt lat="45.01585" lon="1.09281">
        <ele>96.3</ele>
        <time>2022-05-29T08:01:53Z</time>
      </trkpt>
      <trkpt lat="45.01585" lon="1.09283">
        <ele>96.4</ele>
        <time>2022-05-29T08:01:54Z</time>
      </trkpt>
      <trkpt lat="45.01583" lon="1.09292">
        <ele>97.2</ele>
        <time>2022-05-29T08:01:59Z</time>
      </trkpt>
      <trkpt lat="45.01583" lon="1.09295">
        <ele>97.5</ele>
        <time>2022-05-29T08:02:01Z</time>
      </trkpt>
      <trkpt lat="45.01582" lon="1.09301">
        <ele>98.1</ele>
        <time>2022-05-29T08:02:04Z</time>
      </trkpt>
      <trkpt lat="45.0158" lon="1.09311">
        <ele>99</ele>
        <time>2022-05-29T08:02:10Z</time>
      </trkpt>
      <trkpt lat="45.01579" lon="1.0932">
        <ele>99.9</ele>
        <time>2022-05-29T08:02:16Z</time>
      </trkpt>
      <trkpt lat="45.01578" lon="1.09324">
        <ele>100.2</ele>
        <time>2022-05-29T08:02:18Z</time>
      </trkpt>
      <trkpt lat="45.01577" lon="1.09329">
        <ele>100.7</ele>
        <time>2022-05-29T08:02:21Z</time>
      </trkpt>
      <trkpt lat="45.01576" lon="1.09335">
        <ele>101.2</ele>
        <time>2022-05-29T08:02:25Z</time>
      </trkpt>
      <trkpt lat="45.01576" lon="1.09335">
        <ele>101.2</ele>
        <time>2022-05-29T08:02:26Z</time>
      </trkpt>
      <trkpt lat="45.01573" lon="1.09351">
        <ele>102.5</ele>
        <time>2022-05-29T08:04:20Z</time>
      </trkpt>
      <trkpt lat="45.01573" lon="1.09354">
        <ele>102.8</ele>
        <time>2022-05-29T08:04:22Z</time>
      </trkpt>
      <trkpt lat="45.01542" lon="1.09352">
        <ele>105.3</ele>
        <time>2022-05-29T08:04:29Z</time>
      </trkpt>
      <trkpt lat="45.01533" lon="1.09359">
        <ele>105.9</ele>
        <time>2022-05-29T08:04:36Z</time>
      </trkpt>
      <trkpt lat="45.01526" lon="1.09367">
        <ele>106.7</ele>
        <time>2022-05-29T08:04:42Z</time>
      </trkpt>
      <trkpt lat="45.01516" lon="1.09378">
        <ele>108.1</ele>
        <time>2022-05-29T08:04:49Z</time>
      </trkpt>
      <trkpt lat="45.01514" lon="1.09381">
        <ele>108.6</ele>
        <time>2022-05-29T08:04:51Z</time>
      </trkpt>
      <trkpt lat="45.01511" lon="1.09387">
        <ele>109.5</ele>
        <time>2022-05-29T08:04:54Z</time>
      </trkpt>
      <trkpt lat="45.01504" lon="1.09398">
        <ele>111.6</ele>
        <time>2022-05-29T08:05:00Z</time>
      </trkpt>
      <trkpt lat="45.01504" lon="1.09406">
        <ele>113</ele>
        <time>2022-05-29T08:05:04Z</time>
      </trkpt>
      <trkpt lat="45.01504" lon="1.09409">
        <ele>113.7</ele>
        <time>2022-05-29T08:05:06Z</time>
      </trkpt>
      <trkpt lat="45.01505" lon="1.09412">
        <ele>114.2</ele>
        <time>2022-05-29T08:05:08Z</time>
      </trkpt>
      <trkpt lat="45.01507" lon="1.09415">
        <ele>114.9</ele>
        <time>2022-05-29T08:05:10Z</time>
      </trkpt>
      <trkpt lat="45.01509" lon="1.09422">
        <ele>116.1</ele>
        <time>2022-05-29T08:05:15Z</time>
      </trkpt>
      <trkpt lat="45.01508" lon="1.09427">
        <ele>117.1</ele>
        <time>2022-05-29T08:05:19Z</time>
      </trkpt>
      <trkpt lat="45.01507" lon="1.09428">
        <ele>117.2</ele>
        <time>2022-05-29T08:05:20Z</time>
      </trkpt>
      <trkpt lat="45.01507" lon="1.0943">
        <ele>117.6</ele>
        <time>2022-05-29T08:05:21Z</time>
      </trkpt>
      <trkpt lat="45.01503" lon="1.09435">
        <ele>118.6</ele>
        <time>2022-05-29T08:05:24Z</time>
      </trkpt>
      <trkpt lat="45.01499" lon="1.09445">
        <ele>120.1</ele>
        <time>2022-05-29T08:05:29Z</time>
      </trkpt>
      <trkpt lat="45.01497" lon="1.09452">
        <ele>121.3</ele>
        <time>2022-05-29T08:05:34Z</time>
      </trkpt>
      <trkpt lat="45.01484" lon="1.09491">
        <ele>126.3</ele>
        <time>2022-05-29T08:06:07Z</time>
      </trkpt>
      <trkpt lat="45.01484" lon="1.09496">
        <ele>126.8</ele>
        <time>2022-05-29T08:06:10Z</time>
      </trkpt>
      <trkpt lat="45.01484" lon="1.09507">
        <ele>127.7</ele>
        <time>2022-05-29T08:06:16Z</time>
      </trkpt>
      <trkpt lat="45.01489" lon="1.09517">
        <ele>129</ele>
        <time>2022-05-29T08:06:23Z</time>
      </trkpt>
      <trkpt lat="45.01492" lon="1.0952">
        <ele>129</ele>
        <time>2022-05-29T08:06:26Z</time>
      </trkpt>
      <trkpt lat="45.0165" lon="1.09648">
        <ele>160.2</ele>
        <time>2022-05-29T08:10:43Z</time>
      </trkpt>
      <trkpt lat="45.01652" lon="1.0965">
        <ele>160.4</ele>
        <time>2022-05-29T08:10:46Z</time>
      </trkpt>
      <trkpt lat="45.01663" lon="1.09666">
        <ele>162.2</ele>
        <time>2022-05-29T08:11:00Z</time>
      </trkpt>
      <trkpt lat="45.01664" lon="1.09668">
        <ele>162.5</ele>
        <time>2022-05-29T08:11:02Z</time>
      </trkpt>
      <trkpt lat="45.01665" lon="1.09669">
        <ele>162.6</ele>
        <time>2022-05-29T08:11:03Z</time>
      </trkpt>
      <trkpt lat="45.01669" lon="1.09674">
        <ele>163.3</ele>
        <time>2022-05-29T08:11:08Z</time>
      </trkpt>
      <trkpt lat="45.01673" lon="1.09681">
        <ele>164.2</ele>
        <time>2022-05-29T08:11:14Z</time>
      </trkpt>
      <trkpt lat="45.01731" lon="1.09701">
        <ele>174</ele>
        <time>2022-05-29T08:12:24Z</time>
      </trkpt>
      <trkpt lat="45.01732" lon="1.09699">
        <ele>174.1</ele>
        <time>2022-05-29T08:12:25Z</time>
      </trkpt>
      <trkpt lat="45.01736" lon="1.09696">
        <ele>174.4</ele>
        <time>2022-05-29T08:12:28Z</time>
      </trkpt>
      <trkpt lat="45.01741" lon="1.09692">
        <ele>174.7</ele>
        <time>2022-05-29T08:12:33Z</time>
      </trkpt>
      <trkpt lat="45.01759" lon="1.0968">
        <ele>176.1</ele>
        <time>2022-05-29T08:12:45Z</time>
      </trkpt>
      <trkpt lat="45.01763" lon="1.09678">
        <ele>176.3</ele>
        <time>2022-05-29T08:12:48Z</time>
      </trkpt>
      <trkpt lat="45.01764" lon="1.09677">
        <ele>176.5</ele>
        <time>2022-05-29T08:12:49Z</time>
      </trkpt>
      <trkpt lat="45.01771" lon="1.09675">
        <ele>176.9</ele>
        <time>2022-05-29T08:12:54Z</time>
      </trkpt>
      <trkpt lat="45.01778" lon="1.09672">
        <ele>177.2</ele>
        <time>2022-05-29T08:12:59Z</time>
      </trkpt>
      <trkpt lat="45.01787" lon="1.09672">
        <ele>177.5</ele>
        <time>2022-05-29T08:13:05Z</time>
      </trkpt>
      <trkpt lat="45.01794" lon="1.09671">
        <ele>177.7</ele>
        <time>2022-05-29T08:13:09Z</time>
      </trkpt>
      <trkpt lat="45.01804" lon="1.0967">
        <ele>177.8</ele>
        <time>2022-05-29T08:13:14Z</time>
      </trkpt>
      <trkpt lat="45.01818" lon="1.09673">
        <ele>177.8</ele>
        <time>2022-05-29T08:13:20Z</time>
      </trkpt>
      <trkpt lat="45.01833" lon="1.09676">
        <ele>177.8</ele>
        <time>2022-05-29T08:13:26Z</time>
      </trkpt>
      <trkpt lat="45.01853" lon="1.0968">
        <ele>177.5</ele>
        <time>2022-05-29T08:13:34Z</time>
      </trkpt>
      <trkpt lat="45.01875" lon="1.09684">
        <ele>177.1</ele>
        <time>2022-05-29T08:13:42Z</time>
      </trkpt>
      <trkpt lat="45.01894" lon="1.09685">
        <ele>176.6</ele>
        <time>2022-05-29T08:13:48Z</time>
      </trkpt>
      <trkpt lat="45.01925" lon="1.09683">
        <ele>175.6</ele>
        <time>2022-05-29T08:13:57Z</time>
      </trkpt>
      <trkpt lat="45.01949" lon="1.09688">
        <ele>175.2</ele>
        <time>2022-05-29T08:14:04Z</time>
      </trkpt>
      <trkpt lat="45.01971" lon="1.09693">
        <ele>175.1</ele>
        <time>2022-05-29T08:14:11Z</time>
      </trkpt>
      <trkpt lat="45.01996" lon="1.09696">
        <ele>175.3</ele>
        <time>2022-05-29T08:14:19Z</time>
      </trkpt>
      <trkpt lat="45.02018" lon="1.09699">
        <ele>175.9</ele>
        <time>2022-05-29T08:14:26Z</time>
      </trkpt>
      <trkpt lat="45.0204" lon="1.09701">
        <ele>176.7</ele>
        <time>2022-05-29T08:14:33Z</time>
      </trkpt>
      <trkpt lat="45.02062" lon="1.09703">
        <ele>177.9</ele>
        <time>2022-05-29T08:14:40Z</time>
      </trkpt>
      <trkpt lat="45.02085" lon="1.09706">
        <ele>179.5</ele>
        <time>2022-05-29T08:14:48Z</time>
      </trkpt>
      <trkpt lat="45.02102" lon="1.09708">
        <ele>180.9</ele>
        <time>2022-05-29T08:14:54Z</time>
      </trkpt>
      <trkpt lat="45.02119" lon="1.09703">
        <ele>182.5</ele>
        <time>2022-05-29T08:15:02Z</time>
      </trkpt>
      <trkpt lat="45.02132" lon="1.097">
        <ele>183.5</ele>
        <time>2022-05-29T08:15:08Z</time>
      </trkpt>
      <trkpt lat="45.02145" lon="1.09697">
        <ele>184.6</ele>
        <time>2022-05-29T08:15:14Z</time>
      </trkpt>
      <trkpt lat="45.02153" lon="1.09695">
        <ele>185.3</ele>
        <time>2022-05-29T08:15:18Z</time>
      </trkpt>
      <trkpt lat="45.02164" lon="1.09693">
        <ele>186.4</ele>
        <time>2022-05-29T08:15:24Z</time>
      </trkpt>
      <trkpt lat="45.02177" lon="1.09691">
        <ele>187.9</ele>
        <time>2022-05-29T08:15:32Z</time>
      </trkpt>
      <trkpt lat="45.0219" lon="1.0969">
        <ele>190</ele>
        <time>2022-05-29T08:15:41Z</time>
      </trkpt>
      <trkpt lat="45.02203" lon="1.0969">
        <ele>192.4</ele>
        <time>2022-05-29T08:15:50Z</time>
      </trkpt>
      <trkpt lat="45.02216" lon="1.09688">
        <ele>194.7</ele>
        <time>2022-05-29T08:15:59Z</time>
      </trkpt>
      <trkpt lat="45.02226" lon="1.09687">
        <ele>196.4</ele>
        <time>2022-05-29T08:16:06Z</time>
      </trkpt>
      <trkpt lat="45.02236" lon="1.09686">
        <ele>198.3</ele>
        <time>2022-05-29T08:16:13Z</time>
      </trkpt>
      <trkpt lat="45.02244" lon="1.09683">
        <ele>200</ele>
        <time>2022-05-29T08:16:20Z</time>
      </trkpt>
      <trkpt lat="45.02253" lon="1.09673">
        <ele>202.4</ele>
        <time>2022-05-29T08:16:29Z</time>
      </trkpt>
      <trkpt lat="45.02258" lon="1.09667">
        <ele>203.5</ele>
        <time>2022-05-29T08:16:34Z</time>
      </trkpt>
      <trkpt lat="45.02265" lon="1.09659">
        <ele>205.2</ele>
        <time>2022-05-29T08:16:42Z</time>
      </trkpt>
      <trkpt lat="45.02271" lon="1.09651">
        <ele>206.5</ele>
        <time>2022-05-29T08:16:48Z</time>
      </trkpt>
      <trkpt lat="45.02272" lon="1.0965">
        <ele>206.7</ele>
        <time>2022-05-29T08:16:49Z</time>
      </trkpt>
      <trkpt lat="45.02274" lon="1.09646">
        <ele>207</ele>
        <time>2022-05-29T08:16:52Z</time>
      </trkpt>
      <trkpt lat="45.0228" lon="1.09637">
        <ele>207.8</ele>
        <time>2022-05-29T08:16:58Z</time>
      </trkpt>
      <trkpt lat="45.02286" lon="1.09628">
        <ele>208.4</ele>
        <time>2022-05-29T08:17:04Z</time>
      </trkpt>
      <trkpt lat="45.02293" lon="1.09617">
        <ele>209</ele>
        <time>2022-05-29T08:17:11Z</time>
      </trkpt>
      <trkpt lat="45.02295" lon="1.09611">
        <ele>209.1</ele>
        <time>2022-05-29T08:17:14Z</time>
      </trkpt>
      <trkpt lat="45.02298" lon="1.09606">
        <ele>209.1</ele>
        <time>2022-05-29T08:17:17Z</time>
      </trkpt>
      <trkpt lat="45.02303" lon="1.09594">
        <ele>209.1</ele>
        <time>2022-05-29T08:17:23Z</time>
      </trkpt>
      <trkpt lat="45.02305" lon="1.09591">
        <ele>209.1</ele>
        <time>2022-05-29T08:17:25Z</time>
      </trkpt>
      <trkpt lat="45.02307" lon="1.09587">
        <ele>209.1</ele>
        <time>2022-05-29T08:17:27Z</time>
      </trkpt>
      <trkpt lat="45.02314" lon="1.09572">
        <ele>209</ele>
        <time>2022-05-29T08:17:34Z</time>
      </trkpt>
      <trkpt lat="45.02318" lon="1.09563">
        <ele>208.9</ele>
        <time>2022-05-29T08:17:38Z</time>
      </trkpt>
      <trkpt lat="45.0232" lon="1.09559">
        <ele>208.8</ele>
        <time>2022-05-29T08:17:40Z</time>
      </trkpt>
      <trkpt lat="45.02321" lon="1.09556">
        <ele>208.8</ele>
        <time>2022-05-29T08:17:41Z</time>
      </trkpt>
      <trkpt lat="45.02324" lon="1.09551">
        <ele>208.6</ele>
        <time>2022-05-29T08:17:43Z</time>
      </trkpt>
      <trkpt lat="45.0233" lon="1.09537">
        <ele>208.2</ele>
        <time>2022-05-29T08:17:47Z</time>
      </trkpt>
      <trkpt lat="45.02341" lon="1.09514">
        <ele>207.2</ele>
        <time>2022-05-29T08:17:52Z</time>
      </trkpt>
      <trkpt lat="45.02346" lon="1.09504">
        <ele>206.5</ele>
        <time>2022-05-29T08:17:54Z</time>
      </trkpt>
      <trkpt lat="45.02349" lon="1.09497">
        <ele>206.1</ele>
        <time>2022-05-29T08:17:55Z</time>
      </trkpt>
      <trkpt lat="45.02356" lon="1.09483">
        <ele>205</ele>
        <time>2022-05-29T08:17:57Z</time>
      </trkpt>
      <trkpt lat="45.02366" lon="1.0946">
        <ele>203.6</ele>
        <time>2022-05-29T08:18:00Z</time>
      </trkpt>
      <trkpt lat="45.02382" lon="1.09428">
        <ele>201.5</ele>
        <time>2022-05-29T08:18:04Z</time>
      </trkpt>
      <trkpt lat="45.02402" lon="1.09384">
        <ele>199.2</ele>
        <time>2022-05-29T08:18:09Z</time>
      </trkpt>
      <trkpt lat="45.0242" lon="1.09357">
        <ele>199</ele>
        <time>2022-05-29T08:18:13Z</time>
      </trkpt>
      <trkpt lat="45.02436" lon="1.09337">
        <ele>199.3</ele>
        <time>2022-05-29T08:18:17Z</time>
      </trkpt>
      <trkpt lat="45.02443" lon="1.09328">
        <ele>199.5</ele>
        <time>2022-05-29T08:18:19Z</time>
      </trkpt>
      <trkpt lat="45.02446" lon="1.09324">
        <ele>199.6</ele>
        <time>2022-05-29T08:18:20Z</time>
      </trkpt>
      <trkpt lat="45.02449" lon="1.0932">
        <ele>199.7</ele>
        <time>2022-05-29T08:18:21Z</time>
      </trkpt>
      <trkpt lat="45.02456" lon="1.09312">
        <ele>200</ele>
        <time>2022-05-29T08:18:23Z</time>
      </trkpt>
      <trkpt lat="45.02459" lon="1.09309">
        <ele>200.1</ele>
        <time>2022-05-29T08:18:24Z</time>
      </trkpt>
      <trkpt lat="45.02469" lon="1.09296">
        <ele>200.4</ele>
        <time>2022-05-29T08:18:27Z</time>
      </trkpt>
      <trkpt lat="45.02484" lon="1.09278">
        <ele>200.9</ele>
        <time>2022-05-29T08:18:31Z</time>
      </trkpt>
      <trkpt lat="45.02498" lon="1.0926">
        <ele>201.4</ele>
        <time>2022-05-29T08:18:35Z</time>
      </trkpt>
      <trkpt lat="45.02516" lon="1.09238">
        <ele>201.7</ele>
        <time>2022-05-29T08:18:40Z</time>
      </trkpt>
      <trkpt lat="45.02532" lon="1.09219">
        <ele>202</ele>
        <time>2022-05-29T08:18:45Z</time>
      </trkpt>
      <trkpt lat="45.02541" lon="1.09207">
        <ele>202.2</ele>
        <time>2022-05-29T08:18:48Z</time>
      </trkpt>
      <trkpt lat="45.02544" lon="1.09203">
        <ele>202.3</ele>
        <time>2022-05-29T08:18:49Z</time>
      </trkpt>
      <trkpt lat="45.02559" lon="1.0919">
        <ele>202.9</ele>
        <time>2022-05-29T08:18:54Z</time>
      </trkpt>
      <trkpt lat="45.02568" lon="1.09186">
        <ele>203.3</ele>
        <time>2022-05-29T08:18:57Z</time>
      </trkpt>
      <trkpt lat="45.02573" lon="1.09185">
        <ele>203.6</ele>
        <time>2022-05-29T08:18:58Z</time>
      </trkpt>
      <trkpt lat="45.02583" lon="1.0918">
        <ele>204.3</ele>
        <time>2022-05-29T08:19:01Z</time>
      </trkpt>
      <trkpt lat="45.02597" lon="1.09175">
        <ele>205.2</ele>
        <time>2022-05-29T08:19:05Z</time>
      </trkpt>
      <trkpt lat="45.02616" lon="1.09171">
        <ele>206.1</ele>
        <time>2022-05-29T08:19:10Z</time>
      </trkpt>
      <trkpt lat="45.02636" lon="1.09168">
        <ele>206.8</ele>
        <time>2022-05-29T08:19:15Z</time>
      </trkpt>
      <trkpt lat="45.02652" lon="1.09166">
        <ele>207.3</ele>
        <time>2022-05-29T08:19:20Z</time>
      </trkpt>
      <trkpt lat="45.02673" lon="1.09163">
        <ele>208</ele>
        <time>2022-05-29T08:19:25Z</time>
      </trkpt>
      <trkpt lat="45.02687" lon="1.09156">
        <ele>208.3</ele>
        <time>2022-05-29T08:19:30Z</time>
      </trkpt>
      <trkpt lat="45.02708" lon="1.0914">
        <ele>208.4</ele>
        <time>2022-05-29T08:19:37Z</time>
      </trkpt>
      <trkpt lat="45.02722" lon="1.0913">
        <ele>208.5</ele>
        <time>2022-05-29T08:19:42Z</time>
      </trkpt>
      <trkpt lat="45.02741" lon="1.09115">
        <ele>208.8</ele>
        <time>2022-05-29T08:19:49Z</time>
      </trkpt>
      <trkpt lat="45.02756" lon="1.09104">
        <ele>209.1</ele>
        <time>2022-05-29T08:19:54Z</time>
      </trkpt>
      <trkpt lat="45.02784" lon="1.09091">
        <ele>209.8</ele>
        <time>2022-05-29T08:20:01Z</time>
      </trkpt>
      <trkpt lat="45.02802" lon="1.09097">
        <ele>210.4</ele>
        <time>2022-05-29T08:20:06Z</time>
      </trkpt>
      <trkpt lat="45.02814" lon="1.09101">
        <ele>210.9</ele>
        <time>2022-05-29T08:20:11Z</time>
      </trkpt>
      <trkpt lat="45.02834" lon="1.09103">
        <ele>212</ele>
        <time>2022-05-29T08:20:17Z</time>
      </trkpt>
      <trkpt lat="45.02847" lon="1.09094">
        <ele>213.1</ele>
        <time>2022-05-29T08:20:22Z</time>
      </trkpt>
      <trkpt lat="45.02855" lon="1.09088">
        <ele>213.8</ele>
        <time>2022-05-29T08:20:25Z</time>
      </trkpt>
      <trkpt lat="45.02866" lon="1.0908">
        <ele>214.8</ele>
        <time>2022-05-29T08:20:30Z</time>
      </trkpt>
      <trkpt lat="45.02881" lon="1.09077">
        <ele>215.9</ele>
        <time>2022-05-29T08:20:36Z</time>
      </trkpt>
      <trkpt lat="45.02884" lon="1.09077">
        <ele>216.1</ele>
        <time>2022-05-29T08:20:37Z</time>
      </trkpt>
      <trkpt lat="45.02891" lon="1.09077">
        <ele>216.6</ele>
        <time>2022-05-29T08:20:39Z</time>
      </trkpt>
      <trkpt lat="45.02902" lon="1.09076">
        <ele>217.4</ele>
        <time>2022-05-29T08:20:44Z</time>
      </trkpt>
      <trkpt lat="45.02913" lon="1.09075">
        <ele>218.1</ele>
        <time>2022-05-29T08:20:48Z</time>
      </trkpt>
      <trkpt lat="45.02923" lon="1.09075">
        <ele>218.6</ele>
        <time>2022-05-29T08:20:53Z</time>
      </trkpt>
      <trkpt lat="45.02939" lon="1.09074">
        <ele>219.4</ele>
        <time>2022-05-29T08:20:58Z</time>
      </trkpt>
      <trkpt lat="45.02951" lon="1.09073">
        <ele>219.9</ele>
        <time>2022-05-29T08:21:03Z</time>
      </trkpt>
      <trkpt lat="45.02964" lon="1.09072">
        <ele>220.3</ele>
        <time>2022-05-29T08:21:07Z</time>
      </trkpt>
      <trkpt lat="45.02982" lon="1.09069">
        <ele>220.7</ele>
        <time>2022-05-29T08:21:13Z</time>
      </trkpt>
      <trkpt lat="45.03002" lon="1.09059">
        <ele>220.6</ele>
        <time>2022-05-29T08:21:20Z</time>
      </trkpt>
      <trkpt lat="45.03016" lon="1.0905">
        <ele>220.4</ele>
        <time>2022-05-29T08:21:25Z</time>
      </trkpt>
      <trkpt lat="45.03036" lon="1.09037">
        <ele>220</ele>
        <time>2022-05-29T08:21:32Z</time>
      </trkpt>
      <trkpt lat="45.03056" lon="1.09018">
        <ele>218.8</ele>
        <time>2022-05-29T08:21:39Z</time>
      </trkpt>
      <trkpt lat="45.03067" lon="1.09003">
        <ele>218</ele>
        <time>2022-05-29T08:21:44Z</time>
      </trkpt>
      <trkpt lat="45.03068" lon="1.09002">
        <ele>217.9</ele>
        <time>2022-05-29T08:21:45Z</time>
      </trkpt>
      <trkpt lat="45.03072" lon="1.08993">
        <ele>217.6</ele>
        <time>2022-05-29T08:21:48Z</time>
      </trkpt>
      <trkpt lat="45.03065" lon="1.08977">
        <ele>217.5</ele>
        <time>2022-05-29T08:21:53Z</time>
      </trkpt>
      <trkpt lat="45.03053" lon="1.08944">
        <ele>217.5</ele>
        <time>2022-05-29T08:22:01Z</time>
      </trkpt>
      <trkpt lat="45.03047" lon="1.08925">
        <ele>217.5</ele>
        <time>2022-05-29T08:22:06Z</time>
      </trkpt>
      <trkpt lat="45.03045" lon="1.08921">
        <ele>217.5</ele>
        <time>2022-05-29T08:22:07Z</time>
      </trkpt>
      <trkpt lat="45.03045" lon="1.08919">
        <ele>217.5</ele>
        <time>2022-05-29T08:22:08Z</time>
      </trkpt>
      <trkpt lat="45.03052" lon="1.08912">
        <ele>216.6</ele>
        <time>2022-05-29T08:22:10Z</time>
      </trkpt>
      <trkpt lat="45.03068" lon="1.0891">
        <ele>214.9</ele>
        <time>2022-05-29T08:22:15Z</time>
      </trkpt>
      <trkpt lat="45.03085" lon="1.08909">
        <ele>213.2</ele>
        <time>2022-05-29T08:22:20Z</time>
      </trkpt>
      <trkpt lat="45.03096" lon="1.08908">
        <ele>212</ele>
        <time>2022-05-29T08:22:24Z</time>
      </trkpt>
      <trkpt lat="45.03099" lon="1.08907">
        <ele>211.7</ele>
        <time>2022-05-29T08:22:25Z</time>
      </trkpt>
      <trkpt lat="45.0311" lon="1.08918">
        <ele>210.4</ele>
        <time>2022-05-29T08:22:27Z</time>
      </trkpt>
      <trkpt lat="45.03115" lon="1.08929">
        <ele>210.7</ele>
        <time>2022-05-29T08:22:29Z</time>
      </trkpt>
      <trkpt lat="45.03117" lon="1.08934">
        <ele>210.6</ele>
        <time>2022-05-29T08:22:30Z</time>
      </trkpt>
      <trkpt lat="45.03126" lon="1.08941">
        <ele>210.1</ele>
        <time>2022-05-29T08:22:32Z</time>
      </trkpt>
      <trkpt lat="45.03131" lon="1.08941">
        <ele>210</ele>
        <time>2022-05-29T08:22:33Z</time>
      </trkpt>
      <trkpt lat="45.03144" lon="1.08946">
        <ele>209</ele>
        <time>2022-05-29T08:22:35Z</time>
      </trkpt>
      <trkpt lat="45.03149" lon="1.08949">
        <ele>208.1</ele>
        <time>2022-05-29T08:22:36Z</time>
      </trkpt>
      <trkpt lat="45.03159" lon="1.08957">
        <ele>207.7</ele>
        <time>2022-05-29T08:22:38Z</time>
      </trkpt>
      <trkpt lat="45.03172" lon="1.08963">
        <ele>206.6</ele>
        <time>2022-05-29T08:22:40Z</time>
      </trkpt>
      <trkpt lat="45.0319" lon="1.08968">
        <ele>205.7</ele>
        <time>2022-05-29T08:22:42Z</time>
      </trkpt>
      <trkpt lat="45.03209" lon="1.08969">
        <ele>203.6</ele>
        <time>2022-05-29T08:22:44Z</time>
      </trkpt>
      <trkpt lat="45.03258" lon="1.08965">
        <ele>199.2</ele>
        <time>2022-05-29T08:22:49Z</time>
      </trkpt>
      <trkpt lat="45.03297" lon="1.08956">
        <ele>196.6</ele>
        <time>2022-05-29T08:22:53Z</time>
      </trkpt>
      <trkpt lat="45.03306" lon="1.08951">
        <ele>194.5</ele>
        <time>2022-05-29T08:22:54Z</time>
      </trkpt>
      <trkpt lat="45.03321" lon="1.08946">
        <ele>193.2</ele>
        <time>2022-05-29T08:22:56Z</time>
      </trkpt>
      <trkpt lat="45.03333" lon="1.08947">
        <ele>191.9</ele>
        <time>2022-05-29T08:22:58Z</time>
      </trkpt>
      <trkpt lat="45.03338" lon="1.0895">
        <ele>191.9</ele>
        <time>2022-05-29T08:22:59Z</time>
      </trkpt>
      <trkpt lat="45.03351" lon="1.08958">
        <ele>190.7</ele>
        <time>2022-05-29T08:23:03Z</time>
      </trkpt>
      <trkpt lat="45.03353" lon="1.08961">
        <ele>190.6</ele>
        <time>2022-05-29T08:23:04Z</time>
      </trkpt>
      <trkpt lat="45.03353" lon="1.08962">
        <ele>190.6</ele>
        <time>2022-05-29T08:23:06Z</time>
      </trkpt>
      <trkpt lat="45.03384" lon="1.08972">
        <ele>189.5</ele>
        <time>2022-05-29T08:23:15Z</time>
      </trkpt>
      <trkpt lat="45.03395" lon="1.08981">
        <ele>188.1</ele>
        <time>2022-05-29T08:23:20Z</time>
      </trkpt>
      <trkpt lat="45.03419" lon="1.08995">
        <ele>187.1</ele>
        <time>2022-05-29T08:23:24Z</time>
      </trkpt>
      <trkpt lat="45.03424" lon="1.08998">
        <ele>185.9</ele>
        <time>2022-05-29T08:23:25Z</time>
      </trkpt>
      <trkpt lat="45.03436" lon="1.09013">
        <ele>185.9</ele>
        <time>2022-05-29T08:23:28Z</time>
      </trkpt>
      <trkpt lat="45.03442" lon="1.09015">
        <ele>185.8</ele>
        <time>2022-05-29T08:23:30Z</time>
      </trkpt>
      <trkpt lat="45.03446" lon="1.09016">
        <ele>185.8</ele>
        <time>2022-05-29T08:23:31Z</time>
      </trkpt>
      <trkpt lat="45.03462" lon="1.08987">
        <ele>180.6</ele>
        <time>2022-05-29T08:23:33Z</time>
      </trkpt>
      <trkpt lat="45.03488" lon="1.08953">
        <ele>175.4</ele>
        <time>2022-05-29T08:23:38Z</time>
      </trkpt>
      <trkpt lat="45.03502" lon="1.08935">
        <ele>172.4</ele>
        <time>2022-05-29T08:23:41Z</time>
      </trkpt>
      <trkpt lat="45.03507" lon="1.08934">
        <ele>172.3</ele>
        <time>2022-05-29T08:23:42Z</time>
      </trkpt>
      <trkpt lat="45.03513" lon="1.08934">
        <ele>171</ele>
        <time>2022-05-29T08:23:43Z</time>
      </trkpt>
      <trkpt lat="45.03525" lon="1.08936">
        <ele>169.9</ele>
        <time>2022-05-29T08:23:45Z</time>
      </trkpt>
      <trkpt lat="45.0353" lon="1.08939">
        <ele>171.2</ele>
        <time>2022-05-29T08:23:46Z</time>
      </trkpt>
      <trkpt lat="45.0354" lon="1.08945">
        <ele>169.9</ele>
        <time>2022-05-29T08:23:48Z</time>
      </trkpt>
      <trkpt lat="45.03546" lon="1.0895">
        <ele>168.5</ele>
        <time>2022-05-29T08:23:50Z</time>
      </trkpt>
      <trkpt lat="45.03549" lon="1.08951">
        <ele>168.5</ele>
        <time>2022-05-29T08:23:51Z</time>
      </trkpt>
      <trkpt lat="45.03559" lon="1.08949">
        <ele>167</ele>
        <time>2022-05-29T08:23:53Z</time>
      </trkpt>
      <trkpt lat="45.03568" lon="1.08952">
        <ele>167</ele>
        <time>2022-05-29T08:23:55Z</time>
      </trkpt>
      <trkpt lat="45.03576" lon="1.08959">
        <ele>167.2</ele>
        <time>2022-05-29T08:23:57Z</time>
      </trkpt>
      <trkpt lat="45.03585" lon="1.08975">
        <ele>167.3</ele>
        <time>2022-05-29T08:24:01Z</time>
      </trkpt>
      <trkpt lat="45.03595" lon="1.08988">
        <ele>167</ele>
        <time>2022-05-29T08:24:05Z</time>
      </trkpt>
      <trkpt lat="45.03602" lon="1.09011">
        <ele>167.5</ele>
        <time>2022-05-29T08:24:11Z</time>
      </trkpt>
      <trkpt lat="45.03607" lon="1.09018">
        <ele>166.2</ele>
        <time>2022-05-29T08:24:13Z</time>
      </trkpt>
      <trkpt lat="45.03615" lon="1.0902">
        <ele>166.2</ele>
        <time>2022-05-29T08:24:15Z</time>
      </trkpt>
      <trkpt lat="45.03628" lon="1.09018">
        <ele>164.9</ele>
        <time>2022-05-29T08:24:18Z</time>
      </trkpt>
      <trkpt lat="45.03647" lon="1.09015">
        <ele>162.5</ele>
        <time>2022-05-29T08:24:21Z</time>
      </trkpt>
      <trkpt lat="45.03654" lon="1.09014">
        <ele>161.3</ele>
        <time>2022-05-29T08:24:22Z</time>
      </trkpt>
      <trkpt lat="45.03686" lon="1.09008">
        <ele>158.2</ele>
        <time>2022-05-29T08:24:27Z</time>
      </trkpt>
      <trkpt lat="45.03718" lon="1.09004">
        <ele>151.8</ele>
        <time>2022-05-29T08:24:32Z</time>
      </trkpt>
      <trkpt lat="45.03725" lon="1.09003">
        <ele>151.7</ele>
        <time>2022-05-29T08:24:33Z</time>
      </trkpt>
      <trkpt lat="45.03742" lon="1.08998">
        <ele>147.6</ele>
        <time>2022-05-29T08:24:36Z</time>
      </trkpt>
      <trkpt lat="45.03748" lon="1.09">
        <ele>147.5</ele>
        <time>2022-05-29T08:24:38Z</time>
      </trkpt>
      <trkpt lat="45.03749" lon="1.09005">
        <ele>148.1</ele>
        <time>2022-05-29T08:24:39Z</time>
      </trkpt>
      <trkpt lat="45.0375" lon="1.09018">
        <ele>148</ele>
        <time>2022-05-29T08:24:41Z</time>
      </trkpt>
      <trkpt lat="45.03748" lon="1.09031">
        <ele>148.3</ele>
        <time>2022-05-29T08:24:43Z</time>
      </trkpt>
      <trkpt lat="45.03745" lon="1.09046">
        <ele>148.5</ele>
        <time>2022-05-29T08:24:45Z</time>
      </trkpt>
      <trkpt lat="45.03745" lon="1.09061">
        <ele>148.7</ele>
        <time>2022-05-29T08:24:47Z</time>
      </trkpt>
      <trkpt lat="45.03748" lon="1.09078">
        <ele>148.4</ele>
        <time>2022-05-29T08:24:49Z</time>
      </trkpt>
      <trkpt lat="45.03751" lon="1.09085">
        <ele>145.7</ele>
        <time>2022-05-29T08:24:50Z</time>
      </trkpt>
      <trkpt lat="45.0376" lon="1.091">
        <ele>145.3</ele>
        <time>2022-05-29T08:24:52Z</time>
      </trkpt>
      <trkpt lat="45.03771" lon="1.09114">
        <ele>142.1</ele>
        <time>2022-05-29T08:24:54Z</time>
      </trkpt>
      <trkpt lat="45.03788" lon="1.09136">
        <ele>134.3</ele>
        <time>2022-05-29T08:24:57Z</time>
      </trkpt>
      <trkpt lat="45.03792" lon="1.09144">
        <ele>133.2</ele>
        <time>2022-05-29T08:24:58Z</time>
      </trkpt>
      <trkpt lat="45.03796" lon="1.09154">
        <ele>133.2</ele>
        <time>2022-05-29T08:24:59Z</time>
      </trkpt>
      <trkpt lat="45.03804" lon="1.09175">
        <ele>127.7</ele>
        <time>2022-05-29T08:25:01Z</time>
      </trkpt>
      <trkpt lat="45.03816" lon="1.09219">
        <ele>118.4</ele>
        <time>2022-05-29T08:25:05Z</time>
      </trkpt>
      <trkpt lat="45.03818" lon="1.09229">
        <ele>116.4</ele>
        <time>2022-05-29T08:25:06Z</time>
      </trkpt>
      <trkpt lat="45.03821" lon="1.09274">
        <ele>113.4</ele>
        <time>2022-05-29T08:25:10Z</time>
      </trkpt>
      <trkpt lat="45.03821" lon="1.09295">
        <ele>111.9</ele>
        <time>2022-05-29T08:25:12Z</time>
      </trkpt>
      <trkpt lat="45.0382" lon="1.09315">
        <ele>110.1</ele>
        <time>2022-05-29T08:25:14Z</time>
      </trkpt>
      <trkpt lat="45.0382" lon="1.09349">
        <ele>109.2</ele>
        <time>2022-05-29T08:25:17Z</time>
      </trkpt>
      <trkpt lat="45.03821" lon="1.0936">
        <ele>109.2</ele>
        <time>2022-05-29T08:25:18Z</time>
      </trkpt>
      <trkpt lat="45.03821" lon="1.0937">
        <ele>109.3</ele>
        <time>2022-05-29T08:25:19Z</time>
      </trkpt>
      <trkpt lat="45.03822" lon="1.09394">
        <ele>109.2</ele>
        <time>2022-05-29T08:25:21Z</time>
      </trkpt>
      <trkpt lat="45.03824" lon="1.09404">
        <ele>109.2</ele>
        <time>2022-05-29T08:25:22Z</time>
      </trkpt>
      <trkpt lat="45.03827" lon="1.09413">
        <ele>109.1</ele>
        <time>2022-05-29T08:25:23Z</time>
      </trkpt>
      <trkpt lat="45.03828" lon="1.09423">
        <ele>109</ele>
        <time>2022-05-29T08:25:24Z</time>
      </trkpt>
      <trkpt lat="45.03831" lon="1.09437">
        <ele>108.8</ele>
        <time>2022-05-29T08:25:26Z</time>
      </trkpt>
      <trkpt lat="45.03841" lon="1.09445">
        <ele>108.5</ele>
        <time>2022-05-29T08:25:29Z</time>
      </trkpt>
      <trkpt lat="45.0384" lon="1.09461">
        <ele>108</ele>
        <time>2022-05-29T08:25:33Z</time>
      </trkpt>
      <trkpt lat="45.03839" lon="1.09479">
        <ele>107.6</ele>
        <time>2022-05-29T08:25:37Z</time>
      </trkpt>
      <trkpt lat="45.03835" lon="1.09512">
        <ele>107.3</ele>
        <time>2022-05-29T08:25:43Z</time>
      </trkpt>
      <trkpt lat="45.0383" lon="1.0954">
        <ele>107.5</ele>
        <time>2022-05-29T08:25:49Z</time>
      </trkpt>
      <trkpt lat="45.03826" lon="1.09559">
        <ele>107.6</ele>
        <time>2022-05-29T08:25:54Z</time>
      </trkpt>
      <trkpt lat="45.03821" lon="1.09585">
        <ele>107.7</ele>
        <time>2022-05-29T08:26:00Z</time>
      </trkpt>
      <trkpt lat="45.03813" lon="1.09618">
        <ele>107.8</ele>
        <time>2022-05-29T08:26:08Z</time>
      </trkpt>
      <trkpt lat="45.03804" lon="1.09661">
        <ele>107.3</ele>
        <time>2022-05-29T08:26:16Z</time>
      </trkpt>
      <trkpt lat="45.03802" lon="1.09672">
        <ele>107.2</ele>
        <time>2022-05-29T08:26:19Z</time>
      </trkpt>
      <trkpt lat="45.03798" lon="1.09691">
        <ele>106.9</ele>
        <time>2022-05-29T08:26:21Z</time>
      </trkpt>
      <trkpt lat="45.03787" lon="1.09735">
        <ele>106.3</ele>
        <time>2022-05-29T08:26:28Z</time>
      </trkpt>
      <trkpt lat="45.03786" lon="1.09741">
        <ele>106.2</ele>
        <time>2022-05-29T08:26:29Z</time>
      </trkpt>
      <trkpt lat="45.03781" lon="1.09761">
        <ele>106.2</ele>
        <time>2022-05-29T08:26:33Z</time>
      </trkpt>
      <trkpt lat="45.03773" lon="1.09789">
        <ele>106.3</ele>
        <time>2022-05-29T08:26:39Z</time>
      </trkpt>
      <trkpt lat="45.03763" lon="1.09823">
        <ele>106.4</ele>
        <time>2022-05-29T08:26:46Z</time>
      </trkpt>
      <trkpt lat="45.03753" lon="1.09861">
        <ele>106.4</ele>
        <time>2022-05-29T08:26:53Z</time>
      </trkpt>
      <trkpt lat="45.03751" lon="1.09867">
        <ele>106.3</ele>
        <time>2022-05-29T08:26:54Z</time>
      </trkpt>
      <trkpt lat="45.03746" lon="1.09884">
        <ele>106.1</ele>
        <time>2022-05-29T08:26:57Z</time>
      </trkpt>
      <trkpt lat="45.03735" lon="1.09926">
        <ele>104.8</ele>
        <time>2022-05-29T08:27:03Z</time>
      </trkpt>
      <trkpt lat="45.03729" lon="1.09946">
        <ele>104</ele>
        <time>2022-05-29T08:27:06Z</time>
      </trkpt>
      <trkpt lat="45.03727" lon="1.09954">
        <ele>103.7</ele>
        <time>2022-05-29T08:27:07Z</time>
      </trkpt>
      <trkpt lat="45.03709" lon="1.10021">
        <ele>102</ele>
        <time>2022-05-29T08:27:15Z</time>
      </trkpt>
      <trkpt lat="45.03701" lon="1.10056">
        <ele>101.2</ele>
        <time>2022-05-29T08:27:19Z</time>
      </trkpt>
      <trkpt lat="45.0369" lon="1.10109">
        <ele>99.9</ele>
        <time>2022-05-29T08:27:25Z</time>
      </trkpt>
      <trkpt lat="45.03681" lon="1.10155">
        <ele>99</ele>
        <time>2022-05-29T08:27:31Z</time>
      </trkpt>
      <trkpt lat="45.03668" lon="1.10223">
        <ele>96.9</ele>
        <time>2022-05-29T08:27:40Z</time>
      </trkpt>
      <trkpt lat="45.03665" lon="1.10238">
        <ele>96.6</ele>
        <time>2022-05-29T08:27:42Z</time>
      </trkpt>
      <trkpt lat="45.0366" lon="1.10267">
        <ele>96.1</ele>
        <time>2022-05-29T08:27:46Z</time>
      </trkpt>
      <trkpt lat="45.03651" lon="1.10311">
        <ele>94.5</ele>
        <time>2022-05-29T08:27:52Z</time>
      </trkpt>
      <trkpt lat="45.03648" lon="1.10322">
        <ele>94.5</ele>
        <time>2022-05-29T08:27:55Z</time>
      </trkpt>
      <trkpt lat="45.0365" lon="1.10315">
        <ele>94.6</ele>
        <time>2022-05-29T08:27:58Z</time>
      </trkpt>
      <trkpt lat="45.03675" lon="1.10319">
        <ele>95</ele>
        <time>2022-05-29T08:28:01Z</time>
      </trkpt>
      <trkpt lat="45.03678" lon="1.1032">
        <ele>95.3</ele>
        <time>2022-05-29T08:28:02Z</time>
      </trkpt>
      <trkpt lat="45.03699" lon="1.10327">
        <ele>95.1</ele>
        <time>2022-05-29T08:28:08Z</time>
      </trkpt>
      <trkpt lat="45.03713" lon="1.10337">
        <ele>95.4</ele>
        <time>2022-05-29T08:28:13Z</time>
      </trkpt>
      <trkpt lat="45.03729" lon="1.10349">
        <ele>95.6</ele>
        <time>2022-05-29T08:28:18Z</time>
      </trkpt>
      <trkpt lat="45.03733" lon="1.10352">
        <ele>95.6</ele>
        <time>2022-05-29T08:28:19Z</time>
      </trkpt>
      <trkpt lat="45.03751" lon="1.10362">
        <ele>95.5</ele>
        <time>2022-05-29T08:28:24Z</time>
      </trkpt>
      <trkpt lat="45.03755" lon="1.10362">
        <ele>95.5</ele>
        <time>2022-05-29T08:28:25Z</time>
      </trkpt>
      <trkpt lat="45.03759" lon="1.10362">
        <ele>95.6</ele>
        <time>2022-05-29T08:28:26Z</time>
      </trkpt>
      <trkpt lat="45.03772" lon="1.1036">
        <ele>96.8</ele>
        <time>2022-05-29T08:28:29Z</time>
      </trkpt>
      <trkpt lat="45.03788" lon="1.10352">
        <ele>97.4</ele>
        <time>2022-05-29T08:28:34Z</time>
      </trkpt>
      <trkpt lat="45.03802" lon="1.10343">
        <ele>97.8</ele>
        <time>2022-05-29T08:28:39Z</time>
      </trkpt>
      <trkpt lat="45.03817" lon="1.10334">
        <ele>97.8</ele>
        <time>2022-05-29T08:28:44Z</time>
      </trkpt>
      <trkpt lat="45.03828" lon="1.10324">
        <ele>99.2</ele>
        <time>2022-05-29T08:28:49Z</time>
      </trkpt>
      <trkpt lat="45.03839" lon="1.10317">
        <ele>99.3</ele>
        <time>2022-05-29T08:28:54Z</time>
      </trkpt>
      <trkpt lat="45.03846" lon="1.10312">
        <ele>99.3</ele>
        <time>2022-05-29T08:28:57Z</time>
      </trkpt>
      <trkpt lat="45.03848" lon="1.1031">
        <ele>99</ele>
        <time>2022-05-29T08:28:58Z</time>
      </trkpt>
      <trkpt lat="45.03861" lon="1.10303">
        <ele>100.2</ele>
        <time>2022-05-29T08:29:03Z</time>
      </trkpt>
      <trkpt lat="45.03876" lon="1.10294">
        <ele>99.8</ele>
        <time>2022-05-29T08:29:09Z</time>
      </trkpt>
      <trkpt lat="45.03878" lon="1.10293">
        <ele>99.8</ele>
        <time>2022-05-29T08:29:10Z</time>
      </trkpt>
      <trkpt lat="45.03888" lon="1.1029">
        <ele>101.7</ele>
        <time>2022-05-29T08:29:13Z</time>
      </trkpt>
      <trkpt lat="45.03902" lon="1.10286">
        <ele>101.6</ele>
        <time>2022-05-29T08:29:17Z</time>
      </trkpt>
      <trkpt lat="45.03922" lon="1.1028">
        <ele>100.4</ele>
        <time>2022-05-29T08:29:22Z</time>
      </trkpt>
      <trkpt lat="45.03937" lon="1.10275">
        <ele>102.5</ele>
        <time>2022-05-29T08:29:26Z</time>
      </trkpt>
      <trkpt lat="45.03955" lon="1.10269">
        <ele>102.3</ele>
        <time>2022-05-29T08:29:31Z</time>
      </trkpt>
      <trkpt lat="45.03968" lon="1.10264">
        <ele>102.2</ele>
        <time>2022-05-29T08:29:36Z</time>
      </trkpt>
      <trkpt lat="45.03972" lon="1.10262">
        <ele>102.1</ele>
        <time>2022-05-29T08:29:38Z</time>
      </trkpt>
      <trkpt lat="45.0398" lon="1.10261">
        <ele>102.2</ele>
        <time>2022-05-29T08:29:41Z</time>
      </trkpt>
      <trkpt lat="45.04" lon="1.10256">
        <ele>104.7</ele>
        <time>2022-05-29T08:29:47Z</time>
      </trkpt>
      <trkpt lat="45.04005" lon="1.10253">
        <ele>104.7</ele>
        <time>2022-05-29T08:29:50Z</time>
      </trkpt>
      <trkpt lat="45.04023" lon="1.10251">
        <ele>104.6</ele>
        <time>2022-05-29T08:29:55Z</time>
      </trkpt>
      <trkpt lat="45.04029" lon="1.10252">
        <ele>104.6</ele>
        <time>2022-05-29T08:29:57Z</time>
      </trkpt>
      <trkpt lat="45.04039" lon="1.10251">
        <ele>105.1</ele>
        <time>2022-05-29T08:29:59Z</time>
      </trkpt>
      <trkpt lat="45.04057" lon="1.10249">
        <ele>106.6</ele>
        <time>2022-05-29T08:30:04Z</time>
      </trkpt>
      <trkpt lat="45.04073" lon="1.10247">
        <ele>107.3</ele>
        <time>2022-05-29T08:30:09Z</time>
      </trkpt>
      <trkpt lat="45.04089" lon="1.10247">
        <ele>107.6</ele>
        <time>2022-05-29T08:30:14Z</time>
      </trkpt>
      <trkpt lat="45.04104" lon="1.10247">
        <ele>107.1</ele>
        <time>2022-05-29T08:30:19Z</time>
      </trkpt>
      <trkpt lat="45.04117" lon="1.10245">
        <ele>106.5</ele>
        <time>2022-05-29T08:30:23Z</time>
      </trkpt>
      <trkpt lat="45.04124" lon="1.10244">
        <ele>106.5</ele>
        <time>2022-05-29T08:30:25Z</time>
      </trkpt>
      <trkpt lat="45.04126" lon="1.10244">
        <ele>106.5</ele>
        <time>2022-05-29T08:30:26Z</time>
      </trkpt>
      <trkpt lat="45.04141" lon="1.10239">
        <ele>109.1</ele>
        <time>2022-05-29T08:30:31Z</time>
      </trkpt>
      <trkpt lat="45.04154" lon="1.10234">
        <ele>108.5</ele>
        <time>2022-05-29T08:30:36Z</time>
      </trkpt>
      <trkpt lat="45.04164" lon="1.10235">
        <ele>107.7</ele>
        <time>2022-05-29T08:30:39Z</time>
      </trkpt>
      <trkpt lat="45.04171" lon="1.10229">
        <ele>107.8</ele>
        <time>2022-05-29T08:30:42Z</time>
      </trkpt>
      <trkpt lat="45.0418" lon="1.10222">
        <ele>111.5</ele>
        <time>2022-05-29T08:30:46Z</time>
      </trkpt>
      <trkpt lat="45.0418" lon="1.10222">
        <ele>111.5</ele>
        <time>2022-05-29T08:30:50Z</time>
      </trkpt>
      <trkpt lat="45.0418" lon="1.10222">
        <ele>111.5</ele>
        <time>2022-05-29T08:30:54Z</time>
      </trkpt>
      <trkpt lat="45.04225" lon="1.10224">
        <ele>108.4</ele>
        <time>2022-05-29T08:30:59Z</time>
      </trkpt>
      <trkpt lat="45.04238" lon="1.10223">
        <ele>108.3</ele>
        <time>2022-05-29T08:31:04Z</time>
      </trkpt>
      <trkpt lat="45.04249" lon="1.10222">
        <ele>108.3</ele>
        <time>2022-05-29T08:31:08Z</time>
      </trkpt>
      <trkpt lat="45.04259" lon="1.10222">
        <ele>108.3</ele>
        <time>2022-05-29T08:31:11Z</time>
      </trkpt>
      <trkpt lat="45.04275" lon="1.1022">
        <ele>107.8</ele>
        <time>2022-05-29T08:31:16Z</time>
      </trkpt>
      <trkpt lat="45.04299" lon="1.10219">
        <ele>106.7</ele>
        <time>2022-05-29T08:31:21Z</time>
      </trkpt>
      <trkpt lat="45.04318" lon="1.10217">
        <ele>106.3</ele>
        <time>2022-05-29T08:31:27Z</time>
      </trkpt>
      <trkpt lat="45.04337" lon="1.10212">
        <ele>106.7</ele>
        <time>2022-05-29T08:31:32Z</time>
      </trkpt>
      <trkpt lat="45.04354" lon="1.10207">
        <ele>110.5</ele>
        <time>2022-05-29T08:31:37Z</time>
      </trkpt>
      <trkpt lat="45.04357" lon="1.10206">
        <ele>110.5</ele>
        <time>2022-05-29T08:31:38Z</time>
      </trkpt>
      <trkpt lat="45.04374" lon="1.10201">
        <ele>110.3</ele>
        <time>2022-05-29T08:31:43Z</time>
      </trkpt>
      <trkpt lat="45.04395" lon="1.10201">
        <ele>109.4</ele>
        <time>2022-05-29T08:31:49Z</time>
      </trkpt>
      <trkpt lat="45.04406" lon="1.102">
        <ele>108.7</ele>
        <time>2022-05-29T08:31:53Z</time>
      </trkpt>
      <trkpt lat="45.04425" lon="1.10198">
        <ele>108</ele>
        <time>2022-05-29T08:31:59Z</time>
      </trkpt>
      <trkpt lat="45.0444" lon="1.10197">
        <ele>107.8</ele>
        <time>2022-05-29T08:32:03Z</time>
      </trkpt>
      <trkpt lat="45.04456" lon="1.10189">
        <ele>110.9</ele>
        <time>2022-05-29T08:32:08Z</time>
      </trkpt>
      <trkpt lat="45.04475" lon="1.10184">
        <ele>111</ele>
        <time>2022-05-29T08:32:13Z</time>
      </trkpt>
      <trkpt lat="45.04482" lon="1.10182">
        <ele>110.8</ele>
        <time>2022-05-29T08:32:16Z</time>
      </trkpt>
      <trkpt lat="45.04484" lon="1.10182">
        <ele>110.9</ele>
        <time>2022-05-29T08:32:17Z</time>
      </trkpt>
      <trkpt lat="45.045" lon="1.1018">
        <ele>110.3</ele>
        <time>2022-05-29T08:32:21Z</time>
      </trkpt>
      <trkpt lat="45.04513" lon="1.10174">
        <ele>109.4</ele>
        <time>2022-05-29T08:32:25Z</time>
      </trkpt>
      <trkpt lat="45.04523" lon="1.10167">
        <ele>111.3</ele>
        <time>2022-05-29T08:32:29Z</time>
      </trkpt>
      <trkpt lat="45.04535" lon="1.10161">
        <ele>111</ele>
        <time>2022-05-29T08:32:33Z</time>
      </trkpt>
      <trkpt lat="45.04541" lon="1.10159">
        <ele>111</ele>
        <time>2022-05-29T08:32:37Z</time>
      </trkpt>
      <trkpt lat="45.04559" lon="1.10158">
        <ele>111.4</ele>
        <time>2022-05-29T08:32:48Z</time>
      </trkpt>
      <trkpt lat="45.04562" lon="1.10157">
        <ele>111.5</ele>
        <time>2022-05-29T08:32:50Z</time>
      </trkpt>
      <trkpt lat="45.04567" lon="1.10156">
        <ele>112.2</ele>
        <time>2022-05-29T08:32:52Z</time>
      </trkpt>
      <trkpt lat="45.04581" lon="1.10151">
        <ele>116.4</ele>
        <time>2022-05-29T08:32:58Z</time>
      </trkpt>
      <trkpt lat="45.04587" lon="1.10149">
        <ele>116.4</ele>
        <time>2022-05-29T08:33:02Z</time>
      </trkpt>
      <trkpt lat="45.04592" lon="1.10149">
        <ele>117.4</ele>
        <time>2022-05-29T08:33:04Z</time>
      </trkpt>
      <trkpt lat="45.04594" lon="1.10148">
        <ele>117.4</ele>
        <time>2022-05-29T08:33:05Z</time>
      </trkpt>
      <trkpt lat="45.04601" lon="1.10147">
        <ele>118.2</ele>
        <time>2022-05-29T08:33:09Z</time>
      </trkpt>
      <trkpt lat="45.04626" lon="1.10148">
        <ele>119.7</ele>
        <time>2022-05-29T08:33:24Z</time>
      </trkpt>
      <trkpt lat="45.0463" lon="1.10149">
        <ele>119.7</ele>
        <time>2022-05-29T08:33:27Z</time>
      </trkpt>
      <trkpt lat="45.04642" lon="1.10152">
        <ele>120.7</ele>
        <time>2022-05-29T08:33:30Z</time>
      </trkpt>
      <trkpt lat="45.0465" lon="1.10154">
        <ele>121.5</ele>
        <time>2022-05-29T08:33:32Z</time>
      </trkpt>
      <trkpt lat="45.04671" lon="1.10161">
        <ele>119.1</ele>
        <time>2022-05-29T08:33:37Z</time>
      </trkpt>
      <trkpt lat="45.04681" lon="1.10164">
        <ele>119.5</ele>
        <time>2022-05-29T08:33:41Z</time>
      </trkpt>
      <trkpt lat="45.04695" lon="1.10166">
        <ele>119.9</ele>
        <time>2022-05-29T08:33:48Z</time>
      </trkpt>
      <trkpt lat="45.04697" lon="1.10167">
        <ele>120.4</ele>
        <time>2022-05-29T08:33:49Z</time>
      </trkpt>
      <trkpt lat="45.04707" lon="1.1017">
        <ele>120.4</ele>
        <time>2022-05-29T08:33:53Z</time>
      </trkpt>
      <trkpt lat="45.04717" lon="1.10175">
        <ele>116.9</ele>
        <time>2022-05-29T08:33:58Z</time>
      </trkpt>
      <trkpt lat="45.04734" lon="1.10183">
        <ele>117.8</ele>
        <time>2022-05-29T08:34:05Z</time>
      </trkpt>
      <trkpt lat="45.04749" lon="1.10191">
        <ele>114.3</ele>
        <time>2022-05-29T08:34:11Z</time>
      </trkpt>
      <trkpt lat="45.04761" lon="1.10194">
        <ele>114.6</ele>
        <time>2022-05-29T08:34:15Z</time>
      </trkpt>
      <trkpt lat="45.04774" lon="1.10198">
        <ele>114.9</ele>
        <time>2022-05-29T08:34:19Z</time>
      </trkpt>
      <trkpt lat="45.0478" lon="1.10201">
        <ele>115</ele>
        <time>2022-05-29T08:34:22Z</time>
      </trkpt>
      <trkpt lat="45.04789" lon="1.10204">
        <ele>115.3</ele>
        <time>2022-05-29T08:34:26Z</time>
      </trkpt>
      <trkpt lat="45.04797" lon="1.10207">
        <ele>112.9</ele>
        <time>2022-05-29T08:34:30Z</time>
      </trkpt>
      <trkpt lat="45.04808" lon="1.1021">
        <ele>113.5</ele>
        <time>2022-05-29T08:34:35Z</time>
      </trkpt>
      <trkpt lat="45.04823" lon="1.10214">
        <ele>114.1</ele>
        <time>2022-05-29T08:34:40Z</time>
      </trkpt>
      <trkpt lat="45.04836" lon="1.10217">
        <ele>115.1</ele>
        <time>2022-05-29T08:34:45Z</time>
      </trkpt>
      <trkpt lat="45.04856" lon="1.10224">
        <ele>114.7</ele>
        <time>2022-05-29T08:34:52Z</time>
      </trkpt>
      <trkpt lat="45.04876" lon="1.10221">
        <ele>117.4</ele>
        <time>2022-05-29T08:34:58Z</time>
      </trkpt>
      <trkpt lat="45.04877" lon="1.10224">
        <ele>117.2</ele>
        <time>2022-05-29T08:35:01Z</time>
      </trkpt>
      <trkpt lat="45.04878" lon="1.10235">
        <ele>116.6</ele>
        <time>2022-05-29T08:35:03Z</time>
      </trkpt>
      <trkpt lat="45.04879" lon="1.10261">
        <ele>115.1</ele>
        <time>2022-05-29T08:35:09Z</time>
      </trkpt>
      <trkpt lat="45.04872" lon="1.10297">
        <ele>113.1</ele>
        <time>2022-05-29T08:35:15Z</time>
      </trkpt>
      <trkpt lat="45.04862" lon="1.10344">
        <ele>110.3</ele>
        <time>2022-05-29T08:35:22Z</time>
      </trkpt>
      <trkpt lat="45.04857" lon="1.10369">
        <ele>108.9</ele>
        <time>2022-05-29T08:35:27Z</time>
      </trkpt>
      <trkpt lat="45.04848" lon="1.10412">
        <ele>106.5</ele>
        <time>2022-05-29T08:35:36Z</time>
      </trkpt>
      <trkpt lat="45.04844" lon="1.10433">
        <ele>105.2</ele>
        <time>2022-05-29T08:35:41Z</time>
      </trkpt>
      <trkpt lat="45.04838" lon="1.1046">
        <ele>103.4</ele>
        <time>2022-05-29T08:35:49Z</time>
      </trkpt>
      <trkpt lat="45.04843" lon="1.10469">
        <ele>103.3</ele>
        <time>2022-05-29T08:35:54Z</time>
      </trkpt>
      <trkpt lat="45.04855" lon="1.10474">
        <ele>103.2</ele>
        <time>2022-05-29T08:35:59Z</time>
      </trkpt>
      <trkpt lat="45.04875" lon="1.10483">
        <ele>103.1</ele>
        <time>2022-05-29T08:36:06Z</time>
      </trkpt>
      <trkpt lat="45.0489" lon="1.1049">
        <ele>103</ele>
        <time>2022-05-29T08:36:11Z</time>
      </trkpt>
      <trkpt lat="45.04902" lon="1.10493">
        <ele>102.9</ele>
        <time>2022-05-29T08:36:15Z</time>
      </trkpt>
      <trkpt lat="45.04917" lon="1.10497">
        <ele>102.9</ele>
        <time>2022-05-29T08:36:20Z</time>
      </trkpt>
      <trkpt lat="45.04938" lon="1.10502">
        <ele>102.9</ele>
        <time>2022-05-29T08:36:26Z</time>
      </trkpt>
      <trkpt lat="45.04961" lon="1.10507">
        <ele>102.9</ele>
        <time>2022-05-29T08:36:33Z</time>
      </trkpt>
      <trkpt lat="45.04976" lon="1.10505">
        <ele>103</ele>
        <time>2022-05-29T08:36:38Z</time>
      </trkpt>
      <trkpt lat="45.04991" lon="1.10503">
        <ele>103.1</ele>
        <time>2022-05-29T08:36:43Z</time>
      </trkpt>
      <trkpt lat="45.05009" lon="1.10501">
        <ele>103.4</ele>
        <time>2022-05-29T08:36:48Z</time>
      </trkpt>
      <trkpt lat="45.05036" lon="1.10498">
        <ele>103.9</ele>
        <time>2022-05-29T08:36:55Z</time>
      </trkpt>
      <trkpt lat="45.05055" lon="1.10496">
        <ele>104.3</ele>
        <time>2022-05-29T08:37:00Z</time>
      </trkpt>
      <trkpt lat="45.05073" lon="1.10494">
        <ele>104.8</ele>
        <time>2022-05-29T08:37:06Z</time>
      </trkpt>
      <trkpt lat="45.05088" lon="1.10495">
        <ele>104.7</ele>
        <time>2022-05-29T08:37:10Z</time>
      </trkpt>
      <trkpt lat="45.051" lon="1.10474">
        <ele>103.6</ele>
        <time>2022-05-29T08:37:15Z</time>
      </trkpt>
      <trkpt lat="45.0511" lon="1.10458">
        <ele>102.9</ele>
        <time>2022-05-29T08:37:20Z</time>
      </trkpt>
      <trkpt lat="45.05113" lon="1.10454">
        <ele>102.7</ele>
        <time>2022-05-29T08:37:21Z</time>
      </trkpt>
      <trkpt lat="45.0512" lon="1.10443">
        <ele>102.4</ele>
        <time>2022-05-29T08:37:23Z</time>
      </trkpt>
      <trkpt lat="45.05123" lon="1.10438">
        <ele>102.3</ele>
        <time>2022-05-29T08:37:24Z</time>
      </trkpt>
      <trkpt lat="45.05135" lon="1.1042">
        <ele>102.7</ele>
        <time>2022-05-29T08:37:28Z</time>
      </trkpt>
      <trkpt lat="45.05151" lon="1.10394">
        <ele>104.2</ele>
        <time>2022-05-29T08:37:34Z</time>
      </trkpt>
      <trkpt lat="45.05162" lon="1.10376">
        <ele>104.9</ele>
        <time>2022-05-29T08:37:38Z</time>
      </trkpt>
      <trkpt lat="45.05175" lon="1.10356">
        <ele>105.4</ele>
        <time>2022-05-29T08:37:43Z</time>
      </trkpt>
      <trkpt lat="45.05186" lon="1.10337">
        <ele>106.4</ele>
        <time>2022-05-29T08:37:48Z</time>
      </trkpt>
      <trkpt lat="45.05191" lon="1.1033">
        <ele>106.9</ele>
        <time>2022-05-29T08:37:51Z</time>
      </trkpt>
      <trkpt lat="45.05193" lon="1.10327">
        <ele>107.1</ele>
        <time>2022-05-29T08:37:52Z</time>
      </trkpt>
      <trkpt lat="45.05194" lon="1.10326">
        <ele>107.2</ele>
        <time>2022-05-29T08:37:53Z</time>
      </trkpt>
      <trkpt lat="45.05195" lon="1.10325">
        <ele>107.3</ele>
        <time>2022-05-29T08:37:55Z</time>
      </trkpt>
      <trkpt lat="45.05195" lon="1.10324">
        <ele>107.4</ele>
        <time>2022-05-29T08:37:56Z</time>
      </trkpt>
      <trkpt lat="45.05204" lon="1.10312">
        <ele>108.7</ele>
        <time>2022-05-29T08:37:59Z</time>
      </trkpt>
      <trkpt lat="45.05213" lon="1.10297">
        <ele>110.2</ele>
        <time>2022-05-29T08:38:04Z</time>
      </trkpt>
      <trkpt lat="45.05218" lon="1.10288">
        <ele>111</ele>
        <time>2022-05-29T08:38:07Z</time>
      </trkpt>
      <trkpt lat="45.0522" lon="1.10285">
        <ele>111.4</ele>
        <time>2022-05-29T08:38:08Z</time>
      </trkpt>
      <trkpt lat="45.0523" lon="1.10268">
        <ele>113.2</ele>
        <time>2022-05-29T08:38:14Z</time>
      </trkpt>
      <trkpt lat="45.05231" lon="1.10266">
        <ele>113.5</ele>
        <time>2022-05-29T08:38:15Z</time>
      </trkpt>
      <trkpt lat="45.05233" lon="1.10262">
        <ele>113.9</ele>
        <time>2022-05-29T08:38:17Z</time>
      </trkpt>
      <trkpt lat="45.0524" lon="1.1025">
        <ele>115.1</ele>
        <time>2022-05-29T08:38:22Z</time>
      </trkpt>
      <trkpt lat="45.05246" lon="1.10242">
        <ele>116</ele>
        <time>2022-05-29T08:38:26Z</time>
      </trkpt>
      <trkpt lat="45.0525" lon="1.10236">
        <ele>116.6</ele>
        <time>2022-05-29T08:38:29Z</time>
      </trkpt>
      <trkpt lat="45.05252" lon="1.10234">
        <ele>116.8</ele>
        <time>2022-05-29T08:38:30Z</time>
      </trkpt>
      <trkpt lat="45.05262" lon="1.10221">
        <ele>118</ele>
        <time>2022-05-29T08:38:36Z</time>
      </trkpt>
      <trkpt lat="45.05269" lon="1.10211">
        <ele>118.9</ele>
        <time>2022-05-29T08:38:41Z</time>
      </trkpt>
      <trkpt lat="45.05276" lon="1.10204">
        <ele>119.6</ele>
        <time>2022-05-29T08:38:45Z</time>
      </trkpt>
      <trkpt lat="45.05285" lon="1.10195">
        <ele>120.6</ele>
        <time>2022-05-29T08:38:51Z</time>
      </trkpt>
      <trkpt lat="45.05297" lon="1.10184">
        <ele>121.8</ele>
        <time>2022-05-29T08:38:57Z</time>
      </trkpt>
      <trkpt lat="45.05303" lon="1.1018">
        <ele>122.4</ele>
        <time>2022-05-29T08:39:01Z</time>
      </trkpt>
      <trkpt lat="45.05303" lon="1.1018">
        <ele>122.4</ele>
        <time>2022-05-29T08:39:02Z</time>
      </trkpt>
      <trkpt lat="45.05308" lon="1.10176">
        <ele>122.8</ele>
        <time>2022-05-29T08:39:04Z</time>
      </trkpt>
      <trkpt lat="45.05312" lon="1.10173">
        <ele>123.1</ele>
        <time>2022-05-29T08:39:06Z</time>
      </trkpt>
      <trkpt lat="45.05323" lon="1.10165">
        <ele>124.1</ele>
        <time>2022-05-29T08:39:11Z</time>
      </trkpt>
      <trkpt lat="45.05335" lon="1.10156">
        <ele>125</ele>
        <time>2022-05-29T08:39:16Z</time>
      </trkpt>
      <trkpt lat="45.05343" lon="1.1015">
        <ele>125.7</ele>
        <time>2022-05-29T08:39:20Z</time>
      </trkpt>
      <trkpt lat="45.05355" lon="1.10142">
        <ele>126.6</ele>
        <time>2022-05-29T08:39:26Z</time>
      </trkpt>
      <trkpt lat="45.05366" lon="1.10134">
        <ele>127.5</ele>
        <time>2022-05-29T08:39:31Z</time>
      </trkpt>
      <trkpt lat="45.05377" lon="1.10126">
        <ele>128.3</ele>
        <time>2022-05-29T08:39:37Z</time>
      </trkpt>
      <trkpt lat="45.05384" lon="1.10121">
        <ele>128.8</ele>
        <time>2022-05-29T08:39:41Z</time>
      </trkpt>
      <trkpt lat="45.05386" lon="1.10119">
        <ele>128.8</ele>
        <time>2022-05-29T08:39:42Z</time>
      </trkpt>
      <trkpt lat="45.05392" lon="1.10113">
        <ele>129.2</ele>
        <time>2022-05-29T08:39:45Z</time>
      </trkpt>
      <trkpt lat="45.05402" lon="1.10105">
        <ele>129.7</ele>
        <time>2022-05-29T08:39:50Z</time>
      </trkpt>
      <trkpt lat="45.05412" lon="1.10097">
        <ele>130</ele>
        <time>2022-05-29T08:39:56Z</time>
      </trkpt>
      <trkpt lat="45.05422" lon="1.10088">
        <ele>130.4</ele>
        <time>2022-05-29T08:40:01Z</time>
      </trkpt>
      <trkpt lat="45.05435" lon="1.10076">
        <ele>130.8</ele>
        <time>2022-05-29T08:40:07Z</time>
      </trkpt>
      <trkpt lat="45.05451" lon="1.10062">
        <ele>131.2</ele>
        <time>2022-05-29T08:40:13Z</time>
      </trkpt>
      <trkpt lat="45.05466" lon="1.10049">
        <ele>131.6</ele>
        <time>2022-05-29T08:40:18Z</time>
      </trkpt>
      <trkpt lat="45.05479" lon="1.10038">
        <ele>131.8</ele>
        <time>2022-05-29T08:40:24Z</time>
      </trkpt>
      <trkpt lat="45.05491" lon="1.10027">
        <ele>132.1</ele>
        <time>2022-05-29T08:40:29Z</time>
      </trkpt>
      <trkpt lat="45.05508" lon="1.10011">
        <ele>132.2</ele>
        <time>2022-05-29T08:40:35Z</time>
      </trkpt>
      <trkpt lat="45.05509" lon="1.10009">
        <ele>132.2</ele>
        <time>2022-05-29T08:40:36Z</time>
      </trkpt>
      <trkpt lat="45.0551" lon="1.10008">
        <ele>132.2</ele>
        <time>2022-05-29T08:40:37Z</time>
      </trkpt>
      <trkpt lat="45.05521" lon="1.09997">
        <ele>132.4</ele>
        <time>2022-05-29T08:40:42Z</time>
      </trkpt>
      <trkpt lat="45.05532" lon="1.09987">
        <ele>132.6</ele>
        <time>2022-05-29T08:40:46Z</time>
      </trkpt>
      <trkpt lat="45.05541" lon="1.09978">
        <ele>132.8</ele>
        <time>2022-05-29T08:40:49Z</time>
      </trkpt>
      <trkpt lat="45.05544" lon="1.09975">
        <ele>132.9</ele>
        <time>2022-05-29T08:40:50Z</time>
      </trkpt>
      <trkpt lat="45.05558" lon="1.09962">
        <ele>133.3</ele>
        <time>2022-05-29T08:40:55Z</time>
      </trkpt>
      <trkpt lat="45.05566" lon="1.09954">
        <ele>133.5</ele>
        <time>2022-05-29T08:40:58Z</time>
      </trkpt>
      <trkpt lat="45.05568" lon="1.09951">
        <ele>133.6</ele>
        <time>2022-05-29T08:40:59Z</time>
      </trkpt>
      <trkpt lat="45.05571" lon="1.09949">
        <ele>133.7</ele>
        <time>2022-05-29T08:41:00Z</time>
      </trkpt>
      <trkpt lat="45.05576" lon="1.09942">
        <ele>133.8</ele>
        <time>2022-05-29T08:41:02Z</time>
      </trkpt>
      <trkpt lat="45.05586" lon="1.09929">
        <ele>134.1</ele>
        <time>2022-05-29T08:41:06Z</time>
      </trkpt>
      <trkpt lat="45.05601" lon="1.0991">
        <ele>134.3</ele>
        <time>2022-05-29T08:41:11Z</time>
      </trkpt>
      <trkpt lat="45.05611" lon="1.09896">
        <ele>134.6</ele>
        <time>2022-05-29T08:41:15Z</time>
      </trkpt>
      <trkpt lat="45.05628" lon="1.09874">
        <ele>135.6</ele>
        <time>2022-05-29T08:41:21Z</time>
      </trkpt>
      <trkpt lat="45.05643" lon="1.09855">
        <ele>136.4</ele>
        <time>2022-05-29T08:41:27Z</time>
      </trkpt>
      <trkpt lat="45.05655" lon="1.09838">
        <ele>137</ele>
        <time>2022-05-29T08:41:32Z</time>
      </trkpt>
      <trkpt lat="45.05657" lon="1.09835">
        <ele>137.1</ele>
        <time>2022-05-29T08:41:33Z</time>
      </trkpt>
      <trkpt lat="45.05661" lon="1.0983">
        <ele>137.2</ele>
        <time>2022-05-29T08:41:35Z</time>
      </trkpt>
      <trkpt lat="45.0567" lon="1.09816">
        <ele>137.6</ele>
        <time>2022-05-29T08:41:39Z</time>
      </trkpt>
      <trkpt lat="45.05678" lon="1.09803">
        <ele>138.1</ele>
        <time>2022-05-29T08:41:44Z</time>
      </trkpt>
      <trkpt lat="45.05681" lon="1.09796">
        <ele>138.3</ele>
        <time>2022-05-29T08:41:45Z</time>
      </trkpt>
      <trkpt lat="45.05687" lon="1.09788">
        <ele>138.6</ele>
        <time>2022-05-29T08:41:48Z</time>
      </trkpt>
      <trkpt lat="45.05699" lon="1.09766">
        <ele>139.5</ele>
        <time>2022-05-29T08:41:52Z</time>
      </trkpt>
      <trkpt lat="45.05716" lon="1.09738">
        <ele>140.7</ele>
        <time>2022-05-29T08:41:58Z</time>
      </trkpt>
      <trkpt lat="45.05731" lon="1.09708">
        <ele>141.9</ele>
        <time>2022-05-29T08:42:05Z</time>
      </trkpt>
      <trkpt lat="45.05742" lon="1.09682">
        <ele>142.7</ele>
        <time>2022-05-29T08:42:11Z</time>
      </trkpt>
      <trkpt lat="45.05749" lon="1.09662">
        <ele>143.1</ele>
        <time>2022-05-29T08:42:16Z</time>
      </trkpt>
      <trkpt lat="45.05757" lon="1.09641">
        <ele>143.3</ele>
        <time>2022-05-29T08:42:21Z</time>
      </trkpt>
      <trkpt lat="45.05768" lon="1.09613">
        <ele>143</ele>
        <time>2022-05-29T08:42:28Z</time>
      </trkpt>
      <trkpt lat="45.05779" lon="1.09587">
        <ele>142</ele>
        <time>2022-05-29T08:42:34Z</time>
      </trkpt>
      <trkpt lat="45.05788" lon="1.09568">
        <ele>140.9</ele>
        <time>2022-05-29T08:42:38Z</time>
      </trkpt>
      <trkpt lat="45.0579" lon="1.09563">
        <ele>140.6</ele>
        <time>2022-05-29T08:42:39Z</time>
      </trkpt>
      <trkpt lat="45.05796" lon="1.09549">
        <ele>139.8</ele>
        <time>2022-05-29T08:42:41Z</time>
      </trkpt>
      <trkpt lat="45.05815" lon="1.09505">
        <ele>137.9</ele>
        <time>2022-05-29T08:42:48Z</time>
      </trkpt>
      <trkpt lat="45.05824" lon="1.09477">
        <ele>137.3</ele>
        <time>2022-05-29T08:42:54Z</time>
      </trkpt>
      <trkpt lat="45.05831" lon="1.09446">
        <ele>136.5</ele>
        <time>2022-05-29T08:43:00Z</time>
      </trkpt>
      <trkpt lat="45.05837" lon="1.09429">
        <ele>136.2</ele>
        <time>2022-05-29T08:43:05Z</time>
      </trkpt>
      <trkpt lat="45.05842" lon="1.0941">
        <ele>136.1</ele>
        <time>2022-05-29T08:43:09Z</time>
      </trkpt>
      <trkpt lat="45.05849" lon="1.09389">
        <ele>136.2</ele>
        <time>2022-05-29T08:43:14Z</time>
      </trkpt>
      <trkpt lat="45.05855" lon="1.09371">
        <ele>136.3</ele>
        <time>2022-05-29T08:43:19Z</time>
      </trkpt>
      <trkpt lat="45.05862" lon="1.09348">
        <ele>136.3</ele>
        <time>2022-05-29T08:43:25Z</time>
      </trkpt>
      <trkpt lat="45.05864" lon="1.0934">
        <ele>136.3</ele>
        <time>2022-05-29T08:43:27Z</time>
      </trkpt>
      <trkpt lat="45.05867" lon="1.09333">
        <ele>136.3</ele>
        <time>2022-05-29T08:43:29Z</time>
      </trkpt>
      <trkpt lat="45.05873" lon="1.09314">
        <ele>136.5</ele>
        <time>2022-05-29T08:43:34Z</time>
      </trkpt>
      <trkpt lat="45.05882" lon="1.09285">
        <ele>137</ele>
        <time>2022-05-29T08:43:41Z</time>
      </trkpt>
      <trkpt lat="45.05887" lon="1.09268">
        <ele>137.3</ele>
        <time>2022-05-29T08:43:46Z</time>
      </trkpt>
      <trkpt lat="45.05892" lon="1.09254">
        <ele>137.5</ele>
        <time>2022-05-29T08:43:50Z</time>
      </trkpt>
      <trkpt lat="45.059" lon="1.09227">
        <ele>137.8</ele>
        <time>2022-05-29T08:43:57Z</time>
      </trkpt>
      <trkpt lat="45.05908" lon="1.09201">
        <ele>138</ele>
        <time>2022-05-29T08:44:04Z</time>
      </trkpt>
      <trkpt lat="45.05916" lon="1.09177">
        <ele>138.2</ele>
        <time>2022-05-29T08:44:10Z</time>
      </trkpt>
      <trkpt lat="45.05921" lon="1.09153">
        <ele>138.2</ele>
        <time>2022-05-29T08:44:16Z</time>
      </trkpt>
      <trkpt lat="45.05926" lon="1.0913">
        <ele>138.1</ele>
        <time>2022-05-29T08:44:22Z</time>
      </trkpt>
      <trkpt lat="45.0593" lon="1.09107">
        <ele>137.9</ele>
        <time>2022-05-29T08:44:27Z</time>
      </trkpt>
      <trkpt lat="45.05934" lon="1.09085">
        <ele>137.6</ele>
        <time>2022-05-29T08:44:32Z</time>
      </trkpt>
      <trkpt lat="45.05936" lon="1.09074">
        <ele>137.4</ele>
        <time>2022-05-29T08:44:36Z</time>
      </trkpt>
      <trkpt lat="45.05936" lon="1.09072">
        <ele>137.4</ele>
        <time>2022-05-29T08:44:37Z</time>
      </trkpt>
      <trkpt lat="45.05937" lon="1.09067">
        <ele>137.4</ele>
        <time>2022-05-29T08:44:39Z</time>
      </trkpt>
      <trkpt lat="45.0594" lon="1.0906">
        <ele>137.3</ele>
        <time>2022-05-29T08:44:41Z</time>
      </trkpt>
      <trkpt lat="45.05944" lon="1.09055">
        <ele>137.2</ele>
        <time>2022-05-29T08:44:43Z</time>
      </trkpt>
      <trkpt lat="45.05948" lon="1.09048">
        <ele>137.1</ele>
        <time>2022-05-29T08:44:45Z</time>
      </trkpt>
      <trkpt lat="45.05957" lon="1.09034">
        <ele>136.9</ele>
        <time>2022-05-29T08:44:49Z</time>
      </trkpt>
      <trkpt lat="45.05961" lon="1.09027">
        <ele>136.8</ele>
        <time>2022-05-29T08:44:51Z</time>
      </trkpt>
      <trkpt lat="45.05965" lon="1.09021">
        <ele>136.7</ele>
        <time>2022-05-29T08:44:53Z</time>
      </trkpt>
      <trkpt lat="45.05972" lon="1.0901">
        <ele>136.7</ele>
        <time>2022-05-29T08:44:57Z</time>
      </trkpt>
      <trkpt lat="45.05979" lon="1.08998">
        <ele>136.7</ele>
        <time>2022-05-29T08:45:01Z</time>
      </trkpt>
      <trkpt lat="45.05986" lon="1.08988">
        <ele>136.7</ele>
        <time>2022-05-29T08:45:04Z</time>
      </trkpt>
      <trkpt lat="45.05987" lon="1.08986">
        <ele>136.7</ele>
        <time>2022-05-29T08:45:05Z</time>
      </trkpt>
      <trkpt lat="45.05994" lon="1.08975">
        <ele>136.6</ele>
        <time>2022-05-29T08:45:10Z</time>
      </trkpt>
      <trkpt lat="45.06004" lon="1.08959">
        <ele>136.6</ele>
        <time>2022-05-29T08:45:16Z</time>
      </trkpt>
      <trkpt lat="45.06018" lon="1.08941">
        <ele>136.5</ele>
        <time>2022-05-29T08:45:21Z</time>
      </trkpt>
      <trkpt lat="45.06028" lon="1.08933">
        <ele>136.5</ele>
        <time>2022-05-29T08:45:25Z</time>
      </trkpt>
      <trkpt lat="45.06036" lon="1.08927">
        <ele>136.7</ele>
        <time>2022-05-29T08:45:30Z</time>
      </trkpt>
      <trkpt lat="45.06041" lon="1.08924">
        <ele>136.8</ele>
        <time>2022-05-29T08:45:33Z</time>
      </trkpt>
      <trkpt lat="45.06045" lon="1.0892">
        <ele>137</ele>
        <time>2022-05-29T08:45:35Z</time>
      </trkpt>
      <trkpt lat="45.06052" lon="1.08915">
        <ele>137.4</ele>
        <time>2022-05-29T08:45:38Z</time>
      </trkpt>
      <trkpt lat="45.06056" lon="1.08912">
        <ele>137.5</ele>
        <time>2022-05-29T08:45:40Z</time>
      </trkpt>
      <trkpt lat="45.06059" lon="1.08909">
        <ele>137.6</ele>
        <time>2022-05-29T08:45:42Z</time>
      </trkpt>
      <trkpt lat="45.06063" lon="1.08907">
        <ele>137.7</ele>
        <time>2022-05-29T08:45:44Z</time>
      </trkpt>
      <trkpt lat="45.06076" lon="1.08897">
        <ele>138.3</ele>
        <time>2022-05-29T08:45:49Z</time>
      </trkpt>
      <trkpt lat="45.06094" lon="1.08882">
        <ele>139.2</ele>
        <time>2022-05-29T08:45:54Z</time>
      </trkpt>
      <trkpt lat="45.06122" lon="1.0886">
        <ele>140.4</ele>
        <time>2022-05-29T08:46:01Z</time>
      </trkpt>
      <trkpt lat="45.06141" lon="1.08849">
        <ele>141.6</ele>
        <time>2022-05-29T08:46:06Z</time>
      </trkpt>
      <trkpt lat="45.06156" lon="1.08826">
        <ele>141.7</ele>
        <time>2022-05-29T08:46:11Z</time>
      </trkpt>
      <trkpt lat="45.06158" lon="1.08811">
        <ele>140.5</ele>
        <time>2022-05-29T08:46:13Z</time>
      </trkpt>
      <trkpt lat="45.06158" lon="1.08803">
        <ele>140</ele>
        <time>2022-05-29T08:46:14Z</time>
      </trkpt>
      <trkpt lat="45.06156" lon="1.08786">
        <ele>139.1</ele>
        <time>2022-05-29T08:46:16Z</time>
      </trkpt>
      <trkpt lat="45.06151" lon="1.0877">
        <ele>138.4</ele>
        <time>2022-05-29T08:46:18Z</time>
      </trkpt>
      <trkpt lat="45.06148" lon="1.08763">
        <ele>138.2</ele>
        <time>2022-05-29T08:46:19Z</time>
      </trkpt>
      <trkpt lat="45.0614" lon="1.08746">
        <ele>137.8</ele>
        <time>2022-05-29T08:46:21Z</time>
      </trkpt>
      <trkpt lat="45.06136" lon="1.08727">
        <ele>137.7</ele>
        <time>2022-05-29T08:46:23Z</time>
      </trkpt>
      <trkpt lat="45.06133" lon="1.08705">
        <ele>137.6</ele>
        <time>2022-05-29T08:46:26Z</time>
      </trkpt>
      <trkpt lat="45.06133" lon="1.08698">
        <ele>137.6</ele>
        <time>2022-05-29T08:46:27Z</time>
      </trkpt>
      <trkpt lat="45.0613" lon="1.08677">
        <ele>138</ele>
        <time>2022-05-29T08:46:31Z</time>
      </trkpt>
      <trkpt lat="45.0613" lon="1.08657">
        <ele>138.4</ele>
        <time>2022-05-29T08:46:35Z</time>
      </trkpt>
      <trkpt lat="45.0613" lon="1.08641">
        <ele>138.5</ele>
        <time>2022-05-29T08:46:39Z</time>
      </trkpt>
      <trkpt lat="45.06131" lon="1.08639">
        <ele>138.6</ele>
        <time>2022-05-29T08:46:40Z</time>
      </trkpt>
      <trkpt lat="45.06132" lon="1.08632">
        <ele>138.7</ele>
        <time>2022-05-29T08:46:42Z</time>
      </trkpt>
      <trkpt lat="45.06131" lon="1.08613">
        <ele>139</ele>
        <time>2022-05-29T08:46:46Z</time>
      </trkpt>
      <trkpt lat="45.06132" lon="1.08594">
        <ele>139.3</ele>
        <time>2022-05-29T08:46:50Z</time>
      </trkpt>
      <trkpt lat="45.06131" lon="1.08574">
        <ele>139.6</ele>
        <time>2022-05-29T08:46:55Z</time>
      </trkpt>
      <trkpt lat="45.06127" lon="1.08562">
        <ele>139.8</ele>
        <time>2022-05-29T08:46:58Z</time>
      </trkpt>
      <trkpt lat="45.06125" lon="1.08558">
        <ele>139.9</ele>
        <time>2022-05-29T08:46:59Z</time>
      </trkpt>
      <trkpt lat="45.06126" lon="1.08537">
        <ele>140.2</ele>
        <time>2022-05-29T08:47:03Z</time>
      </trkpt>
      <trkpt lat="45.06131" lon="1.08512">
        <ele>140.9</ele>
        <time>2022-05-29T08:47:08Z</time>
      </trkpt>
      <trkpt lat="45.06132" lon="1.0849">
        <ele>141.7</ele>
        <time>2022-05-29T08:47:13Z</time>
      </trkpt>
      <trkpt lat="45.06135" lon="1.08475">
        <ele>142.4</ele>
        <time>2022-05-29T08:47:17Z</time>
      </trkpt>
      <trkpt lat="45.06131" lon="1.08455">
        <ele>143.2</ele>
        <time>2022-05-29T08:47:22Z</time>
      </trkpt>
      <trkpt lat="45.06128" lon="1.0845">
        <ele>143.4</ele>
        <time>2022-05-29T08:47:24Z</time>
      </trkpt>
      <trkpt lat="45.06135" lon="1.08437">
        <ele>144.1</ele>
        <time>2022-05-29T08:47:26Z</time>
      </trkpt>
      <trkpt lat="45.06139" lon="1.08423">
        <ele>144.8</ele>
        <time>2022-05-29T08:47:30Z</time>
      </trkpt>
      <trkpt lat="45.06139" lon="1.08417">
        <ele>145.1</ele>
        <time>2022-05-29T08:47:31Z</time>
      </trkpt>
      <trkpt lat="45.0614" lon="1.08403">
        <ele>145.5</ele>
        <time>2022-05-29T08:47:34Z</time>
      </trkpt>
      <trkpt lat="45.06138" lon="1.08378">
        <ele>146</ele>
        <time>2022-05-29T08:47:39Z</time>
      </trkpt>
      <trkpt lat="45.06137" lon="1.08356">
        <ele>146.3</ele>
        <time>2022-05-29T08:47:45Z</time>
      </trkpt>
      <trkpt lat="45.06138" lon="1.08349">
        <ele>146.4</ele>
        <time>2022-05-29T08:47:47Z</time>
      </trkpt>
      <trkpt lat="45.0614" lon="1.08339">
        <ele>146.6</ele>
        <time>2022-05-29T08:47:50Z</time>
      </trkpt>
      <trkpt lat="45.0614" lon="1.08332">
        <ele>146.7</ele>
        <time>2022-05-29T08:47:52Z</time>
      </trkpt>
      <trkpt lat="45.0614" lon="1.08322">
        <ele>146.8</ele>
        <time>2022-05-29T08:47:55Z</time>
      </trkpt>
      <trkpt lat="45.06143" lon="1.08306">
        <ele>147.1</ele>
        <time>2022-05-29T08:48:00Z</time>
      </trkpt>
      <trkpt lat="45.06145" lon="1.083">
        <ele>147.3</ele>
        <time>2022-05-29T08:48:02Z</time>
      </trkpt>
      <trkpt lat="45.06144" lon="1.08297">
        <ele>147.3</ele>
        <time>2022-05-29T08:48:03Z</time>
      </trkpt>
      <trkpt lat="45.06145" lon="1.08291">
        <ele>147.5</ele>
        <time>2022-05-29T08:48:06Z</time>
      </trkpt>
      <trkpt lat="45.06146" lon="1.08285">
        <ele>147.7</ele>
        <time>2022-05-29T08:48:08Z</time>
      </trkpt>
      <trkpt lat="45.06148" lon="1.0828">
        <ele>147.9</ele>
        <time>2022-05-29T08:48:10Z</time>
      </trkpt>
      <trkpt lat="45.0615" lon="1.08278">
        <ele>148</ele>
        <time>2022-05-29T08:48:11Z</time>
      </trkpt>
      <trkpt lat="45.06156" lon="1.08271">
        <ele>148</ele>
        <time>2022-05-29T08:48:14Z</time>
      </trkpt>
      <trkpt lat="45.06158" lon="1.08269">
        <ele>148</ele>
        <time>2022-05-29T08:48:15Z</time>
      </trkpt>
      <trkpt lat="45.06165" lon="1.08251">
        <ele>147.7</ele>
        <time>2022-05-29T08:48:21Z</time>
      </trkpt>
      <trkpt lat="45.06174" lon="1.08231">
        <ele>147.8</ele>
        <time>2022-05-29T08:48:28Z</time>
      </trkpt>
      <trkpt lat="45.06177" lon="1.08219">
        <ele>148.1</ele>
        <time>2022-05-29T08:48:31Z</time>
      </trkpt>
      <trkpt lat="45.06178" lon="1.08215">
        <ele>148.3</ele>
        <time>2022-05-29T08:48:32Z</time>
      </trkpt>
      <trkpt lat="45.06179" lon="1.08199">
        <ele>148.8</ele>
        <time>2022-05-29T08:48:35Z</time>
      </trkpt>
      <trkpt lat="45.06177" lon="1.08186">
        <ele>149.5</ele>
        <time>2022-05-29T08:48:39Z</time>
      </trkpt>
      <trkpt lat="45.06177" lon="1.08184">
        <ele>149.6</ele>
        <time>2022-05-29T08:48:40Z</time>
      </trkpt>
      <trkpt lat="45.06174" lon="1.08169">
        <ele>151</ele>
        <time>2022-05-29T08:48:46Z</time>
      </trkpt>
      <trkpt lat="45.06171" lon="1.08162">
        <ele>151.7</ele>
        <time>2022-05-29T08:48:48Z</time>
      </trkpt>
      <trkpt lat="45.06168" lon="1.08151">
        <ele>152.8</ele>
        <time>2022-05-29T08:48:52Z</time>
      </trkpt>
      <trkpt lat="45.06167" lon="1.08142">
        <ele>153.8</ele>
        <time>2022-05-29T08:48:55Z</time>
      </trkpt>
      <trkpt lat="45.06167" lon="1.08136">
        <ele>154.3</ele>
        <time>2022-05-29T08:48:57Z</time>
      </trkpt>
      <trkpt lat="45.06168" lon="1.08128">
        <ele>154.9</ele>
        <time>2022-05-29T08:49:00Z</time>
      </trkpt>
      <trkpt lat="45.06174" lon="1.08115">
        <ele>155.8</ele>
        <time>2022-05-29T08:49:07Z</time>
      </trkpt>
      <trkpt lat="45.06176" lon="1.08109">
        <ele>156.1</ele>
        <time>2022-05-29T08:49:09Z</time>
      </trkpt>
      <trkpt lat="45.06178" lon="1.08104">
        <ele>156.4</ele>
        <time>2022-05-29T08:49:11Z</time>
      </trkpt>
      <trkpt lat="45.06178" lon="1.08102">
        <ele>156.5</ele>
        <time>2022-05-29T08:49:12Z</time>
      </trkpt>
      <trkpt lat="45.0618" lon="1.08096">
        <ele>156.8</ele>
        <time>2022-05-29T08:49:14Z</time>
      </trkpt>
      <trkpt lat="45.06182" lon="1.08091">
        <ele>157</ele>
        <time>2022-05-29T08:49:16Z</time>
      </trkpt>
      <trkpt lat="45.06184" lon="1.08084">
        <ele>157.4</ele>
        <time>2022-05-29T08:49:20Z</time>
      </trkpt>
      <trkpt lat="45.06186" lon="1.08079">
        <ele>157.6</ele>
        <time>2022-05-29T08:49:22Z</time>
      </trkpt>
      <trkpt lat="45.06191" lon="1.08065">
        <ele>158.2</ele>
        <time>2022-05-29T08:49:26Z</time>
      </trkpt>
      <trkpt lat="45.06191" lon="1.08064">
        <ele>158.2</ele>
        <time>2022-05-29T08:49:27Z</time>
      </trkpt>
      <trkpt lat="45.06202" lon="1.08022">
        <ele>159.1</ele>
        <time>2022-05-29T08:49:46Z</time>
      </trkpt>
      <trkpt lat="45.06203" lon="1.08021">
        <ele>159.1</ele>
        <time>2022-05-29T08:49:47Z</time>
      </trkpt>
      <trkpt lat="45.06211" lon="1.08012">
        <ele>159.3</ele>
        <time>2022-05-29T08:49:51Z</time>
      </trkpt>
      <trkpt lat="45.06223" lon="1.08001">
        <ele>159.6</ele>
        <time>2022-05-29T08:49:57Z</time>
      </trkpt>
      <trkpt lat="45.06229" lon="1.07992">
        <ele>159.9</ele>
        <time>2022-05-29T08:50:02Z</time>
      </trkpt>
      <trkpt lat="45.06257" lon="1.07947">
        <ele>162.5</ele>
        <time>2022-05-29T08:50:21Z</time>
      </trkpt>
      <trkpt lat="45.0626" lon="1.07939">
        <ele>163</ele>
        <time>2022-05-29T08:50:24Z</time>
      </trkpt>
      <trkpt lat="45.06261" lon="1.07936">
        <ele>163.1</ele>
        <time>2022-05-29T08:50:25Z</time>
      </trkpt>
      <trkpt lat="45.06263" lon="1.07928">
        <ele>163.6</ele>
        <time>2022-05-29T08:50:29Z</time>
      </trkpt>
      <trkpt lat="45.06264" lon="1.07921">
        <ele>164.1</ele>
        <time>2022-05-29T08:50:32Z</time>
      </trkpt>
      <trkpt lat="45.06264" lon="1.07915">
        <ele>164.5</ele>
        <time>2022-05-29T08:50:34Z</time>
      </trkpt>
      <trkpt lat="45.06264" lon="1.07911">
        <ele>164.9</ele>
        <time>2022-05-29T08:50:35Z</time>
      </trkpt>
      <trkpt lat="45.06267" lon="1.07893">
        <ele>166.5</ele>
        <time>2022-05-29T08:50:40Z</time>
      </trkpt>
      <trkpt lat="45.06268" lon="1.07879">
        <ele>167.8</ele>
        <time>2022-05-29T08:50:45Z</time>
      </trkpt>
      <trkpt lat="45.06271" lon="1.07866">
        <ele>169.1</ele>
        <time>2022-05-29T08:50:50Z</time>
      </trkpt>
      <trkpt lat="45.06254" lon="1.07712">
        <ele>182.2</ele>
        <time>2022-05-29T08:51:56Z</time>
      </trkpt>
      <trkpt lat="45.06256" lon="1.07708">
        <ele>182.6</ele>
        <time>2022-05-29T08:51:58Z</time>
      </trkpt>
      <trkpt lat="45.06257" lon="1.07704">
        <ele>183</ele>
        <time>2022-05-29T08:52:00Z</time>
      </trkpt>
      <trkpt lat="45.06259" lon="1.07694">
        <ele>184</ele>
        <time>2022-05-29T08:52:04Z</time>
      </trkpt>
      <trkpt lat="45.06259" lon="1.07693">
        <ele>184.1</ele>
        <time>2022-05-29T08:52:05Z</time>
      </trkpt>
      <trkpt lat="45.06259" lon="1.07683">
        <ele>185.1</ele>
        <time>2022-05-29T08:52:10Z</time>
      </trkpt>
      <trkpt lat="45.0626" lon="1.07678">
        <ele>185.7</ele>
        <time>2022-05-29T08:52:12Z</time>
      </trkpt>
      <trkpt lat="45.06262" lon="1.07673">
        <ele>191.6</ele>
        <time>2022-05-29T08:52:14Z</time>
      </trkpt>
      <trkpt lat="45.06265" lon="1.07668">
        <ele>191.6</ele>
        <time>2022-05-29T08:52:17Z</time>
      </trkpt>
      <trkpt lat="45.0627" lon="1.07598">
        <ele>191.8</ele>
        <time>2022-05-29T08:53:02Z</time>
      </trkpt>
      <trkpt lat="45.06263" lon="1.07606">
        <ele>191.8</ele>
        <time>2022-05-29T08:53:08Z</time>
      </trkpt>
      <trkpt lat="45.06256" lon="1.07616">
        <ele>191.9</ele>
        <time>2022-05-29T08:53:15Z</time>
      </trkpt>
      <trkpt lat="45.0625" lon="1.0762">
        <ele>191.9</ele>
        <time>2022-05-29T08:53:19Z</time>
      </trkpt>
      <trkpt lat="45.06247" lon="1.07623">
        <ele>191.9</ele>
        <time>2022-05-29T08:53:21Z</time>
      </trkpt>
      <trkpt lat="45.06245" lon="1.07629">
        <ele>191.9</ele>
        <time>2022-05-29T08:53:25Z</time>
      </trkpt>
      <trkpt lat="45.06244" lon="1.07631">
        <ele>191.9</ele>
        <time>2022-05-29T08:53:26Z</time>
      </trkpt>
      <trkpt lat="45.06243" lon="1.07633">
        <ele>191.9</ele>
        <time>2022-05-29T08:53:27Z</time>
      </trkpt>
      <trkpt lat="45.06236" lon="1.07641">
        <ele>192</ele>
        <time>2022-05-29T08:53:32Z</time>
      </trkpt>
      <trkpt lat="45.06229" lon="1.07651">
        <ele>190.9</ele>
        <time>2022-05-29T08:53:39Z</time>
      </trkpt>
      <trkpt lat="45.06219" lon="1.07658">
        <ele>195.1</ele>
        <time>2022-05-29T08:53:44Z</time>
      </trkpt>
      <trkpt lat="45.06217" lon="1.07659">
        <ele>196.1</ele>
        <time>2022-05-29T08:53:45Z</time>
      </trkpt>
      <trkpt lat="45.06211" lon="1.07663">
        <ele>199.4</ele>
        <time>2022-05-29T08:53:50Z</time>
      </trkpt>
      <trkpt lat="45.06203" lon="1.0767">
        <ele>198.3</ele>
        <time>2022-05-29T08:53:56Z</time>
      </trkpt>
      <trkpt lat="45.06198" lon="1.07673">
        <ele>201.2</ele>
        <time>2022-05-29T08:54:00Z</time>
      </trkpt>
      <trkpt lat="45.06179" lon="1.07678">
        <ele>203.6</ele>
        <time>2022-05-29T08:54:24Z</time>
      </trkpt>
      <trkpt lat="45.06178" lon="1.07675">
        <ele>203.9</ele>
        <time>2022-05-29T08:54:27Z</time>
      </trkpt>
      <trkpt lat="45.06178" lon="1.07668">
        <ele>204.4</ele>
        <time>2022-05-29T08:54:30Z</time>
      </trkpt>
      <trkpt lat="45.06178" lon="1.07664">
        <ele>204.7</ele>
        <time>2022-05-29T08:54:32Z</time>
      </trkpt>
      <trkpt lat="45.06179" lon="1.07655">
        <ele>205.3</ele>
        <time>2022-05-29T08:54:36Z</time>
      </trkpt>
      <trkpt lat="45.0618" lon="1.07648">
        <ele>205.8</ele>
        <time>2022-05-29T08:54:39Z</time>
      </trkpt>
      <trkpt lat="45.0618" lon="1.07641">
        <ele>206.3</ele>
        <time>2022-05-29T08:54:42Z</time>
      </trkpt>
      <trkpt lat="45.06182" lon="1.0763">
        <ele>207</ele>
        <time>2022-05-29T08:54:46Z</time>
      </trkpt>
      <trkpt lat="45.06184" lon="1.07626">
        <ele>207.4</ele>
        <time>2022-05-29T08:54:48Z</time>
      </trkpt>
      <trkpt lat="45.06187" lon="1.07611">
        <ele>208.6</ele>
        <time>2022-05-29T08:54:54Z</time>
      </trkpt>
      <trkpt lat="45.0619" lon="1.07596">
        <ele>209.9</ele>
        <time>2022-05-29T08:55:00Z</time>
      </trkpt>
      <trkpt lat="45.06193" lon="1.07581">
        <ele>211.1</ele>
        <time>2022-05-29T08:55:06Z</time>
      </trkpt>
      <trkpt lat="45.06194" lon="1.07567">
        <ele>212</ele>
        <time>2022-05-29T08:55:11Z</time>
      </trkpt>
      <trkpt lat="45.06194" lon="1.07559">
        <ele>212.5</ele>
        <time>2022-05-29T08:55:14Z</time>
      </trkpt>
      <trkpt lat="45.06195" lon="1.07551">
        <ele>213</ele>
        <time>2022-05-29T08:55:17Z</time>
      </trkpt>
      <trkpt lat="45.06197" lon="1.07537">
        <ele>214</ele>
        <time>2022-05-29T08:55:22Z</time>
      </trkpt>
      <trkpt lat="45.062" lon="1.07522">
        <ele>215.3</ele>
        <time>2022-05-29T08:55:28Z</time>
      </trkpt>
      <trkpt lat="45.06197" lon="1.07509">
        <ele>216.5</ele>
        <time>2022-05-29T08:55:34Z</time>
      </trkpt>
      <trkpt lat="45.0619" lon="1.07495">
        <ele>218</ele>
        <time>2022-05-29T08:55:41Z</time>
      </trkpt>
      <trkpt lat="45.06182" lon="1.07481">
        <ele>219.6</ele>
        <time>2022-05-29T08:55:48Z</time>
      </trkpt>
      <trkpt lat="45.06176" lon="1.0747">
        <ele>220.8</ele>
        <time>2022-05-29T08:55:54Z</time>
      </trkpt>
      <trkpt lat="45.06169" lon="1.07457">
        <ele>222.2</ele>
        <time>2022-05-29T08:56:01Z</time>
      </trkpt>
      <trkpt lat="45.06168" lon="1.07456">
        <ele>222.4</ele>
        <time>2022-05-29T08:56:02Z</time>
      </trkpt>
      <trkpt lat="45.06162" lon="1.07451">
        <ele>223.3</ele>
        <time>2022-05-29T08:56:07Z</time>
      </trkpt>
      <trkpt lat="45.06161" lon="1.0745">
        <ele>223.4</ele>
        <time>2022-05-29T08:56:08Z</time>
      </trkpt>
      <trkpt lat="45.06156" lon="1.07448">
        <ele>224.1</ele>
        <time>2022-05-29T08:56:12Z</time>
      </trkpt>
      <trkpt lat="45.06145" lon="1.07449">
        <ele>225.3</ele>
        <time>2022-05-29T08:56:19Z</time>
      </trkpt>
      <trkpt lat="45.06144" lon="1.07449">
        <ele>225.4</ele>
        <time>2022-05-29T08:56:20Z</time>
      </trkpt>
      <trkpt lat="45.06138" lon="1.07449">
        <ele>226</ele>
        <time>2022-05-29T08:56:25Z</time>
      </trkpt>
      <trkpt lat="45.06133" lon="1.07445">
        <ele>226.7</ele>
        <time>2022-05-29T08:56:31Z</time>
      </trkpt>
      <trkpt lat="45.06126" lon="1.07438">
        <ele>227.5</ele>
        <time>2022-05-29T08:56:37Z</time>
      </trkpt>
      <trkpt lat="45.0612" lon="1.07428">
        <ele>228.6</ele>
        <time>2022-05-29T08:56:43Z</time>
      </trkpt>
      <trkpt lat="45.0612" lon="1.07426">
        <ele>228.7</ele>
        <time>2022-05-29T08:56:44Z</time>
      </trkpt>
      <trkpt lat="45.06119" lon="1.07423">
        <ele>229</ele>
        <time>2022-05-29T08:56:46Z</time>
      </trkpt>
      <trkpt lat="45.06117" lon="1.0742">
        <ele>229.3</ele>
        <time>2022-05-29T08:56:48Z</time>
      </trkpt>
      <trkpt lat="45.06113" lon="1.07406">
        <ele>230.3</ele>
        <time>2022-05-29T08:56:54Z</time>
      </trkpt>
      <trkpt lat="45.06109" lon="1.07395">
        <ele>231.1</ele>
        <time>2022-05-29T08:56:59Z</time>
      </trkpt>
      <trkpt lat="45.06107" lon="1.0739">
        <ele>231.4</ele>
        <time>2022-05-29T08:57:01Z</time>
      </trkpt>
      <trkpt lat="45.06103" lon="1.07377">
        <ele>232.3</ele>
        <time>2022-05-29T08:57:07Z</time>
      </trkpt>
      <trkpt lat="45.06102" lon="1.07371">
        <ele>232.7</ele>
        <time>2022-05-29T08:57:10Z</time>
      </trkpt>
      <trkpt lat="45.06101" lon="1.07365">
        <ele>233</ele>
        <time>2022-05-29T08:57:13Z</time>
      </trkpt>
      <trkpt lat="45.06101" lon="1.07352">
        <ele>233.9</ele>
        <time>2022-05-29T08:57:19Z</time>
      </trkpt>
      <trkpt lat="45.06101" lon="1.0735">
        <ele>234</ele>
        <time>2022-05-29T08:57:20Z</time>
      </trkpt>
      <trkpt lat="45.06101" lon="1.07347">
        <ele>234.2</ele>
        <time>2022-05-29T08:57:21Z</time>
      </trkpt>
      <trkpt lat="45.06101" lon="1.07337">
        <ele>234.8</ele>
        <time>2022-05-29T08:57:25Z</time>
      </trkpt>
      <trkpt lat="45.06102" lon="1.07319">
        <ele>235.7</ele>
        <time>2022-05-29T08:57:32Z</time>
      </trkpt>
      <trkpt lat="45.061" lon="1.07302">
        <ele>236.6</ele>
        <time>2022-05-29T08:57:38Z</time>
      </trkpt>
      <trkpt lat="45.06097" lon="1.07279">
        <ele>237.8</ele>
        <time>2022-05-29T08:57:46Z</time>
      </trkpt>
      <trkpt lat="45.06093" lon="1.0726">
        <ele>239.1</ele>
        <time>2022-05-29T08:57:53Z</time>
      </trkpt>
      <trkpt lat="45.06092" lon="1.07242">
        <ele>240.3</ele>
        <time>2022-05-29T08:58:00Z</time>
      </trkpt>
      <trkpt lat="45.06091" lon="1.07226">
        <ele>241.3</ele>
        <time>2022-05-29T08:58:06Z</time>
      </trkpt>
      <trkpt lat="45.06092" lon="1.07214">
        <ele>242</ele>
        <time>2022-05-29T08:58:11Z</time>
      </trkpt>
      <trkpt lat="45.06093" lon="1.07207">
        <ele>242.3</ele>
        <time>2022-05-29T08:58:14Z</time>
      </trkpt>
      <trkpt lat="45.06093" lon="1.07202">
        <ele>242.5</ele>
        <time>2022-05-29T08:58:16Z</time>
      </trkpt>
      <trkpt lat="45.06092" lon="1.07183">
        <ele>243.4</ele>
        <time>2022-05-29T08:58:23Z</time>
      </trkpt>
      <trkpt lat="45.06088" lon="1.07169">
        <ele>244.1</ele>
        <time>2022-05-29T08:58:28Z</time>
      </trkpt>
      <trkpt lat="45.06088" lon="1.07164">
        <ele>244.3</ele>
        <time>2022-05-29T08:58:30Z</time>
      </trkpt>
      <trkpt lat="45.06085" lon="1.07156">
        <ele>244.5</ele>
        <time>2022-05-29T08:58:33Z</time>
      </trkpt>
      <trkpt lat="45.06081" lon="1.07138">
        <ele>245</ele>
        <time>2022-05-29T08:58:38Z</time>
      </trkpt>
      <trkpt lat="45.06073" lon="1.07112">
        <ele>245.9</ele>
        <time>2022-05-29T08:58:44Z</time>
      </trkpt>
      <trkpt lat="45.0607" lon="1.07105">
        <ele>246</ele>
        <time>2022-05-29T08:58:49Z</time>
      </trkpt>
      <trkpt lat="45.06065" lon="1.07087">
        <ele>246.2</ele>
        <time>2022-05-29T08:58:55Z</time>
      </trkpt>
      <trkpt lat="45.06058" lon="1.0706">
        <ele>246.8</ele>
        <time>2022-05-29T08:59:03Z</time>
      </trkpt>
      <trkpt lat="45.06052" lon="1.07038">
        <ele>247.3</ele>
        <time>2022-05-29T08:59:10Z</time>
      </trkpt>
      <trkpt lat="45.06044" lon="1.07014">
        <ele>248</ele>
        <time>2022-05-29T08:59:18Z</time>
      </trkpt>
      <trkpt lat="45.06038" lon="1.06994">
        <ele>248.6</ele>
        <time>2022-05-29T08:59:24Z</time>
      </trkpt>
      <trkpt lat="45.06027" lon="1.06964">
        <ele>249.9</ele>
        <time>2022-05-29T08:59:33Z</time>
      </trkpt>
      <trkpt lat="45.06022" lon="1.06952">
        <ele>250.5</ele>
        <time>2022-05-29T08:59:38Z</time>
      </trkpt>
      <trkpt lat="45.06018" lon="1.06941">
        <ele>251</ele>
        <time>2022-05-29T08:59:43Z</time>
      </trkpt>
      <trkpt lat="45.06017" lon="1.06939">
        <ele>251.1</ele>
        <time>2022-05-29T08:59:44Z</time>
      </trkpt>
      <trkpt lat="45.06011" lon="1.06924">
        <ele>251.9</ele>
        <time>2022-05-29T08:59:49Z</time>
      </trkpt>
      <trkpt lat="45.06002" lon="1.06906">
        <ele>252.8</ele>
        <time>2022-05-29T08:59:55Z</time>
      </trkpt>
      <trkpt lat="45.05996" lon="1.06893">
        <ele>253.4</ele>
        <time>2022-05-29T09:00:00Z</time>
      </trkpt>
      <trkpt lat="45.05989" lon="1.06879">
        <ele>254</ele>
        <time>2022-05-29T09:00:06Z</time>
      </trkpt>
      <trkpt lat="45.05982" lon="1.06863">
        <ele>254.6</ele>
        <time>2022-05-29T09:00:13Z</time>
      </trkpt>
      <trkpt lat="45.05978" lon="1.06852">
        <ele>254.8</ele>
        <time>2022-05-29T09:00:17Z</time>
      </trkpt>
      <trkpt lat="45.05978" lon="1.06848">
        <ele>254.8</ele>
        <time>2022-05-29T09:00:19Z</time>
      </trkpt>
      <trkpt lat="45.05984" lon="1.06832">
        <ele>254.8</ele>
        <time>2022-05-29T09:00:24Z</time>
      </trkpt>
      <trkpt lat="45.05995" lon="1.06818">
        <ele>254.6</ele>
        <time>2022-05-29T09:00:30Z</time>
      </trkpt>
      <trkpt lat="45.06004" lon="1.06806">
        <ele>254.4</ele>
        <time>2022-05-29T09:00:35Z</time>
      </trkpt>
      <trkpt lat="45.06016" lon="1.06792">
        <ele>253.8</ele>
        <time>2022-05-29T09:00:40Z</time>
      </trkpt>
      <trkpt lat="45.0603" lon="1.06768">
        <ele>252.7</ele>
        <time>2022-05-29T09:00:46Z</time>
      </trkpt>
      <trkpt lat="45.06038" lon="1.06748">
        <ele>251.6</ele>
        <time>2022-05-29T09:00:51Z</time>
      </trkpt>
      <trkpt lat="45.06044" lon="1.06722">
        <ele>249.8</ele>
        <time>2022-05-29T09:00:55Z</time>
      </trkpt>
      <trkpt lat="45.06048" lon="1.06701">
        <ele>248.4</ele>
        <time>2022-05-29T09:00:59Z</time>
      </trkpt>
      <trkpt lat="45.06038" lon="1.06682">
        <ele>248</ele>
        <time>2022-05-29T09:01:03Z</time>
      </trkpt>
      <trkpt lat="45.06018" lon="1.06675">
        <ele>248.7</ele>
        <time>2022-05-29T09:01:09Z</time>
      </trkpt>
      <trkpt lat="45.05997" lon="1.0666">
        <ele>249.9</ele>
        <time>2022-05-29T09:01:16Z</time>
      </trkpt>
      <trkpt lat="45.05979" lon="1.06648">
        <ele>251</ele>
        <time>2022-05-29T09:01:22Z</time>
      </trkpt>
      <trkpt lat="45.0595" lon="1.06639">
        <ele>252.7</ele>
        <time>2022-05-29T09:01:31Z</time>
      </trkpt>
      <trkpt lat="45.05926" lon="1.0664">
        <ele>253.9</ele>
        <time>2022-05-29T09:01:39Z</time>
      </trkpt>
      <trkpt lat="45.05905" lon="1.06641">
        <ele>254.5</ele>
        <time>2022-05-29T09:01:46Z</time>
      </trkpt>
      <trkpt lat="45.05873" lon="1.06642">
        <ele>255.1</ele>
        <time>2022-05-29T09:01:56Z</time>
      </trkpt>
      <trkpt lat="45.05848" lon="1.06641">
        <ele>255.6</ele>
        <time>2022-05-29T09:02:04Z</time>
      </trkpt>
      <trkpt lat="45.05823" lon="1.06637">
        <ele>255.8</ele>
        <time>2022-05-29T09:02:12Z</time>
      </trkpt>
      <trkpt lat="45.05796" lon="1.06631">
        <ele>255.4</ele>
        <time>2022-05-29T09:02:20Z</time>
      </trkpt>
      <trkpt lat="45.05765" lon="1.06614">
        <ele>254.6</ele>
        <time>2022-05-29T09:02:29Z</time>
      </trkpt>
      <trkpt lat="45.0573" lon="1.06594">
        <ele>253.7</ele>
        <time>2022-05-29T09:02:38Z</time>
      </trkpt>
      <trkpt lat="45.05688" lon="1.0657">
        <ele>252.3</ele>
        <time>2022-05-29T09:02:48Z</time>
      </trkpt>
      <trkpt lat="45.05652" lon="1.06549">
        <ele>251.4</ele>
        <time>2022-05-29T09:02:56Z</time>
      </trkpt>
      <trkpt lat="45.05648" lon="1.06547">
        <ele>251.4</ele>
        <time>2022-05-29T09:02:57Z</time>
      </trkpt>
      <trkpt lat="45.05635" lon="1.06539">
        <ele>251.3</ele>
        <time>2022-05-29T09:03:00Z</time>
      </trkpt>
      <trkpt lat="45.05622" lon="1.06532">
        <ele>251.2</ele>
        <time>2022-05-29T09:03:03Z</time>
      </trkpt>
      <trkpt lat="45.05613" lon="1.06527">
        <ele>251.2</ele>
        <time>2022-05-29T09:03:05Z</time>
      </trkpt>
      <trkpt lat="45.05594" lon="1.0652">
        <ele>251.4</ele>
        <time>2022-05-29T09:03:09Z</time>
      </trkpt>
      <trkpt lat="45.05585" lon="1.06517">
        <ele>251.5</ele>
        <time>2022-05-29T09:03:11Z</time>
      </trkpt>
      <trkpt lat="45.05567" lon="1.06514">
        <ele>251.7</ele>
        <time>2022-05-29T09:03:15Z</time>
      </trkpt>
      <trkpt lat="45.05558" lon="1.06514">
        <ele>251.8</ele>
        <time>2022-05-29T09:03:17Z</time>
      </trkpt>
      <trkpt lat="45.05528" lon="1.06515">
        <ele>252.4</ele>
        <time>2022-05-29T09:03:24Z</time>
      </trkpt>
      <trkpt lat="45.05498" lon="1.06516">
        <ele>253</ele>
        <time>2022-05-29T09:03:31Z</time>
      </trkpt>
      <trkpt lat="45.05471" lon="1.06514">
        <ele>252.9</ele>
        <time>2022-05-29T09:03:38Z</time>
      </trkpt>
      <trkpt lat="45.05453" lon="1.06504">
        <ele>252.9</ele>
        <time>2022-05-29T09:03:43Z</time>
      </trkpt>
      <trkpt lat="45.05434" lon="1.06492">
        <ele>253.1</ele>
        <time>2022-05-29T09:03:48Z</time>
      </trkpt>
      <trkpt lat="45.05415" lon="1.0648">
        <ele>253.5</ele>
        <time>2022-05-29T09:03:53Z</time>
      </trkpt>
      <trkpt lat="45.05391" lon="1.06465">
        <ele>254.2</ele>
        <time>2022-05-29T09:04:00Z</time>
      </trkpt>
      <trkpt lat="45.05371" lon="1.06452">
        <ele>254.6</ele>
        <time>2022-05-29T09:04:06Z</time>
      </trkpt>
      <trkpt lat="45.05365" lon="1.06448">
        <ele>254.5</ele>
        <time>2022-05-29T09:04:08Z</time>
      </trkpt>
      <trkpt lat="45.05353" lon="1.06432">
        <ele>254.3</ele>
        <time>2022-05-29T09:04:09Z</time>
      </trkpt>
      <trkpt lat="45.0536" lon="1.06419">
        <ele>254.3</ele>
        <time>2022-05-29T09:04:13Z</time>
      </trkpt>
      <trkpt lat="45.05377" lon="1.06391">
        <ele>254.3</ele>
        <time>2022-05-29T09:04:20Z</time>
      </trkpt>
      <trkpt lat="45.05382" lon="1.06383">
        <ele>254.3</ele>
        <time>2022-05-29T09:04:22Z</time>
      </trkpt>
      <trkpt lat="45.0539" lon="1.06372">
        <ele>254.2</ele>
        <time>2022-05-29T09:04:25Z</time>
      </trkpt>
      <trkpt lat="45.05402" lon="1.0636">
        <ele>253.9</ele>
        <time>2022-05-29T09:04:29Z</time>
      </trkpt>
      <trkpt lat="45.05424" lon="1.06343">
        <ele>253.3</ele>
        <time>2022-05-29T09:04:35Z</time>
      </trkpt>
      <trkpt lat="45.05442" lon="1.06319">
        <ele>252.5</ele>
        <time>2022-05-29T09:04:41Z</time>
      </trkpt>
      <trkpt lat="45.05451" lon="1.06291">
        <ele>251.8</ele>
        <time>2022-05-29T09:04:46Z</time>
      </trkpt>
      <trkpt lat="45.05453" lon="1.06278">
        <ele>251.3</ele>
        <time>2022-05-29T09:04:48Z</time>
      </trkpt>
      <trkpt lat="45.05455" lon="1.0625">
        <ele>250.3</ele>
        <time>2022-05-29T09:04:52Z</time>
      </trkpt>
      <trkpt lat="45.05455" lon="1.06187">
        <ele>248</ele>
        <time>2022-05-29T09:05:00Z</time>
      </trkpt>
      <trkpt lat="45.05463" lon="1.06135">
        <ele>245.3</ele>
        <time>2022-05-29T09:05:07Z</time>
      </trkpt>
      <trkpt lat="45.05464" lon="1.06128">
        <ele>245</ele>
        <time>2022-05-29T09:05:08Z</time>
      </trkpt>
      <trkpt lat="45.05465" lon="1.06095">
        <ele>243.5</ele>
        <time>2022-05-29T09:05:12Z</time>
      </trkpt>
      <trkpt lat="45.05465" lon="1.06052">
        <ele>241.3</ele>
        <time>2022-05-29T09:05:17Z</time>
      </trkpt>
      <trkpt lat="45.05465" lon="1.06044">
        <ele>240.9</ele>
        <time>2022-05-29T09:05:18Z</time>
      </trkpt>
      <trkpt lat="45.05465" lon="1.06019">
        <ele>239.8</ele>
        <time>2022-05-29T09:05:21Z</time>
      </trkpt>
      <trkpt lat="45.05467" lon="1.06004">
        <ele>239.2</ele>
        <time>2022-05-29T09:05:23Z</time>
      </trkpt>
      <trkpt lat="45.05475" lon="1.05986">
        <ele>238.5</ele>
        <time>2022-05-29T09:05:26Z</time>
      </trkpt>
      <trkpt lat="45.05478" lon="1.0598">
        <ele>238.2</ele>
        <time>2022-05-29T09:05:27Z</time>
      </trkpt>
      <trkpt lat="45.05481" lon="1.05975">
        <ele>237.9</ele>
        <time>2022-05-29T09:05:28Z</time>
      </trkpt>
      <trkpt lat="45.05489" lon="1.05957">
        <ele>237.1</ele>
        <time>2022-05-29T09:05:31Z</time>
      </trkpt>
      <trkpt lat="45.05493" lon="1.05919">
        <ele>235.6</ele>
        <time>2022-05-29T09:05:36Z</time>
      </trkpt>
      <trkpt lat="45.05498" lon="1.05851">
        <ele>233.7</ele>
        <time>2022-05-29T09:05:44Z</time>
      </trkpt>
      <trkpt lat="45.05495" lon="1.05834">
        <ele>233.4</ele>
        <time>2022-05-29T09:05:46Z</time>
      </trkpt>
      <trkpt lat="45.05489" lon="1.05818">
        <ele>233.2</ele>
        <time>2022-05-29T09:05:48Z</time>
      </trkpt>
      <trkpt lat="45.05465" lon="1.05777">
        <ele>232.3</ele>
        <time>2022-05-29T09:05:54Z</time>
      </trkpt>
      <trkpt lat="45.05447" lon="1.05736">
        <ele>232</ele>
        <time>2022-05-29T09:06:00Z</time>
      </trkpt>
      <trkpt lat="45.05429" lon="1.05663">
        <ele>231.5</ele>
        <time>2022-05-29T09:06:10Z</time>
      </trkpt>
      <trkpt lat="45.05413" lon="1.05608">
        <ele>231.4</ele>
        <time>2022-05-29T09:06:18Z</time>
      </trkpt>
      <trkpt lat="45.05398" lon="1.05566">
        <ele>232.1</ele>
        <time>2022-05-29T09:06:25Z</time>
      </trkpt>
      <trkpt lat="45.0538" lon="1.05521">
        <ele>232.4</ele>
        <time>2022-05-29T09:06:33Z</time>
      </trkpt>
      <trkpt lat="45.05356" lon="1.05475">
        <ele>231.7</ele>
        <time>2022-05-29T09:06:42Z</time>
      </trkpt>
      <trkpt lat="45.05332" lon="1.05436">
        <ele>230.8</ele>
        <time>2022-05-29T09:06:50Z</time>
      </trkpt>
      <trkpt lat="45.05307" lon="1.05389">
        <ele>229.6</ele>
        <time>2022-05-29T09:06:59Z</time>
      </trkpt>
      <trkpt lat="45.0528" lon="1.05346">
        <ele>228.3</ele>
        <time>2022-05-29T09:07:07Z</time>
      </trkpt>
      <trkpt lat="45.05246" lon="1.05304">
        <ele>227</ele>
        <time>2022-05-29T09:07:15Z</time>
      </trkpt>
      <trkpt lat="45.05215" lon="1.0527">
        <ele>226.1</ele>
        <time>2022-05-29T09:07:22Z</time>
      </trkpt>
      <trkpt lat="45.05174" lon="1.05234">
        <ele>224.7</ele>
        <time>2022-05-29T09:07:31Z</time>
      </trkpt>
      <trkpt lat="45.0514" lon="1.05208">
        <ele>223.3</ele>
        <time>2022-05-29T09:07:38Z</time>
      </trkpt>
      <trkpt lat="45.0512" lon="1.05189">
        <ele>222.2</ele>
        <time>2022-05-29T09:07:43Z</time>
      </trkpt>
      <trkpt lat="45.05107" lon="1.0516">
        <ele>221.2</ele>
        <time>2022-05-29T09:07:48Z</time>
      </trkpt>
      <trkpt lat="45.05097" lon="1.05131">
        <ele>220.2</ele>
        <time>2022-05-29T09:07:54Z</time>
      </trkpt>
      <trkpt lat="45.05083" lon="1.05089">
        <ele>218.5</ele>
        <time>2022-05-29T09:08:02Z</time>
      </trkpt>
      <trkpt lat="45.05073" lon="1.05058">
        <ele>217</ele>
        <time>2022-05-29T09:08:08Z</time>
      </trkpt>
      <trkpt lat="45.05074" lon="1.05045">
        <ele>216.3</ele>
        <time>2022-05-29T09:08:11Z</time>
      </trkpt>
      <trkpt lat="45.05076" lon="1.05041">
        <ele>216.2</ele>
        <time>2022-05-29T09:08:12Z</time>
      </trkpt>
      <trkpt lat="45.05088" lon="1.05025">
        <ele>215.2</ele>
        <time>2022-05-29T09:08:17Z</time>
      </trkpt>
      <trkpt lat="45.05103" lon="1.05006">
        <ele>213.8</ele>
        <time>2022-05-29T09:08:22Z</time>
      </trkpt>
      <trkpt lat="45.0511" lon="1.04999">
        <ele>213.1</ele>
        <time>2022-05-29T09:08:24Z</time>
      </trkpt>
      <trkpt lat="45.05123" lon="1.04989">
        <ele>212.1</ele>
        <time>2022-05-29T09:08:27Z</time>
      </trkpt>
      <trkpt lat="45.05131" lon="1.04984">
        <ele>211.5</ele>
        <time>2022-05-29T09:08:29Z</time>
      </trkpt>
      <trkpt lat="45.05147" lon="1.04979">
        <ele>210.1</ele>
        <time>2022-05-29T09:08:32Z</time>
      </trkpt>
      <trkpt lat="45.05154" lon="1.04974">
        <ele>209</ele>
        <time>2022-05-29T09:08:34Z</time>
      </trkpt>
      <trkpt lat="45.05158" lon="1.04966">
        <ele>208.1</ele>
        <time>2022-05-29T09:08:36Z</time>
      </trkpt>
      <trkpt lat="45.05155" lon="1.0496">
        <ele>207.5</ele>
        <time>2022-05-29T09:08:37Z</time>
      </trkpt>
      <trkpt lat="45.0515" lon="1.04956">
        <ele>206.9</ele>
        <time>2022-05-29T09:08:38Z</time>
      </trkpt>
      <trkpt lat="45.05146" lon="1.04952">
        <ele>206.4</ele>
        <time>2022-05-29T09:08:40Z</time>
      </trkpt>
      <trkpt lat="45.05133" lon="1.0494">
        <ele>205.2</ele>
        <time>2022-05-29T09:08:43Z</time>
      </trkpt>
      <trkpt lat="45.05124" lon="1.04935">
        <ele>204.6</ele>
        <time>2022-05-29T09:08:45Z</time>
      </trkpt>
      <trkpt lat="45.05116" lon="1.0492">
        <ele>204.2</ele>
        <time>2022-05-29T09:08:47Z</time>
      </trkpt>
      <trkpt lat="45.05107" lon="1.04922">
        <ele>204.2</ele>
        <time>2022-05-29T09:08:48Z</time>
      </trkpt>
      <trkpt lat="45.05091" lon="1.04927">
        <ele>204.4</ele>
        <time>2022-05-29T09:08:51Z</time>
      </trkpt>
      <trkpt lat="45.05066" lon="1.04933">
        <ele>204.4</ele>
        <time>2022-05-29T09:08:56Z</time>
      </trkpt>
      <trkpt lat="45.05052" lon="1.04936">
        <ele>204</ele>
        <time>2022-05-29T09:08:59Z</time>
      </trkpt>
      <trkpt lat="45.05042" lon="1.04938">
        <ele>203.6</ele>
        <time>2022-05-29T09:09:01Z</time>
      </trkpt>
      <trkpt lat="45.05022" lon="1.04944">
        <ele>202.5</ele>
        <time>2022-05-29T09:09:05Z</time>
      </trkpt>
      <trkpt lat="45.05017" lon="1.04946">
        <ele>202.3</ele>
        <time>2022-05-29T09:09:06Z</time>
      </trkpt>
      <trkpt lat="45.04995" lon="1.04954">
        <ele>201.2</ele>
        <time>2022-05-29T09:09:10Z</time>
      </trkpt>
      <trkpt lat="45.04983" lon="1.04958">
        <ele>200</ele>
        <time>2022-05-29T09:09:12Z</time>
      </trkpt>
      <trkpt lat="45.04973" lon="1.04962">
        <ele>198.8</ele>
        <time>2022-05-29T09:09:14Z</time>
      </trkpt>
      <trkpt lat="45.04968" lon="1.04966">
        <ele>198.1</ele>
        <time>2022-05-29T09:09:15Z</time>
      </trkpt>
      <trkpt lat="45.04931" lon="1.04984">
        <ele>193</ele>
        <time>2022-05-29T09:09:21Z</time>
      </trkpt>
      <trkpt lat="45.04925" lon="1.04986">
        <ele>192.3</ele>
        <time>2022-05-29T09:09:22Z</time>
      </trkpt>
      <trkpt lat="45.04901" lon="1.04997">
        <ele>189.4</ele>
        <time>2022-05-29T09:09:26Z</time>
      </trkpt>
      <trkpt lat="45.04895" lon="1.05">
        <ele>188.7</ele>
        <time>2022-05-29T09:09:27Z</time>
      </trkpt>
      <trkpt lat="45.04884" lon="1.05005">
        <ele>187.1</ele>
        <time>2022-05-29T09:09:29Z</time>
      </trkpt>
      <trkpt lat="45.04878" lon="1.05009">
        <ele>186.2</ele>
        <time>2022-05-29T09:09:30Z</time>
      </trkpt>
      <trkpt lat="45.04854" lon="1.05025">
        <ele>183.2</ele>
        <time>2022-05-29T09:09:34Z</time>
      </trkpt>
      <trkpt lat="45.04812" lon="1.05051">
        <ele>177.4</ele>
        <time>2022-05-29T09:09:41Z</time>
      </trkpt>
      <trkpt lat="45.04805" lon="1.05056">
        <ele>176.6</ele>
        <time>2022-05-29T09:09:42Z</time>
      </trkpt>
      <trkpt lat="45.04788" lon="1.05073">
        <ele>174.5</ele>
        <time>2022-05-29T09:09:45Z</time>
      </trkpt>
      <trkpt lat="45.04767" lon="1.05104">
        <ele>172.2</ele>
        <time>2022-05-29T09:09:50Z</time>
      </trkpt>
      <trkpt lat="45.04755" lon="1.05141">
        <ele>169.9</ele>
        <time>2022-05-29T09:09:55Z</time>
      </trkpt>
      <trkpt lat="45.04755" lon="1.05175">
        <ele>168.4</ele>
        <time>2022-05-29T09:09:59Z</time>
      </trkpt>
      <trkpt lat="45.04759" lon="1.05199">
        <ele>166.7</ele>
        <time>2022-05-29T09:10:02Z</time>
      </trkpt>
      <trkpt lat="45.04762" lon="1.05207">
        <ele>166.1</ele>
        <time>2022-05-29T09:10:03Z</time>
      </trkpt>
      <trkpt lat="45.04776" lon="1.05241">
        <ele>163.1</ele>
        <time>2022-05-29T09:10:08Z</time>
      </trkpt>
      <trkpt lat="45.0477" lon="1.05247">
        <ele>162.3</ele>
        <time>2022-05-29T09:10:11Z</time>
      </trkpt>
      <trkpt lat="45.04767" lon="1.05244">
        <ele>162</ele>
        <time>2022-05-29T09:10:12Z</time>
      </trkpt>
      <trkpt lat="45.04759" lon="1.05237">
        <ele>161.1</ele>
        <time>2022-05-29T09:10:14Z</time>
      </trkpt>
      <trkpt lat="45.04738" lon="1.05219">
        <ele>159.8</ele>
        <time>2022-05-29T09:10:18Z</time>
      </trkpt>
      <trkpt lat="45.04709" lon="1.05191">
        <ele>157.2</ele>
        <time>2022-05-29T09:10:23Z</time>
      </trkpt>
      <trkpt lat="45.04704" lon="1.05184">
        <ele>156.3</ele>
        <time>2022-05-29T09:10:24Z</time>
      </trkpt>
      <trkpt lat="45.047" lon="1.05176">
        <ele>155.3</ele>
        <time>2022-05-29T09:10:25Z</time>
      </trkpt>
      <trkpt lat="45.04692" lon="1.05151">
        <ele>152.8</ele>
        <time>2022-05-29T09:10:28Z</time>
      </trkpt>
      <trkpt lat="45.04688" lon="1.05141">
        <ele>151.9</ele>
        <time>2022-05-29T09:10:30Z</time>
      </trkpt>
      <trkpt lat="45.04684" lon="1.05143">
        <ele>151.4</ele>
        <time>2022-05-29T09:10:31Z</time>
      </trkpt>
      <trkpt lat="45.0468" lon="1.05145">
        <ele>150.1</ele>
        <time>2022-05-29T09:10:32Z</time>
      </trkpt>
      <trkpt lat="45.04669" lon="1.05149">
        <ele>148.9</ele>
        <time>2022-05-29T09:10:34Z</time>
      </trkpt>
      <trkpt lat="45.04652" lon="1.05147">
        <ele>147.5</ele>
        <time>2022-05-29T09:10:37Z</time>
      </trkpt>
      <trkpt lat="45.04646" lon="1.05148">
        <ele>147.3</ele>
        <time>2022-05-29T09:10:38Z</time>
      </trkpt>
      <trkpt lat="45.04635" lon="1.05153">
        <ele>147.1</ele>
        <time>2022-05-29T09:10:40Z</time>
      </trkpt>
      <trkpt lat="45.04625" lon="1.05157">
        <ele>147.2</ele>
        <time>2022-05-29T09:10:42Z</time>
      </trkpt>
      <trkpt lat="45.04617" lon="1.05158">
        <ele>147.2</ele>
        <time>2022-05-29T09:10:45Z</time>
      </trkpt>
      <trkpt lat="45.04594" lon="1.05129">
        <ele>147.8</ele>
        <time>2022-05-29T09:10:49Z</time>
      </trkpt>
      <trkpt lat="45.04591" lon="1.0511">
        <ele>147.7</ele>
        <time>2022-05-29T09:10:54Z</time>
      </trkpt>
      <trkpt lat="45.04584" lon="1.05086">
        <ele>147.3</ele>
        <time>2022-05-29T09:10:59Z</time>
      </trkpt>
      <trkpt lat="45.04576" lon="1.0507">
        <ele>146.4</ele>
        <time>2022-05-29T09:11:03Z</time>
      </trkpt>
      <trkpt lat="45.04568" lon="1.05055">
        <ele>145.4</ele>
        <time>2022-05-29T09:11:06Z</time>
      </trkpt>
      <trkpt lat="45.04564" lon="1.0505">
        <ele>145</ele>
        <time>2022-05-29T09:11:07Z</time>
      </trkpt>
      <trkpt lat="45.04551" lon="1.0504">
        <ele>144</ele>
        <time>2022-05-29T09:11:10Z</time>
      </trkpt>
      <trkpt lat="45.0453" lon="1.05031">
        <ele>142.1</ele>
        <time>2022-05-29T09:11:14Z</time>
      </trkpt>
      <trkpt lat="45.04503" lon="1.0502">
        <ele>140.5</ele>
        <time>2022-05-29T09:11:18Z</time>
      </trkpt>
      <trkpt lat="45.04475" lon="1.05009">
        <ele>139.6</ele>
        <time>2022-05-29T09:11:22Z</time>
      </trkpt>
      <trkpt lat="45.04429" lon="1.04999">
        <ele>138.2</ele>
        <time>2022-05-29T09:11:29Z</time>
      </trkpt>
      <trkpt lat="45.04388" lon="1.04993">
        <ele>136.4</ele>
        <time>2022-05-29T09:11:36Z</time>
      </trkpt>
      <trkpt lat="45.04371" lon="1.04992">
        <ele>135.6</ele>
        <time>2022-05-29T09:11:39Z</time>
      </trkpt>
      <trkpt lat="45.0436" lon="1.04994">
        <ele>135</ele>
        <time>2022-05-29T09:11:41Z</time>
      </trkpt>
      <trkpt lat="45.04342" lon="1.04996">
        <ele>134.2</ele>
        <time>2022-05-29T09:11:44Z</time>
      </trkpt>
      <trkpt lat="45.04337" lon="1.04995">
        <ele>134</ele>
        <time>2022-05-29T09:11:45Z</time>
      </trkpt>
      <trkpt lat="45.04315" lon="1.04985">
        <ele>133.3</ele>
        <time>2022-05-29T09:11:49Z</time>
      </trkpt>
      <trkpt lat="45.04305" lon="1.04977">
        <ele>133</ele>
        <time>2022-05-29T09:11:51Z</time>
      </trkpt>
      <trkpt lat="45.04265" lon="1.04953">
        <ele>132.3</ele>
        <time>2022-05-29T09:11:59Z</time>
      </trkpt>
      <trkpt lat="45.04227" lon="1.04934">
        <ele>131.3</ele>
        <time>2022-05-29T09:12:05Z</time>
      </trkpt>
      <trkpt lat="45.04184" lon="1.04915">
        <ele>129.9</ele>
        <time>2022-05-29T09:12:11Z</time>
      </trkpt>
      <trkpt lat="45.04156" lon="1.04907">
        <ele>128.8</ele>
        <time>2022-05-29T09:12:16Z</time>
      </trkpt>
      <trkpt lat="45.04139" lon="1.0491">
        <ele>128.3</ele>
        <time>2022-05-29T09:12:20Z</time>
      </trkpt>
      <trkpt lat="45.04136" lon="1.0491">
        <ele>128.2</ele>
        <time>2022-05-29T09:12:22Z</time>
      </trkpt>
      <trkpt lat="45.04134" lon="1.04902">
        <ele>128.1</ele>
        <time>2022-05-29T09:12:24Z</time>
      </trkpt>
      <trkpt lat="45.04133" lon="1.04885">
        <ele>128.1</ele>
        <time>2022-05-29T09:12:28Z</time>
      </trkpt>
      <trkpt lat="45.04124" lon="1.04866">
        <ele>127.9</ele>
        <time>2022-05-29T09:12:32Z</time>
      </trkpt>
      <trkpt lat="45.04102" lon="1.04839">
        <ele>127.4</ele>
        <time>2022-05-29T09:12:39Z</time>
      </trkpt>
      <trkpt lat="45.04094" lon="1.04828">
        <ele>127.5</ele>
        <time>2022-05-29T09:12:43Z</time>
      </trkpt>
      <trkpt lat="45.04086" lon="1.04815">
        <ele>127.9</ele>
        <time>2022-05-29T09:12:48Z</time>
      </trkpt>
      <trkpt lat="45.04085" lon="1.04811">
        <ele>127.8</ele>
        <time>2022-05-29T09:12:49Z</time>
      </trkpt>
      <trkpt lat="45.04084" lon="1.04795">
        <ele>128.9</ele>
        <time>2022-05-29T09:12:55Z</time>
      </trkpt>
      <trkpt lat="45.04084" lon="1.04777">
        <ele>131.3</ele>
        <time>2022-05-29T09:13:00Z</time>
      </trkpt>
      <trkpt lat="45.04081" lon="1.04763">
        <ele>134.5</ele>
        <time>2022-05-29T09:13:05Z</time>
      </trkpt>
      <trkpt lat="45.04079" lon="1.04755">
        <ele>134.5</ele>
        <time>2022-05-29T09:13:08Z</time>
      </trkpt>
      <trkpt lat="45.04075" lon="1.04749">
        <ele>134.6</ele>
        <time>2022-05-29T09:13:11Z</time>
      </trkpt>
      <trkpt lat="45.04066" lon="1.04741">
        <ele>138.6</ele>
        <time>2022-05-29T09:13:16Z</time>
      </trkpt>
      <trkpt lat="45.04052" lon="1.04735">
        <ele>138.7</ele>
        <time>2022-05-29T09:13:22Z</time>
      </trkpt>
      <trkpt lat="45.04045" lon="1.0473">
        <ele>143.2</ele>
        <time>2022-05-29T09:13:26Z</time>
      </trkpt>
      <trkpt lat="45.04044" lon="1.0473">
        <ele>143.2</ele>
        <time>2022-05-29T09:13:27Z</time>
      </trkpt>
      <trkpt lat="45.04038" lon="1.04726">
        <ele>143.2</ele>
        <time>2022-05-29T09:13:31Z</time>
      </trkpt>
      <trkpt lat="45.04035" lon="1.04724">
        <ele>143.1</ele>
        <time>2022-05-29T09:13:33Z</time>
      </trkpt>
      <trkpt lat="45.04024" lon="1.04716">
        <ele>143.1</ele>
        <time>2022-05-29T09:13:39Z</time>
      </trkpt>
      <trkpt lat="45.04023" lon="1.04715">
        <ele>143.1</ele>
        <time>2022-05-29T09:13:40Z</time>
      </trkpt>
      <trkpt lat="45.0402" lon="1.04713">
        <ele>148.3</ele>
        <time>2022-05-29T09:13:42Z</time>
      </trkpt>
      <trkpt lat="45.04019" lon="1.04712">
        <ele>148.2</ele>
        <time>2022-05-29T09:13:43Z</time>
      </trkpt>
      <trkpt lat="45.04018" lon="1.0471">
        <ele>148.2</ele>
        <time>2022-05-29T09:13:44Z</time>
      </trkpt>
      <trkpt lat="45.04013" lon="1.04708">
        <ele>148.3</ele>
        <time>2022-05-29T09:13:47Z</time>
      </trkpt>
      <trkpt lat="45.0401" lon="1.04707">
        <ele>148.2</ele>
        <time>2022-05-29T09:13:49Z</time>
      </trkpt>
      <trkpt lat="45.04006" lon="1.04706">
        <ele>148.2</ele>
        <time>2022-05-29T09:13:51Z</time>
      </trkpt>
      <trkpt lat="45.04003" lon="1.04706">
        <ele>148.2</ele>
        <time>2022-05-29T09:13:52Z</time>
      </trkpt>
      <trkpt lat="45.03993" lon="1.04704">
        <ele>147.7</ele>
        <time>2022-05-29T09:13:58Z</time>
      </trkpt>
      <trkpt lat="45.03991" lon="1.04703">
        <ele>147.7</ele>
        <time>2022-05-29T09:13:59Z</time>
      </trkpt>
      <trkpt lat="45.03978" lon="1.04697">
        <ele>146.5</ele>
        <time>2022-05-29T09:14:05Z</time>
      </trkpt>
      <trkpt lat="45.03968" lon="1.04691">
        <ele>149.6</ele>
        <time>2022-05-29T09:14:12Z</time>
      </trkpt>
      <trkpt lat="45.03965" lon="1.04689">
        <ele>149.6</ele>
        <time>2022-05-29T09:14:15Z</time>
      </trkpt>
      <trkpt lat="45.03962" lon="1.04688">
        <ele>149.6</ele>
        <time>2022-05-29T09:14:17Z</time>
      </trkpt>
      <trkpt lat="45.03953" lon="1.04684">
        <ele>147.7</ele>
        <time>2022-05-29T09:14:23Z</time>
      </trkpt>
      <trkpt lat="45.03952" lon="1.04683">
        <ele>147.6</ele>
        <time>2022-05-29T09:14:24Z</time>
      </trkpt>
      <trkpt lat="45.03945" lon="1.04681">
        <ele>147.6</ele>
        <time>2022-05-29T09:14:28Z</time>
      </trkpt>
      <trkpt lat="45.03934" lon="1.04677">
        <ele>149.9</ele>
        <time>2022-05-29T09:14:35Z</time>
      </trkpt>
      <trkpt lat="45.03931" lon="1.04677">
        <ele>148.2</ele>
        <time>2022-05-29T09:14:37Z</time>
      </trkpt>
      <trkpt lat="45.03928" lon="1.04676">
        <ele>148.2</ele>
        <time>2022-05-29T09:14:39Z</time>
      </trkpt>
      <trkpt lat="45.03926" lon="1.04676">
        <ele>148.1</ele>
        <time>2022-05-29T09:14:40Z</time>
      </trkpt>
      <trkpt lat="45.03918" lon="1.04671">
        <ele>146.6</ele>
        <time>2022-05-29T09:14:45Z</time>
      </trkpt>
      <trkpt lat="45.03917" lon="1.04671">
        <ele>146.6</ele>
        <time>2022-05-29T09:14:46Z</time>
      </trkpt>
      <trkpt lat="45.03906" lon="1.04667">
        <ele>145.2</ele>
        <time>2022-05-29T09:14:53Z</time>
      </trkpt>
      <trkpt lat="45.03904" lon="1.04668">
        <ele>145.1</ele>
        <time>2022-05-29T09:14:54Z</time>
      </trkpt>
      <trkpt lat="45.03896" lon="1.04665">
        <ele>145.1</ele>
        <time>2022-05-29T09:14:59Z</time>
      </trkpt>
      <trkpt lat="45.03888" lon="1.04662">
        <ele>147.8</ele>
        <time>2022-05-29T09:15:05Z</time>
      </trkpt>
      <trkpt lat="45.03878" lon="1.04658">
        <ele>146</ele>
        <time>2022-05-29T09:15:11Z</time>
      </trkpt>
      <trkpt lat="45.03875" lon="1.04656">
        <ele>146</ele>
        <time>2022-05-29T09:15:14Z</time>
      </trkpt>
      <trkpt lat="45.03872" lon="1.04655">
        <ele>145.9</ele>
        <time>2022-05-29T09:15:16Z</time>
      </trkpt>
      <trkpt lat="45.03871" lon="1.04655">
        <ele>144.9</ele>
        <time>2022-05-29T09:15:17Z</time>
      </trkpt>
      <trkpt lat="45.03862" lon="1.04652">
        <ele>144.8</ele>
        <time>2022-05-29T09:15:22Z</time>
      </trkpt>
      <trkpt lat="45.03853" lon="1.04649">
        <ele>144.3</ele>
        <time>2022-05-29T09:15:28Z</time>
      </trkpt>
      <trkpt lat="45.0385" lon="1.04649">
        <ele>144.2</ele>
        <time>2022-05-29T09:15:30Z</time>
      </trkpt>
      <trkpt lat="45.03846" lon="1.04647">
        <ele>144.1</ele>
        <time>2022-05-29T09:15:32Z</time>
      </trkpt>
      <trkpt lat="45.03836" lon="1.04639">
        <ele>149.2</ele>
        <time>2022-05-29T09:15:39Z</time>
      </trkpt>
      <trkpt lat="45.03829" lon="1.04636">
        <ele>149.1</ele>
        <time>2022-05-29T09:15:44Z</time>
      </trkpt>
      <trkpt lat="45.0382" lon="1.04629">
        <ele>148.9</ele>
        <time>2022-05-29T09:15:51Z</time>
      </trkpt>
      <trkpt lat="45.03811" lon="1.04628">
        <ele>148.7</ele>
        <time>2022-05-29T09:15:57Z</time>
      </trkpt>
      <trkpt lat="45.03803" lon="1.04622">
        <ele>154.2</ele>
        <time>2022-05-29T09:16:02Z</time>
      </trkpt>
      <trkpt lat="45.03796" lon="1.04618">
        <ele>154.4</ele>
        <time>2022-05-29T09:16:06Z</time>
      </trkpt>
      <trkpt lat="45.03792" lon="1.04615">
        <ele>154.3</ele>
        <time>2022-05-29T09:16:08Z</time>
      </trkpt>
      <trkpt lat="45.0378" lon="1.04609">
        <ele>161.4</ele>
        <time>2022-05-29T09:16:15Z</time>
      </trkpt>
      <trkpt lat="45.03778" lon="1.04608">
        <ele>161.4</ele>
        <time>2022-05-29T09:16:16Z</time>
      </trkpt>
      <trkpt lat="45.03761" lon="1.04596">
        <ele>162.1</ele>
        <time>2022-05-29T09:16:25Z</time>
      </trkpt>
      <trkpt lat="45.03751" lon="1.04587">
        <ele>168.3</ele>
        <time>2022-05-29T09:16:31Z</time>
      </trkpt>
      <trkpt lat="45.03738" lon="1.04579">
        <ele>168.2</ele>
        <time>2022-05-29T09:16:38Z</time>
      </trkpt>
      <trkpt lat="45.03725" lon="1.04569">
        <ele>173</ele>
        <time>2022-05-29T09:16:45Z</time>
      </trkpt>
      <trkpt lat="45.03712" lon="1.04557">
        <ele>177.3</ele>
        <time>2022-05-29T09:16:52Z</time>
      </trkpt>
      <trkpt lat="45.03698" lon="1.04546">
        <ele>176.1</ele>
        <time>2022-05-29T09:16:58Z</time>
      </trkpt>
      <trkpt lat="45.03686" lon="1.04537">
        <ele>178.9</ele>
        <time>2022-05-29T09:17:04Z</time>
      </trkpt>
      <trkpt lat="45.03671" lon="1.04528">
        <ele>177.3</ele>
        <time>2022-05-29T09:17:10Z</time>
      </trkpt>
      <trkpt lat="45.03649" lon="1.04516">
        <ele>178.1</ele>
        <time>2022-05-29T09:17:17Z</time>
      </trkpt>
      <trkpt lat="45.03625" lon="1.04497">
        <ele>178.5</ele>
        <time>2022-05-29T09:17:24Z</time>
      </trkpt>
      <trkpt lat="45.03607" lon="1.04486">
        <ele>179.4</ele>
        <time>2022-05-29T09:17:28Z</time>
      </trkpt>
      <trkpt lat="45.03587" lon="1.04469">
        <ele>177.8</ele>
        <time>2022-05-29T09:17:34Z</time>
      </trkpt>
      <trkpt lat="45.03567" lon="1.04455">
        <ele>175</ele>
        <time>2022-05-29T09:17:40Z</time>
      </trkpt>
      <trkpt lat="45.03541" lon="1.04446">
        <ele>170.1</ele>
        <time>2022-05-29T09:17:47Z</time>
      </trkpt>
      <trkpt lat="45.03518" lon="1.04436">
        <ele>167.6</ele>
        <time>2022-05-29T09:17:53Z</time>
      </trkpt>
      <trkpt lat="45.03495" lon="1.04421">
        <ele>164.5</ele>
        <time>2022-05-29T09:17:58Z</time>
      </trkpt>
      <trkpt lat="45.0349" lon="1.04419">
        <ele>164.5</ele>
        <time>2022-05-29T09:17:59Z</time>
      </trkpt>
      <trkpt lat="45.03472" lon="1.04416">
        <ele>162.5</ele>
        <time>2022-05-29T09:18:02Z</time>
      </trkpt>
      <trkpt lat="45.03459" lon="1.04415">
        <ele>158.6</ele>
        <time>2022-05-29T09:18:04Z</time>
      </trkpt>
      <trkpt lat="45.03452" lon="1.04417">
        <ele>158.6</ele>
        <time>2022-05-29T09:18:05Z</time>
      </trkpt>
      <trkpt lat="45.03446" lon="1.04418">
        <ele>156.8</ele>
        <time>2022-05-29T09:18:06Z</time>
      </trkpt>
      <trkpt lat="45.0344" lon="1.04417">
        <ele>156.8</ele>
        <time>2022-05-29T09:18:08Z</time>
      </trkpt>
      <trkpt lat="45.0343" lon="1.04419">
        <ele>155</ele>
        <time>2022-05-29T09:18:13Z</time>
      </trkpt>
      <trkpt lat="45.03428" lon="1.04419">
        <ele>155</ele>
        <time>2022-05-29T09:18:15Z</time>
      </trkpt>
      <trkpt lat="45.03425" lon="1.04418">
        <ele>154.9</ele>
        <time>2022-05-29T09:18:17Z</time>
      </trkpt>
      <trkpt lat="45.03424" lon="1.04414">
        <ele>154.9</ele>
        <time>2022-05-29T09:18:19Z</time>
      </trkpt>
      <trkpt lat="45.03423" lon="1.04408">
        <ele>154.9</ele>
        <time>2022-05-29T09:18:23Z</time>
      </trkpt>
      <trkpt lat="45.03423" lon="1.04408">
        <ele>154.8</ele>
        <time>2022-05-29T09:18:24Z</time>
      </trkpt>
      <trkpt lat="45.03439" lon="1.04425">
        <ele>155.4</ele>
        <time>2022-05-29T09:19:04Z</time>
      </trkpt>
      <trkpt lat="45.03442" lon="1.04425">
        <ele>155.4</ele>
        <time>2022-05-29T09:19:06Z</time>
      </trkpt>
      <trkpt lat="45.03446" lon="1.04423">
        <ele>155.3</ele>
        <time>2022-05-29T09:19:09Z</time>
      </trkpt>
      <trkpt lat="45.03446" lon="1.04421">
        <ele>156.4</ele>
        <time>2022-05-29T09:19:10Z</time>
      </trkpt>
      <trkpt lat="45.03446" lon="1.04419">
        <ele>156.4</ele>
        <time>2022-05-29T09:19:11Z</time>
      </trkpt>
      <trkpt lat="45.03444" lon="1.04407">
        <ele>156.4</ele>
        <time>2022-05-29T09:19:14Z</time>
      </trkpt>
      <trkpt lat="45.03449" lon="1.0439">
        <ele>158.4</ele>
        <time>2022-05-29T09:19:19Z</time>
      </trkpt>
      <trkpt lat="45.03452" lon="1.04387">
        <ele>158</ele>
        <time>2022-05-29T09:19:20Z</time>
      </trkpt>
      <trkpt lat="45.03454" lon="1.04378">
        <ele>158</ele>
        <time>2022-05-29T09:19:22Z</time>
      </trkpt>
      <trkpt lat="45.03459" lon="1.04357">
        <ele>156.8</ele>
        <time>2022-05-29T09:19:27Z</time>
      </trkpt>
      <trkpt lat="45.0346" lon="1.04349">
        <ele>156.7</ele>
        <time>2022-05-29T09:19:33Z</time>
      </trkpt>
      <trkpt lat="45.03461" lon="1.04344">
        <ele>156.7</ele>
        <time>2022-05-29T09:19:38Z</time>
      </trkpt>
      <trkpt lat="45.03464" lon="1.04336">
        <ele>156.6</ele>
        <time>2022-05-29T09:19:40Z</time>
      </trkpt>
      <trkpt lat="45.03471" lon="1.04332">
        <ele>154.7</ele>
        <time>2022-05-29T09:19:42Z</time>
      </trkpt>
      <trkpt lat="45.03473" lon="1.04332">
        <ele>156.9</ele>
        <time>2022-05-29T09:19:43Z</time>
      </trkpt>
      <trkpt lat="45.03481" lon="1.04328">
        <ele>156.8</ele>
        <time>2022-05-29T09:19:47Z</time>
      </trkpt>
      <trkpt lat="45.03483" lon="1.04325">
        <ele>156.8</ele>
        <time>2022-05-29T09:19:48Z</time>
      </trkpt>
      <trkpt lat="45.03487" lon="1.04309">
        <ele>156.2</ele>
        <time>2022-05-29T09:19:52Z</time>
      </trkpt>
      <trkpt lat="45.03486" lon="1.043">
        <ele>153.1</ele>
        <time>2022-05-29T09:19:55Z</time>
      </trkpt>
      <trkpt lat="45.03486" lon="1.04295">
        <ele>153.1</ele>
        <time>2022-05-29T09:19:56Z</time>
      </trkpt>
      <trkpt lat="45.03491" lon="1.04287">
        <ele>153</ele>
        <time>2022-05-29T09:19:58Z</time>
      </trkpt>
      <trkpt lat="45.03497" lon="1.04272">
        <ele>152.2</ele>
        <time>2022-05-29T09:20:02Z</time>
      </trkpt>
      <trkpt lat="45.03504" lon="1.04256">
        <ele>149.3</ele>
        <time>2022-05-29T09:20:06Z</time>
      </trkpt>
      <trkpt lat="45.03508" lon="1.04248">
        <ele>149.1</ele>
        <time>2022-05-29T09:20:09Z</time>
      </trkpt>
      <trkpt lat="45.03509" lon="1.04245">
        <ele>149.1</ele>
        <time>2022-05-29T09:20:10Z</time>
      </trkpt>
      <trkpt lat="45.03513" lon="1.04238">
        <ele>149</ele>
        <time>2022-05-29T09:20:12Z</time>
      </trkpt>
      <trkpt lat="45.03518" lon="1.04228">
        <ele>146.6</ele>
        <time>2022-05-29T09:20:15Z</time>
      </trkpt>
      <trkpt lat="45.03522" lon="1.04222">
        <ele>149.3</ele>
        <time>2022-05-29T09:20:19Z</time>
      </trkpt>
      <trkpt lat="45.03522" lon="1.04222">
        <ele>149.3</ele>
        <time>2022-05-29T09:20:20Z</time>
      </trkpt>
      <trkpt lat="45.03525" lon="1.04218">
        <ele>149.2</ele>
        <time>2022-05-29T09:21:08Z</time>
      </trkpt>
      <trkpt lat="45.03526" lon="1.04216">
        <ele>149.2</ele>
        <time>2022-05-29T09:21:09Z</time>
      </trkpt>
      <trkpt lat="45.03529" lon="1.04212">
        <ele>146.6</ele>
        <time>2022-05-29T09:21:11Z</time>
      </trkpt>
      <trkpt lat="45.03535" lon="1.04208">
        <ele>149.4</ele>
        <time>2022-05-29T09:21:13Z</time>
      </trkpt>
      <trkpt lat="45.03543" lon="1.04202">
        <ele>149.4</ele>
        <time>2022-05-29T09:21:17Z</time>
      </trkpt>
      <trkpt lat="45.03562" lon="1.0419">
        <ele>152.4</ele>
        <time>2022-05-29T09:21:23Z</time>
      </trkpt>
      <trkpt lat="45.0357" lon="1.04181">
        <ele>152.3</ele>
        <time>2022-05-29T09:21:29Z</time>
      </trkpt>
      <trkpt lat="45.0359" lon="1.04158">
        <ele>151.8</ele>
        <time>2022-05-29T09:21:38Z</time>
      </trkpt>
      <trkpt lat="45.03605" lon="1.04141">
        <ele>151.3</ele>
        <time>2022-05-29T09:21:45Z</time>
      </trkpt>
      <trkpt lat="45.03622" lon="1.04121">
        <ele>150.4</ele>
        <time>2022-05-29T09:21:52Z</time>
      </trkpt>
      <trkpt lat="45.03618" lon="1.041">
        <ele>144.2</ele>
        <time>2022-05-29T09:21:56Z</time>
      </trkpt>
      <trkpt lat="45.0362" lon="1.04098">
        <ele>143.9</ele>
        <time>2022-05-29T09:21:58Z</time>
      </trkpt>
      <trkpt lat="45.03618" lon="1.041">
        <ele>143.6</ele>
        <time>2022-05-29T09:21:59Z</time>
      </trkpt>
      <trkpt lat="45.03613" lon="1.04092">
        <ele>142.7</ele>
        <time>2022-05-29T09:22:01Z</time>
      </trkpt>
      <trkpt lat="45.03611" lon="1.04087">
        <ele>142.2</ele>
        <time>2022-05-29T09:22:02Z</time>
      </trkpt>
      <trkpt lat="45.03603" lon="1.04073">
        <ele>140.8</ele>
        <time>2022-05-29T09:22:05Z</time>
      </trkpt>
      <trkpt lat="45.03605" lon="1.04063">
        <ele>140.1</ele>
        <time>2022-05-29T09:22:07Z</time>
      </trkpt>
      <trkpt lat="45.03607" lon="1.04055">
        <ele>139.4</ele>
        <time>2022-05-29T09:22:09Z</time>
      </trkpt>
      <trkpt lat="45.03607" lon="1.04053">
        <ele>139.3</ele>
        <time>2022-05-29T09:22:10Z</time>
      </trkpt>
      <trkpt lat="45.03608" lon="1.0405">
        <ele>139.1</ele>
        <time>2022-05-29T09:22:11Z</time>
      </trkpt>
      <trkpt lat="45.0361" lon="1.0404">
        <ele>138.3</ele>
        <time>2022-05-29T09:22:14Z</time>
      </trkpt>
      <trkpt lat="45.03611" lon="1.04032">
        <ele>137.6</ele>
        <time>2022-05-29T09:22:16Z</time>
      </trkpt>
      <trkpt lat="45.03609" lon="1.04018">
        <ele>136.4</ele>
        <time>2022-05-29T09:22:18Z</time>
      </trkpt>
      <trkpt lat="45.03598" lon="1.03989">
        <ele>133.2</ele>
        <time>2022-05-29T09:22:23Z</time>
      </trkpt>
      <trkpt lat="45.03588" lon="1.03975">
        <ele>130.7</ele>
        <time>2022-05-29T09:22:26Z</time>
      </trkpt>
      <trkpt lat="45.03584" lon="1.03973">
        <ele>129.9</ele>
        <time>2022-05-29T09:22:27Z</time>
      </trkpt>
      <trkpt lat="45.03579" lon="1.03966">
        <ele>128.6</ele>
        <time>2022-05-29T09:22:29Z</time>
      </trkpt>
      <trkpt lat="45.03575" lon="1.03964">
        <ele>127.3</ele>
        <time>2022-05-29T09:22:30Z</time>
      </trkpt>
      <trkpt lat="45.03572" lon="1.03965">
        <ele>126.7</ele>
        <time>2022-05-29T09:22:34Z</time>
      </trkpt>
      <trkpt lat="45.0357" lon="1.03966">
        <ele>126.3</ele>
        <time>2022-05-29T09:22:35Z</time>
      </trkpt>
      <trkpt lat="45.03567" lon="1.03968">
        <ele>125.9</ele>
        <time>2022-05-29T09:22:36Z</time>
      </trkpt>
      <trkpt lat="45.0356" lon="1.03972">
        <ele>125</ele>
        <time>2022-05-29T09:22:38Z</time>
      </trkpt>
      <trkpt lat="45.03551" lon="1.03978">
        <ele>124.5</ele>
        <time>2022-05-29T09:22:43Z</time>
      </trkpt>
      <trkpt lat="45.03551" lon="1.03978">
        <ele>124.5</ele>
        <time>2022-05-29T09:22:44Z</time>
      </trkpt>
      <trkpt lat="45.03544" lon="1.03977">
        <ele>124.1</ele>
        <time>2022-05-29T09:25:36Z</time>
      </trkpt>
      <trkpt lat="45.03544" lon="1.03973">
        <ele>123.8</ele>
        <time>2022-05-29T09:25:39Z</time>
      </trkpt>
      <trkpt lat="45.03544" lon="1.03973">
        <ele>123.8</ele>
        <time>2022-05-29T09:25:41Z</time>
      </trkpt>
      <trkpt lat="45.03542" lon="1.03966">
        <ele>123.3</ele>
        <time>2022-05-29T09:25:51Z</time>
      </trkpt>
      <trkpt lat="45.03542" lon="1.03963">
        <ele>123</ele>
        <time>2022-05-29T09:25:52Z</time>
      </trkpt>
      <trkpt lat="45.03537" lon="1.03958">
        <ele>122</ele>
        <time>2022-05-29T09:25:54Z</time>
      </trkpt>
      <trkpt lat="45.03533" lon="1.03961">
        <ele>122</ele>
        <time>2022-05-29T09:25:56Z</time>
      </trkpt>
      <trkpt lat="45.03523" lon="1.03967">
        <ele>121.9</ele>
        <time>2022-05-29T09:26:01Z</time>
      </trkpt>
      <trkpt lat="45.03513" lon="1.03975">
        <ele>121.9</ele>
        <time>2022-05-29T09:26:07Z</time>
      </trkpt>
      <trkpt lat="45.03512" lon="1.03976">
        <ele>121.9</ele>
        <time>2022-05-29T09:26:08Z</time>
      </trkpt>
      <trkpt lat="45.03505" lon="1.03972">
        <ele>120.3</ele>
        <time>2022-05-29T09:26:10Z</time>
      </trkpt>
      <trkpt lat="45.03497" lon="1.03955">
        <ele>117.6</ele>
        <time>2022-05-29T09:26:14Z</time>
      </trkpt>
      <trkpt lat="45.03497" lon="1.03955">
        <ele>117.6</ele>
        <time>2022-05-29T09:26:16Z</time>
      </trkpt>
      <trkpt lat="45.03494" lon="1.0395">
        <ele>117</ele>
        <time>2022-05-29T09:26:27Z</time>
      </trkpt>
      <trkpt lat="45.03493" lon="1.03948">
        <ele>116.7</ele>
        <time>2022-05-29T09:26:28Z</time>
      </trkpt>
      <trkpt lat="45.03493" lon="1.03947">
        <ele>116.7</ele>
        <time>2022-05-29T09:26:30Z</time>
      </trkpt>
      <trkpt lat="45.03489" lon="1.03933">
        <ele>114.6</ele>
        <time>2022-05-29T09:26:32Z</time>
      </trkpt>
      <trkpt lat="45.03481" lon="1.03917">
        <ele>111.9</ele>
        <time>2022-05-29T09:26:34Z</time>
      </trkpt>
      <trkpt lat="45.03476" lon="1.03908">
        <ele>110.5</ele>
        <time>2022-05-29T09:26:35Z</time>
      </trkpt>
      <trkpt lat="45.03453" lon="1.03867">
        <ele>105.4</ele>
        <time>2022-05-29T09:26:40Z</time>
      </trkpt>
      <trkpt lat="45.03423" lon="1.03827">
        <ele>102.9</ele>
        <time>2022-05-29T09:26:45Z</time>
      </trkpt>
      <trkpt lat="45.03415" lon="1.03811">
        <ele>102.6</ele>
        <time>2022-05-29T09:26:47Z</time>
      </trkpt>
      <trkpt lat="45.03411" lon="1.03803">
        <ele>102.5</ele>
        <time>2022-05-29T09:26:48Z</time>
      </trkpt>
      <trkpt lat="45.03407" lon="1.03795">
        <ele>102.4</ele>
        <time>2022-05-29T09:26:49Z</time>
      </trkpt>
      <trkpt lat="45.03397" lon="1.03781">
        <ele>102.1</ele>
        <time>2022-05-29T09:26:51Z</time>
      </trkpt>
      <trkpt lat="45.03392" lon="1.03775">
        <ele>101.9</ele>
        <time>2022-05-29T09:26:52Z</time>
      </trkpt>
      <trkpt lat="45.03387" lon="1.0377">
        <ele>101.7</ele>
        <time>2022-05-29T09:26:53Z</time>
      </trkpt>
      <trkpt lat="45.03382" lon="1.03765">
        <ele>101.5</ele>
        <time>2022-05-29T09:26:55Z</time>
      </trkpt>
      <trkpt lat="45.03379" lon="1.03765">
        <ele>101.4</ele>
        <time>2022-05-29T09:26:56Z</time>
      </trkpt>
      <trkpt lat="45.03372" lon="1.03764">
        <ele>101.2</ele>
        <time>2022-05-29T09:26:58Z</time>
      </trkpt>
      <trkpt lat="45.03345" lon="1.0376">
        <ele>100.8</ele>
        <time>2022-05-29T09:27:04Z</time>
      </trkpt>
      <trkpt lat="45.03314" lon="1.03759">
        <ele>100.7</ele>
        <time>2022-05-29T09:27:11Z</time>
      </trkpt>
      <trkpt lat="45.03294" lon="1.03763">
        <ele>100.8</ele>
        <time>2022-05-29T09:27:16Z</time>
      </trkpt>
      <trkpt lat="45.03284" lon="1.03764">
        <ele>100.9</ele>
        <time>2022-05-29T09:27:20Z</time>
      </trkpt>
      <trkpt lat="45.0328" lon="1.03768">
        <ele>100.9</ele>
        <time>2022-05-29T09:27:23Z</time>
      </trkpt>
      <trkpt lat="45.03279" lon="1.03774">
        <ele>100.9</ele>
        <time>2022-05-29T09:27:25Z</time>
      </trkpt>
      <trkpt lat="45.03272" lon="1.03799">
        <ele>100.8</ele>
        <time>2022-05-29T09:27:32Z</time>
      </trkpt>
      <trkpt lat="45.03262" lon="1.03822">
        <ele>100.9</ele>
        <time>2022-05-29T09:27:38Z</time>
      </trkpt>
      <trkpt lat="45.03251" lon="1.03847">
        <ele>101.1</ele>
        <time>2022-05-29T09:27:44Z</time>
      </trkpt>
      <trkpt lat="45.03234" lon="1.03854">
        <ele>101</ele>
        <time>2022-05-29T09:27:50Z</time>
      </trkpt>
      <trkpt lat="45.03217" lon="1.03876">
        <ele>100.9</ele>
        <time>2022-05-29T09:27:57Z</time>
      </trkpt>
      <trkpt lat="45.03203" lon="1.03894">
        <ele>100.8</ele>
        <time>2022-05-29T09:28:03Z</time>
      </trkpt>
      <trkpt lat="45.03182" lon="1.03921">
        <ele>100.7</ele>
        <time>2022-05-29T09:28:11Z</time>
      </trkpt>
      <trkpt lat="45.03165" lon="1.03935">
        <ele>100.6</ele>
        <time>2022-05-29T09:28:17Z</time>
      </trkpt>
      <trkpt lat="45.03148" lon="1.03953">
        <ele>100.5</ele>
        <time>2022-05-29T09:28:23Z</time>
      </trkpt>
      <trkpt lat="45.03136" lon="1.03967">
        <ele>100.4</ele>
        <time>2022-05-29T09:28:28Z</time>
      </trkpt>
      <trkpt lat="45.03122" lon="1.03984">
        <ele>100.2</ele>
        <time>2022-05-29T09:28:33Z</time>
      </trkpt>
      <trkpt lat="45.03101" lon="1.04">
        <ele>100.1</ele>
        <time>2022-05-29T09:28:39Z</time>
      </trkpt>
      <trkpt lat="45.03076" lon="1.04007">
        <ele>100.1</ele>
        <time>2022-05-29T09:28:46Z</time>
      </trkpt>
      <trkpt lat="45.0306" lon="1.04012">
        <ele>100</ele>
        <time>2022-05-29T09:28:51Z</time>
      </trkpt>
      <trkpt lat="45.03038" lon="1.04028">
        <ele>99.7</ele>
        <time>2022-05-29T09:28:58Z</time>
      </trkpt>
      <trkpt lat="45.03017" lon="1.04052">
        <ele>99.3</ele>
        <time>2022-05-29T09:29:05Z</time>
      </trkpt>
      <trkpt lat="45.02999" lon="1.04074">
        <ele>99.1</ele>
        <time>2022-05-29T09:29:11Z</time>
      </trkpt>
      <trkpt lat="45.02969" lon="1.04109">
        <ele>98.8</ele>
        <time>2022-05-29T09:29:21Z</time>
      </trkpt>
      <trkpt lat="45.02941" lon="1.04141">
        <ele>98.5</ele>
        <time>2022-05-29T09:29:30Z</time>
      </trkpt>
      <trkpt lat="45.02921" lon="1.04164">
        <ele>98.3</ele>
        <time>2022-05-29T09:29:37Z</time>
      </trkpt>
      <trkpt lat="45.02906" lon="1.04179">
        <ele>98.3</ele>
        <time>2022-05-29T09:29:42Z</time>
      </trkpt>
      <trkpt lat="45.02891" lon="1.04194">
        <ele>98.2</ele>
        <time>2022-05-29T09:29:47Z</time>
      </trkpt>
      <trkpt lat="45.02875" lon="1.04209">
        <ele>98.2</ele>
        <time>2022-05-29T09:29:52Z</time>
      </trkpt>
      <trkpt lat="45.02864" lon="1.04219">
        <ele>98.3</ele>
        <time>2022-05-29T09:29:56Z</time>
      </trkpt>
      <trkpt lat="45.02844" lon="1.04238">
        <ele>98.2</ele>
        <time>2022-05-29T09:30:02Z</time>
      </trkpt>
      <trkpt lat="45.02829" lon="1.04252">
        <ele>98.1</ele>
        <time>2022-05-29T09:30:07Z</time>
      </trkpt>
      <trkpt lat="45.02821" lon="1.0426">
        <ele>98.1</ele>
        <time>2022-05-29T09:30:11Z</time>
      </trkpt>
      <trkpt lat="45.0282" lon="1.04261">
        <ele>98.1</ele>
        <time>2022-05-29T09:30:12Z</time>
      </trkpt>
      <trkpt lat="45.02819" lon="1.04261">
        <ele>98.1</ele>
        <time>2022-05-29T09:30:14Z</time>
      </trkpt>
      <trkpt lat="45.02817" lon="1.04265">
        <ele>98.1</ele>
        <time>2022-05-29T09:30:16Z</time>
      </trkpt>
      <trkpt lat="45.02813" lon="1.04273">
        <ele>98.2</ele>
        <time>2022-05-29T09:30:20Z</time>
      </trkpt>
      <trkpt lat="45.02811" lon="1.04278">
        <ele>98.2</ele>
        <time>2022-05-29T09:30:24Z</time>
      </trkpt>
      <trkpt lat="45.02811" lon="1.04279">
        <ele>98.2</ele>
        <time>2022-05-29T09:30:25Z</time>
      </trkpt>
      <trkpt lat="45.02809" lon="1.04282">
        <ele>98.3</ele>
        <time>2022-05-29T09:30:27Z</time>
      </trkpt>
      <trkpt lat="45.02825" lon="1.04294">
        <ele>98.5</ele>
        <time>2022-05-29T09:30:28Z</time>
      </trkpt>
      <trkpt lat="45.02825" lon="1.0429">
        <ele>98.5</ele>
        <time>2022-05-29T09:30:30Z</time>
      </trkpt>
      <trkpt lat="45.02826" lon="1.04286">
        <ele>98.5</ele>
        <time>2022-05-29T09:30:32Z</time>
      </trkpt>
      <trkpt lat="45.02827" lon="1.04285">
        <ele>98.5</ele>
        <time>2022-05-29T09:30:33Z</time>
      </trkpt>
      <trkpt lat="45.02826" lon="1.04278">
        <ele>98.5</ele>
        <time>2022-05-29T09:30:37Z</time>
      </trkpt>
      <trkpt lat="45.02824" lon="1.04273">
        <ele>98.5</ele>
        <time>2022-05-29T09:30:39Z</time>
      </trkpt>
      <trkpt lat="45.02818" lon="1.04262">
        <ele>98.5</ele>
        <time>2022-05-29T09:30:41Z</time>
      </trkpt>
      <trkpt lat="45.02817" lon="1.04263">
        <ele>98.5</ele>
        <time>2022-05-29T09:30:43Z</time>
      </trkpt>
      <trkpt lat="45.02811" lon="1.04279">
        <ele>98.5</ele>
        <time>2022-05-29T09:30:48Z</time>
      </trkpt>
      <trkpt lat="45.02798" lon="1.04306">
        <ele>98.3</ele>
        <time>2022-05-29T09:30:57Z</time>
      </trkpt>
      <trkpt lat="45.02784" lon="1.04327">
        <ele>98.1</ele>
        <time>2022-05-29T09:31:04Z</time>
      </trkpt>
      <trkpt lat="45.02764" lon="1.04355">
        <ele>97.8</ele>
        <time>2022-05-29T09:31:13Z</time>
      </trkpt>
      <trkpt lat="45.02743" lon="1.04383">
        <ele>97.7</ele>
        <time>2022-05-29T09:31:22Z</time>
      </trkpt>
      <trkpt lat="45.02724" lon="1.04408">
        <ele>97.7</ele>
        <time>2022-05-29T09:31:30Z</time>
      </trkpt>
      <trkpt lat="45.02714" lon="1.04424">
        <ele>97.5</ele>
        <time>2022-05-29T09:31:35Z</time>
      </trkpt>
      <trkpt lat="45.02703" lon="1.04443">
        <ele>97.2</ele>
        <time>2022-05-29T09:31:40Z</time>
      </trkpt>
      <trkpt lat="45.02691" lon="1.04452">
        <ele>97</ele>
        <time>2022-05-29T09:31:43Z</time>
      </trkpt>
      <trkpt lat="45.02679" lon="1.04459">
        <ele>96.9</ele>
        <time>2022-05-29T09:31:46Z</time>
      </trkpt>
      <trkpt lat="45.0266" lon="1.04472">
        <ele>96.9</ele>
        <time>2022-05-29T09:31:51Z</time>
      </trkpt>
      <trkpt lat="45.02643" lon="1.04487">
        <ele>97</ele>
        <time>2022-05-29T09:31:56Z</time>
      </trkpt>
      <trkpt lat="45.02633" lon="1.04493">
        <ele>97.1</ele>
        <time>2022-05-29T09:32:00Z</time>
      </trkpt>
      <trkpt lat="45.02617" lon="1.04492">
        <ele>97.2</ele>
        <time>2022-05-29T09:32:06Z</time>
      </trkpt>
      <trkpt lat="45.02602" lon="1.04492">
        <ele>97.4</ele>
        <time>2022-05-29T09:32:11Z</time>
      </trkpt>
      <trkpt lat="45.02578" lon="1.04489">
        <ele>98</ele>
        <time>2022-05-29T09:32:19Z</time>
      </trkpt>
      <trkpt lat="45.02556" lon="1.04485">
        <ele>98.7</ele>
        <time>2022-05-29T09:32:26Z</time>
      </trkpt>
      <trkpt lat="45.0253" lon="1.04481">
        <ele>100</ele>
        <time>2022-05-29T09:32:35Z</time>
      </trkpt>
      <trkpt lat="45.02512" lon="1.04473">
        <ele>101</ele>
        <time>2022-05-29T09:32:42Z</time>
      </trkpt>
      <trkpt lat="45.02511" lon="1.04472">
        <ele>101.1</ele>
        <time>2022-05-29T09:32:43Z</time>
      </trkpt>
      <trkpt lat="45.0251" lon="1.04471">
        <ele>101.2</ele>
        <time>2022-05-29T09:32:44Z</time>
      </trkpt>
      <trkpt lat="45.02507" lon="1.0447">
        <ele>101.3</ele>
        <time>2022-05-29T09:32:46Z</time>
      </trkpt>
      <trkpt lat="45.02507" lon="1.0447">
        <ele>101.3</ele>
        <time>2022-05-29T09:32:47Z</time>
      </trkpt>
      <trkpt lat="45.02507" lon="1.0447">
        <ele>101.3</ele>
        <time>2022-05-29T09:32:48Z</time>
      </trkpt>
      <trkpt lat="45.02504" lon="1.04466">
        <ele>101.6</ele>
        <time>2022-05-29T09:34:03Z</time>
      </trkpt>
      <trkpt lat="45.02502" lon="1.04462">
        <ele>101.8</ele>
        <time>2022-05-29T09:34:05Z</time>
      </trkpt>
      <trkpt lat="45.02493" lon="1.04445">
        <ele>102.6</ele>
        <time>2022-05-29T09:34:12Z</time>
      </trkpt>
      <trkpt lat="45.02488" lon="1.04431">
        <ele>103.2</ele>
        <time>2022-05-29T09:34:17Z</time>
      </trkpt>
      <trkpt lat="45.02481" lon="1.04412">
        <ele>104.4</ele>
        <time>2022-05-29T09:34:23Z</time>
      </trkpt>
      <trkpt lat="45.02472" lon="1.04388">
        <ele>106.1</ele>
        <time>2022-05-29T09:34:32Z</time>
      </trkpt>
      <trkpt lat="45.02465" lon="1.04369">
        <ele>107.6</ele>
        <time>2022-05-29T09:34:39Z</time>
      </trkpt>
      <trkpt lat="45.02458" lon="1.04351">
        <ele>109.1</ele>
        <time>2022-05-29T09:34:46Z</time>
      </trkpt>
      <trkpt lat="45.02446" lon="1.04326">
        <ele>111.7</ele>
        <time>2022-05-29T09:34:57Z</time>
      </trkpt>
      <trkpt lat="45.02438" lon="1.04313">
        <ele>113.4</ele>
        <time>2022-05-29T09:35:04Z</time>
      </trkpt>
      <trkpt lat="45.02431" lon="1.04302">
        <ele>115</ele>
        <time>2022-05-29T09:35:10Z</time>
      </trkpt>
      <trkpt lat="45.02424" lon="1.04291">
        <ele>116.4</ele>
        <time>2022-05-29T09:35:16Z</time>
      </trkpt>
      <trkpt lat="45.02413" lon="1.04279">
        <ele>118.5</ele>
        <time>2022-05-29T09:35:24Z</time>
      </trkpt>
      <trkpt lat="45.02408" lon="1.04274">
        <ele>119.6</ele>
        <time>2022-05-29T09:35:29Z</time>
      </trkpt>
      <trkpt lat="45.02405" lon="1.04271">
        <ele>120.2</ele>
        <time>2022-05-29T09:35:31Z</time>
      </trkpt>
      <trkpt lat="45.02397" lon="1.04266">
        <ele>121.8</ele>
        <time>2022-05-29T09:35:37Z</time>
      </trkpt>
      <trkpt lat="45.02387" lon="1.04267">
        <ele>123.6</ele>
        <time>2022-05-29T09:35:45Z</time>
      </trkpt>
      <trkpt lat="45.02386" lon="1.04267">
        <ele>123.8</ele>
        <time>2022-05-29T09:35:46Z</time>
      </trkpt>
      <trkpt lat="45.02379" lon="1.04269">
        <ele>125.2</ele>
        <time>2022-05-29T09:35:52Z</time>
      </trkpt>
      <trkpt lat="45.02377" lon="1.04269">
        <ele>125.7</ele>
        <time>2022-05-29T09:35:54Z</time>
      </trkpt>
      <trkpt lat="45.02372" lon="1.0427">
        <ele>126.5</ele>
        <time>2022-05-29T09:35:57Z</time>
      </trkpt>
      <trkpt lat="45.02366" lon="1.04271">
        <ele>127.7</ele>
        <time>2022-05-29T09:36:03Z</time>
      </trkpt>
      <trkpt lat="45.02358" lon="1.04271">
        <ele>128.6</ele>
        <time>2022-05-29T09:36:10Z</time>
      </trkpt>
      <trkpt lat="45.02351" lon="1.04274">
        <ele>129.2</ele>
        <time>2022-05-29T09:36:16Z</time>
      </trkpt>
      <trkpt lat="45.02354" lon="1.04271">
        <ele>129.4</ele>
        <time>2022-05-29T09:36:17Z</time>
      </trkpt>
      <trkpt lat="45.02348" lon="1.04277">
        <ele>129.8</ele>
        <time>2022-05-29T09:36:19Z</time>
      </trkpt>
      <trkpt lat="45.02346" lon="1.0428">
        <ele>129.9</ele>
        <time>2022-05-29T09:36:21Z</time>
      </trkpt>
      <trkpt lat="45.0234" lon="1.04286">
        <ele>130.1</ele>
        <time>2022-05-29T09:36:28Z</time>
      </trkpt>
      <trkpt lat="45.02339" lon="1.04287">
        <ele>130.1</ele>
        <time>2022-05-29T09:36:29Z</time>
      </trkpt>
      <trkpt lat="45.02337" lon="1.04288">
        <ele>130.1</ele>
        <time>2022-05-29T09:36:31Z</time>
      </trkpt>
      <trkpt lat="45.02335" lon="1.04291">
        <ele>130.2</ele>
        <time>2022-05-29T09:36:33Z</time>
      </trkpt>
      <trkpt lat="45.02328" lon="1.04297">
        <ele>130.3</ele>
        <time>2022-05-29T09:36:39Z</time>
      </trkpt>
      <trkpt lat="45.0232" lon="1.04305">
        <ele>130.6</ele>
        <time>2022-05-29T09:36:45Z</time>
      </trkpt>
      <trkpt lat="45.02307" lon="1.04296">
        <ele>133.2</ele>
        <time>2022-05-29T09:36:53Z</time>
      </trkpt>
      <trkpt lat="45.02296" lon="1.04297">
        <ele>134.8</ele>
        <time>2022-05-29T09:37:00Z</time>
      </trkpt>
      <trkpt lat="45.02288" lon="1.04302">
        <ele>135.8</ele>
        <time>2022-05-29T09:37:06Z</time>
      </trkpt>
      <trkpt lat="45.02286" lon="1.04304">
        <ele>136</ele>
        <time>2022-05-29T09:37:08Z</time>
      </trkpt>
      <trkpt lat="45.02282" lon="1.04307">
        <ele>136.5</ele>
        <time>2022-05-29T09:37:12Z</time>
      </trkpt>
      <trkpt lat="45.02281" lon="1.04307">
        <ele>136.6</ele>
        <time>2022-05-29T09:37:13Z</time>
      </trkpt>
      <trkpt lat="45.02276" lon="1.04311">
        <ele>137.1</ele>
        <time>2022-05-29T09:37:18Z</time>
      </trkpt>
      <trkpt lat="45.02265" lon="1.04315">
        <ele>138</ele>
        <time>2022-05-29T09:37:25Z</time>
      </trkpt>
      <trkpt lat="45.02256" lon="1.04315">
        <ele>138.8</ele>
        <time>2022-05-29T09:37:31Z</time>
      </trkpt>
      <trkpt lat="45.02246" lon="1.04316">
        <ele>139.5</ele>
        <time>2022-05-29T09:37:38Z</time>
      </trkpt>
      <trkpt lat="45.02239" lon="1.04317">
        <ele>139.8</ele>
        <time>2022-05-29T09:37:44Z</time>
      </trkpt>
      <trkpt lat="45.02229" lon="1.04321">
        <ele>140</ele>
        <time>2022-05-29T09:37:52Z</time>
      </trkpt>
      <trkpt lat="45.02214" lon="1.04328">
        <ele>140</ele>
        <time>2022-05-29T09:38:04Z</time>
      </trkpt>
      <trkpt lat="45.02203" lon="1.04332">
        <ele>139.8</ele>
        <time>2022-05-29T09:38:13Z</time>
      </trkpt>
      <trkpt lat="45.02196" lon="1.04335">
        <ele>139.8</ele>
        <time>2022-05-29T09:38:19Z</time>
      </trkpt>
      <trkpt lat="45.02195" lon="1.04336">
        <ele>139.8</ele>
        <time>2022-05-29T09:38:20Z</time>
      </trkpt>
      <trkpt lat="45.02188" lon="1.04339">
        <ele>139.7</ele>
        <time>2022-05-29T09:38:25Z</time>
      </trkpt>
      <trkpt lat="45.02184" lon="1.0434">
        <ele>139.7</ele>
        <time>2022-05-29T09:38:29Z</time>
      </trkpt>
      <trkpt lat="45.02182" lon="1.04341">
        <ele>139.7</ele>
        <time>2022-05-29T09:38:30Z</time>
      </trkpt>
      <trkpt lat="45.02174" lon="1.04345">
        <ele>139.6</ele>
        <time>2022-05-29T09:38:37Z</time>
      </trkpt>
      <trkpt lat="45.02165" lon="1.04347">
        <ele>139.4</ele>
        <time>2022-05-29T09:38:42Z</time>
      </trkpt>
      <trkpt lat="45.02157" lon="1.04348">
        <ele>138.9</ele>
        <time>2022-05-29T09:38:47Z</time>
      </trkpt>
      <trkpt lat="45.02148" lon="1.04349">
        <ele>138.3</ele>
        <time>2022-05-29T09:38:53Z</time>
      </trkpt>
      <trkpt lat="45.02135" lon="1.04351">
        <ele>137.7</ele>
        <time>2022-05-29T09:39:00Z</time>
      </trkpt>
      <trkpt lat="45.02123" lon="1.04352">
        <ele>137.7</ele>
        <time>2022-05-29T09:39:07Z</time>
      </trkpt>
      <trkpt lat="45.02122" lon="1.04352">
        <ele>137.8</ele>
        <time>2022-05-29T09:39:08Z</time>
      </trkpt>
      <trkpt lat="45.02118" lon="1.04353">
        <ele>137.8</ele>
        <time>2022-05-29T09:39:12Z</time>
      </trkpt>
      <trkpt lat="45.02118" lon="1.04353">
        <ele>137.8</ele>
        <time>2022-05-29T09:39:18Z</time>
      </trkpt>
      <trkpt lat="45.02118" lon="1.04353">
        <ele>137.8</ele>
        <time>2022-05-29T09:39:23Z</time>
      </trkpt>
      <trkpt lat="45.02113" lon="1.04358">
        <ele>138</ele>
        <time>2022-05-29T09:39:28Z</time>
      </trkpt>
      <trkpt lat="45.02108" lon="1.04364">
        <ele>138.3</ele>
        <time>2022-05-29T09:39:33Z</time>
      </trkpt>
      <trkpt lat="45.02103" lon="1.04369">
        <ele>138.7</ele>
        <time>2022-05-29T09:39:38Z</time>
      </trkpt>
      <trkpt lat="45.02102" lon="1.04371">
        <ele>138.8</ele>
        <time>2022-05-29T09:39:39Z</time>
      </trkpt>
      <trkpt lat="45.02095" lon="1.04377">
        <ele>139.4</ele>
        <time>2022-05-29T09:39:42Z</time>
      </trkpt>
      <trkpt lat="45.02089" lon="1.04385">
        <ele>140.1</ele>
        <time>2022-05-29T09:39:46Z</time>
      </trkpt>
      <trkpt lat="45.02089" lon="1.04387">
        <ele>140.2</ele>
        <time>2022-05-29T09:39:51Z</time>
      </trkpt>
      <trkpt lat="45.02088" lon="1.04389">
        <ele>140.4</ele>
        <time>2022-05-29T09:39:56Z</time>
      </trkpt>
      <trkpt lat="45.02087" lon="1.04392">
        <ele>140.5</ele>
        <time>2022-05-29T09:39:59Z</time>
      </trkpt>
      <trkpt lat="45.02086" lon="1.04394">
        <ele>140.7</ele>
        <time>2022-05-29T09:40:00Z</time>
      </trkpt>
      <trkpt lat="45.02085" lon="1.04399">
        <ele>141</ele>
        <time>2022-05-29T09:40:03Z</time>
      </trkpt>
      <trkpt lat="45.02083" lon="1.04403">
        <ele>141.3</ele>
        <time>2022-05-29T09:40:05Z</time>
      </trkpt>
      <trkpt lat="45.02083" lon="1.04405">
        <ele>138.7</ele>
        <time>2022-05-29T09:40:06Z</time>
      </trkpt>
      <trkpt lat="45.02081" lon="1.04409">
        <ele>138.2</ele>
        <time>2022-05-29T09:40:11Z</time>
      </trkpt>
      <trkpt lat="45.02081" lon="1.04409">
        <ele>137.8</ele>
        <time>2022-05-29T09:40:16Z</time>
      </trkpt>
      <trkpt lat="45.01993" lon="1.04375">
        <ele>169.1</ele>
        <time>2022-05-29T09:40:21Z</time>
      </trkpt>
      <trkpt lat="45.01987" lon="1.04384">
        <ele>173.3</ele>
        <time>2022-05-29T09:40:27Z</time>
      </trkpt>
      <trkpt lat="45.01984" lon="1.04388">
        <ele>168.8</ele>
        <time>2022-05-29T09:40:32Z</time>
      </trkpt>
      <trkpt lat="45.01979" lon="1.04396">
        <ele>172.6</ele>
        <time>2022-05-29T09:41:47Z</time>
      </trkpt>
      <trkpt lat="45.01971" lon="1.04407">
        <ele>168.6</ele>
        <time>2022-05-29T09:41:52Z</time>
      </trkpt>
      <trkpt lat="45.01961" lon="1.0442">
        <ele>172.5</ele>
        <time>2022-05-29T09:41:58Z</time>
      </trkpt>
      <trkpt lat="45.01954" lon="1.04431">
        <ele>172.3</ele>
        <time>2022-05-29T09:42:03Z</time>
      </trkpt>
      <trkpt lat="45.01948" lon="1.04444">
        <ele>168.1</ele>
        <time>2022-05-29T09:42:08Z</time>
      </trkpt>
      <trkpt lat="45.01943" lon="1.04455">
        <ele>167.7</ele>
        <time>2022-05-29T09:42:13Z</time>
      </trkpt>
      <trkpt lat="45.01937" lon="1.04468">
        <ele>168</ele>
        <time>2022-05-29T09:42:18Z</time>
      </trkpt>
      <trkpt lat="45.01928" lon="1.04488">
        <ele>166.3</ele>
        <time>2022-05-29T09:42:24Z</time>
      </trkpt>
      <trkpt lat="45.01916" lon="1.04509">
        <ele>159.6</ele>
        <time>2022-05-29T09:42:29Z</time>
      </trkpt>
      <trkpt lat="45.01904" lon="1.04525">
        <ele>161.5</ele>
        <time>2022-05-29T09:42:34Z</time>
      </trkpt>
      <trkpt lat="45.01894" lon="1.0454">
        <ele>158.1</ele>
        <time>2022-05-29T09:42:38Z</time>
      </trkpt>
      <trkpt lat="45.01888" lon="1.04553">
        <ele>152.9</ele>
        <time>2022-05-29T09:42:43Z</time>
      </trkpt>
      <trkpt lat="45.01884" lon="1.04561">
        <ele>147.4</ele>
        <time>2022-05-29T09:42:47Z</time>
      </trkpt>
      <trkpt lat="45.01867" lon="1.04579">
        <ele>146.7</ele>
        <time>2022-05-29T09:43:34Z</time>
      </trkpt>
      <trkpt lat="45.01859" lon="1.04587">
        <ele>146.3</ele>
        <time>2022-05-29T09:43:40Z</time>
      </trkpt>
      <trkpt lat="45.01851" lon="1.04594">
        <ele>143</ele>
        <time>2022-05-29T09:43:43Z</time>
      </trkpt>
      <trkpt lat="45.01834" lon="1.04608">
        <ele>144.3</ele>
        <time>2022-05-29T09:43:48Z</time>
      </trkpt>
      <trkpt lat="45.01827" lon="1.04615">
        <ele>141.1</ele>
        <time>2022-05-29T09:43:50Z</time>
      </trkpt>
      <trkpt lat="45.0182" lon="1.04619">
        <ele>142.1</ele>
        <time>2022-05-29T09:43:52Z</time>
      </trkpt>
      <trkpt lat="45.01807" lon="1.04625">
        <ele>143</ele>
        <time>2022-05-29T09:43:56Z</time>
      </trkpt>
      <trkpt lat="45.01795" lon="1.04629">
        <ele>140.9</ele>
        <time>2022-05-29T09:44:00Z</time>
      </trkpt>
      <trkpt lat="45.01789" lon="1.04632">
        <ele>140.5</ele>
        <time>2022-05-29T09:44:02Z</time>
      </trkpt>
      <trkpt lat="45.01772" lon="1.04642">
        <ele>141.3</ele>
        <time>2022-05-29T09:44:06Z</time>
      </trkpt>
      <trkpt lat="45.01766" lon="1.04646">
        <ele>139</ele>
        <time>2022-05-29T09:44:09Z</time>
      </trkpt>
      <trkpt lat="45.01763" lon="1.04647">
        <ele>138.6</ele>
        <time>2022-05-29T09:44:11Z</time>
      </trkpt>
      <trkpt lat="45.01758" lon="1.04652">
        <ele>138.7</ele>
        <time>2022-05-29T09:44:14Z</time>
      </trkpt>
      <trkpt lat="45.01748" lon="1.04658">
        <ele>138.6</ele>
        <time>2022-05-29T09:44:20Z</time>
      </trkpt>
      <trkpt lat="45.0174" lon="1.04663">
        <ele>136.6</ele>
        <time>2022-05-29T09:44:26Z</time>
      </trkpt>
      <trkpt lat="45.01739" lon="1.04663">
        <ele>136.2</ele>
        <time>2022-05-29T09:44:27Z</time>
      </trkpt>
      <trkpt lat="45.01733" lon="1.04663">
        <ele>135.8</ele>
        <time>2022-05-29T09:44:31Z</time>
      </trkpt>
      <trkpt lat="45.01725" lon="1.04663">
        <ele>135.4</ele>
        <time>2022-05-29T09:44:36Z</time>
      </trkpt>
      <trkpt lat="45.01723" lon="1.04663">
        <ele>134.7</ele>
        <time>2022-05-29T09:44:37Z</time>
      </trkpt>
      <trkpt lat="45.01717" lon="1.04661">
        <ele>135.6</ele>
        <time>2022-05-29T09:44:41Z</time>
      </trkpt>
      <trkpt lat="45.0171" lon="1.04657">
        <ele>134.6</ele>
        <time>2022-05-29T09:44:46Z</time>
      </trkpt>
      <trkpt lat="45.01709" lon="1.04655">
        <ele>134.1</ele>
        <time>2022-05-29T09:44:47Z</time>
      </trkpt>
      <trkpt lat="45.01707" lon="1.04651">
        <ele>133.7</ele>
        <time>2022-05-29T09:44:51Z</time>
      </trkpt>
      <trkpt lat="45.01703" lon="1.04645">
        <ele>133.3</ele>
        <time>2022-05-29T09:44:55Z</time>
      </trkpt>
      <trkpt lat="45.01701" lon="1.0464">
        <ele>134.1</ele>
        <time>2022-05-29T09:44:57Z</time>
      </trkpt>
      <trkpt lat="45.01697" lon="1.0463">
        <ele>132.5</ele>
        <time>2022-05-29T09:45:01Z</time>
      </trkpt>
      <trkpt lat="45.01696" lon="1.04622">
        <ele>132.9</ele>
        <time>2022-05-29T09:45:03Z</time>
      </trkpt>
      <trkpt lat="45.01697" lon="1.046">
        <ele>133.2</ele>
        <time>2022-05-29T09:45:07Z</time>
      </trkpt>
      <trkpt lat="45.01697" lon="1.04595">
        <ele>132.8</ele>
        <time>2022-05-29T09:45:08Z</time>
      </trkpt>
      <trkpt lat="45.01702" lon="1.04571">
        <ele>134.5</ele>
        <time>2022-05-29T09:45:13Z</time>
      </trkpt>
      <trkpt lat="45.01703" lon="1.04567">
        <ele>134.1</ele>
        <time>2022-05-29T09:45:14Z</time>
      </trkpt>
      <trkpt lat="45.01704" lon="1.04562">
        <ele>133.7</ele>
        <time>2022-05-29T09:45:16Z</time>
      </trkpt>
      <trkpt lat="45.01702" lon="1.04558">
        <ele>133.3</ele>
        <time>2022-05-29T09:45:18Z</time>
      </trkpt>
      <trkpt lat="45.01699" lon="1.04555">
        <ele>130.7</ele>
        <time>2022-05-29T09:45:20Z</time>
      </trkpt>
      <trkpt lat="45.01697" lon="1.04555">
        <ele>130.2</ele>
        <time>2022-05-29T09:45:21Z</time>
      </trkpt>
      <trkpt lat="45.01689" lon="1.04559">
        <ele>129.9</ele>
        <time>2022-05-29T09:45:25Z</time>
      </trkpt>
      <trkpt lat="45.01678" lon="1.04568">
        <ele>127.1</ele>
        <time>2022-05-29T09:45:28Z</time>
      </trkpt>
      <trkpt lat="45.01673" lon="1.04575">
        <ele>124.1</ele>
        <time>2022-05-29T09:45:29Z</time>
      </trkpt>
      <trkpt lat="45.01647" lon="1.04604">
        <ele>118.6</ele>
        <time>2022-05-29T09:45:33Z</time>
      </trkpt>
      <trkpt lat="45.01635" lon="1.04613">
        <ele>115.4</ele>
        <time>2022-05-29T09:45:35Z</time>
      </trkpt>
      <trkpt lat="45.01631" lon="1.04614">
        <ele>115</ele>
        <time>2022-05-29T09:45:36Z</time>
      </trkpt>
      <trkpt lat="45.01629" lon="1.0461">
        <ele>113.9</ele>
        <time>2022-05-29T09:45:37Z</time>
      </trkpt>
      <trkpt lat="45.01628" lon="1.04606">
        <ele>113.4</ele>
        <time>2022-05-29T09:45:38Z</time>
      </trkpt>
      <trkpt lat="45.01631" lon="1.04582">
        <ele>112.4</ele>
        <time>2022-05-29T09:45:41Z</time>
      </trkpt>
      <trkpt lat="45.01642" lon="1.04545">
        <ele>112.4</ele>
        <time>2022-05-29T09:45:45Z</time>
      </trkpt>
      <trkpt lat="45.01649" lon="1.0451">
        <ele>112.7</ele>
        <time>2022-05-29T09:45:50Z</time>
      </trkpt>
      <trkpt lat="45.01653" lon="1.04488">
        <ele>112.9</ele>
        <time>2022-05-29T09:45:53Z</time>
      </trkpt>
      <trkpt lat="45.01656" lon="1.04472">
        <ele>113.1</ele>
        <time>2022-05-29T09:45:55Z</time>
      </trkpt>
      <trkpt lat="45.01658" lon="1.04464">
        <ele>113.2</ele>
        <time>2022-05-29T09:45:56Z</time>
      </trkpt>
      <trkpt lat="45.01661" lon="1.04451">
        <ele>113.4</ele>
        <time>2022-05-29T09:45:58Z</time>
      </trkpt>
      <trkpt lat="45.01662" lon="1.04446">
        <ele>113.5</ele>
        <time>2022-05-29T09:45:59Z</time>
      </trkpt>
      <trkpt lat="45.01662" lon="1.04435">
        <ele>113.7</ele>
        <time>2022-05-29T09:46:01Z</time>
      </trkpt>
      <trkpt lat="45.01663" lon="1.0443">
        <ele>113.8</ele>
        <time>2022-05-29T09:46:02Z</time>
      </trkpt>
      <trkpt lat="45.01665" lon="1.04418">
        <ele>114</ele>
        <time>2022-05-29T09:46:04Z</time>
      </trkpt>
      <trkpt lat="45.01666" lon="1.044">
        <ele>114.2</ele>
        <time>2022-05-29T09:46:07Z</time>
      </trkpt>
      <trkpt lat="45.01668" lon="1.04388">
        <ele>114.4</ele>
        <time>2022-05-29T09:46:10Z</time>
      </trkpt>
      <trkpt lat="45.0167" lon="1.04378">
        <ele>114.5</ele>
        <time>2022-05-29T09:46:13Z</time>
      </trkpt>
      <trkpt lat="45.01671" lon="1.04376">
        <ele>114.5</ele>
        <time>2022-05-29T09:46:14Z</time>
      </trkpt>
      <trkpt lat="45.01671" lon="1.04364">
        <ele>114.7</ele>
        <time>2022-05-29T09:46:16Z</time>
      </trkpt>
      <trkpt lat="45.01669" lon="1.04363">
        <ele>114.7</ele>
        <time>2022-05-29T09:46:17Z</time>
      </trkpt>
      <trkpt lat="45.01664" lon="1.04366">
        <ele>114.6</ele>
        <time>2022-05-29T09:46:20Z</time>
      </trkpt>
      <trkpt lat="45.0166" lon="1.04379">
        <ele>114.4</ele>
        <time>2022-05-29T09:46:24Z</time>
      </trkpt>
      <trkpt lat="45.01661" lon="1.04383">
        <ele>114.4</ele>
        <time>2022-05-29T09:46:25Z</time>
      </trkpt>
      <trkpt lat="45.01658" lon="1.04394">
        <ele>114.2</ele>
        <time>2022-05-29T09:46:27Z</time>
      </trkpt>
      <trkpt lat="45.01653" lon="1.04415">
        <ele>113.9</ele>
        <time>2022-05-29T09:46:30Z</time>
      </trkpt>
      <trkpt lat="45.0165" lon="1.04421">
        <ele>113.7</ele>
        <time>2022-05-29T09:46:31Z</time>
      </trkpt>
      <trkpt lat="45.01646" lon="1.04427">
        <ele>113.6</ele>
        <time>2022-05-29T09:46:32Z</time>
      </trkpt>
      <trkpt lat="45.01633" lon="1.04447">
        <ele>113.2</ele>
        <time>2022-05-29T09:46:35Z</time>
      </trkpt>
      <trkpt lat="45.01616" lon="1.04463">
        <ele>112.8</ele>
        <time>2022-05-29T09:46:38Z</time>
      </trkpt>
      <trkpt lat="45.01612" lon="1.0448">
        <ele>112.6</ele>
        <time>2022-05-29T09:46:40Z</time>
      </trkpt>
      <trkpt lat="45.01607" lon="1.04496">
        <ele>112.5</ele>
        <time>2022-05-29T09:46:42Z</time>
      </trkpt>
      <trkpt lat="45.01605" lon="1.04503">
        <ele>112.5</ele>
        <time>2022-05-29T09:46:43Z</time>
      </trkpt>
      <trkpt lat="45.016" lon="1.04517">
        <ele>112.4</ele>
        <time>2022-05-29T09:46:45Z</time>
      </trkpt>
      <trkpt lat="45.01586" lon="1.0456">
        <ele>112.6</ele>
        <time>2022-05-29T09:46:50Z</time>
      </trkpt>
      <trkpt lat="45.0157" lon="1.04612">
        <ele>113.2</ele>
        <time>2022-05-29T09:46:56Z</time>
      </trkpt>
      <trkpt lat="45.01558" lon="1.04654">
        <ele>111.3</ele>
        <time>2022-05-29T09:47:01Z</time>
      </trkpt>
      <trkpt lat="45.01551" lon="1.04668">
        <ele>110.3</ele>
        <time>2022-05-29T09:47:03Z</time>
      </trkpt>
      <trkpt lat="45.01542" lon="1.0469">
        <ele>108.9</ele>
        <time>2022-05-29T09:47:06Z</time>
      </trkpt>
      <trkpt lat="45.0153" lon="1.04716">
        <ele>106.9</ele>
        <time>2022-05-29T09:47:11Z</time>
      </trkpt>
      <trkpt lat="45.01516" lon="1.04743">
        <ele>104.8</ele>
        <time>2022-05-29T09:47:16Z</time>
      </trkpt>
      <trkpt lat="45.01503" lon="1.04774">
        <ele>102.2</ele>
        <time>2022-05-29T09:47:20Z</time>
      </trkpt>
      <trkpt lat="45.01495" lon="1.04792">
        <ele>100.8</ele>
        <time>2022-05-29T09:47:22Z</time>
      </trkpt>
      <trkpt lat="45.01491" lon="1.04813">
        <ele>98.9</ele>
        <time>2022-05-29T09:47:24Z</time>
      </trkpt>
      <trkpt lat="45.01491" lon="1.04845">
        <ele>95.8</ele>
        <time>2022-05-29T09:47:27Z</time>
      </trkpt>
      <trkpt lat="45.01489" lon="1.04854">
        <ele>95.1</ele>
        <time>2022-05-29T09:47:28Z</time>
      </trkpt>
      <trkpt lat="45.01486" lon="1.04862">
        <ele>94.5</ele>
        <time>2022-05-29T09:47:29Z</time>
      </trkpt>
      <trkpt lat="45.01476" lon="1.04868">
        <ele>93.9</ele>
        <time>2022-05-29T09:47:30Z</time>
      </trkpt>
      <trkpt lat="45.01461" lon="1.04873">
        <ele>93.5</ele>
        <time>2022-05-29T09:47:32Z</time>
      </trkpt>
      <trkpt lat="45.01455" lon="1.04876">
        <ele>93.3</ele>
        <time>2022-05-29T09:47:33Z</time>
      </trkpt>
      <trkpt lat="45.01452" lon="1.04884">
        <ele>93.3</ele>
        <time>2022-05-29T09:47:34Z</time>
      </trkpt>
      <trkpt lat="45.01451" lon="1.04892">
        <ele>93.2</ele>
        <time>2022-05-29T09:47:35Z</time>
      </trkpt>
      <trkpt lat="45.01454" lon="1.0494">
        <ele>92.5</ele>
        <time>2022-05-29T09:47:41Z</time>
      </trkpt>
      <trkpt lat="45.01458" lon="1.04973">
        <ele>92.3</ele>
        <time>2022-05-29T09:47:46Z</time>
      </trkpt>
      <trkpt lat="45.01462" lon="1.04989">
        <ele>92.3</ele>
        <time>2022-05-29T09:47:51Z</time>
      </trkpt>
      <trkpt lat="45.01463" lon="1.04997">
        <ele>92.5</ele>
        <time>2022-05-29T09:47:52Z</time>
      </trkpt>
      <trkpt lat="45.01464" lon="1.04997">
        <ele>92.5</ele>
        <time>2022-05-29T09:47:55Z</time>
      </trkpt>
      <trkpt lat="45.01463" lon="1.04997">
        <ele>92.5</ele>
        <time>2022-05-29T09:55:57Z</time>
      </trkpt>
      <trkpt lat="45.01459" lon="1.04996">
        <ele>92.6</ele>
        <time>2022-05-29T09:55:59Z</time>
      </trkpt>
      <trkpt lat="45.01446" lon="1.04995">
        <ele>93</ele>
        <time>2022-05-29T09:56:05Z</time>
      </trkpt>
      <trkpt lat="45.01428" lon="1.04988">
        <ele>93.8</ele>
        <time>2022-05-29T09:56:13Z</time>
      </trkpt>
      <trkpt lat="45.01418" lon="1.04973">
        <ele>94.6</ele>
        <time>2022-05-29T09:56:20Z</time>
      </trkpt>
      <trkpt lat="45.01412" lon="1.04969">
        <ele>95.2</ele>
        <time>2022-05-29T09:56:23Z</time>
      </trkpt>
      <trkpt lat="45.01409" lon="1.04971">
        <ele>95.6</ele>
        <time>2022-05-29T09:56:25Z</time>
      </trkpt>
      <trkpt lat="45.014" lon="1.0498">
        <ele>97.2</ele>
        <time>2022-05-29T09:56:32Z</time>
      </trkpt>
      <trkpt lat="45.01392" lon="1.04995">
        <ele>99</ele>
        <time>2022-05-29T09:56:39Z</time>
      </trkpt>
      <trkpt lat="45.01383" lon="1.05001">
        <ele>99.9</ele>
        <time>2022-05-29T09:56:45Z</time>
      </trkpt>
      <trkpt lat="45.01374" lon="1.05007">
        <ele>100.3</ele>
        <time>2022-05-29T09:56:52Z</time>
      </trkpt>
      <trkpt lat="45.01368" lon="1.0501">
        <ele>99.9</ele>
        <time>2022-05-29T09:56:57Z</time>
      </trkpt>
      <trkpt lat="45.01365" lon="1.05012">
        <ele>99.6</ele>
        <time>2022-05-29T09:56:59Z</time>
      </trkpt>
      <trkpt lat="45.01363" lon="1.05014">
        <ele>99.6</ele>
        <time>2022-05-29T09:57:02Z</time>
      </trkpt>
      <trkpt lat="45.01358" lon="1.05005">
        <ele>101.2</ele>
        <time>2022-05-29T09:57:04Z</time>
      </trkpt>
      <trkpt lat="45.01363" lon="1.05014">
        <ele>99.5</ele>
        <time>2022-05-29T09:57:06Z</time>
      </trkpt>
      <trkpt lat="45.01363" lon="1.05017">
        <ele>99.4</ele>
        <time>2022-05-29T09:57:08Z</time>
      </trkpt>
      <trkpt lat="45.0136" lon="1.05022">
        <ele>101</ele>
        <time>2022-05-29T09:57:10Z</time>
      </trkpt>
      <trkpt lat="45.01358" lon="1.05026">
        <ele>99.9</ele>
        <time>2022-05-29T09:57:12Z</time>
      </trkpt>
      <trkpt lat="45.01356" lon="1.05031">
        <ele>99.9</ele>
        <time>2022-05-29T09:57:13Z</time>
      </trkpt>
      <trkpt lat="45.01353" lon="1.05035">
        <ele>99.8</ele>
        <time>2022-05-29T09:57:14Z</time>
      </trkpt>
      <trkpt lat="45.01351" lon="1.0504">
        <ele>98.8</ele>
        <time>2022-05-29T09:57:16Z</time>
      </trkpt>
      <trkpt lat="45.01349" lon="1.05044">
        <ele>98.7</ele>
        <time>2022-05-29T09:57:18Z</time>
      </trkpt>
      <trkpt lat="45.01346" lon="1.05049">
        <ele>100.3</ele>
        <time>2022-05-29T09:57:20Z</time>
      </trkpt>
      <trkpt lat="45.01344" lon="1.05053">
        <ele>100.3</ele>
        <time>2022-05-29T09:57:22Z</time>
      </trkpt>
      <trkpt lat="45.01335" lon="1.05073">
        <ele>101</ele>
        <time>2022-05-29T09:57:23Z</time>
      </trkpt>
      <trkpt lat="45.01319" lon="1.05081">
        <ele>100.4</ele>
        <time>2022-05-29T09:57:26Z</time>
      </trkpt>
      <trkpt lat="45.01311" lon="1.05087">
        <ele>100.8</ele>
        <time>2022-05-29T09:57:28Z</time>
      </trkpt>
      <trkpt lat="45.01289" lon="1.05104">
        <ele>98.5</ele>
        <time>2022-05-29T09:57:33Z</time>
      </trkpt>
      <trkpt lat="45.01276" lon="1.05114">
        <ele>96</ele>
        <time>2022-05-29T09:57:36Z</time>
      </trkpt>
      <trkpt lat="45.01271" lon="1.05119">
        <ele>96</ele>
        <time>2022-05-29T09:57:37Z</time>
      </trkpt>
      <trkpt lat="45.01251" lon="1.05139">
        <ele>93.5</ele>
        <time>2022-05-29T09:57:41Z</time>
      </trkpt>
      <trkpt lat="45.01214" lon="1.05177">
        <ele>88.5</ele>
        <time>2022-05-29T09:57:48Z</time>
      </trkpt>
      <trkpt lat="45.01193" lon="1.052">
        <ele>86.8</ele>
        <time>2022-05-29T09:57:53Z</time>
      </trkpt>
      <trkpt lat="45.01189" lon="1.05203">
        <ele>87.2</ele>
        <time>2022-05-29T09:57:54Z</time>
      </trkpt>
      <trkpt lat="45.01176" lon="1.05213">
        <ele>85.6</ele>
        <time>2022-05-29T09:57:58Z</time>
      </trkpt>
      <trkpt lat="45.01161" lon="1.05214">
        <ele>85.4</ele>
        <time>2022-05-29T09:58:03Z</time>
      </trkpt>
      <trkpt lat="45.01146" lon="1.05213">
        <ele>85.1</ele>
        <time>2022-05-29T09:58:08Z</time>
      </trkpt>
      <trkpt lat="45.01124" lon="1.05211">
        <ele>86.7</ele>
        <time>2022-05-29T09:58:15Z</time>
      </trkpt>
      <trkpt lat="45.01106" lon="1.05209">
        <ele>86.8</ele>
        <time>2022-05-29T09:58:21Z</time>
      </trkpt>
      <trkpt lat="45.01094" lon="1.05209">
        <ele>86.9</ele>
        <time>2022-05-29T09:58:25Z</time>
      </trkpt>
      <trkpt lat="45.01081" lon="1.05209">
        <ele>87.5</ele>
        <time>2022-05-29T09:58:29Z</time>
      </trkpt>
      <trkpt lat="45.01065" lon="1.05216">
        <ele>86</ele>
        <time>2022-05-29T09:58:34Z</time>
      </trkpt>
      <trkpt lat="45.01064" lon="1.05216">
        <ele>86</ele>
        <time>2022-05-29T09:58:35Z</time>
      </trkpt>
      <trkpt lat="45.01059" lon="1.05215">
        <ele>85.9</ele>
        <time>2022-05-29T09:58:38Z</time>
      </trkpt>
      <trkpt lat="45.01057" lon="1.05205">
        <ele>87.7</ele>
        <time>2022-05-29T09:58:43Z</time>
      </trkpt>
      <trkpt lat="45.01056" lon="1.05202">
        <ele>88</ele>
        <time>2022-05-29T09:58:45Z</time>
      </trkpt>
      <trkpt lat="45.01055" lon="1.05197">
        <ele>88</ele>
        <time>2022-05-29T09:58:47Z</time>
      </trkpt>
      <trkpt lat="45.01043" lon="1.05192">
        <ele>90.4</ele>
        <time>2022-05-29T09:58:54Z</time>
      </trkpt>
      <trkpt lat="45.01043" lon="1.05192">
        <ele>90.3</ele>
        <time>2022-05-29T09:58:56Z</time>
      </trkpt>
      <trkpt lat="45.01035" lon="1.05182">
        <ele>90.3</ele>
        <time>2022-05-29T09:58:59Z</time>
      </trkpt>
      <trkpt lat="45.01034" lon="1.0518">
        <ele>90.2</ele>
        <time>2022-05-29T09:59:00Z</time>
      </trkpt>
      <trkpt lat="45.01031" lon="1.05173">
        <ele>92.9</ele>
        <time>2022-05-29T09:59:03Z</time>
      </trkpt>
      <trkpt lat="45.01027" lon="1.05159">
        <ele>95.5</ele>
        <time>2022-05-29T09:59:10Z</time>
      </trkpt>
      <trkpt lat="45.01026" lon="1.05157">
        <ele>95.5</ele>
        <time>2022-05-29T09:59:11Z</time>
      </trkpt>
      <trkpt lat="45.01021" lon="1.05153">
        <ele>95.4</ele>
        <time>2022-05-29T09:59:15Z</time>
      </trkpt>
      <trkpt lat="45.01009" lon="1.05151">
        <ele>96</ele>
        <time>2022-05-29T09:59:22Z</time>
      </trkpt>
      <trkpt lat="45.00997" lon="1.05152">
        <ele>96.7</ele>
        <time>2022-05-29T09:59:27Z</time>
      </trkpt>
      <trkpt lat="45.00985" lon="1.05153">
        <ele>97.7</ele>
        <time>2022-05-29T09:59:32Z</time>
      </trkpt>
      <trkpt lat="45.0098" lon="1.05155">
        <ele>98.7</ele>
        <time>2022-05-29T09:59:34Z</time>
      </trkpt>
      <trkpt lat="45.00972" lon="1.05158">
        <ele>100.1</ele>
        <time>2022-05-29T09:59:37Z</time>
      </trkpt>
      <trkpt lat="45.00961" lon="1.05158">
        <ele>100</ele>
        <time>2022-05-29T09:59:40Z</time>
      </trkpt>
      <trkpt lat="45.00957" lon="1.0516">
        <ele>101.3</ele>
        <time>2022-05-29T09:59:41Z</time>
      </trkpt>
      <trkpt lat="45.00938" lon="1.05162">
        <ele>98.1</ele>
        <time>2022-05-29T09:59:46Z</time>
      </trkpt>
      <trkpt lat="45.00921" lon="1.05166">
        <ele>101.8</ele>
        <time>2022-05-29T09:59:50Z</time>
      </trkpt>
      <trkpt lat="45.009" lon="1.05168">
        <ele>103.6</ele>
        <time>2022-05-29T09:59:55Z</time>
      </trkpt>
      <trkpt lat="45.00886" lon="1.0517">
        <ele>105.7</ele>
        <time>2022-05-29T09:59:59Z</time>
      </trkpt>
      <trkpt lat="45.00864" lon="1.05178">
        <ele>101.1</ele>
        <time>2022-05-29T10:00:04Z</time>
      </trkpt>
      <trkpt lat="45.00847" lon="1.05183">
        <ele>102.3</ele>
        <time>2022-05-29T10:00:08Z</time>
      </trkpt>
      <trkpt lat="45.00842" lon="1.05184">
        <ele>102.2</ele>
        <time>2022-05-29T10:00:09Z</time>
      </trkpt>
      <trkpt lat="45.00838" lon="1.05184">
        <ele>102.5</ele>
        <time>2022-05-29T10:00:10Z</time>
      </trkpt>
      <trkpt lat="45.00818" lon="1.0519">
        <ele>102.5</ele>
        <time>2022-05-29T10:00:14Z</time>
      </trkpt>
      <trkpt lat="45.00804" lon="1.05192">
        <ele>102.1</ele>
        <time>2022-05-29T10:00:17Z</time>
      </trkpt>
      <trkpt lat="45.00793" lon="1.05196">
        <ele>96.9</ele>
        <time>2022-05-29T10:00:19Z</time>
      </trkpt>
      <trkpt lat="45.00778" lon="1.05201">
        <ele>94.7</ele>
        <time>2022-05-29T10:00:22Z</time>
      </trkpt>
      <trkpt lat="45.00751" lon="1.05209">
        <ele>92.5</ele>
        <time>2022-05-29T10:00:27Z</time>
      </trkpt>
      <trkpt lat="45.00746" lon="1.05211">
        <ele>92.4</ele>
        <time>2022-05-29T10:00:28Z</time>
      </trkpt>
      <trkpt lat="45.00736" lon="1.05217">
        <ele>88.5</ele>
        <time>2022-05-29T10:00:30Z</time>
      </trkpt>
      <trkpt lat="45.00729" lon="1.05223">
        <ele>88.2</ele>
        <time>2022-05-29T10:00:32Z</time>
      </trkpt>
      <trkpt lat="45.00725" lon="1.05223">
        <ele>88.2</ele>
        <time>2022-05-29T10:00:33Z</time>
      </trkpt>
      <trkpt lat="45.00717" lon="1.0522">
        <ele>88.1</ele>
        <time>2022-05-29T10:00:35Z</time>
      </trkpt>
      <trkpt lat="45.00709" lon="1.0521">
        <ele>90.4</ele>
        <time>2022-05-29T10:00:39Z</time>
      </trkpt>
      <trkpt lat="45.00708" lon="1.05203">
        <ele>90.3</ele>
        <time>2022-05-29T10:00:41Z</time>
      </trkpt>
      <trkpt lat="45.00698" lon="1.05195">
        <ele>90.2</ele>
        <time>2022-05-29T10:00:44Z</time>
      </trkpt>
      <trkpt lat="45.00698" lon="1.05192">
        <ele>92.6</ele>
        <time>2022-05-29T10:00:46Z</time>
      </trkpt>
      <trkpt lat="45.00698" lon="1.05189">
        <ele>92.5</ele>
        <time>2022-05-29T10:00:49Z</time>
      </trkpt>
      <trkpt lat="45.00699" lon="1.05182">
        <ele>92.5</ele>
        <time>2022-05-29T10:00:52Z</time>
      </trkpt>
      <trkpt lat="45.00699" lon="1.05181">
        <ele>92.4</ele>
        <time>2022-05-29T10:00:54Z</time>
      </trkpt>
      <trkpt lat="45.00699" lon="1.05172">
        <ele>94.8</ele>
        <time>2022-05-29T10:00:58Z</time>
      </trkpt>
      <trkpt lat="45.007" lon="1.05161">
        <ele>94.8</ele>
        <time>2022-05-29T10:01:02Z</time>
      </trkpt>
      <trkpt lat="45.007" lon="1.05155">
        <ele>97.3</ele>
        <time>2022-05-29T10:01:04Z</time>
      </trkpt>
      <trkpt lat="45.007" lon="1.05151">
        <ele>97.2</ele>
        <time>2022-05-29T10:01:06Z</time>
      </trkpt>
      <trkpt lat="45.007" lon="1.05146">
        <ele>97.2</ele>
        <time>2022-05-29T10:01:08Z</time>
      </trkpt>
      <trkpt lat="45.007" lon="1.0514">
        <ele>99.6</ele>
        <time>2022-05-29T10:01:10Z</time>
      </trkpt>
      <trkpt lat="45.007" lon="1.05135">
        <ele>99.5</ele>
        <time>2022-05-29T10:01:12Z</time>
      </trkpt>
      <trkpt lat="45.007" lon="1.05119">
        <ele>101.9</ele>
        <time>2022-05-29T10:01:18Z</time>
      </trkpt>
      <trkpt lat="45.007" lon="1.05114">
        <ele>101.8</ele>
        <time>2022-05-29T10:01:20Z</time>
      </trkpt>
      <trkpt lat="45.007" lon="1.05108">
        <ele>104.4</ele>
        <time>2022-05-29T10:01:23Z</time>
      </trkpt>
      <trkpt lat="45.007" lon="1.05105">
        <ele>104.4</ele>
        <time>2022-05-29T10:01:24Z</time>
      </trkpt>
      <trkpt lat="45.007" lon="1.05093">
        <ele>104.3</ele>
        <time>2022-05-29T10:01:28Z</time>
      </trkpt>
      <trkpt lat="45.007" lon="1.05087">
        <ele>106.5</ele>
        <time>2022-05-29T10:01:32Z</time>
      </trkpt>
      <trkpt lat="45.00541" lon="1.04811">
        <ele>137.8</ele>
        <time>2022-05-29T10:05:19Z</time>
      </trkpt>
      <trkpt lat="45.00542" lon="1.04802">
        <ele>137.7</ele>
        <time>2022-05-29T10:05:24Z</time>
      </trkpt>
      <trkpt lat="45.00545" lon="1.04793">
        <ele>138.1</ele>
        <time>2022-05-29T10:05:30Z</time>
      </trkpt>
      <trkpt lat="45.00545" lon="1.04791">
        <ele>138.1</ele>
        <time>2022-05-29T10:05:31Z</time>
      </trkpt>
      <trkpt lat="45.00544" lon="1.04778">
        <ele>138.5</ele>
        <time>2022-05-29T10:05:37Z</time>
      </trkpt>
      <trkpt lat="45.00544" lon="1.04775">
        <ele>138.5</ele>
        <time>2022-05-29T10:05:39Z</time>
      </trkpt>
      <trkpt lat="45.00544" lon="1.0477">
        <ele>138.4</ele>
        <time>2022-05-29T10:05:42Z</time>
      </trkpt>
      <trkpt lat="45.00542" lon="1.04763">
        <ele>138.9</ele>
        <time>2022-05-29T10:05:46Z</time>
      </trkpt>
      <trkpt lat="45.0054" lon="1.04752">
        <ele>138.8</ele>
        <time>2022-05-29T10:05:53Z</time>
      </trkpt>
      <trkpt lat="45.00537" lon="1.04742">
        <ele>139.3</ele>
        <time>2022-05-29T10:06:00Z</time>
      </trkpt>
      <trkpt lat="45.00535" lon="1.04734">
        <ele>141.9</ele>
        <time>2022-05-29T10:06:05Z</time>
      </trkpt>
      <trkpt lat="45.00534" lon="1.04732">
        <ele>141.9</ele>
        <time>2022-05-29T10:06:06Z</time>
      </trkpt>
      <trkpt lat="45.00532" lon="1.04726">
        <ele>142.4</ele>
        <time>2022-05-29T10:06:10Z</time>
      </trkpt>
      <trkpt lat="45.0053" lon="1.04718">
        <ele>142.3</ele>
        <time>2022-05-29T10:06:15Z</time>
      </trkpt>
      <trkpt lat="45.00529" lon="1.04717">
        <ele>142.3</ele>
        <time>2022-05-29T10:06:16Z</time>
      </trkpt>
      <trkpt lat="45.00526" lon="1.04712">
        <ele>142.9</ele>
        <time>2022-05-29T10:06:20Z</time>
      </trkpt>
      <trkpt lat="45.00522" lon="1.04706">
        <ele>145.9</ele>
        <time>2022-05-29T10:06:25Z</time>
      </trkpt>
      <trkpt lat="45.00518" lon="1.04703">
        <ele>145.8</ele>
        <time>2022-05-29T10:06:29Z</time>
      </trkpt>
      <trkpt lat="45.00516" lon="1.047">
        <ele>145.7</ele>
        <time>2022-05-29T10:06:31Z</time>
      </trkpt>
      <trkpt lat="45.00513" lon="1.04692">
        <ele>146.8</ele>
        <time>2022-05-29T10:06:36Z</time>
      </trkpt>
      <trkpt lat="45.00512" lon="1.0469">
        <ele>146.7</ele>
        <time>2022-05-29T10:06:38Z</time>
      </trkpt>
      <trkpt lat="45.0051" lon="1.04683">
        <ele>149.5</ele>
        <time>2022-05-29T10:06:44Z</time>
      </trkpt>
      <trkpt lat="45.0051" lon="1.04681">
        <ele>149.4</ele>
        <time>2022-05-29T10:06:46Z</time>
      </trkpt>
      <trkpt lat="45.00509" lon="1.04673">
        <ele>150.2</ele>
        <time>2022-05-29T10:06:52Z</time>
      </trkpt>
      <trkpt lat="45.00508" lon="1.04671">
        <ele>150.2</ele>
        <time>2022-05-29T10:06:53Z</time>
      </trkpt>
      <trkpt lat="45.00507" lon="1.04663">
        <ele>150.1</ele>
        <time>2022-05-29T10:06:58Z</time>
      </trkpt>
      <trkpt lat="45.00506" lon="1.04657">
        <ele>150.8</ele>
        <time>2022-05-29T10:07:01Z</time>
      </trkpt>
      <trkpt lat="45.00505" lon="1.04653">
        <ele>150.8</ele>
        <time>2022-05-29T10:07:03Z</time>
      </trkpt>
      <trkpt lat="45.00504" lon="1.04649">
        <ele>150.7</ele>
        <time>2022-05-29T10:07:05Z</time>
      </trkpt>
      <trkpt lat="45.00502" lon="1.04642">
        <ele>151.5</ele>
        <time>2022-05-29T10:07:09Z</time>
      </trkpt>
      <trkpt lat="45.00499" lon="1.04629">
        <ele>151.4</ele>
        <time>2022-05-29T10:07:16Z</time>
      </trkpt>
      <trkpt lat="45.00498" lon="1.04627">
        <ele>155.7</ele>
        <time>2022-05-29T10:07:18Z</time>
      </trkpt>
      <trkpt lat="45.00495" lon="1.0462">
        <ele>155.6</ele>
        <time>2022-05-29T10:07:22Z</time>
      </trkpt>
      <trkpt lat="45.00491" lon="1.04607">
        <ele>157</ele>
        <time>2022-05-29T10:07:30Z</time>
      </trkpt>
      <trkpt lat="45.00489" lon="1.04593">
        <ele>158.3</ele>
        <time>2022-05-29T10:07:38Z</time>
      </trkpt>
      <trkpt lat="45.00489" lon="1.04583">
        <ele>158.3</ele>
        <time>2022-05-29T10:07:44Z</time>
      </trkpt>
      <trkpt lat="45.00417" lon="1.04291">
        <ele>195.4</ele>
        <time>2022-05-29T10:12:27Z</time>
      </trkpt>
      <trkpt lat="45.00407" lon="1.04282">
        <ele>197.6</ele>
        <time>2022-05-29T10:12:33Z</time>
      </trkpt>
      <trkpt lat="45.00399" lon="1.04276">
        <ele>198.1</ele>
        <time>2022-05-29T10:12:39Z</time>
      </trkpt>
      <trkpt lat="45.00391" lon="1.04267">
        <ele>198</ele>
        <time>2022-05-29T10:12:44Z</time>
      </trkpt>
      <trkpt lat="45.00387" lon="1.04259">
        <ele>199.8</ele>
        <time>2022-05-29T10:12:49Z</time>
      </trkpt>
      <trkpt lat="45.00383" lon="1.04244">
        <ele>201</ele>
        <time>2022-05-29T10:12:57Z</time>
      </trkpt>
      <trkpt lat="45.00379" lon="1.04231">
        <ele>202.2</ele>
        <time>2022-05-29T10:13:05Z</time>
      </trkpt>
      <trkpt lat="45.00377" lon="1.04218">
        <ele>202.2</ele>
        <time>2022-05-29T10:13:13Z</time>
      </trkpt>
      <trkpt lat="45.00374" lon="1.04204">
        <ele>203.9</ele>
        <time>2022-05-29T10:13:21Z</time>
      </trkpt>
      <trkpt lat="45.00372" lon="1.04197">
        <ele>205.2</ele>
        <time>2022-05-29T10:13:26Z</time>
      </trkpt>
      <trkpt lat="45.00369" lon="1.04188">
        <ele>205.1</ele>
        <time>2022-05-29T10:13:31Z</time>
      </trkpt>
      <trkpt lat="45.00366" lon="1.04175">
        <ele>206.2</ele>
        <time>2022-05-29T10:13:38Z</time>
      </trkpt>
      <trkpt lat="45.00363" lon="1.04164">
        <ele>206.8</ele>
        <time>2022-05-29T10:13:43Z</time>
      </trkpt>
      <trkpt lat="45.00357" lon="1.04153">
        <ele>206.7</ele>
        <time>2022-05-29T10:13:49Z</time>
      </trkpt>
      <trkpt lat="45.00355" lon="1.04152">
        <ele>206.7</ele>
        <time>2022-05-29T10:13:50Z</time>
      </trkpt>
      <trkpt lat="45.00348" lon="1.0415">
        <ele>206.3</ele>
        <time>2022-05-29T10:13:54Z</time>
      </trkpt>
      <trkpt lat="45.00346" lon="1.0415">
        <ele>206.3</ele>
        <time>2022-05-29T10:13:56Z</time>
      </trkpt>
      <trkpt lat="45.00341" lon="1.04146">
        <ele>206.9</ele>
        <time>2022-05-29T10:14:00Z</time>
      </trkpt>
      <trkpt lat="45.00339" lon="1.04143">
        <ele>206.6</ele>
        <time>2022-05-29T10:14:02Z</time>
      </trkpt>
      <trkpt lat="45.00337" lon="1.04141">
        <ele>206.5</ele>
        <time>2022-05-29T10:14:04Z</time>
      </trkpt>
      <trkpt lat="45.00336" lon="1.04139">
        <ele>206.5</ele>
        <time>2022-05-29T10:14:05Z</time>
      </trkpt>
      <trkpt lat="45.00329" lon="1.04128">
        <ele>207.2</ele>
        <time>2022-05-29T10:14:12Z</time>
      </trkpt>
      <trkpt lat="45.00322" lon="1.04123">
        <ele>206.8</ele>
        <time>2022-05-29T10:14:18Z</time>
      </trkpt>
      <trkpt lat="45.00322" lon="1.04122">
        <ele>206.8</ele>
        <time>2022-05-29T10:14:20Z</time>
      </trkpt>
      <trkpt lat="45.00319" lon="1.04127">
        <ele>206.7</ele>
        <time>2022-05-29T10:17:40Z</time>
      </trkpt>
      <trkpt lat="45.00317" lon="1.04128">
        <ele>206.7</ele>
        <time>2022-05-29T10:17:41Z</time>
      </trkpt>
      <trkpt lat="45.00303" lon="1.04135">
        <ele>205.1</ele>
        <time>2022-05-29T10:17:48Z</time>
      </trkpt>
      <trkpt lat="45.00285" lon="1.04136">
        <ele>204.6</ele>
        <time>2022-05-29T10:17:54Z</time>
      </trkpt>
      <trkpt lat="45.00285" lon="1.04134">
        <ele>204.6</ele>
        <time>2022-05-29T10:17:58Z</time>
      </trkpt>
      <trkpt lat="45.00283" lon="1.04122">
        <ele>204.9</ele>
        <time>2022-05-29T10:18:03Z</time>
      </trkpt>
      <trkpt lat="45.00278" lon="1.04103">
        <ele>205.5</ele>
        <time>2022-05-29T10:18:09Z</time>
      </trkpt>
      <trkpt lat="45.00275" lon="1.04078">
        <ele>206.1</ele>
        <time>2022-05-29T10:18:15Z</time>
      </trkpt>
      <trkpt lat="45.00272" lon="1.04059">
        <ele>206.6</ele>
        <time>2022-05-29T10:18:19Z</time>
      </trkpt>
      <trkpt lat="45.00269" lon="1.04041">
        <ele>207.1</ele>
        <time>2022-05-29T10:18:23Z</time>
      </trkpt>
      <trkpt lat="45.00266" lon="1.04026">
        <ele>207.5</ele>
        <time>2022-05-29T10:18:27Z</time>
      </trkpt>
      <trkpt lat="45.00266" lon="1.04023">
        <ele>207.6</ele>
        <time>2022-05-29T10:18:28Z</time>
      </trkpt>
      <trkpt lat="45.00264" lon="1.04012">
        <ele>207.9</ele>
        <time>2022-05-29T10:18:31Z</time>
      </trkpt>
      <trkpt lat="45.0026" lon="1.03984">
        <ele>208.6</ele>
        <time>2022-05-29T10:18:37Z</time>
      </trkpt>
      <trkpt lat="45.00258" lon="1.03957">
        <ele>209.3</ele>
        <time>2022-05-29T10:18:43Z</time>
      </trkpt>
      <trkpt lat="45.00253" lon="1.03929">
        <ele>210</ele>
        <time>2022-05-29T10:18:49Z</time>
      </trkpt>
      <trkpt lat="45.00249" lon="1.03899">
        <ele>210.8</ele>
        <time>2022-05-29T10:18:57Z</time>
      </trkpt>
      <trkpt lat="45.00248" lon="1.03873">
        <ele>211.5</ele>
        <time>2022-05-29T10:19:03Z</time>
      </trkpt>
      <trkpt lat="45.00247" lon="1.03843">
        <ele>212.3</ele>
        <time>2022-05-29T10:19:10Z</time>
      </trkpt>
      <trkpt lat="45.00248" lon="1.03813">
        <ele>213</ele>
        <time>2022-05-29T10:19:17Z</time>
      </trkpt>
      <trkpt lat="45.00249" lon="1.03789">
        <ele>213.6</ele>
        <time>2022-05-29T10:19:23Z</time>
      </trkpt>
      <trkpt lat="45.00249" lon="1.03762">
        <ele>214.3</ele>
        <time>2022-05-29T10:19:30Z</time>
      </trkpt>
      <trkpt lat="45.00249" lon="1.03744">
        <ele>214.8</ele>
        <time>2022-05-29T10:19:34Z</time>
      </trkpt>
      <trkpt lat="45.0025" lon="1.03707">
        <ele>215.7</ele>
        <time>2022-05-29T10:19:42Z</time>
      </trkpt>
      <trkpt lat="45.00251" lon="1.03686">
        <ele>216.3</ele>
        <time>2022-05-29T10:19:47Z</time>
      </trkpt>
      <trkpt lat="45.00247" lon="1.03657">
        <ele>217</ele>
        <time>2022-05-29T10:19:54Z</time>
      </trkpt>
      <trkpt lat="45.0024" lon="1.03631">
        <ele>217.7</ele>
        <time>2022-05-29T10:20:00Z</time>
      </trkpt>
      <trkpt lat="45.00235" lon="1.03611">
        <ele>218.3</ele>
        <time>2022-05-29T10:20:05Z</time>
      </trkpt>
      <trkpt lat="45.00229" lon="1.03586">
        <ele>219</ele>
        <time>2022-05-29T10:20:11Z</time>
      </trkpt>
      <trkpt lat="45.00221" lon="1.03568">
        <ele>219.5</ele>
        <time>2022-05-29T10:20:16Z</time>
      </trkpt>
      <trkpt lat="45.00214" lon="1.0355">
        <ele>220.1</ele>
        <time>2022-05-29T10:20:20Z</time>
      </trkpt>
      <trkpt lat="45.00212" lon="1.03546">
        <ele>220.2</ele>
        <time>2022-05-29T10:20:22Z</time>
      </trkpt>
      <trkpt lat="45.00212" lon="1.03534">
        <ele>220.5</ele>
        <time>2022-05-29T10:20:23Z</time>
      </trkpt>
      <trkpt lat="45.00214" lon="1.03516">
        <ele>221</ele>
        <time>2022-05-29T10:20:27Z</time>
      </trkpt>
      <trkpt lat="45.00213" lon="1.035">
        <ele>221.4</ele>
        <time>2022-05-29T10:20:30Z</time>
      </trkpt>
      <trkpt lat="45.00213" lon="1.03494">
        <ele>221.5</ele>
        <time>2022-05-29T10:20:31Z</time>
      </trkpt>
      <trkpt lat="45.00214" lon="1.03475">
        <ele>222</ele>
        <time>2022-05-29T10:20:35Z</time>
      </trkpt>
      <trkpt lat="45.00216" lon="1.03467">
        <ele>222.2</ele>
        <time>2022-05-29T10:20:37Z</time>
      </trkpt>
      <trkpt lat="45.00217" lon="1.03459">
        <ele>222.4</ele>
        <time>2022-05-29T10:20:39Z</time>
      </trkpt>
      <trkpt lat="45.00218" lon="1.03451">
        <ele>222.5</ele>
        <time>2022-05-29T10:20:42Z</time>
      </trkpt>
      <trkpt lat="45.00216" lon="1.0345">
        <ele>222.4</ele>
        <time>2022-05-29T10:20:43Z</time>
      </trkpt>
      <trkpt lat="45.00204" lon="1.03441">
        <ele>221.5</ele>
        <time>2022-05-29T10:20:48Z</time>
      </trkpt>
      <trkpt lat="45.00185" lon="1.03431">
        <ele>221.3</ele>
        <time>2022-05-29T10:20:54Z</time>
      </trkpt>
      <trkpt lat="45.0017" lon="1.03424">
        <ele>221.6</ele>
        <time>2022-05-29T10:21:00Z</time>
      </trkpt>
      <trkpt lat="45.00159" lon="1.03418">
        <ele>221.9</ele>
        <time>2022-05-29T10:21:05Z</time>
      </trkpt>
      <trkpt lat="45.00147" lon="1.03412">
        <ele>222</ele>
        <time>2022-05-29T10:21:10Z</time>
      </trkpt>
      <trkpt lat="45.0013" lon="1.03404">
        <ele>221.7</ele>
        <time>2022-05-29T10:21:16Z</time>
      </trkpt>
      <trkpt lat="45.0011" lon="1.03393">
        <ele>221.4</ele>
        <time>2022-05-29T10:21:22Z</time>
      </trkpt>
      <trkpt lat="45.00094" lon="1.03385">
        <ele>221.5</ele>
        <time>2022-05-29T10:21:27Z</time>
      </trkpt>
      <trkpt lat="45.00078" lon="1.03377">
        <ele>221.8</ele>
        <time>2022-05-29T10:21:32Z</time>
      </trkpt>
      <trkpt lat="45.0006" lon="1.03373">
        <ele>221.7</ele>
        <time>2022-05-29T10:21:37Z</time>
      </trkpt>
      <trkpt lat="45.00046" lon="1.03384">
        <ele>221.3</ele>
        <time>2022-05-29T10:21:41Z</time>
      </trkpt>
      <trkpt lat="45.00032" lon="1.03401">
        <ele>220.9</ele>
        <time>2022-05-29T10:21:45Z</time>
      </trkpt>
      <trkpt lat="45.00004" lon="1.03418">
        <ele>220.2</ele>
        <time>2022-05-29T10:21:51Z</time>
      </trkpt>
      <trkpt lat="44.99984" lon="1.0343">
        <ele>219.7</ele>
        <time>2022-05-29T10:21:55Z</time>
      </trkpt>
      <trkpt lat="44.99972" lon="1.03435">
        <ele>219.4</ele>
        <time>2022-05-29T10:21:57Z</time>
      </trkpt>
      <trkpt lat="44.99955" lon="1.03443">
        <ele>219</ele>
        <time>2022-05-29T10:22:00Z</time>
      </trkpt>
      <trkpt lat="44.99937" lon="1.03449">
        <ele>218.6</ele>
        <time>2022-05-29T10:22:03Z</time>
      </trkpt>
      <trkpt lat="44.99926" lon="1.03453">
        <ele>218.3</ele>
        <time>2022-05-29T10:22:05Z</time>
      </trkpt>
      <trkpt lat="44.99915" lon="1.03456">
        <ele>218.1</ele>
        <time>2022-05-29T10:22:07Z</time>
      </trkpt>
      <trkpt lat="44.99903" lon="1.0346">
        <ele>217.8</ele>
        <time>2022-05-29T10:22:09Z</time>
      </trkpt>
      <trkpt lat="44.99894" lon="1.03466">
        <ele>217.6</ele>
        <time>2022-05-29T10:22:11Z</time>
      </trkpt>
      <trkpt lat="44.99881" lon="1.03475">
        <ele>217.3</ele>
        <time>2022-05-29T10:22:13Z</time>
      </trkpt>
      <trkpt lat="44.9985" lon="1.03495">
        <ele>216.5</ele>
        <time>2022-05-29T10:22:18Z</time>
      </trkpt>
      <trkpt lat="44.99819" lon="1.03514">
        <ele>215.7</ele>
        <time>2022-05-29T10:22:23Z</time>
      </trkpt>
      <trkpt lat="44.99806" lon="1.03522">
        <ele>215.4</ele>
        <time>2022-05-29T10:22:25Z</time>
      </trkpt>
      <trkpt lat="44.99796" lon="1.0353">
        <ele>215.1</ele>
        <time>2022-05-29T10:22:27Z</time>
      </trkpt>
      <trkpt lat="44.99789" lon="1.03537">
        <ele>214.9</ele>
        <time>2022-05-29T10:22:30Z</time>
      </trkpt>
      <trkpt lat="44.99789" lon="1.03537">
        <ele>214.9</ele>
        <time>2022-05-29T10:22:31Z</time>
      </trkpt>
      <trkpt lat="44.99792" lon="1.03533">
        <ele>214.9</ele>
        <time>2022-05-29T10:22:35Z</time>
      </trkpt>
      <trkpt lat="44.99783" lon="1.03536">
        <ele>214.6</ele>
        <time>2022-05-29T10:22:36Z</time>
      </trkpt>
      <trkpt lat="44.99779" lon="1.03514">
        <ele>214.6</ele>
        <time>2022-05-29T10:22:42Z</time>
      </trkpt>
      <trkpt lat="44.99774" lon="1.03489">
        <ele>214.7</ele>
        <time>2022-05-29T10:22:48Z</time>
      </trkpt>
      <trkpt lat="44.99766" lon="1.03479">
        <ele>214.3</ele>
        <time>2022-05-29T10:22:51Z</time>
      </trkpt>
      <trkpt lat="44.9975" lon="1.03464">
        <ele>213.9</ele>
        <time>2022-05-29T10:22:55Z</time>
      </trkpt>
      <trkpt lat="44.99735" lon="1.03449">
        <ele>213.3</ele>
        <time>2022-05-29T10:22:58Z</time>
      </trkpt>
      <trkpt lat="44.99732" lon="1.0344">
        <ele>212.4</ele>
        <time>2022-05-29T10:22:59Z</time>
      </trkpt>
      <trkpt lat="44.9973" lon="1.03433">
        <ele>212.4</ele>
        <time>2022-05-29T10:23:00Z</time>
      </trkpt>
      <trkpt lat="44.99725" lon="1.03406">
        <ele>211.1</ele>
        <time>2022-05-29T10:23:03Z</time>
      </trkpt>
      <trkpt lat="44.99722" lon="1.03356">
        <ele>207.5</ele>
        <time>2022-05-29T10:23:07Z</time>
      </trkpt>
      <trkpt lat="44.99724" lon="1.03333">
        <ele>207.8</ele>
        <time>2022-05-29T10:23:09Z</time>
      </trkpt>
      <trkpt lat="44.99728" lon="1.03311">
        <ele>206.1</ele>
        <time>2022-05-29T10:23:11Z</time>
      </trkpt>
      <trkpt lat="44.9973" lon="1.03291">
        <ele>203.8</ele>
        <time>2022-05-29T10:23:13Z</time>
      </trkpt>
      <trkpt lat="44.99735" lon="1.03272">
        <ele>203.2</ele>
        <time>2022-05-29T10:23:15Z</time>
      </trkpt>
      <trkpt lat="44.99739" lon="1.03264">
        <ele>201</ele>
        <time>2022-05-29T10:23:16Z</time>
      </trkpt>
      <trkpt lat="44.99747" lon="1.0325">
        <ele>200.4</ele>
        <time>2022-05-29T10:23:18Z</time>
      </trkpt>
      <trkpt lat="44.99751" lon="1.03244">
        <ele>200.3</ele>
        <time>2022-05-29T10:23:19Z</time>
      </trkpt>
      <trkpt lat="44.99758" lon="1.03232">
        <ele>197.9</ele>
        <time>2022-05-29T10:23:21Z</time>
      </trkpt>
      <trkpt lat="44.99781" lon="1.03207">
        <ele>198.2</ele>
        <time>2022-05-29T10:23:26Z</time>
      </trkpt>
      <trkpt lat="44.99789" lon="1.03196">
        <ele>196.6</ele>
        <time>2022-05-29T10:23:28Z</time>
      </trkpt>
      <trkpt lat="44.99794" lon="1.0319">
        <ele>196.5</ele>
        <time>2022-05-29T10:23:29Z</time>
      </trkpt>
      <trkpt lat="44.99799" lon="1.03186">
        <ele>194.8</ele>
        <time>2022-05-29T10:23:30Z</time>
      </trkpt>
      <trkpt lat="44.99815" lon="1.03173">
        <ele>196.7</ele>
        <time>2022-05-29T10:23:33Z</time>
      </trkpt>
      <trkpt lat="44.99825" lon="1.03161">
        <ele>194.5</ele>
        <time>2022-05-29T10:23:35Z</time>
      </trkpt>
      <trkpt lat="44.99838" lon="1.03155">
        <ele>195.5</ele>
        <time>2022-05-29T10:23:37Z</time>
      </trkpt>
      <trkpt lat="44.99849" lon="1.03149">
        <ele>191.3</ele>
        <time>2022-05-29T10:23:39Z</time>
      </trkpt>
      <trkpt lat="44.99855" lon="1.03145">
        <ele>191.3</ele>
        <time>2022-05-29T10:23:40Z</time>
      </trkpt>
      <trkpt lat="44.99866" lon="1.03135">
        <ele>191.4</ele>
        <time>2022-05-29T10:23:42Z</time>
      </trkpt>
      <trkpt lat="44.99874" lon="1.03124">
        <ele>186.7</ele>
        <time>2022-05-29T10:23:44Z</time>
      </trkpt>
      <trkpt lat="44.99886" lon="1.03115">
        <ele>182.4</ele>
        <time>2022-05-29T10:23:46Z</time>
      </trkpt>
      <trkpt lat="44.999" lon="1.03106">
        <ele>182.6</ele>
        <time>2022-05-29T10:23:48Z</time>
      </trkpt>
      <trkpt lat="44.99907" lon="1.03104">
        <ele>183.1</ele>
        <time>2022-05-29T10:23:49Z</time>
      </trkpt>
      <trkpt lat="44.99924" lon="1.03094">
        <ele>179.6</ele>
        <time>2022-05-29T10:23:52Z</time>
      </trkpt>
      <trkpt lat="44.99945" lon="1.03079">
        <ele>176.7</ele>
        <time>2022-05-29T10:23:56Z</time>
      </trkpt>
      <trkpt lat="44.99951" lon="1.0307">
        <ele>176.6</ele>
        <time>2022-05-29T10:23:58Z</time>
      </trkpt>
      <trkpt lat="44.99954" lon="1.03065">
        <ele>173.8</ele>
        <time>2022-05-29T10:23:59Z</time>
      </trkpt>
      <trkpt lat="44.99962" lon="1.03046">
        <ele>170.1</ele>
        <time>2022-05-29T10:24:02Z</time>
      </trkpt>
      <trkpt lat="44.99964" lon="1.03037">
        <ele>170</ele>
        <time>2022-05-29T10:24:03Z</time>
      </trkpt>
      <trkpt lat="44.99966" lon="1.03013">
        <ele>164.9</ele>
        <time>2022-05-29T10:24:06Z</time>
      </trkpt>
      <trkpt lat="44.99965" lon="1.03009">
        <ele>164.9</ele>
        <time>2022-05-29T10:24:07Z</time>
      </trkpt>
      <trkpt lat="44.99967" lon="1.02991">
        <ele>163</ele>
        <time>2022-05-29T10:24:10Z</time>
      </trkpt>
      <trkpt lat="44.9997" lon="1.02987">
        <ele>163</ele>
        <time>2022-05-29T10:24:11Z</time>
      </trkpt>
      <trkpt lat="44.99974" lon="1.02984">
        <ele>163</ele>
        <time>2022-05-29T10:24:12Z</time>
      </trkpt>
      <trkpt lat="44.99982" lon="1.0298">
        <ele>162.2</ele>
        <time>2022-05-29T10:24:14Z</time>
      </trkpt>
      <trkpt lat="44.99987" lon="1.02976">
        <ele>162.2</ele>
        <time>2022-05-29T10:24:17Z</time>
      </trkpt>
      <trkpt lat="44.99988" lon="1.02972">
        <ele>162.1</ele>
        <time>2022-05-29T10:24:18Z</time>
      </trkpt>
      <trkpt lat="44.99991" lon="1.02962">
        <ele>162</ele>
        <time>2022-05-29T10:24:20Z</time>
      </trkpt>
      <trkpt lat="44.99993" lon="1.02939">
        <ele>162</ele>
        <time>2022-05-29T10:24:24Z</time>
      </trkpt>
      <trkpt lat="44.99991" lon="1.02933">
        <ele>162</ele>
        <time>2022-05-29T10:24:25Z</time>
      </trkpt>
      <trkpt lat="44.99983" lon="1.029">
        <ele>162.3</ele>
        <time>2022-05-29T10:24:29Z</time>
      </trkpt>
      <trkpt lat="44.9998" lon="1.02884">
        <ele>163.1</ele>
        <time>2022-05-29T10:24:31Z</time>
      </trkpt>
      <trkpt lat="44.99977" lon="1.02872">
        <ele>164.3</ele>
        <time>2022-05-29T10:24:33Z</time>
      </trkpt>
      <trkpt lat="44.99977" lon="1.02872">
        <ele>164.3</ele>
        <time>2022-05-29T10:24:35Z</time>
      </trkpt>
      <trkpt lat="44.99967" lon="1.02872">
        <ele>164.3</ele>
        <time>2022-05-29T10:24:47Z</time>
      </trkpt>
      <trkpt lat="44.99955" lon="1.02877">
        <ele>164.3</ele>
        <time>2022-05-29T10:24:52Z</time>
      </trkpt>
      <trkpt lat="44.99944" lon="1.02881">
        <ele>162.9</ele>
        <time>2022-05-29T10:24:57Z</time>
      </trkpt>
      <trkpt lat="44.99944" lon="1.02881">
        <ele>162.9</ele>
        <time>2022-05-29T10:25:01Z</time>
      </trkpt>
      <trkpt lat="44.99944" lon="1.02881">
        <ele>162.8</ele>
        <time>2022-05-29T10:25:02Z</time>
      </trkpt>
      <trkpt lat="44.99944" lon="1.02881">
        <ele>162.8</ele>
        <time>2022-05-29T10:25:06Z</time>
      </trkpt>
      <trkpt lat="44.99898" lon="1.02896">
        <ele>159.9</ele>
        <time>2022-05-29T10:25:10Z</time>
      </trkpt>
      <trkpt lat="44.99883" lon="1.02897">
        <ele>159.8</ele>
        <time>2022-05-29T10:25:13Z</time>
      </trkpt>
      <trkpt lat="44.99878" lon="1.02898">
        <ele>160.1</ele>
        <time>2022-05-29T10:25:14Z</time>
      </trkpt>
      <trkpt lat="44.99873" lon="1.02897">
        <ele>160</ele>
        <time>2022-05-29T10:25:15Z</time>
      </trkpt>
      <trkpt lat="44.99862" lon="1.02897">
        <ele>160.4</ele>
        <time>2022-05-29T10:25:17Z</time>
      </trkpt>
      <trkpt lat="44.99847" lon="1.02895">
        <ele>160.6</ele>
        <time>2022-05-29T10:25:20Z</time>
      </trkpt>
      <trkpt lat="44.99837" lon="1.02896">
        <ele>160.4</ele>
        <time>2022-05-29T10:25:22Z</time>
      </trkpt>
      <trkpt lat="44.99825" lon="1.0289">
        <ele>162.3</ele>
        <time>2022-05-29T10:25:25Z</time>
      </trkpt>
      <trkpt lat="44.99808" lon="1.02883">
        <ele>162</ele>
        <time>2022-05-29T10:25:28Z</time>
      </trkpt>
      <trkpt lat="44.99802" lon="1.02881">
        <ele>161.6</ele>
        <time>2022-05-29T10:25:29Z</time>
      </trkpt>
      <trkpt lat="44.99789" lon="1.02877">
        <ele>163.6</ele>
        <time>2022-05-29T10:25:31Z</time>
      </trkpt>
      <trkpt lat="44.99779" lon="1.02874">
        <ele>162.9</ele>
        <time>2022-05-29T10:25:33Z</time>
      </trkpt>
      <trkpt lat="44.99773" lon="1.02871">
        <ele>162.9</ele>
        <time>2022-05-29T10:25:34Z</time>
      </trkpt>
      <trkpt lat="44.99768" lon="1.02866">
        <ele>162</ele>
        <time>2022-05-29T10:25:35Z</time>
      </trkpt>
      <trkpt lat="44.99756" lon="1.02858">
        <ele>164.6</ele>
        <time>2022-05-29T10:25:37Z</time>
      </trkpt>
      <trkpt lat="44.99749" lon="1.02855">
        <ele>164.6</ele>
        <time>2022-05-29T10:25:38Z</time>
      </trkpt>
      <trkpt lat="44.99736" lon="1.02849">
        <ele>162.9</ele>
        <time>2022-05-29T10:25:40Z</time>
      </trkpt>
      <trkpt lat="44.99728" lon="1.02846">
        <ele>161.3</ele>
        <time>2022-05-29T10:25:42Z</time>
      </trkpt>
      <trkpt lat="44.99717" lon="1.02848">
        <ele>159.3</ele>
        <time>2022-05-29T10:25:44Z</time>
      </trkpt>
      <trkpt lat="44.99707" lon="1.02851">
        <ele>157.2</ele>
        <time>2022-05-29T10:25:46Z</time>
      </trkpt>
      <trkpt lat="44.99685" lon="1.02858">
        <ele>153.1</ele>
        <time>2022-05-29T10:25:50Z</time>
      </trkpt>
      <trkpt lat="44.99666" lon="1.02867">
        <ele>147.7</ele>
        <time>2022-05-29T10:25:54Z</time>
      </trkpt>
      <trkpt lat="44.99654" lon="1.02877">
        <ele>143.4</ele>
        <time>2022-05-29T10:25:58Z</time>
      </trkpt>
      <trkpt lat="44.99639" lon="1.02889">
        <ele>142.9</ele>
        <time>2022-05-29T10:26:03Z</time>
      </trkpt>
      <trkpt lat="44.99623" lon="1.02892">
        <ele>143</ele>
        <time>2022-05-29T10:26:07Z</time>
      </trkpt>
      <trkpt lat="44.99588" lon="1.02893">
        <ele>144.6</ele>
        <time>2022-05-29T10:26:14Z</time>
      </trkpt>
      <trkpt lat="44.99578" lon="1.02895">
        <ele>141.8</ele>
        <time>2022-05-29T10:26:15Z</time>
      </trkpt>
      <trkpt lat="44.99571" lon="1.02908">
        <ele>142.1</ele>
        <time>2022-05-29T10:26:17Z</time>
      </trkpt>
      <trkpt lat="44.99564" lon="1.02934">
        <ele>138.7</ele>
        <time>2022-05-29T10:26:20Z</time>
      </trkpt>
      <trkpt lat="44.99564" lon="1.02947">
        <ele>135.4</ele>
        <time>2022-05-29T10:26:22Z</time>
      </trkpt>
      <trkpt lat="44.99563" lon="1.02957">
        <ele>136.2</ele>
        <time>2022-05-29T10:26:24Z</time>
      </trkpt>
      <trkpt lat="44.99563" lon="1.02962">
        <ele>136.1</ele>
        <time>2022-05-29T10:26:27Z</time>
      </trkpt>
      <trkpt lat="44.99566" lon="1.02968">
        <ele>133.3</ele>
        <time>2022-05-29T10:26:30Z</time>
      </trkpt>
      <trkpt lat="44.99564" lon="1.02978">
        <ele>133.7</ele>
        <time>2022-05-29T10:26:32Z</time>
      </trkpt>
      <trkpt lat="44.99563" lon="1.02984">
        <ele>131.5</ele>
        <time>2022-05-29T10:26:33Z</time>
      </trkpt>
      <trkpt lat="44.99555" lon="1.03013">
        <ele>129.8</ele>
        <time>2022-05-29T10:26:37Z</time>
      </trkpt>
      <trkpt lat="44.99553" lon="1.03021">
        <ele>128.6</ele>
        <time>2022-05-29T10:26:38Z</time>
      </trkpt>
      <trkpt lat="44.99545" lon="1.03039">
        <ele>126.8</ele>
        <time>2022-05-29T10:26:41Z</time>
      </trkpt>
      <trkpt lat="44.99541" lon="1.03045">
        <ele>126.7</ele>
        <time>2022-05-29T10:26:42Z</time>
      </trkpt>
      <trkpt lat="44.99531" lon="1.03067">
        <ele>128.1</ele>
        <time>2022-05-29T10:26:46Z</time>
      </trkpt>
      <trkpt lat="44.99519" lon="1.03085">
        <ele>128.2</ele>
        <time>2022-05-29T10:26:51Z</time>
      </trkpt>
      <trkpt lat="44.99508" lon="1.03099">
        <ele>126.8</ele>
        <time>2022-05-29T10:26:55Z</time>
      </trkpt>
      <trkpt lat="44.99501" lon="1.0311">
        <ele>126.4</ele>
        <time>2022-05-29T10:26:58Z</time>
      </trkpt>
      <trkpt lat="44.9949" lon="1.0312">
        <ele>124.6</ele>
        <time>2022-05-29T10:27:02Z</time>
      </trkpt>
      <trkpt lat="44.99476" lon="1.03142">
        <ele>126</ele>
        <time>2022-05-29T10:27:07Z</time>
      </trkpt>
      <trkpt lat="44.99468" lon="1.03153">
        <ele>126.9</ele>
        <time>2022-05-29T10:27:10Z</time>
      </trkpt>
      <trkpt lat="44.99455" lon="1.0318">
        <ele>128</ele>
        <time>2022-05-29T10:27:15Z</time>
      </trkpt>
      <trkpt lat="44.99449" lon="1.03191">
        <ele>130.4</ele>
        <time>2022-05-29T10:27:17Z</time>
      </trkpt>
      <trkpt lat="44.99436" lon="1.0321">
        <ele>131.6</ele>
        <time>2022-05-29T10:27:20Z</time>
      </trkpt>
      <trkpt lat="44.99417" lon="1.03234">
        <ele>132.9</ele>
        <time>2022-05-29T10:27:25Z</time>
      </trkpt>
      <trkpt lat="44.99399" lon="1.03262">
        <ele>133.2</ele>
        <time>2022-05-29T10:27:30Z</time>
      </trkpt>
      <trkpt lat="44.99388" lon="1.03279">
        <ele>133</ele>
        <time>2022-05-29T10:27:34Z</time>
      </trkpt>
      <trkpt lat="44.99376" lon="1.03296">
        <ele>133</ele>
        <time>2022-05-29T10:27:39Z</time>
      </trkpt>
      <trkpt lat="44.99369" lon="1.03313">
        <ele>132.5</ele>
        <time>2022-05-29T10:27:43Z</time>
      </trkpt>
      <trkpt lat="44.99358" lon="1.03335">
        <ele>131</ele>
        <time>2022-05-29T10:27:48Z</time>
      </trkpt>
      <trkpt lat="44.99351" lon="1.03349">
        <ele>130.3</ele>
        <time>2022-05-29T10:27:53Z</time>
      </trkpt>
      <trkpt lat="44.99345" lon="1.03364">
        <ele>129.7</ele>
        <time>2022-05-29T10:27:58Z</time>
      </trkpt>
      <trkpt lat="44.99334" lon="1.03387">
        <ele>129.2</ele>
        <time>2022-05-29T10:28:03Z</time>
      </trkpt>
      <trkpt lat="44.99324" lon="1.03409">
        <ele>127.6</ele>
        <time>2022-05-29T10:28:08Z</time>
      </trkpt>
      <trkpt lat="44.99319" lon="1.03423">
        <ele>126.6</ele>
        <time>2022-05-29T10:28:13Z</time>
      </trkpt>
      <trkpt lat="44.99314" lon="1.03442">
        <ele>125.6</ele>
        <time>2022-05-29T10:28:17Z</time>
      </trkpt>
      <trkpt lat="44.99311" lon="1.03458">
        <ele>124.1</ele>
        <time>2022-05-29T10:28:21Z</time>
      </trkpt>
      <trkpt lat="44.9931" lon="1.03473">
        <ele>122.6</ele>
        <time>2022-05-29T10:28:25Z</time>
      </trkpt>
      <trkpt lat="44.99306" lon="1.03483">
        <ele>121.2</ele>
        <time>2022-05-29T10:28:27Z</time>
      </trkpt>
      <trkpt lat="44.99301" lon="1.03506">
        <ele>119.7</ele>
        <time>2022-05-29T10:28:31Z</time>
      </trkpt>
      <trkpt lat="44.99288" lon="1.03545">
        <ele>118.8</ele>
        <time>2022-05-29T10:28:36Z</time>
      </trkpt>
      <trkpt lat="44.99275" lon="1.0358">
        <ele>118.7</ele>
        <time>2022-05-29T10:28:41Z</time>
      </trkpt>
      <trkpt lat="44.99265" lon="1.03607">
        <ele>118.5</ele>
        <time>2022-05-29T10:28:45Z</time>
      </trkpt>
      <trkpt lat="44.99255" lon="1.03638">
        <ele>117.8</ele>
        <time>2022-05-29T10:28:50Z</time>
      </trkpt>
      <trkpt lat="44.99245" lon="1.03662">
        <ele>118.8</ele>
        <time>2022-05-29T10:28:56Z</time>
      </trkpt>
      <trkpt lat="44.99239" lon="1.03671">
        <ele>119.3</ele>
        <time>2022-05-29T10:29:00Z</time>
      </trkpt>
      <trkpt lat="44.99226" lon="1.03684">
        <ele>119.3</ele>
        <time>2022-05-29T10:29:05Z</time>
      </trkpt>
      <trkpt lat="44.9922" lon="1.03689">
        <ele>119.3</ele>
        <time>2022-05-29T10:29:07Z</time>
      </trkpt>
      <trkpt lat="44.99215" lon="1.03691">
        <ele>119.3</ele>
        <time>2022-05-29T10:29:09Z</time>
      </trkpt>
      <trkpt lat="44.9921" lon="1.03694">
        <ele>119.8</ele>
        <time>2022-05-29T10:29:12Z</time>
      </trkpt>
      <trkpt lat="44.99189" lon="1.03717">
        <ele>120.2</ele>
        <time>2022-05-29T10:29:39Z</time>
      </trkpt>
      <trkpt lat="44.99187" lon="1.03719">
        <ele>120.1</ele>
        <time>2022-05-29T10:29:40Z</time>
      </trkpt>
      <trkpt lat="44.99181" lon="1.03727">
        <ele>120</ele>
        <time>2022-05-29T10:29:42Z</time>
      </trkpt>
      <trkpt lat="44.99174" lon="1.03734">
        <ele>120.9</ele>
        <time>2022-05-29T10:29:44Z</time>
      </trkpt>
      <trkpt lat="44.99169" lon="1.03738">
        <ele>119.9</ele>
        <time>2022-05-29T10:29:45Z</time>
      </trkpt>
      <trkpt lat="44.99165" lon="1.03742">
        <ele>119.9</ele>
        <time>2022-05-29T10:29:47Z</time>
      </trkpt>
      <trkpt lat="44.99164" lon="1.03744">
        <ele>119.8</ele>
        <time>2022-05-29T10:29:48Z</time>
      </trkpt>
      <trkpt lat="44.99151" lon="1.03764">
        <ele>119.7</ele>
        <time>2022-05-29T10:30:29Z</time>
      </trkpt>
      <trkpt lat="44.99147" lon="1.03768">
        <ele>119.7</ele>
        <time>2022-05-29T10:30:31Z</time>
      </trkpt>
      <trkpt lat="44.99144" lon="1.03769">
        <ele>118.1</ele>
        <time>2022-05-29T10:30:32Z</time>
      </trkpt>
      <trkpt lat="44.9914" lon="1.03776">
        <ele>118.1</ele>
        <time>2022-05-29T10:30:34Z</time>
      </trkpt>
      <trkpt lat="44.99135" lon="1.03783">
        <ele>118.9</ele>
        <time>2022-05-29T10:30:37Z</time>
      </trkpt>
      <trkpt lat="44.99133" lon="1.03785">
        <ele>118.8</ele>
        <time>2022-05-29T10:30:38Z</time>
      </trkpt>
      <trkpt lat="44.99128" lon="1.03788">
        <ele>117.4</ele>
        <time>2022-05-29T10:30:40Z</time>
      </trkpt>
      <trkpt lat="44.99125" lon="1.03791">
        <ele>118.2</ele>
        <time>2022-05-29T10:30:42Z</time>
      </trkpt>
      <trkpt lat="44.99105" lon="1.03802">
        <ele>119.5</ele>
        <time>2022-05-29T10:30:56Z</time>
      </trkpt>
      <trkpt lat="44.99089" lon="1.03808">
        <ele>120.3</ele>
        <time>2022-05-29T10:31:01Z</time>
      </trkpt>
      <trkpt lat="44.99086" lon="1.0381">
        <ele>120.3</ele>
        <time>2022-05-29T10:31:02Z</time>
      </trkpt>
      <trkpt lat="44.99073" lon="1.03816">
        <ele>121.8</ele>
        <time>2022-05-29T10:31:08Z</time>
      </trkpt>
      <trkpt lat="44.99069" lon="1.03817">
        <ele>121.8</ele>
        <time>2022-05-29T10:31:10Z</time>
      </trkpt>
      <trkpt lat="44.99068" lon="1.03818">
        <ele>121.8</ele>
        <time>2022-05-29T10:31:11Z</time>
      </trkpt>
      <trkpt lat="44.99063" lon="1.03817">
        <ele>123.3</ele>
        <time>2022-05-29T10:31:14Z</time>
      </trkpt>
      <trkpt lat="44.99059" lon="1.03814">
        <ele>123.2</ele>
        <time>2022-05-29T10:31:16Z</time>
      </trkpt>
      <trkpt lat="44.9905" lon="1.03809">
        <ele>125.3</ele>
        <time>2022-05-29T10:31:20Z</time>
      </trkpt>
      <trkpt lat="44.99047" lon="1.03808">
        <ele>125.2</ele>
        <time>2022-05-29T10:31:22Z</time>
      </trkpt>
      <trkpt lat="44.99036" lon="1.0382">
        <ele>127.2</ele>
        <time>2022-05-29T10:31:28Z</time>
      </trkpt>
      <trkpt lat="44.99033" lon="1.03823">
        <ele>125.1</ele>
        <time>2022-05-29T10:31:29Z</time>
      </trkpt>
      <trkpt lat="44.99029" lon="1.03829">
        <ele>127.7</ele>
        <time>2022-05-29T10:31:31Z</time>
      </trkpt>
      <trkpt lat="44.99024" lon="1.0384">
        <ele>125.3</ele>
        <time>2022-05-29T10:31:34Z</time>
      </trkpt>
      <trkpt lat="44.99024" lon="1.03844">
        <ele>125.3</ele>
        <time>2022-05-29T10:31:35Z</time>
      </trkpt>
      <trkpt lat="44.99023" lon="1.03846">
        <ele>125.2</ele>
        <time>2022-05-29T10:31:36Z</time>
      </trkpt>
      <trkpt lat="44.99022" lon="1.03857">
        <ele>123</ele>
        <time>2022-05-29T10:31:39Z</time>
      </trkpt>
      <trkpt lat="44.9902" lon="1.03858">
        <ele>123</ele>
        <time>2022-05-29T10:31:40Z</time>
      </trkpt>
      <trkpt lat="44.99012" lon="1.03871">
        <ele>125.6</ele>
        <time>2022-05-29T10:31:46Z</time>
      </trkpt>
      <trkpt lat="44.99009" lon="1.03874">
        <ele>123.5</ele>
        <time>2022-05-29T10:31:47Z</time>
      </trkpt>
      <trkpt lat="44.99" lon="1.03882">
        <ele>126.6</ele>
        <time>2022-05-29T10:31:51Z</time>
      </trkpt>
      <trkpt lat="44.98998" lon="1.03886">
        <ele>126.5</ele>
        <time>2022-05-29T10:31:53Z</time>
      </trkpt>
      <trkpt lat="44.98975" lon="1.03904">
        <ele>130.5</ele>
        <time>2022-05-29T10:32:09Z</time>
      </trkpt>
      <trkpt lat="44.98973" lon="1.03904">
        <ele>130.5</ele>
        <time>2022-05-29T10:32:10Z</time>
      </trkpt>
      <trkpt lat="44.98967" lon="1.03909">
        <ele>132.3</ele>
        <time>2022-05-29T10:32:13Z</time>
      </trkpt>
      <trkpt lat="44.98957" lon="1.03922">
        <ele>132.3</ele>
        <time>2022-05-29T10:32:20Z</time>
      </trkpt>
      <trkpt lat="44.98956" lon="1.03924">
        <ele>133.4</ele>
        <time>2022-05-29T10:32:21Z</time>
      </trkpt>
      <trkpt lat="44.9895" lon="1.03934">
        <ele>133.4</ele>
        <time>2022-05-29T10:32:26Z</time>
      </trkpt>
      <trkpt lat="44.98948" lon="1.03937">
        <ele>133.3</ele>
        <time>2022-05-29T10:32:28Z</time>
      </trkpt>
      <trkpt lat="44.98941" lon="1.03943">
        <ele>134.3</ele>
        <time>2022-05-29T10:32:32Z</time>
      </trkpt>
      <trkpt lat="44.98939" lon="1.03945">
        <ele>134.3</ele>
        <time>2022-05-29T10:32:33Z</time>
      </trkpt>
      <trkpt lat="44.98929" lon="1.03953">
        <ele>137.3</ele>
        <time>2022-05-29T10:32:37Z</time>
      </trkpt>
      <trkpt lat="44.98916" lon="1.03962">
        <ele>138.3</ele>
        <time>2022-05-29T10:32:40Z</time>
      </trkpt>
      <trkpt lat="44.98909" lon="1.03968">
        <ele>138.3</ele>
        <time>2022-05-29T10:32:41Z</time>
      </trkpt>
      <trkpt lat="44.989" lon="1.03979">
        <ele>138.4</ele>
        <time>2022-05-29T10:32:43Z</time>
      </trkpt>
      <trkpt lat="44.98891" lon="1.03989">
        <ele>140.6</ele>
        <time>2022-05-29T10:32:45Z</time>
      </trkpt>
      <trkpt lat="44.98877" lon="1.04005">
        <ele>140.2</ele>
        <time>2022-05-29T10:32:49Z</time>
      </trkpt>
      <trkpt lat="44.98873" lon="1.0401">
        <ele>140.2</ele>
        <time>2022-05-29T10:32:50Z</time>
      </trkpt>
      <trkpt lat="44.9886" lon="1.04027">
        <ele>142.8</ele>
        <time>2022-05-29T10:32:53Z</time>
      </trkpt>
      <trkpt lat="44.98848" lon="1.04043">
        <ele>140.6</ele>
        <time>2022-05-29T10:32:56Z</time>
      </trkpt>
      <trkpt lat="44.98833" lon="1.04068">
        <ele>140.8</ele>
        <time>2022-05-29T10:33:01Z</time>
      </trkpt>
      <trkpt lat="44.98833" lon="1.04071">
        <ele>140.7</ele>
        <time>2022-05-29T10:33:02Z</time>
      </trkpt>
      <trkpt lat="44.98834" lon="1.04079">
        <ele>138.8</ele>
        <time>2022-05-29T10:33:05Z</time>
      </trkpt>
      <trkpt lat="44.98833" lon="1.04089">
        <ele>138.8</ele>
        <time>2022-05-29T10:33:09Z</time>
      </trkpt>
      <trkpt lat="44.98831" lon="1.04099">
        <ele>137.2</ele>
        <time>2022-05-29T10:33:13Z</time>
      </trkpt>
      <trkpt lat="44.98831" lon="1.04102">
        <ele>137.2</ele>
        <time>2022-05-29T10:33:14Z</time>
      </trkpt>
      <trkpt lat="44.98836" lon="1.04107">
        <ele>135.2</ele>
        <time>2022-05-29T10:33:17Z</time>
      </trkpt>
      <trkpt lat="44.98836" lon="1.0411">
        <ele>137.1</ele>
        <time>2022-05-29T10:33:18Z</time>
      </trkpt>
      <trkpt lat="44.98833" lon="1.0412">
        <ele>135.6</ele>
        <time>2022-05-29T10:33:22Z</time>
      </trkpt>
      <trkpt lat="44.98827" lon="1.04129">
        <ele>135.5</ele>
        <time>2022-05-29T10:33:26Z</time>
      </trkpt>
      <trkpt lat="44.98824" lon="1.04139">
        <ele>134.1</ele>
        <time>2022-05-29T10:33:30Z</time>
      </trkpt>
      <trkpt lat="44.98821" lon="1.04146">
        <ele>135.8</ele>
        <time>2022-05-29T10:33:33Z</time>
      </trkpt>
      <trkpt lat="44.9882" lon="1.04149">
        <ele>134.3</ele>
        <time>2022-05-29T10:33:34Z</time>
      </trkpt>
      <trkpt lat="44.9882" lon="1.04151">
        <ele>134.3</ele>
        <time>2022-05-29T10:33:35Z</time>
      </trkpt>
      <trkpt lat="44.98819" lon="1.04156">
        <ele>134.3</ele>
        <time>2022-05-29T10:33:37Z</time>
      </trkpt>
      <trkpt lat="44.98813" lon="1.04162">
        <ele>134.2</ele>
        <time>2022-05-29T10:33:40Z</time>
      </trkpt>
      <trkpt lat="44.98811" lon="1.04165">
        <ele>134.7</ele>
        <time>2022-05-29T10:33:41Z</time>
      </trkpt>
      <trkpt lat="44.98809" lon="1.04169">
        <ele>134.6</ele>
        <time>2022-05-29T10:33:43Z</time>
      </trkpt>
      <trkpt lat="44.98807" lon="1.04173">
        <ele>134.6</ele>
        <time>2022-05-29T10:33:45Z</time>
      </trkpt>
      <trkpt lat="44.988" lon="1.0418">
        <ele>134.6</ele>
        <time>2022-05-29T10:33:48Z</time>
      </trkpt>
      <trkpt lat="44.98797" lon="1.04181">
        <ele>136.7</ele>
        <time>2022-05-29T10:33:49Z</time>
      </trkpt>
      <trkpt lat="44.98792" lon="1.04184">
        <ele>135.1</ele>
        <time>2022-05-29T10:33:52Z</time>
      </trkpt>
      <trkpt lat="44.98792" lon="1.04186">
        <ele>135.1</ele>
        <time>2022-05-29T10:33:53Z</time>
      </trkpt>
      <trkpt lat="44.98782" lon="1.04192">
        <ele>137.1</ele>
        <time>2022-05-29T10:33:57Z</time>
      </trkpt>
      <trkpt lat="44.98777" lon="1.04197">
        <ele>137</ele>
        <time>2022-05-29T10:33:59Z</time>
      </trkpt>
      <trkpt lat="44.98773" lon="1.04201">
        <ele>137.7</ele>
        <time>2022-05-29T10:34:01Z</time>
      </trkpt>
      <trkpt lat="44.98769" lon="1.04203">
        <ele>137.6</ele>
        <time>2022-05-29T10:34:03Z</time>
      </trkpt>
      <trkpt lat="44.98769" lon="1.04205">
        <ele>137.6</ele>
        <time>2022-05-29T10:34:04Z</time>
      </trkpt>
      <trkpt lat="44.98764" lon="1.04209">
        <ele>137.5</ele>
        <time>2022-05-29T10:34:07Z</time>
      </trkpt>
      <trkpt lat="44.98755" lon="1.04217">
        <ele>137.7</ele>
        <time>2022-05-29T10:34:11Z</time>
      </trkpt>
      <trkpt lat="44.9874" lon="1.04233">
        <ele>137.8</ele>
        <time>2022-05-29T10:34:16Z</time>
      </trkpt>
      <trkpt lat="44.98726" lon="1.04244">
        <ele>141.1</ele>
        <time>2022-05-29T10:34:20Z</time>
      </trkpt>
      <trkpt lat="44.9872" lon="1.04245">
        <ele>141.1</ele>
        <time>2022-05-29T10:34:21Z</time>
      </trkpt>
      <trkpt lat="44.98715" lon="1.04245">
        <ele>141</ele>
        <time>2022-05-29T10:34:22Z</time>
      </trkpt>
      <trkpt lat="44.98704" lon="1.04243">
        <ele>142.3</ele>
        <time>2022-05-29T10:34:24Z</time>
      </trkpt>
      <trkpt lat="44.98698" lon="1.04242">
        <ele>143.6</ele>
        <time>2022-05-29T10:34:25Z</time>
      </trkpt>
      <trkpt lat="44.98687" lon="1.04248">
        <ele>144.9</ele>
        <time>2022-05-29T10:34:27Z</time>
      </trkpt>
      <trkpt lat="44.98677" lon="1.0426">
        <ele>143</ele>
        <time>2022-05-29T10:34:29Z</time>
      </trkpt>
      <trkpt lat="44.9867" lon="1.04274">
        <ele>140.2</ele>
        <time>2022-05-29T10:34:31Z</time>
      </trkpt>
      <trkpt lat="44.98667" lon="1.04281">
        <ele>140.1</ele>
        <time>2022-05-29T10:34:32Z</time>
      </trkpt>
      <trkpt lat="44.98655" lon="1.04296">
        <ele>138.7</ele>
        <time>2022-05-29T10:34:35Z</time>
      </trkpt>
      <trkpt lat="44.98644" lon="1.04313">
        <ele>136.3</ele>
        <time>2022-05-29T10:34:39Z</time>
      </trkpt>
      <trkpt lat="44.98629" lon="1.04335">
        <ele>135.5</ele>
        <time>2022-05-29T10:34:44Z</time>
      </trkpt>
      <trkpt lat="44.98617" lon="1.04348">
        <ele>133.6</ele>
        <time>2022-05-29T10:34:48Z</time>
      </trkpt>
      <trkpt lat="44.98604" lon="1.04361">
        <ele>132.2</ele>
        <time>2022-05-29T10:34:53Z</time>
      </trkpt>
      <trkpt lat="44.98598" lon="1.04364">
        <ele>132.2</ele>
        <time>2022-05-29T10:34:56Z</time>
      </trkpt>
      <trkpt lat="44.98596" lon="1.04364">
        <ele>132.1</ele>
        <time>2022-05-29T10:34:57Z</time>
      </trkpt>
      <trkpt lat="44.98594" lon="1.04365">
        <ele>132.1</ele>
        <time>2022-05-29T10:34:59Z</time>
      </trkpt>
      <trkpt lat="44.98576" lon="1.04385">
        <ele>131</ele>
        <time>2022-05-29T10:36:55Z</time>
      </trkpt>
      <trkpt lat="44.98575" lon="1.04387">
        <ele>130.9</ele>
        <time>2022-05-29T10:36:56Z</time>
      </trkpt>
      <trkpt lat="44.98572" lon="1.04395">
        <ele>130.8</ele>
        <time>2022-05-29T10:37:00Z</time>
      </trkpt>
      <trkpt lat="44.98572" lon="1.04396">
        <ele>130.8</ele>
        <time>2022-05-29T10:37:01Z</time>
      </trkpt>
      <trkpt lat="44.98574" lon="1.04416">
        <ele>130.2</ele>
        <time>2022-05-29T10:37:06Z</time>
      </trkpt>
      <trkpt lat="44.98578" lon="1.04436">
        <ele>129.8</ele>
        <time>2022-05-29T10:37:11Z</time>
      </trkpt>
      <trkpt lat="44.98581" lon="1.04452">
        <ele>129.6</ele>
        <time>2022-05-29T10:37:15Z</time>
      </trkpt>
      <trkpt lat="44.98572" lon="1.04475">
        <ele>129.7</ele>
        <time>2022-05-29T10:37:22Z</time>
      </trkpt>
      <trkpt lat="44.98565" lon="1.0449">
        <ele>129.8</ele>
        <time>2022-05-29T10:37:28Z</time>
      </trkpt>
      <trkpt lat="44.98557" lon="1.04507">
        <ele>129.3</ele>
        <time>2022-05-29T10:37:33Z</time>
      </trkpt>
      <trkpt lat="44.98542" lon="1.04538">
        <ele>128.5</ele>
        <time>2022-05-29T10:37:42Z</time>
      </trkpt>
      <trkpt lat="44.98531" lon="1.04561">
        <ele>127.7</ele>
        <time>2022-05-29T10:37:47Z</time>
      </trkpt>
      <trkpt lat="44.98522" lon="1.0458">
        <ele>126.1</ele>
        <time>2022-05-29T10:37:52Z</time>
      </trkpt>
      <trkpt lat="44.98511" lon="1.04604">
        <ele>124.2</ele>
        <time>2022-05-29T10:37:57Z</time>
      </trkpt>
      <trkpt lat="44.98492" lon="1.04623">
        <ele>122.8</ele>
        <time>2022-05-29T10:38:01Z</time>
      </trkpt>
      <trkpt lat="44.98487" lon="1.04627">
        <ele>122.6</ele>
        <time>2022-05-29T10:38:02Z</time>
      </trkpt>
      <trkpt lat="44.9847" lon="1.04639">
        <ele>121.7</ele>
        <time>2022-05-29T10:38:06Z</time>
      </trkpt>
      <trkpt lat="44.98466" lon="1.04642">
        <ele>121.5</ele>
        <time>2022-05-29T10:38:07Z</time>
      </trkpt>
      <trkpt lat="44.98463" lon="1.04645">
        <ele>121.3</ele>
        <time>2022-05-29T10:38:08Z</time>
      </trkpt>
      <trkpt lat="44.98451" lon="1.04682">
        <ele>118.7</ele>
        <time>2022-05-29T10:38:13Z</time>
      </trkpt>
      <trkpt lat="44.98444" lon="1.04708">
        <ele>117.4</ele>
        <time>2022-05-29T10:38:18Z</time>
      </trkpt>
      <trkpt lat="44.9844" lon="1.04723">
        <ele>116.7</ele>
        <time>2022-05-29T10:38:21Z</time>
      </trkpt>
      <trkpt lat="44.98438" lon="1.04734">
        <ele>116.1</ele>
        <time>2022-05-29T10:38:23Z</time>
      </trkpt>
      <trkpt lat="44.9843" lon="1.04748">
        <ele>115.2</ele>
        <time>2022-05-29T10:38:25Z</time>
      </trkpt>
      <trkpt lat="44.9842" lon="1.04758">
        <ele>114.2</ele>
        <time>2022-05-29T10:38:27Z</time>
      </trkpt>
      <trkpt lat="44.98389" lon="1.04792">
        <ele>112</ele>
        <time>2022-05-29T10:38:33Z</time>
      </trkpt>
      <trkpt lat="44.98368" lon="1.04814">
        <ele>111.6</ele>
        <time>2022-05-29T10:38:37Z</time>
      </trkpt>
      <trkpt lat="44.98358" lon="1.04825">
        <ele>111.4</ele>
        <time>2022-05-29T10:38:39Z</time>
      </trkpt>
      <trkpt lat="44.98343" lon="1.04836">
        <ele>111.3</ele>
        <time>2022-05-29T10:38:41Z</time>
      </trkpt>
      <trkpt lat="44.98331" lon="1.04839">
        <ele>111.1</ele>
        <time>2022-05-29T10:38:43Z</time>
      </trkpt>
      <trkpt lat="44.98309" lon="1.04846">
        <ele>110.7</ele>
        <time>2022-05-29T10:38:47Z</time>
      </trkpt>
      <trkpt lat="44.98266" lon="1.04865">
        <ele>108.6</ele>
        <time>2022-05-29T10:38:54Z</time>
      </trkpt>
      <trkpt lat="44.98219" lon="1.0488">
        <ele>105.7</ele>
        <time>2022-05-29T10:39:01Z</time>
      </trkpt>
      <trkpt lat="44.98199" lon="1.04881">
        <ele>104.3</ele>
        <time>2022-05-29T10:39:04Z</time>
      </trkpt>
      <trkpt lat="44.98194" lon="1.0488">
        <ele>104</ele>
        <time>2022-05-29T10:39:05Z</time>
      </trkpt>
      <trkpt lat="44.98188" lon="1.04879">
        <ele>103.6</ele>
        <time>2022-05-29T10:39:06Z</time>
      </trkpt>
      <trkpt lat="44.98177" lon="1.04872">
        <ele>102.8</ele>
        <time>2022-05-29T10:39:08Z</time>
      </trkpt>
      <trkpt lat="44.98172" lon="1.04868">
        <ele>102.4</ele>
        <time>2022-05-29T10:39:09Z</time>
      </trkpt>
      <trkpt lat="44.9816" lon="1.04859">
        <ele>101.2</ele>
        <time>2022-05-29T10:39:11Z</time>
      </trkpt>
      <trkpt lat="44.98153" lon="1.04857">
        <ele>100.4</ele>
        <time>2022-05-29T10:39:12Z</time>
      </trkpt>
      <trkpt lat="44.98137" lon="1.04853">
        <ele>98.1</ele>
        <time>2022-05-29T10:39:14Z</time>
      </trkpt>
      <trkpt lat="44.98098" lon="1.04856">
        <ele>93.4</ele>
        <time>2022-05-29T10:39:18Z</time>
      </trkpt>
      <trkpt lat="44.98091" lon="1.04859">
        <ele>92.6</ele>
        <time>2022-05-29T10:39:19Z</time>
      </trkpt>
      <trkpt lat="44.98082" lon="1.04863">
        <ele>91.9</ele>
        <time>2022-05-29T10:39:22Z</time>
      </trkpt>
      <trkpt lat="44.98074" lon="1.04866">
        <ele>91.4</ele>
        <time>2022-05-29T10:39:27Z</time>
      </trkpt>
      <trkpt lat="44.9807" lon="1.04868">
        <ele>91.2</ele>
        <time>2022-05-29T10:39:29Z</time>
      </trkpt>
      <trkpt lat="44.98063" lon="1.0487">
        <ele>90.9</ele>
        <time>2022-05-29T10:39:32Z</time>
      </trkpt>
      <trkpt lat="44.98046" lon="1.04868">
        <ele>90.4</ele>
        <time>2022-05-29T10:39:39Z</time>
      </trkpt>
      <trkpt lat="44.98041" lon="1.04866">
        <ele>90.4</ele>
        <time>2022-05-29T10:39:43Z</time>
      </trkpt>
      <trkpt lat="44.98024" lon="1.0486">
        <ele>90</ele>
        <time>2022-05-29T10:40:28Z</time>
      </trkpt>
      <trkpt lat="44.98023" lon="1.04862">
        <ele>90.1</ele>
        <time>2022-05-29T10:40:29Z</time>
      </trkpt>
      <trkpt lat="44.98022" lon="1.0487">
        <ele>90.2</ele>
        <time>2022-05-29T10:40:30Z</time>
      </trkpt>
      <trkpt lat="44.98023" lon="1.04875">
        <ele>90.3</ele>
        <time>2022-05-29T10:40:32Z</time>
      </trkpt>
      <trkpt lat="44.98024" lon="1.04886">
        <ele>90.5</ele>
        <time>2022-05-29T10:40:37Z</time>
      </trkpt>
      <trkpt lat="44.98026" lon="1.049">
        <ele>90.6</ele>
        <time>2022-05-29T10:40:43Z</time>
      </trkpt>
      <trkpt lat="44.98028" lon="1.04917">
        <ele>90.6</ele>
        <time>2022-05-29T10:40:49Z</time>
      </trkpt>
      <trkpt lat="44.98029" lon="1.0492">
        <ele>90.6</ele>
        <time>2022-05-29T10:40:50Z</time>
      </trkpt>
      <trkpt lat="44.9803" lon="1.0493">
        <ele>90.6</ele>
        <time>2022-05-29T10:40:53Z</time>
      </trkpt>
      <trkpt lat="44.98033" lon="1.04951">
        <ele>90.2</ele>
        <time>2022-05-29T10:40:59Z</time>
      </trkpt>
      <trkpt lat="44.98039" lon="1.04981">
        <ele>89.5</ele>
        <time>2022-05-29T10:41:05Z</time>
      </trkpt>
      <trkpt lat="44.98045" lon="1.05004">
        <ele>88.9</ele>
        <time>2022-05-29T10:41:09Z</time>
      </trkpt>
      <trkpt lat="44.98047" lon="1.0501">
        <ele>88.9</ele>
        <time>2022-05-29T10:41:10Z</time>
      </trkpt>
      <trkpt lat="44.98058" lon="1.05027">
        <ele>88.7</ele>
        <time>2022-05-29T10:41:14Z</time>
      </trkpt>
      <trkpt lat="44.9807" lon="1.05042">
        <ele>88.7</ele>
        <time>2022-05-29T10:41:18Z</time>
      </trkpt>
      <trkpt lat="44.98082" lon="1.05059">
        <ele>88.8</ele>
        <time>2022-05-29T10:41:22Z</time>
      </trkpt>
      <trkpt lat="44.98097" lon="1.05078">
        <ele>89</ele>
        <time>2022-05-29T10:41:27Z</time>
      </trkpt>
      <trkpt lat="44.98117" lon="1.05106">
        <ele>89.2</ele>
        <time>2022-05-29T10:41:34Z</time>
      </trkpt>
      <trkpt lat="44.98132" lon="1.05129">
        <ele>89.3</ele>
        <time>2022-05-29T10:41:39Z</time>
      </trkpt>
      <trkpt lat="44.98139" lon="1.05138">
        <ele>89.5</ele>
        <time>2022-05-29T10:41:41Z</time>
      </trkpt>
      <trkpt lat="44.98152" lon="1.05153">
        <ele>89.8</ele>
        <time>2022-05-29T10:41:45Z</time>
      </trkpt>
      <trkpt lat="44.98164" lon="1.05156">
        <ele>90.2</ele>
        <time>2022-05-29T10:41:48Z</time>
      </trkpt>
      <trkpt lat="44.98171" lon="1.05157">
        <ele>90.5</ele>
        <time>2022-05-29T10:41:50Z</time>
      </trkpt>
      <trkpt lat="44.98185" lon="1.05158">
        <ele>91.1</ele>
        <time>2022-05-29T10:41:54Z</time>
      </trkpt>
      <trkpt lat="44.98198" lon="1.0516">
        <ele>91.6</ele>
        <time>2022-05-29T10:41:57Z</time>
      </trkpt>
      <trkpt lat="44.98227" lon="1.05162">
        <ele>92.1</ele>
        <time>2022-05-29T10:42:04Z</time>
      </trkpt>
      <trkpt lat="44.98258" lon="1.05165">
        <ele>91.4</ele>
        <time>2022-05-29T10:42:11Z</time>
      </trkpt>
      <trkpt lat="44.98294" lon="1.05168">
        <ele>90.2</ele>
        <time>2022-05-29T10:42:19Z</time>
      </trkpt>
      <trkpt lat="44.983" lon="1.05175">
        <ele>90</ele>
        <time>2022-05-29T10:42:21Z</time>
      </trkpt>
      <trkpt lat="44.98307" lon="1.05183">
        <ele>89.7</ele>
        <time>2022-05-29T10:42:23Z</time>
      </trkpt>
      <trkpt lat="44.98314" lon="1.05191">
        <ele>89.5</ele>
        <time>2022-05-29T10:42:25Z</time>
      </trkpt>
      <trkpt lat="44.98321" lon="1.05197">
        <ele>89.3</ele>
        <time>2022-05-29T10:42:27Z</time>
      </trkpt>
      <trkpt lat="44.98325" lon="1.052">
        <ele>89.2</ele>
        <time>2022-05-29T10:42:29Z</time>
      </trkpt>
      <trkpt lat="44.98327" lon="1.05202">
        <ele>89.2</ele>
        <time>2022-05-29T10:42:30Z</time>
      </trkpt>
      <trkpt lat="44.98346" lon="1.05212">
        <ele>88.7</ele>
        <time>2022-05-29T10:42:34Z</time>
      </trkpt>
      <trkpt lat="44.9837" lon="1.05216">
        <ele>88.1</ele>
        <time>2022-05-29T10:42:38Z</time>
      </trkpt>
      <trkpt lat="44.98399" lon="1.05213">
        <ele>87</ele>
        <time>2022-05-29T10:42:43Z</time>
      </trkpt>
      <trkpt lat="44.98411" lon="1.05213">
        <ele>86.3</ele>
        <time>2022-05-29T10:42:45Z</time>
      </trkpt>
      <trkpt lat="44.98423" lon="1.05204">
        <ele>85.1</ele>
        <time>2022-05-29T10:42:47Z</time>
      </trkpt>
      <trkpt lat="44.98428" lon="1.05196">
        <ele>84.2</ele>
        <time>2022-05-29T10:42:48Z</time>
      </trkpt>
      <trkpt lat="44.98432" lon="1.05181">
        <ele>82.7</ele>
        <time>2022-05-29T10:42:50Z</time>
      </trkpt>
      <trkpt lat="44.98442" lon="1.05144">
        <ele>79.2</ele>
        <time>2022-05-29T10:42:54Z</time>
      </trkpt>
      <trkpt lat="44.98444" lon="1.05137">
        <ele>78.6</ele>
        <time>2022-05-29T10:42:55Z</time>
      </trkpt>
      <trkpt lat="44.98449" lon="1.05115">
        <ele>76.9</ele>
        <time>2022-05-29T10:42:59Z</time>
      </trkpt>
      <trkpt lat="44.98453" lon="1.05102">
        <ele>76</ele>
        <time>2022-05-29T10:43:02Z</time>
      </trkpt>
      <trkpt lat="44.98453" lon="1.05098">
        <ele>75.8</ele>
        <time>2022-05-29T10:43:03Z</time>
      </trkpt>
      <trkpt lat="44.98454" lon="1.05095">
        <ele>75.6</ele>
        <time>2022-05-29T10:43:04Z</time>
      </trkpt>
      <trkpt lat="44.9846" lon="1.05087">
        <ele>75.1</ele>
        <time>2022-05-29T10:43:06Z</time>
      </trkpt>
      <trkpt lat="44.98492" lon="1.05089">
        <ele>74.6</ele>
        <time>2022-05-29T10:43:15Z</time>
      </trkpt>
      <trkpt lat="44.98504" lon="1.05092">
        <ele>75</ele>
        <time>2022-05-29T10:43:18Z</time>
      </trkpt>
      <trkpt lat="44.98509" lon="1.05092">
        <ele>75.2</ele>
        <time>2022-05-29T10:43:19Z</time>
      </trkpt>
      <trkpt lat="44.98512" lon="1.05093">
        <ele>75.4</ele>
        <time>2022-05-29T10:43:20Z</time>
      </trkpt>
      <trkpt lat="44.98521" lon="1.05085">
        <ele>76</ele>
        <time>2022-05-29T10:43:22Z</time>
      </trkpt>
      <trkpt lat="44.98523" lon="1.05068">
        <ele>77.1</ele>
        <time>2022-05-29T10:43:26Z</time>
      </trkpt>
      <trkpt lat="44.98524" lon="1.05065">
        <ele>77.3</ele>
        <time>2022-05-29T10:43:27Z</time>
      </trkpt>
      <trkpt lat="44.98529" lon="1.05047">
        <ele>78.9</ele>
        <time>2022-05-29T10:43:32Z</time>
      </trkpt>
      <trkpt lat="44.9853" lon="1.05045">
        <ele>79.1</ele>
        <time>2022-05-29T10:43:33Z</time>
      </trkpt>
      <trkpt lat="44.98541" lon="1.05033">
        <ele>80.8</ele>
        <time>2022-05-29T10:43:39Z</time>
      </trkpt>
      <trkpt lat="44.98544" lon="1.0503">
        <ele>81.3</ele>
        <time>2022-05-29T10:43:42Z</time>
      </trkpt>
      <trkpt lat="44.98545" lon="1.05029">
        <ele>81.5</ele>
        <time>2022-05-29T10:43:43Z</time>
      </trkpt>
      <trkpt lat="44.98552" lon="1.05022">
        <ele>82.6</ele>
        <time>2022-05-29T10:43:47Z</time>
      </trkpt>
      <trkpt lat="44.98554" lon="1.0502">
        <ele>82.9</ele>
        <time>2022-05-29T10:43:48Z</time>
      </trkpt>
      <trkpt lat="44.98564" lon="1.0501">
        <ele>84.7</ele>
        <time>2022-05-29T10:43:55Z</time>
      </trkpt>
      <trkpt lat="44.98567" lon="1.05007">
        <ele>85.3</ele>
        <time>2022-05-29T10:43:57Z</time>
      </trkpt>
      <trkpt lat="44.98572" lon="1.05003">
        <ele>86.1</ele>
        <time>2022-05-29T10:44:01Z</time>
      </trkpt>
      <trkpt lat="44.98573" lon="1.05001">
        <ele>86.4</ele>
        <time>2022-05-29T10:44:03Z</time>
      </trkpt>
      <trkpt lat="44.98575" lon="1.04999">
        <ele>86.9</ele>
        <time>2022-05-29T10:44:06Z</time>
      </trkpt>
      <trkpt lat="44.98582" lon="1.04993">
        <ele>88.3</ele>
        <time>2022-05-29T10:44:12Z</time>
      </trkpt>
      <trkpt lat="44.98585" lon="1.04992">
        <ele>88.8</ele>
        <time>2022-05-29T10:44:15Z</time>
      </trkpt>
      <trkpt lat="44.98592" lon="1.04999">
        <ele>90.1</ele>
        <time>2022-05-29T10:44:16Z</time>
      </trkpt>
      <trkpt lat="44.98589" lon="1.05012">
        <ele>91</ele>
        <time>2022-05-29T10:44:22Z</time>
      </trkpt>
      <trkpt lat="44.98584" lon="1.05025">
        <ele>91.8</ele>
        <time>2022-05-29T10:44:29Z</time>
      </trkpt>
      <trkpt lat="44.98581" lon="1.05038">
        <ele>92.6</ele>
        <time>2022-05-29T10:44:36Z</time>
      </trkpt>
      <trkpt lat="44.98578" lon="1.0505">
        <ele>93.3</ele>
        <time>2022-05-29T10:44:42Z</time>
      </trkpt>
      <trkpt lat="44.98576" lon="1.05058">
        <ele>94</ele>
        <time>2022-05-29T10:44:46Z</time>
      </trkpt>
      <trkpt lat="44.98575" lon="1.05063">
        <ele>94.3</ele>
        <time>2022-05-29T10:44:48Z</time>
      </trkpt>
      <trkpt lat="44.98573" lon="1.05074">
        <ele>95.2</ele>
        <time>2022-05-29T10:44:53Z</time>
      </trkpt>
      <trkpt lat="44.98573" lon="1.05076">
        <ele>95.4</ele>
        <time>2022-05-29T10:44:54Z</time>
      </trkpt>
      <trkpt lat="44.98572" lon="1.0508">
        <ele>95.7</ele>
        <time>2022-05-29T10:44:56Z</time>
      </trkpt>
      <trkpt lat="44.98571" lon="1.05084">
        <ele>96.1</ele>
        <time>2022-05-29T10:44:58Z</time>
      </trkpt>
      <trkpt lat="44.9857" lon="1.05087">
        <ele>96.3</ele>
        <time>2022-05-29T10:44:59Z</time>
      </trkpt>
      <trkpt lat="44.9857" lon="1.05098">
        <ele>97.2</ele>
        <time>2022-05-29T10:45:03Z</time>
      </trkpt>
      <trkpt lat="44.98573" lon="1.05111">
        <ele>98.3</ele>
        <time>2022-05-29T10:45:09Z</time>
      </trkpt>
      <trkpt lat="44.98573" lon="1.05113">
        <ele>98.4</ele>
        <time>2022-05-29T10:45:10Z</time>
      </trkpt>
      <trkpt lat="44.98574" lon="1.05119">
        <ele>98.9</ele>
        <time>2022-05-29T10:45:13Z</time>
      </trkpt>
      <trkpt lat="44.98577" lon="1.05133">
        <ele>100.1</ele>
        <time>2022-05-29T10:45:19Z</time>
      </trkpt>
      <trkpt lat="44.98579" lon="1.05142">
        <ele>100.9</ele>
        <time>2022-05-29T10:45:24Z</time>
      </trkpt>
      <trkpt lat="44.98579" lon="1.05144">
        <ele>101.1</ele>
        <time>2022-05-29T10:45:25Z</time>
      </trkpt>
      <trkpt lat="44.98582" lon="1.05148">
        <ele>101.5</ele>
        <time>2022-05-29T10:45:27Z</time>
      </trkpt>
      <trkpt lat="44.98584" lon="1.05151">
        <ele>101.9</ele>
        <time>2022-05-29T10:45:29Z</time>
      </trkpt>
      <trkpt lat="44.9859" lon="1.0516">
        <ele>102.9</ele>
        <time>2022-05-29T10:45:34Z</time>
      </trkpt>
      <trkpt lat="44.98598" lon="1.05169">
        <ele>104.2</ele>
        <time>2022-05-29T10:45:40Z</time>
      </trkpt>
      <trkpt lat="44.98607" lon="1.05175">
        <ele>105.5</ele>
        <time>2022-05-29T10:45:46Z</time>
      </trkpt>
      <trkpt lat="44.98617" lon="1.05181">
        <ele>106.9</ele>
        <time>2022-05-29T10:45:53Z</time>
      </trkpt>
      <trkpt lat="44.98618" lon="1.05182">
        <ele>107.1</ele>
        <time>2022-05-29T10:45:56Z</time>
      </trkpt>
      <trkpt lat="44.98643" lon="1.05187">
        <ele>110</ele>
        <time>2022-05-29T10:46:14Z</time>
      </trkpt>
      <trkpt lat="44.98645" lon="1.05188">
        <ele>110.1</ele>
        <time>2022-05-29T10:46:15Z</time>
      </trkpt>
      <trkpt lat="44.98653" lon="1.0519">
        <ele>110.9</ele>
        <time>2022-05-29T10:46:20Z</time>
      </trkpt>
      <trkpt lat="44.98669" lon="1.05187">
        <ele>112.2</ele>
        <time>2022-05-29T10:46:27Z</time>
      </trkpt>
      <trkpt lat="44.98679" lon="1.0518">
        <ele>113</ele>
        <time>2022-05-29T10:46:33Z</time>
      </trkpt>
      <trkpt lat="44.98692" lon="1.05168">
        <ele>114.3</ele>
        <time>2022-05-29T10:46:40Z</time>
      </trkpt>
      <trkpt lat="44.98694" lon="1.05165">
        <ele>114.5</ele>
        <time>2022-05-29T10:46:41Z</time>
      </trkpt>
      <trkpt lat="44.98698" lon="1.05159">
        <ele>114.9</ele>
        <time>2022-05-29T10:46:44Z</time>
      </trkpt>
      <trkpt lat="44.987" lon="1.05155">
        <ele>115.2</ele>
        <time>2022-05-29T10:46:46Z</time>
      </trkpt>
      <trkpt lat="44.98708" lon="1.05144">
        <ele>116.1</ele>
        <time>2022-05-29T10:46:51Z</time>
      </trkpt>
      <trkpt lat="44.98709" lon="1.05141">
        <ele>116.3</ele>
        <time>2022-05-29T10:46:52Z</time>
      </trkpt>
      <trkpt lat="44.98713" lon="1.05136">
        <ele>116.8</ele>
        <time>2022-05-29T10:46:55Z</time>
      </trkpt>
      <trkpt lat="44.98721" lon="1.05124">
        <ele>117.9</ele>
        <time>2022-05-29T10:47:01Z</time>
      </trkpt>
      <trkpt lat="44.98728" lon="1.05114">
        <ele>118.8</ele>
        <time>2022-05-29T10:47:07Z</time>
      </trkpt>
      <trkpt lat="44.98737" lon="1.05109">
        <ele>119.7</ele>
        <time>2022-05-29T10:47:12Z</time>
      </trkpt>
      <trkpt lat="44.98753" lon="1.05106">
        <ele>120.8</ele>
        <time>2022-05-29T10:47:19Z</time>
      </trkpt>
      <trkpt lat="44.98765" lon="1.05104">
        <ele>121.4</ele>
        <time>2022-05-29T10:47:24Z</time>
      </trkpt>
      <trkpt lat="44.98772" lon="1.05103">
        <ele>121.6</ele>
        <time>2022-05-29T10:47:28Z</time>
      </trkpt>
      <trkpt lat="44.98778" lon="1.05102">
        <ele>121.7</ele>
        <time>2022-05-29T10:47:30Z</time>
      </trkpt>
      <trkpt lat="44.98792" lon="1.05099">
        <ele>121.9</ele>
        <time>2022-05-29T10:47:35Z</time>
      </trkpt>
      <trkpt lat="44.98798" lon="1.05098">
        <ele>121.9</ele>
        <time>2022-05-29T10:47:39Z</time>
      </trkpt>
      <trkpt lat="44.98812" lon="1.05099">
        <ele>121.9</ele>
        <time>2022-05-29T10:47:44Z</time>
      </trkpt>
      <trkpt lat="44.98823" lon="1.05103">
        <ele>122</ele>
        <time>2022-05-29T10:47:48Z</time>
      </trkpt>
      <trkpt lat="44.98841" lon="1.05121">
        <ele>122.8</ele>
        <time>2022-05-29T10:47:56Z</time>
      </trkpt>
      <trkpt lat="44.9885" lon="1.05142">
        <ele>124.2</ele>
        <time>2022-05-29T10:48:03Z</time>
      </trkpt>
      <trkpt lat="44.98853" lon="1.0516">
        <ele>125.5</ele>
        <time>2022-05-29T10:48:09Z</time>
      </trkpt>
      <trkpt lat="44.98855" lon="1.05163">
        <ele>125.8</ele>
        <time>2022-05-29T10:48:11Z</time>
      </trkpt>
      <trkpt lat="44.98858" lon="1.05166">
        <ele>126.2</ele>
        <time>2022-05-29T10:48:13Z</time>
      </trkpt>
      <trkpt lat="44.98874" lon="1.05169">
        <ele>128</ele>
        <time>2022-05-29T10:48:22Z</time>
      </trkpt>
      <trkpt lat="44.98888" lon="1.05173">
        <ele>129.4</ele>
        <time>2022-05-29T10:48:30Z</time>
      </trkpt>
      <trkpt lat="44.98902" lon="1.05175">
        <ele>130.6</ele>
        <time>2022-05-29T10:48:38Z</time>
      </trkpt>
      <trkpt lat="44.98904" lon="1.05175">
        <ele>130.7</ele>
        <time>2022-05-29T10:48:39Z</time>
      </trkpt>
      <trkpt lat="44.98909" lon="1.05174">
        <ele>130.8</ele>
        <time>2022-05-29T10:48:42Z</time>
      </trkpt>
      <trkpt lat="44.98928" lon="1.05171">
        <ele>130.4</ele>
        <time>2022-05-29T10:48:49Z</time>
      </trkpt>
      <trkpt lat="44.98942" lon="1.05171">
        <ele>129.4</ele>
        <time>2022-05-29T10:48:53Z</time>
      </trkpt>
      <trkpt lat="44.98964" lon="1.05171">
        <ele>127.5</ele>
        <time>2022-05-29T10:48:59Z</time>
      </trkpt>
      <trkpt lat="44.98991" lon="1.05173">
        <ele>125.4</ele>
        <time>2022-05-29T10:49:06Z</time>
      </trkpt>
      <trkpt lat="44.99001" lon="1.05174">
        <ele>125.2</ele>
        <time>2022-05-29T10:49:08Z</time>
      </trkpt>
      <trkpt lat="44.99009" lon="1.05169">
        <ele>125.6</ele>
        <time>2022-05-29T10:49:10Z</time>
      </trkpt>
      <trkpt lat="44.99016" lon="1.05158">
        <ele>126.6</ele>
        <time>2022-05-29T10:49:14Z</time>
      </trkpt>
      <trkpt lat="44.99027" lon="1.05139">
        <ele>128</ele>
        <time>2022-05-29T10:49:21Z</time>
      </trkpt>
      <trkpt lat="44.9904" lon="1.05119">
        <ele>129.1</ele>
        <time>2022-05-29T10:49:27Z</time>
      </trkpt>
      <trkpt lat="44.99051" lon="1.05101">
        <ele>130</ele>
        <time>2022-05-29T10:49:33Z</time>
      </trkpt>
      <trkpt lat="44.99058" lon="1.05089">
        <ele>130.7</ele>
        <time>2022-05-29T10:49:37Z</time>
      </trkpt>
      <trkpt lat="44.99068" lon="1.05073">
        <ele>131.7</ele>
        <time>2022-05-29T10:49:42Z</time>
      </trkpt>
      <trkpt lat="44.99072" lon="1.05067">
        <ele>132.2</ele>
        <time>2022-05-29T10:49:44Z</time>
      </trkpt>
      <trkpt lat="44.99076" lon="1.0506">
        <ele>132.6</ele>
        <time>2022-05-29T10:49:46Z</time>
      </trkpt>
      <trkpt lat="44.99087" lon="1.0504">
        <ele>134</ele>
        <time>2022-05-29T10:49:52Z</time>
      </trkpt>
      <trkpt lat="44.99098" lon="1.05019">
        <ele>135.4</ele>
        <time>2022-05-29T10:49:59Z</time>
      </trkpt>
      <trkpt lat="44.99105" lon="1.05005">
        <ele>136.4</ele>
        <time>2022-05-29T10:50:04Z</time>
      </trkpt>
      <trkpt lat="44.99112" lon="1.04991">
        <ele>137.5</ele>
        <time>2022-05-29T10:50:08Z</time>
      </trkpt>
      <trkpt lat="44.99125" lon="1.04974">
        <ele>138.5</ele>
        <time>2022-05-29T10:50:11Z</time>
      </trkpt>
      <trkpt lat="44.99129" lon="1.04969">
        <ele>138.8</ele>
        <time>2022-05-29T10:50:12Z</time>
      </trkpt>
      <trkpt lat="44.99133" lon="1.04963">
        <ele>139.2</ele>
        <time>2022-05-29T10:50:13Z</time>
      </trkpt>
      <trkpt lat="44.99161" lon="1.04983">
        <ele>132.7</ele>
        <time>2022-05-29T10:50:15Z</time>
      </trkpt>
      <trkpt lat="44.99164" lon="1.04985">
        <ele>130.8</ele>
        <time>2022-05-29T10:50:16Z</time>
      </trkpt>
      <trkpt lat="44.99177" lon="1.04986">
        <ele>128.8</ele>
        <time>2022-05-29T10:50:20Z</time>
      </trkpt>
      <trkpt lat="44.9918" lon="1.04981">
        <ele>128.8</ele>
        <time>2022-05-29T10:50:22Z</time>
      </trkpt>
      <trkpt lat="44.9918" lon="1.04978">
        <ele>128.8</ele>
        <time>2022-05-29T10:50:23Z</time>
      </trkpt>
      <trkpt lat="44.99182" lon="1.04975">
        <ele>128.8</ele>
        <time>2022-05-29T10:50:24Z</time>
      </trkpt>
      <trkpt lat="44.99186" lon="1.04969">
        <ele>132.4</ele>
        <time>2022-05-29T10:50:27Z</time>
      </trkpt>
      <trkpt lat="44.99195" lon="1.04956">
        <ele>130.2</ele>
        <time>2022-05-29T10:50:32Z</time>
      </trkpt>
      <trkpt lat="44.99207" lon="1.04943">
        <ele>131.6</ele>
        <time>2022-05-29T10:50:38Z</time>
      </trkpt>
      <trkpt lat="44.99209" lon="1.04943">
        <ele>131.6</ele>
        <time>2022-05-29T10:50:39Z</time>
      </trkpt>
      <trkpt lat="44.99218" lon="1.0494">
        <ele>130.2</ele>
        <time>2022-05-29T10:50:42Z</time>
      </trkpt>
      <trkpt lat="44.99226" lon="1.04937">
        <ele>128.8</ele>
        <time>2022-05-29T10:50:45Z</time>
      </trkpt>
      <trkpt lat="44.9923" lon="1.04935">
        <ele>132.3</ele>
        <time>2022-05-29T10:50:46Z</time>
      </trkpt>
      <trkpt lat="44.99243" lon="1.04931">
        <ele>131.3</ele>
        <time>2022-05-29T10:50:51Z</time>
      </trkpt>
      <trkpt lat="44.99263" lon="1.04926">
        <ele>128.9</ele>
        <time>2022-05-29T10:50:57Z</time>
      </trkpt>
      <trkpt lat="44.99283" lon="1.0492">
        <ele>127.4</ele>
        <time>2022-05-29T10:51:02Z</time>
      </trkpt>
      <trkpt lat="44.99288" lon="1.04919">
        <ele>130.1</ele>
        <time>2022-05-29T10:51:03Z</time>
      </trkpt>
      <trkpt lat="44.993" lon="1.04912">
        <ele>127.8</ele>
        <time>2022-05-29T10:51:06Z</time>
      </trkpt>
      <trkpt lat="44.99303" lon="1.04909">
        <ele>127.8</ele>
        <time>2022-05-29T10:51:07Z</time>
      </trkpt>
      <trkpt lat="44.99316" lon="1.04901">
        <ele>128.9</ele>
        <time>2022-05-29T10:51:11Z</time>
      </trkpt>
      <trkpt lat="44.99338" lon="1.04894">
        <ele>124</ele>
        <time>2022-05-29T10:51:15Z</time>
      </trkpt>
      <trkpt lat="44.99356" lon="1.04883">
        <ele>126.4</ele>
        <time>2022-05-29T10:51:19Z</time>
      </trkpt>
      <trkpt lat="44.99369" lon="1.04869">
        <ele>123.6</ele>
        <time>2022-05-29T10:51:23Z</time>
      </trkpt>
      <trkpt lat="44.99379" lon="1.04858">
        <ele>125.8</ele>
        <time>2022-05-29T10:51:26Z</time>
      </trkpt>
      <trkpt lat="44.99388" lon="1.04853">
        <ele>123.7</ele>
        <time>2022-05-29T10:51:28Z</time>
      </trkpt>
      <trkpt lat="44.99394" lon="1.04849">
        <ele>128.3</ele>
        <time>2022-05-29T10:51:29Z</time>
      </trkpt>
      <trkpt lat="44.99399" lon="1.04849">
        <ele>126.6</ele>
        <time>2022-05-29T10:51:30Z</time>
      </trkpt>
      <trkpt lat="44.99408" lon="1.04849">
        <ele>125.3</ele>
        <time>2022-05-29T10:51:32Z</time>
      </trkpt>
      <trkpt lat="44.99426" lon="1.04856">
        <ele>119</ele>
        <time>2022-05-29T10:51:36Z</time>
      </trkpt>
      <trkpt lat="44.99436" lon="1.04858">
        <ele>118</ele>
        <time>2022-05-29T10:51:38Z</time>
      </trkpt>
      <trkpt lat="44.99453" lon="1.04859">
        <ele>117</ele>
        <time>2022-05-29T10:51:41Z</time>
      </trkpt>
      <trkpt lat="44.99465" lon="1.04857">
        <ele>116</ele>
        <time>2022-05-29T10:51:43Z</time>
      </trkpt>
      <trkpt lat="44.99476" lon="1.04852">
        <ele>114.9</ele>
        <time>2022-05-29T10:51:45Z</time>
      </trkpt>
      <trkpt lat="44.99498" lon="1.04847">
        <ele>116.9</ele>
        <time>2022-05-29T10:51:49Z</time>
      </trkpt>
      <trkpt lat="44.99504" lon="1.04846">
        <ele>115.9</ele>
        <time>2022-05-29T10:51:50Z</time>
      </trkpt>
      <trkpt lat="44.99515" lon="1.04845">
        <ele>115.8</ele>
        <time>2022-05-29T10:51:52Z</time>
      </trkpt>
      <trkpt lat="44.99529" lon="1.04842">
        <ele>114.8</ele>
        <time>2022-05-29T10:51:55Z</time>
      </trkpt>
      <trkpt lat="44.99538" lon="1.04838">
        <ele>114.7</ele>
        <time>2022-05-29T10:51:57Z</time>
      </trkpt>
      <trkpt lat="44.99548" lon="1.04831">
        <ele>118.9</ele>
        <time>2022-05-29T10:51:59Z</time>
      </trkpt>
      <trkpt lat="44.99562" lon="1.04818">
        <ele>117.9</ele>
        <time>2022-05-29T10:52:03Z</time>
      </trkpt>
      <trkpt lat="44.9957" lon="1.04809">
        <ele>120.1</ele>
        <time>2022-05-29T10:52:05Z</time>
      </trkpt>
      <trkpt lat="44.99577" lon="1.04801">
        <ele>118.8</ele>
        <time>2022-05-29T10:52:07Z</time>
      </trkpt>
      <trkpt lat="44.99579" lon="1.04794">
        <ele>122.4</ele>
        <time>2022-05-29T10:52:08Z</time>
      </trkpt>
      <trkpt lat="44.99585" lon="1.04789">
        <ele>122.4</ele>
        <time>2022-05-29T10:52:10Z</time>
      </trkpt>
      <trkpt lat="44.99592" lon="1.04783">
        <ele>120.7</ele>
        <time>2022-05-29T10:52:12Z</time>
      </trkpt>
      <trkpt lat="44.99598" lon="1.04781">
        <ele>123.9</ele>
        <time>2022-05-29T10:52:15Z</time>
      </trkpt>
      <trkpt lat="44.99603" lon="1.04783">
        <ele>119.1</ele>
        <time>2022-05-29T10:52:17Z</time>
      </trkpt>
      <trkpt lat="44.9961" lon="1.0479">
        <ele>119</ele>
        <time>2022-05-29T10:52:19Z</time>
      </trkpt>
      <trkpt lat="44.99619" lon="1.04797">
        <ele>117.4</ele>
        <time>2022-05-29T10:52:22Z</time>
      </trkpt>
      <trkpt lat="44.99625" lon="1.04797">
        <ele>116.1</ele>
        <time>2022-05-29T10:52:24Z</time>
      </trkpt>
      <trkpt lat="44.99634" lon="1.04799">
        <ele>116.1</ele>
        <time>2022-05-29T10:52:26Z</time>
      </trkpt>
      <trkpt lat="44.99639" lon="1.04798">
        <ele>115.1</ele>
        <time>2022-05-29T10:52:27Z</time>
      </trkpt>
      <trkpt lat="44.99643" lon="1.04795">
        <ele>115.1</ele>
        <time>2022-05-29T10:52:28Z</time>
      </trkpt>
      <trkpt lat="44.99658" lon="1.04787">
        <ele>114.5</ele>
        <time>2022-05-29T10:52:31Z</time>
      </trkpt>
      <trkpt lat="44.99664" lon="1.04783">
        <ele>114.1</ele>
        <time>2022-05-29T10:52:32Z</time>
      </trkpt>
      <trkpt lat="44.99674" lon="1.04776">
        <ele>114.8</ele>
        <time>2022-05-29T10:52:34Z</time>
      </trkpt>
      <trkpt lat="44.9968" lon="1.04771">
        <ele>114.8</ele>
        <time>2022-05-29T10:52:35Z</time>
      </trkpt>
      <trkpt lat="44.99685" lon="1.04766">
        <ele>114.8</ele>
        <time>2022-05-29T10:52:36Z</time>
      </trkpt>
      <trkpt lat="44.99698" lon="1.04752">
        <ele>115.1</ele>
        <time>2022-05-29T10:52:39Z</time>
      </trkpt>
      <trkpt lat="44.99703" lon="1.0475">
        <ele>115</ele>
        <time>2022-05-29T10:52:42Z</time>
      </trkpt>
      <trkpt lat="44.99706" lon="1.0475">
        <ele>115</ele>
        <time>2022-05-29T10:52:44Z</time>
      </trkpt>
      <trkpt lat="44.99713" lon="1.0475">
        <ele>114.8</ele>
        <time>2022-05-29T10:52:46Z</time>
      </trkpt>
      <trkpt lat="44.99722" lon="1.04744">
        <ele>115.4</ele>
        <time>2022-05-29T10:52:50Z</time>
      </trkpt>
      <trkpt lat="44.99736" lon="1.04743">
        <ele>115.4</ele>
        <time>2022-05-29T10:52:54Z</time>
      </trkpt>
      <trkpt lat="44.99737" lon="1.04744">
        <ele>115.3</ele>
        <time>2022-05-29T10:52:55Z</time>
      </trkpt>
      <trkpt lat="44.99738" lon="1.04744">
        <ele>115.3</ele>
        <time>2022-05-29T10:52:57Z</time>
      </trkpt>
      <trkpt lat="44.99741" lon="1.04744">
        <ele>115.3</ele>
        <time>2022-05-29T10:54:13Z</time>
      </trkpt>
      <trkpt lat="44.99741" lon="1.04746">
        <ele>115.3</ele>
        <time>2022-05-29T10:54:15Z</time>
      </trkpt>
      <trkpt lat="44.99742" lon="1.04751">
        <ele>114.1</ele>
        <time>2022-05-29T10:54:18Z</time>
      </trkpt>
      <trkpt lat="44.99742" lon="1.04752">
        <ele>114</ele>
        <time>2022-05-29T10:54:19Z</time>
      </trkpt>
      <trkpt lat="44.99743" lon="1.04761">
        <ele>114</ele>
        <time>2022-05-29T10:54:24Z</time>
      </trkpt>
      <trkpt lat="44.99742" lon="1.04764">
        <ele>114</ele>
        <time>2022-05-29T10:54:25Z</time>
      </trkpt>
      <trkpt lat="44.9974" lon="1.04772">
        <ele>113.4</ele>
        <time>2022-05-29T10:54:28Z</time>
      </trkpt>
      <trkpt lat="44.99739" lon="1.04791">
        <ele>113.5</ele>
        <time>2022-05-29T10:54:32Z</time>
      </trkpt>
      <trkpt lat="44.99738" lon="1.04797">
        <ele>113.5</ele>
        <time>2022-05-29T10:54:33Z</time>
      </trkpt>
      <trkpt lat="44.99727" lon="1.04813">
        <ele>113.4</ele>
        <time>2022-05-29T10:54:36Z</time>
      </trkpt>
      <trkpt lat="44.99704" lon="1.04835">
        <ele>113.2</ele>
        <time>2022-05-29T10:54:40Z</time>
      </trkpt>
      <trkpt lat="44.99697" lon="1.04841">
        <ele>112.2</ele>
        <time>2022-05-29T10:54:41Z</time>
      </trkpt>
      <trkpt lat="44.99669" lon="1.04864">
        <ele>111.1</ele>
        <time>2022-05-29T10:54:45Z</time>
      </trkpt>
      <trkpt lat="44.99651" lon="1.0488">
        <ele>111.3</ele>
        <time>2022-05-29T10:54:48Z</time>
      </trkpt>
      <trkpt lat="44.99646" lon="1.04884">
        <ele>110.3</ele>
        <time>2022-05-29T10:54:49Z</time>
      </trkpt>
      <trkpt lat="44.99642" lon="1.04889">
        <ele>111.5</ele>
        <time>2022-05-29T10:54:50Z</time>
      </trkpt>
      <trkpt lat="44.99627" lon="1.04901">
        <ele>110.2</ele>
        <time>2022-05-29T10:54:53Z</time>
      </trkpt>
      <trkpt lat="44.99616" lon="1.04915">
        <ele>110.4</ele>
        <time>2022-05-29T10:54:56Z</time>
      </trkpt>
      <trkpt lat="44.99603" lon="1.04925">
        <ele>110.7</ele>
        <time>2022-05-29T10:54:59Z</time>
      </trkpt>
      <trkpt lat="44.99598" lon="1.04925">
        <ele>108.9</ele>
        <time>2022-05-29T10:55:00Z</time>
      </trkpt>
      <trkpt lat="44.9957" lon="1.04932">
        <ele>104.8</ele>
        <time>2022-05-29T10:55:06Z</time>
      </trkpt>
      <trkpt lat="44.99543" lon="1.0494">
        <ele>102.7</ele>
        <time>2022-05-29T10:55:10Z</time>
      </trkpt>
      <trkpt lat="44.99502" lon="1.04956">
        <ele>101.9</ele>
        <time>2022-05-29T10:55:15Z</time>
      </trkpt>
      <trkpt lat="44.99465" lon="1.04977">
        <ele>100.2</ele>
        <time>2022-05-29T10:55:19Z</time>
      </trkpt>
      <trkpt lat="44.9945" lon="1.04991">
        <ele>99.4</ele>
        <time>2022-05-29T10:55:21Z</time>
      </trkpt>
      <trkpt lat="44.99429" lon="1.05014">
        <ele>97.5</ele>
        <time>2022-05-29T10:55:24Z</time>
      </trkpt>
      <trkpt lat="44.99378" lon="1.05062">
        <ele>95.3</ele>
        <time>2022-05-29T10:55:31Z</time>
      </trkpt>
      <trkpt lat="44.99346" lon="1.05092">
        <ele>95</ele>
        <time>2022-05-29T10:55:36Z</time>
      </trkpt>
      <trkpt lat="44.99315" lon="1.05126">
        <ele>95</ele>
        <time>2022-05-29T10:55:42Z</time>
      </trkpt>
      <trkpt lat="44.99284" lon="1.05157">
        <ele>91.4</ele>
        <time>2022-05-29T10:55:49Z</time>
      </trkpt>
      <trkpt lat="44.99269" lon="1.05169">
        <ele>91.4</ele>
        <time>2022-05-29T10:55:52Z</time>
      </trkpt>
      <trkpt lat="44.99264" lon="1.05173">
        <ele>91.4</ele>
        <time>2022-05-29T10:55:53Z</time>
      </trkpt>
      <trkpt lat="44.99249" lon="1.05187">
        <ele>92.2</ele>
        <time>2022-05-29T10:55:56Z</time>
      </trkpt>
      <trkpt lat="44.9924" lon="1.05198">
        <ele>93.1</ele>
        <time>2022-05-29T10:55:58Z</time>
      </trkpt>
      <trkpt lat="44.99236" lon="1.05204">
        <ele>93.1</ele>
        <time>2022-05-29T10:55:59Z</time>
      </trkpt>
      <trkpt lat="44.99216" lon="1.05234">
        <ele>92.6</ele>
        <time>2022-05-29T10:56:02Z</time>
      </trkpt>
      <trkpt lat="44.99204" lon="1.05248">
        <ele>90.6</ele>
        <time>2022-05-29T10:56:04Z</time>
      </trkpt>
      <trkpt lat="44.99195" lon="1.05265">
        <ele>87.9</ele>
        <time>2022-05-29T10:56:06Z</time>
      </trkpt>
      <trkpt lat="44.99181" lon="1.05292">
        <ele>84.5</ele>
        <time>2022-05-29T10:56:10Z</time>
      </trkpt>
      <trkpt lat="44.99171" lon="1.05312">
        <ele>80.6</ele>
        <time>2022-05-29T10:56:14Z</time>
      </trkpt>
      <trkpt lat="44.99175" lon="1.05337">
        <ele>80.9</ele>
        <time>2022-05-29T10:56:19Z</time>
      </trkpt>
      <trkpt lat="44.99184" lon="1.05359">
        <ele>80.9</ele>
        <time>2022-05-29T10:56:25Z</time>
      </trkpt>
      <trkpt lat="44.99196" lon="1.05379">
        <ele>80.7</ele>
        <time>2022-05-29T10:56:31Z</time>
      </trkpt>
      <trkpt lat="44.99206" lon="1.05396">
        <ele>80.4</ele>
        <time>2022-05-29T10:56:36Z</time>
      </trkpt>
      <trkpt lat="44.99214" lon="1.0541">
        <ele>80</ele>
        <time>2022-05-29T10:56:40Z</time>
      </trkpt>
      <trkpt lat="44.99228" lon="1.05428">
        <ele>79.5</ele>
        <time>2022-05-29T10:56:45Z</time>
      </trkpt>
      <trkpt lat="44.99242" lon="1.05446">
        <ele>78.9</ele>
        <time>2022-05-29T10:56:50Z</time>
      </trkpt>
      <trkpt lat="44.99267" lon="1.0548">
        <ele>77.3</ele>
        <time>2022-05-29T10:56:57Z</time>
      </trkpt>
      <trkpt lat="44.99274" lon="1.05491">
        <ele>76.5</ele>
        <time>2022-05-29T10:56:59Z</time>
      </trkpt>
      <trkpt lat="44.99276" lon="1.05508">
        <ele>74.9</ele>
        <time>2022-05-29T10:57:01Z</time>
      </trkpt>
      <trkpt lat="44.99262" lon="1.05526">
        <ele>72.8</ele>
        <time>2022-05-29T10:57:04Z</time>
      </trkpt>
      <trkpt lat="44.99257" lon="1.05535">
        <ele>72.2</ele>
        <time>2022-05-29T10:57:05Z</time>
      </trkpt>
      <trkpt lat="44.99247" lon="1.05553">
        <ele>71.3</ele>
        <time>2022-05-29T10:57:07Z</time>
      </trkpt>
      <trkpt lat="44.99244" lon="1.05562">
        <ele>71</ele>
        <time>2022-05-29T10:57:08Z</time>
      </trkpt>
      <trkpt lat="44.99237" lon="1.05612">
        <ele>70</ele>
        <time>2022-05-29T10:57:13Z</time>
      </trkpt>
      <trkpt lat="44.99234" lon="1.05664">
        <ele>69.8</ele>
        <time>2022-05-29T10:57:19Z</time>
      </trkpt>
      <trkpt lat="44.99233" lon="1.05672">
        <ele>69.8</ele>
        <time>2022-05-29T10:57:20Z</time>
      </trkpt>
      <trkpt lat="44.99228" lon="1.05693">
        <ele>70.1</ele>
        <time>2022-05-29T10:57:23Z</time>
      </trkpt>
      <trkpt lat="44.99217" lon="1.05738">
        <ele>70.9</ele>
        <time>2022-05-29T10:57:30Z</time>
      </trkpt>
      <trkpt lat="44.99215" lon="1.05751">
        <ele>71.1</ele>
        <time>2022-05-29T10:57:32Z</time>
      </trkpt>
      <trkpt lat="44.99214" lon="1.05762">
        <ele>71.2</ele>
        <time>2022-05-29T10:57:34Z</time>
      </trkpt>
      <trkpt lat="44.99211" lon="1.05786">
        <ele>71.4</ele>
        <time>2022-05-29T10:57:39Z</time>
      </trkpt>
      <trkpt lat="44.9921" lon="1.0583">
        <ele>71.2</ele>
        <time>2022-05-29T10:57:47Z</time>
      </trkpt>
      <trkpt lat="44.99212" lon="1.0584">
        <ele>71.2</ele>
        <time>2022-05-29T10:57:49Z</time>
      </trkpt>
      <trkpt lat="44.99207" lon="1.05848">
        <ele>71.1</ele>
        <time>2022-05-29T10:57:51Z</time>
      </trkpt>
      <trkpt lat="44.99192" lon="1.05854">
        <ele>71.1</ele>
        <time>2022-05-29T10:57:55Z</time>
      </trkpt>
      <trkpt lat="44.99189" lon="1.05855">
        <ele>71.1</ele>
        <time>2022-05-29T10:57:56Z</time>
      </trkpt>
      <trkpt lat="44.99179" lon="1.05863">
        <ele>71.1</ele>
        <time>2022-05-29T10:57:58Z</time>
      </trkpt>
      <trkpt lat="44.99179" lon="1.05867">
        <ele>71.1</ele>
        <time>2022-05-29T10:57:59Z</time>
      </trkpt>
      <trkpt lat="44.99181" lon="1.05889">
        <ele>71</ele>
        <time>2022-05-29T10:58:03Z</time>
      </trkpt>
      <trkpt lat="44.99181" lon="1.05895">
        <ele>71</ele>
        <time>2022-05-29T10:58:04Z</time>
      </trkpt>
      <trkpt lat="44.99182" lon="1.05906">
        <ele>71</ele>
        <time>2022-05-29T10:58:06Z</time>
      </trkpt>
      <trkpt lat="44.99184" lon="1.05935">
        <ele>70.9</ele>
        <time>2022-05-29T10:58:11Z</time>
      </trkpt>
      <trkpt lat="44.99186" lon="1.05959">
        <ele>70.9</ele>
        <time>2022-05-29T10:58:15Z</time>
      </trkpt>
      <trkpt lat="44.99187" lon="1.05972">
        <ele>70.9</ele>
        <time>2022-05-29T10:58:17Z</time>
      </trkpt>
      <trkpt lat="44.99188" lon="1.05985">
        <ele>70.9</ele>
        <time>2022-05-29T10:58:19Z</time>
      </trkpt>
      <trkpt lat="44.99188" lon="1.05997">
        <ele>70.9</ele>
        <time>2022-05-29T10:58:21Z</time>
      </trkpt>
      <trkpt lat="44.99191" lon="1.06034">
        <ele>71</ele>
        <time>2022-05-29T10:58:27Z</time>
      </trkpt>
      <trkpt lat="44.99191" lon="1.0604">
        <ele>71</ele>
        <time>2022-05-29T10:58:28Z</time>
      </trkpt>
      <trkpt lat="44.9919" lon="1.06058">
        <ele>71</ele>
        <time>2022-05-29T10:58:31Z</time>
      </trkpt>
      <trkpt lat="44.99188" lon="1.06091">
        <ele>71</ele>
        <time>2022-05-29T10:58:36Z</time>
      </trkpt>
      <trkpt lat="44.99187" lon="1.06105">
        <ele>70.9</ele>
        <time>2022-05-29T10:58:38Z</time>
      </trkpt>
      <trkpt lat="44.99186" lon="1.06124">
        <ele>70.8</ele>
        <time>2022-05-29T10:58:41Z</time>
      </trkpt>
      <trkpt lat="44.99185" lon="1.06136">
        <ele>70.6</ele>
        <time>2022-05-29T10:58:43Z</time>
      </trkpt>
      <trkpt lat="44.99185" lon="1.06146">
        <ele>70.4</ele>
        <time>2022-05-29T10:58:45Z</time>
      </trkpt>
      <trkpt lat="44.99187" lon="1.06165">
        <ele>70.2</ele>
        <time>2022-05-29T10:58:50Z</time>
      </trkpt>
      <trkpt lat="44.99188" lon="1.0617">
        <ele>70.2</ele>
        <time>2022-05-29T10:58:51Z</time>
      </trkpt>
      <trkpt lat="44.9919" lon="1.06181">
        <ele>70.4</ele>
        <time>2022-05-29T10:58:53Z</time>
      </trkpt>
      <trkpt lat="44.99195" lon="1.06216">
        <ele>70.9</ele>
        <time>2022-05-29T10:58:59Z</time>
      </trkpt>
      <trkpt lat="44.99192" lon="1.06252">
        <ele>71</ele>
        <time>2022-05-29T10:59:06Z</time>
      </trkpt>
      <trkpt lat="44.99189" lon="1.06278">
        <ele>70.9</ele>
        <time>2022-05-29T10:59:11Z</time>
      </trkpt>
      <trkpt lat="44.99186" lon="1.06307">
        <ele>70.9</ele>
        <time>2022-05-29T10:59:17Z</time>
      </trkpt>
      <trkpt lat="44.99184" lon="1.06325">
        <ele>70.8</ele>
        <time>2022-05-29T10:59:22Z</time>
      </trkpt>
      <trkpt lat="44.9918" lon="1.06344">
        <ele>70.7</ele>
        <time>2022-05-29T10:59:28Z</time>
      </trkpt>
      <trkpt lat="44.99178" lon="1.06352">
        <ele>70.7</ele>
        <time>2022-05-29T10:59:31Z</time>
      </trkpt>
      <trkpt lat="44.99178" lon="1.06356">
        <ele>70.6</ele>
        <time>2022-05-29T10:59:33Z</time>
      </trkpt>
      <trkpt lat="44.99174" lon="1.06374">
        <ele>70.6</ele>
        <time>2022-05-29T10:59:39Z</time>
      </trkpt>
      <trkpt lat="44.99169" lon="1.06403">
        <ele>70.7</ele>
        <time>2022-05-29T10:59:47Z</time>
      </trkpt>
      <trkpt lat="44.99164" lon="1.06428">
        <ele>70.8</ele>
        <time>2022-05-29T10:59:53Z</time>
      </trkpt>
      <trkpt lat="44.9916" lon="1.06455">
        <ele>70.8</ele>
        <time>2022-05-29T10:59:59Z</time>
      </trkpt>
      <trkpt lat="44.99158" lon="1.06487">
        <ele>70.8</ele>
        <time>2022-05-29T11:00:06Z</time>
      </trkpt>
      <trkpt lat="44.99152" lon="1.06515">
        <ele>70.7</ele>
        <time>2022-05-29T11:00:12Z</time>
      </trkpt>
      <trkpt lat="44.99147" lon="1.06564">
        <ele>70.7</ele>
        <time>2022-05-29T11:00:22Z</time>
      </trkpt>
      <trkpt lat="44.99144" lon="1.06589">
        <ele>70.7</ele>
        <time>2022-05-29T11:00:27Z</time>
      </trkpt>
      <trkpt lat="44.99139" lon="1.06611">
        <ele>70.6</ele>
        <time>2022-05-29T11:00:31Z</time>
      </trkpt>
      <trkpt lat="44.99137" lon="1.06629">
        <ele>70.5</ele>
        <time>2022-05-29T11:00:34Z</time>
      </trkpt>
      <trkpt lat="44.99135" lon="1.06642">
        <ele>70.5</ele>
        <time>2022-05-29T11:00:36Z</time>
      </trkpt>
      <trkpt lat="44.99122" lon="1.06694">
        <ele>70.4</ele>
        <time>2022-05-29T11:00:45Z</time>
      </trkpt>
      <trkpt lat="44.99117" lon="1.06713">
        <ele>70.3</ele>
        <time>2022-05-29T11:00:48Z</time>
      </trkpt>
      <trkpt lat="44.9911" lon="1.06727">
        <ele>70.3</ele>
        <time>2022-05-29T11:00:51Z</time>
      </trkpt>
      <trkpt lat="44.99091" lon="1.06772">
        <ele>70.4</ele>
        <time>2022-05-29T11:01:00Z</time>
      </trkpt>
      <trkpt lat="44.99081" lon="1.06799">
        <ele>70.5</ele>
        <time>2022-05-29T11:01:06Z</time>
      </trkpt>
      <trkpt lat="44.99068" lon="1.06833">
        <ele>70.8</ele>
        <time>2022-05-29T11:01:13Z</time>
      </trkpt>
      <trkpt lat="44.99053" lon="1.06874">
        <ele>71.1</ele>
        <time>2022-05-29T11:01:21Z</time>
      </trkpt>
      <trkpt lat="44.99046" lon="1.06913">
        <ele>71.4</ele>
        <time>2022-05-29T11:01:28Z</time>
      </trkpt>
      <trkpt lat="44.99039" lon="1.06959">
        <ele>71.5</ele>
        <time>2022-05-29T11:01:36Z</time>
      </trkpt>
      <trkpt lat="44.99037" lon="1.06965">
        <ele>71.4</ele>
        <time>2022-05-29T11:01:37Z</time>
      </trkpt>
      <trkpt lat="44.99032" lon="1.06982">
        <ele>71.3</ele>
        <time>2022-05-29T11:01:40Z</time>
      </trkpt>
      <trkpt lat="44.9903" lon="1.06988">
        <ele>71.2</ele>
        <time>2022-05-29T11:01:41Z</time>
      </trkpt>
      <trkpt lat="44.99018" lon="1.07018">
        <ele>70.8</ele>
        <time>2022-05-29T11:01:46Z</time>
      </trkpt>
      <trkpt lat="44.99014" lon="1.07023">
        <ele>70.8</ele>
        <time>2022-05-29T11:01:47Z</time>
      </trkpt>
      <trkpt lat="44.98996" lon="1.07057">
        <ele>70.7</ele>
        <time>2022-05-29T11:01:53Z</time>
      </trkpt>
      <trkpt lat="44.98997" lon="1.07065">
        <ele>70.7</ele>
        <time>2022-05-29T11:01:54Z</time>
      </trkpt>
      <trkpt lat="44.98998" lon="1.07072">
        <ele>70.7</ele>
        <time>2022-05-29T11:01:55Z</time>
      </trkpt>
      <trkpt lat="44.98999" lon="1.07086">
        <ele>70.7</ele>
        <time>2022-05-29T11:01:57Z</time>
      </trkpt>
      <trkpt lat="44.99001" lon="1.07092">
        <ele>70.7</ele>
        <time>2022-05-29T11:01:58Z</time>
      </trkpt>
      <trkpt lat="44.99009" lon="1.07108">
        <ele>70.8</ele>
        <time>2022-05-29T11:02:01Z</time>
      </trkpt>
      <trkpt lat="44.99012" lon="1.07113">
        <ele>70.9</ele>
        <time>2022-05-29T11:02:02Z</time>
      </trkpt>
      <trkpt lat="44.99017" lon="1.07124">
        <ele>70.9</ele>
        <time>2022-05-29T11:02:04Z</time>
      </trkpt>
      <trkpt lat="44.99022" lon="1.07133">
        <ele>70.9</ele>
        <time>2022-05-29T11:02:06Z</time>
      </trkpt>
      <trkpt lat="44.99027" lon="1.07142">
        <ele>70.9</ele>
        <time>2022-05-29T11:02:08Z</time>
      </trkpt>
      <trkpt lat="44.99034" lon="1.07149">
        <ele>71</ele>
        <time>2022-05-29T11:02:10Z</time>
      </trkpt>
      <trkpt lat="44.9906" lon="1.07169">
        <ele>70.9</ele>
        <time>2022-05-29T11:02:16Z</time>
      </trkpt>
      <trkpt lat="44.99078" lon="1.07182">
        <ele>71</ele>
        <time>2022-05-29T11:02:20Z</time>
      </trkpt>
      <trkpt lat="44.99086" lon="1.07188">
        <ele>71</ele>
        <time>2022-05-29T11:02:22Z</time>
      </trkpt>
      <trkpt lat="44.99102" lon="1.072">
        <ele>71</ele>
        <time>2022-05-29T11:02:26Z</time>
      </trkpt>
      <trkpt lat="44.99134" lon="1.0722">
        <ele>71</ele>
        <time>2022-05-29T11:02:33Z</time>
      </trkpt>
      <trkpt lat="44.99165" lon="1.07238">
        <ele>71</ele>
        <time>2022-05-29T11:02:40Z</time>
      </trkpt>
      <trkpt lat="44.99179" lon="1.07246">
        <ele>71</ele>
        <time>2022-05-29T11:02:43Z</time>
      </trkpt>
      <trkpt lat="44.99188" lon="1.07251">
        <ele>71.1</ele>
        <time>2022-05-29T11:02:45Z</time>
      </trkpt>
      <trkpt lat="44.99193" lon="1.07253">
        <ele>71.1</ele>
        <time>2022-05-29T11:02:46Z</time>
      </trkpt>
      <trkpt lat="44.99212" lon="1.07264">
        <ele>71</ele>
        <time>2022-05-29T11:02:50Z</time>
      </trkpt>
      <trkpt lat="44.99216" lon="1.07266">
        <ele>70.9</ele>
        <time>2022-05-29T11:02:51Z</time>
      </trkpt>
      <trkpt lat="44.99227" lon="1.07272">
        <ele>70.8</ele>
        <time>2022-05-29T11:02:53Z</time>
      </trkpt>
      <trkpt lat="44.99246" lon="1.07283">
        <ele>70.6</ele>
        <time>2022-05-29T11:02:58Z</time>
      </trkpt>
      <trkpt lat="44.99259" lon="1.0729">
        <ele>70.5</ele>
        <time>2022-05-29T11:03:01Z</time>
      </trkpt>
      <trkpt lat="44.99267" lon="1.07295">
        <ele>70.5</ele>
        <time>2022-05-29T11:03:03Z</time>
      </trkpt>
      <trkpt lat="44.99272" lon="1.07298">
        <ele>70.5</ele>
        <time>2022-05-29T11:03:04Z</time>
      </trkpt>
      <trkpt lat="44.99303" lon="1.07307">
        <ele>70.6</ele>
        <time>2022-05-29T11:03:10Z</time>
      </trkpt>
      <trkpt lat="44.99331" lon="1.07316">
        <ele>70.8</ele>
        <time>2022-05-29T11:03:16Z</time>
      </trkpt>
      <trkpt lat="44.99359" lon="1.07324">
        <ele>70.9</ele>
        <time>2022-05-29T11:03:22Z</time>
      </trkpt>
      <trkpt lat="44.99364" lon="1.07325">
        <ele>70.9</ele>
        <time>2022-05-29T11:03:23Z</time>
      </trkpt>
      <trkpt lat="44.99397" lon="1.07335">
        <ele>71</ele>
        <time>2022-05-29T11:03:30Z</time>
      </trkpt>
      <trkpt lat="44.99421" lon="1.07342">
        <ele>70.9</ele>
        <time>2022-05-29T11:03:35Z</time>
      </trkpt>
      <trkpt lat="44.99426" lon="1.07344">
        <ele>70.9</ele>
        <time>2022-05-29T11:03:36Z</time>
      </trkpt>
      <trkpt lat="44.9945" lon="1.07351">
        <ele>70.9</ele>
        <time>2022-05-29T11:03:41Z</time>
      </trkpt>
      <trkpt lat="44.99459" lon="1.07353">
        <ele>70.9</ele>
        <time>2022-05-29T11:03:43Z</time>
      </trkpt>
      <trkpt lat="44.9948" lon="1.0736">
        <ele>70.9</ele>
        <time>2022-05-29T11:03:48Z</time>
      </trkpt>
      <trkpt lat="44.99509" lon="1.0737">
        <ele>70.8</ele>
        <time>2022-05-29T11:03:54Z</time>
      </trkpt>
      <trkpt lat="44.99535" lon="1.07379">
        <ele>70.8</ele>
        <time>2022-05-29T11:03:59Z</time>
      </trkpt>
      <trkpt lat="44.99544" lon="1.07382">
        <ele>70.8</ele>
        <time>2022-05-29T11:04:01Z</time>
      </trkpt>
      <trkpt lat="44.99572" lon="1.07391">
        <ele>71</ele>
        <time>2022-05-29T11:04:07Z</time>
      </trkpt>
      <trkpt lat="44.99577" lon="1.07393">
        <ele>71</ele>
        <time>2022-05-29T11:04:08Z</time>
      </trkpt>
      <trkpt lat="44.9959" lon="1.07397">
        <ele>71.2</ele>
        <time>2022-05-29T11:04:11Z</time>
      </trkpt>
      <trkpt lat="44.99606" lon="1.07403">
        <ele>71.3</ele>
        <time>2022-05-29T11:04:15Z</time>
      </trkpt>
      <trkpt lat="44.99624" lon="1.07408">
        <ele>71.4</ele>
        <time>2022-05-29T11:04:19Z</time>
      </trkpt>
      <trkpt lat="44.99643" lon="1.07415">
        <ele>71.4</ele>
        <time>2022-05-29T11:04:23Z</time>
      </trkpt>
      <trkpt lat="44.99648" lon="1.07416">
        <ele>71.4</ele>
        <time>2022-05-29T11:04:24Z</time>
      </trkpt>
      <trkpt lat="44.99682" lon="1.07428">
        <ele>71.3</ele>
        <time>2022-05-29T11:04:31Z</time>
      </trkpt>
      <trkpt lat="44.99714" lon="1.07436">
        <ele>71.4</ele>
        <time>2022-05-29T11:04:38Z</time>
      </trkpt>
      <trkpt lat="44.99733" lon="1.0744">
        <ele>71.4</ele>
        <time>2022-05-29T11:04:42Z</time>
      </trkpt>
      <trkpt lat="44.99742" lon="1.07442">
        <ele>71.3</ele>
        <time>2022-05-29T11:04:44Z</time>
      </trkpt>
      <trkpt lat="44.99756" lon="1.07444">
        <ele>71.2</ele>
        <time>2022-05-29T11:04:47Z</time>
      </trkpt>
      <trkpt lat="44.9977" lon="1.07447">
        <ele>71.1</ele>
        <time>2022-05-29T11:04:50Z</time>
      </trkpt>
      <trkpt lat="44.9978" lon="1.07449">
        <ele>71</ele>
        <time>2022-05-29T11:04:52Z</time>
      </trkpt>
      <trkpt lat="44.99811" lon="1.07455">
        <ele>70.8</ele>
        <time>2022-05-29T11:04:58Z</time>
      </trkpt>
      <trkpt lat="44.99815" lon="1.07456">
        <ele>70.8</ele>
        <time>2022-05-29T11:04:59Z</time>
      </trkpt>
      <trkpt lat="44.99844" lon="1.07462">
        <ele>70.8</ele>
        <time>2022-05-29T11:05:05Z</time>
      </trkpt>
      <trkpt lat="44.9986" lon="1.07465">
        <ele>70.9</ele>
        <time>2022-05-29T11:05:08Z</time>
      </trkpt>
      <trkpt lat="44.99869" lon="1.07466">
        <ele>70.9</ele>
        <time>2022-05-29T11:05:10Z</time>
      </trkpt>
      <trkpt lat="44.99874" lon="1.07466">
        <ele>70.9</ele>
        <time>2022-05-29T11:05:12Z</time>
      </trkpt>
      <trkpt lat="44.99883" lon="1.07464">
        <ele>71</ele>
        <time>2022-05-29T11:05:14Z</time>
      </trkpt>
      <trkpt lat="44.99911" lon="1.07461">
        <ele>71.1</ele>
        <time>2022-05-29T11:05:20Z</time>
      </trkpt>
      <trkpt lat="44.99932" lon="1.07458">
        <ele>71.2</ele>
        <time>2022-05-29T11:05:25Z</time>
      </trkpt>
      <trkpt lat="44.9996" lon="1.07469">
        <ele>71.1</ele>
        <time>2022-05-29T11:05:32Z</time>
      </trkpt>
      <trkpt lat="44.99977" lon="1.07476">
        <ele>71</ele>
        <time>2022-05-29T11:05:36Z</time>
      </trkpt>
      <trkpt lat="44.99985" lon="1.07479">
        <ele>71</ele>
        <time>2022-05-29T11:05:38Z</time>
      </trkpt>
      <trkpt lat="44.99989" lon="1.0748">
        <ele>70.9</ele>
        <time>2022-05-29T11:05:39Z</time>
      </trkpt>
      <trkpt lat="44.99992" lon="1.07481">
        <ele>70.8</ele>
        <time>2022-05-29T11:05:40Z</time>
      </trkpt>
      <trkpt lat="45" lon="1.0747">
        <ele>70.7</ele>
        <time>2022-05-29T11:05:42Z</time>
      </trkpt>
      <trkpt lat="45.00002" lon="1.0746">
        <ele>70.8</ele>
        <time>2022-05-29T11:05:45Z</time>
      </trkpt>
      <trkpt lat="45.00003" lon="1.07453">
        <ele>70.8</ele>
        <time>2022-05-29T11:05:47Z</time>
      </trkpt>
      <trkpt lat="45.00007" lon="1.07431">
        <ele>70.8</ele>
        <time>2022-05-29T11:05:52Z</time>
      </trkpt>
      <trkpt lat="45.00011" lon="1.07404">
        <ele>70.8</ele>
        <time>2022-05-29T11:05:58Z</time>
      </trkpt>
      <trkpt lat="45.00016" lon="1.07375">
        <ele>70.7</ele>
        <time>2022-05-29T11:06:04Z</time>
      </trkpt>
      <trkpt lat="45.00021" lon="1.07351">
        <ele>70.6</ele>
        <time>2022-05-29T11:06:09Z</time>
      </trkpt>
      <trkpt lat="45.00025" lon="1.07328">
        <ele>70.5</ele>
        <time>2022-05-29T11:06:14Z</time>
      </trkpt>
      <trkpt lat="45.00028" lon="1.07308">
        <ele>70.5</ele>
        <time>2022-05-29T11:06:20Z</time>
      </trkpt>
      <trkpt lat="45.00028" lon="1.07308">
        <ele>70.5</ele>
        <time>2022-05-29T11:06:21Z</time>
      </trkpt>
      <trkpt lat="45.00039" lon="1.07311">
        <ele>70.5</ele>
        <time>2022-05-29T11:06:26Z</time>
      </trkpt>
      <trkpt lat="45.00055" lon="1.07301">
        <ele>70.6</ele>
        <time>2022-05-29T11:06:32Z</time>
      </trkpt>
      <trkpt lat="45.00069" lon="1.07307">
        <ele>70.6</ele>
        <time>2022-05-29T11:06:38Z</time>
      </trkpt>
      <trkpt lat="45.00089" lon="1.07314">
        <ele>70.6</ele>
        <time>2022-05-29T11:06:45Z</time>
      </trkpt>
      <trkpt lat="45.00105" lon="1.07321">
        <ele>70.7</ele>
        <time>2022-05-29T11:06:51Z</time>
      </trkpt>
      <trkpt lat="45.00125" lon="1.07329">
        <ele>70.8</ele>
        <time>2022-05-29T11:06:58Z</time>
      </trkpt>
      <trkpt lat="45.00139" lon="1.07335">
        <ele>70.9</ele>
        <time>2022-05-29T11:07:04Z</time>
      </trkpt>
      <trkpt lat="45.00152" lon="1.07341">
        <ele>71</ele>
        <time>2022-05-29T11:07:10Z</time>
      </trkpt>
      <trkpt lat="45.00165" lon="1.07335">
        <ele>71.3</ele>
        <time>2022-05-29T11:07:15Z</time>
      </trkpt>
      <trkpt lat="45.0018" lon="1.07337">
        <ele>71.7</ele>
        <time>2022-05-29T11:07:21Z</time>
      </trkpt>
      <trkpt lat="45.00182" lon="1.07337">
        <ele>71.7</ele>
        <time>2022-05-29T11:07:22Z</time>
      </trkpt>
      <trkpt lat="45.0019" lon="1.07335">
        <ele>71.9</ele>
        <time>2022-05-29T11:07:25Z</time>
      </trkpt>
      <trkpt lat="45.00201" lon="1.07331">
        <ele>72.3</ele>
        <time>2022-05-29T11:07:29Z</time>
      </trkpt>
      <trkpt lat="45.00205" lon="1.07314">
        <ele>72.5</ele>
        <time>2022-05-29T11:07:33Z</time>
      </trkpt>
      <trkpt lat="45.00204" lon="1.07296">
        <ele>72.4</ele>
        <time>2022-05-29T11:07:38Z</time>
      </trkpt>
      <trkpt lat="45.00202" lon="1.0727">
        <ele>72.5</ele>
        <time>2022-05-29T11:07:44Z</time>
      </trkpt>
      <trkpt lat="45.002" lon="1.07245">
        <ele>72.6</ele>
        <time>2022-05-29T11:07:51Z</time>
      </trkpt>
      <trkpt lat="45.002" lon="1.07224">
        <ele>72.9</ele>
        <time>2022-05-29T11:07:57Z</time>
      </trkpt>
      <trkpt lat="45.00201" lon="1.07206">
        <ele>72.9</ele>
        <time>2022-05-29T11:08:00Z</time>
      </trkpt>
      <trkpt lat="45.00202" lon="1.07197">
        <ele>72.9</ele>
        <time>2022-05-29T11:08:02Z</time>
      </trkpt>
      <trkpt lat="45.00205" lon="1.07166">
        <ele>73</ele>
        <time>2022-05-29T11:08:09Z</time>
      </trkpt>
      <trkpt lat="45.0021" lon="1.07136">
        <ele>73.5</ele>
        <time>2022-05-29T11:08:16Z</time>
      </trkpt>
      <trkpt lat="45.00213" lon="1.07118">
        <ele>73.7</ele>
        <time>2022-05-29T11:08:22Z</time>
      </trkpt>
      <trkpt lat="45.00214" lon="1.07115">
        <ele>73.8</ele>
        <time>2022-05-29T11:08:25Z</time>
      </trkpt>
      <trkpt lat="45.00215" lon="1.07111">
        <ele>73.9</ele>
        <time>2022-05-29T11:08:27Z</time>
      </trkpt>
      <trkpt lat="45.00215" lon="1.0711">
        <ele>73.9</ele>
        <time>2022-05-29T11:08:31Z</time>
      </trkpt>
      <trkpt lat="45.00215" lon="1.0711">
        <ele>73.9</ele>
        <time>2022-05-29T11:08:33Z</time>
      </trkpt>
      <trkpt lat="45.00212" lon="1.07101">
        <ele>74.6</ele>
        <time>2022-05-29T11:08:35Z</time>
      </trkpt>
      <trkpt lat="45.00213" lon="1.07092">
        <ele>75.3</ele>
        <time>2022-05-29T11:08:39Z</time>
      </trkpt>
      <trkpt lat="45.00213" lon="1.0709">
        <ele>75.5</ele>
        <time>2022-05-29T11:08:40Z</time>
      </trkpt>
      <trkpt lat="45.00216" lon="1.07075">
        <ele>76.9</ele>
        <time>2022-05-29T11:08:46Z</time>
      </trkpt>
      <trkpt lat="45.00218" lon="1.07061">
        <ele>78.2</ele>
        <time>2022-05-29T11:08:52Z</time>
      </trkpt>
      <trkpt lat="45.00223" lon="1.07046">
        <ele>79.5</ele>
        <time>2022-05-29T11:09:00Z</time>
      </trkpt>
      <trkpt lat="45.00232" lon="1.07043">
        <ele>80.3</ele>
        <time>2022-05-29T11:09:06Z</time>
      </trkpt>
      <trkpt lat="45.00243" lon="1.07049">
        <ele>81.2</ele>
        <time>2022-05-29T11:09:13Z</time>
      </trkpt>
      <trkpt lat="45.00253" lon="1.07045">
        <ele>82.1</ele>
        <time>2022-05-29T11:09:20Z</time>
      </trkpt>
      <trkpt lat="45.00258" lon="1.07028">
        <ele>83.2</ele>
        <time>2022-05-29T11:09:28Z</time>
      </trkpt>
      <trkpt lat="45.00259" lon="1.07025">
        <ele>83.5</ele>
        <time>2022-05-29T11:09:30Z</time>
      </trkpt>
      <trkpt lat="45.00261" lon="1.07019">
        <ele>84</ele>
        <time>2022-05-29T11:09:33Z</time>
      </trkpt>
      <trkpt lat="45.00265" lon="1.07005">
        <ele>85.4</ele>
        <time>2022-05-29T11:09:40Z</time>
      </trkpt>
      <trkpt lat="45.00266" lon="1.07002">
        <ele>85.8</ele>
        <time>2022-05-29T11:09:42Z</time>
      </trkpt>
      <trkpt lat="45.00266" lon="1.06999">
        <ele>86.1</ele>
        <time>2022-05-29T11:09:44Z</time>
      </trkpt>
      <trkpt lat="45.00266" lon="1.06999">
        <ele>86.1</ele>
        <time>2022-05-29T11:09:45Z</time>
      </trkpt>
      <trkpt lat="45.00264" lon="1.06986">
        <ele>87.6</ele>
        <time>2022-05-29T11:09:51Z</time>
      </trkpt>
      <trkpt lat="45.00264" lon="1.06985">
        <ele>87.9</ele>
        <time>2022-05-29T11:09:52Z</time>
      </trkpt>
      <trkpt lat="45.00263" lon="1.06979">
        <ele>88.6</ele>
        <time>2022-05-29T11:09:56Z</time>
      </trkpt>
      <trkpt lat="45.00263" lon="1.06977">
        <ele>88.8</ele>
        <time>2022-05-29T11:09:57Z</time>
      </trkpt>
      <trkpt lat="45.00262" lon="1.06974">
        <ele>89.2</ele>
        <time>2022-05-29T11:10:00Z</time>
      </trkpt>
      <trkpt lat="45.00261" lon="1.06963">
        <ele>90.8</ele>
        <time>2022-05-29T11:10:06Z</time>
      </trkpt>
      <trkpt lat="45.0026" lon="1.06957">
        <ele>91.5</ele>
        <time>2022-05-29T11:10:09Z</time>
      </trkpt>
      <trkpt lat="45.00259" lon="1.06951">
        <ele>92.4</ele>
        <time>2022-05-29T11:10:12Z</time>
      </trkpt>
      <trkpt lat="45.00257" lon="1.06946">
        <ele>93.2</ele>
        <time>2022-05-29T11:10:16Z</time>
      </trkpt>
      <trkpt lat="45.00253" lon="1.06935">
        <ele>94.8</ele>
        <time>2022-05-29T11:10:23Z</time>
      </trkpt>
      <trkpt lat="45.0025" lon="1.06928">
        <ele>95.8</ele>
        <time>2022-05-29T11:10:29Z</time>
      </trkpt>
      <trkpt lat="45.00247" lon="1.06921">
        <ele>96.7</ele>
        <time>2022-05-29T11:10:33Z</time>
      </trkpt>
      <trkpt lat="45.00247" lon="1.06919">
        <ele>96.9</ele>
        <time>2022-05-29T11:10:34Z</time>
      </trkpt>
      <trkpt lat="45.00243" lon="1.06909">
        <ele>98.3</ele>
        <time>2022-05-29T11:10:40Z</time>
      </trkpt>
      <trkpt lat="45.0024" lon="1.06902">
        <ele>99.1</ele>
        <time>2022-05-29T11:10:45Z</time>
      </trkpt>
      <trkpt lat="45.00219" lon="1.06771">
        <ele>110.9</ele>
        <time>2022-05-29T11:11:53Z</time>
      </trkpt>
      <trkpt lat="45.0022" lon="1.06765">
        <ele>111.4</ele>
        <time>2022-05-29T11:11:56Z</time>
      </trkpt>
      <trkpt lat="45.00223" lon="1.06753">
        <ele>112.5</ele>
        <time>2022-05-29T11:12:02Z</time>
      </trkpt>
      <trkpt lat="45.00225" lon="1.06748">
        <ele>113</ele>
        <time>2022-05-29T11:12:04Z</time>
      </trkpt>
      <trkpt lat="45.00226" lon="1.06743">
        <ele>113.5</ele>
        <time>2022-05-29T11:12:06Z</time>
      </trkpt>
      <trkpt lat="45.00228" lon="1.06736">
        <ele>114.1</ele>
        <time>2022-05-29T11:12:09Z</time>
      </trkpt>
      <trkpt lat="45.00231" lon="1.06726">
        <ele>115</ele>
        <time>2022-05-29T11:12:14Z</time>
      </trkpt>
      <trkpt lat="45.00231" lon="1.06724">
        <ele>115.2</ele>
        <time>2022-05-29T11:12:15Z</time>
      </trkpt>
      <trkpt lat="45.00236" lon="1.06714">
        <ele>116.1</ele>
        <time>2022-05-29T11:12:20Z</time>
      </trkpt>
      <trkpt lat="45.00237" lon="1.06713">
        <ele>116.3</ele>
        <time>2022-05-29T11:12:21Z</time>
      </trkpt>
      <trkpt lat="45.00246" lon="1.06697">
        <ele>117.9</ele>
        <time>2022-05-29T11:12:29Z</time>
      </trkpt>
      <trkpt lat="45.00254" lon="1.06683">
        <ele>119.2</ele>
        <time>2022-05-29T11:12:37Z</time>
      </trkpt>
      <trkpt lat="45.00255" lon="1.06682">
        <ele>119.3</ele>
        <time>2022-05-29T11:12:38Z</time>
      </trkpt>
      <trkpt lat="45.0026" lon="1.06675">
        <ele>120</ele>
        <time>2022-05-29T11:12:42Z</time>
      </trkpt>
      <trkpt lat="45.00261" lon="1.06674">
        <ele>120.1</ele>
        <time>2022-05-29T11:12:43Z</time>
      </trkpt>
      <trkpt lat="45.00266" lon="1.06667">
        <ele>120.9</ele>
        <time>2022-05-29T11:12:48Z</time>
      </trkpt>
      <trkpt lat="45.00268" lon="1.06664">
        <ele>121.2</ele>
        <time>2022-05-29T11:12:50Z</time>
      </trkpt>
      <trkpt lat="45.00272" lon="1.0666">
        <ele>121.6</ele>
        <time>2022-05-29T11:12:54Z</time>
      </trkpt>
      <trkpt lat="45.00273" lon="1.06657">
        <ele>121.8</ele>
        <time>2022-05-29T11:12:56Z</time>
      </trkpt>
      <trkpt lat="45.00278" lon="1.06652">
        <ele>122.3</ele>
        <time>2022-05-29T11:13:00Z</time>
      </trkpt>
      <trkpt lat="45.00284" lon="1.06644">
        <ele>123</ele>
        <time>2022-05-29T11:13:05Z</time>
      </trkpt>
      <trkpt lat="45.00291" lon="1.06635">
        <ele>123.6</ele>
        <time>2022-05-29T11:13:11Z</time>
      </trkpt>
      <trkpt lat="45.00302" lon="1.06621">
        <ele>124.7</ele>
        <time>2022-05-29T11:13:18Z</time>
      </trkpt>
      <trkpt lat="45.00313" lon="1.06606">
        <ele>125.5</ele>
        <time>2022-05-29T11:13:25Z</time>
      </trkpt>
      <trkpt lat="45.00319" lon="1.06593">
        <ele>125.5</ele>
        <time>2022-05-29T11:13:31Z</time>
      </trkpt>
      <trkpt lat="45.00324" lon="1.06607">
        <ele>125</ele>
        <time>2022-05-29T11:13:33Z</time>
      </trkpt>
      <trkpt lat="45.00319" lon="1.06593">
        <ele>124.2</ele>
        <time>2022-05-29T11:13:35Z</time>
      </trkpt>
      <trkpt lat="45.00325" lon="1.06606">
        <ele>123.3</ele>
        <time>2022-05-29T11:13:37Z</time>
      </trkpt>
      <trkpt lat="45.00328" lon="1.06605">
        <ele>123.1</ele>
        <time>2022-05-29T11:14:11Z</time>
      </trkpt>
      <trkpt lat="45.00328" lon="1.06604">
        <ele>123</ele>
        <time>2022-05-29T11:14:12Z</time>
      </trkpt>
      <trkpt lat="45.00335" lon="1.06614">
        <ele>122.2</ele>
        <time>2022-05-29T11:14:16Z</time>
      </trkpt>
      <trkpt lat="45.00346" lon="1.06637">
        <ele>120.3</ele>
        <time>2022-05-29T11:14:19Z</time>
      </trkpt>
      <trkpt lat="45.00349" lon="1.06644">
        <ele>119.7</ele>
        <time>2022-05-29T11:14:20Z</time>
      </trkpt>
      <trkpt lat="45.00363" lon="1.06675">
        <ele>116.6</ele>
        <time>2022-05-29T11:14:24Z</time>
      </trkpt>
      <trkpt lat="45.00379" lon="1.06711">
        <ele>113.3</ele>
        <time>2022-05-29T11:14:28Z</time>
      </trkpt>
      <trkpt lat="45.00388" lon="1.06726">
        <ele>111.8</ele>
        <time>2022-05-29T11:14:30Z</time>
      </trkpt>
      <trkpt lat="45.00398" lon="1.06741">
        <ele>110.2</ele>
        <time>2022-05-29T11:14:32Z</time>
      </trkpt>
      <trkpt lat="45.0041" lon="1.06758">
        <ele>108.5</ele>
        <time>2022-05-29T11:14:35Z</time>
      </trkpt>
      <trkpt lat="45.00412" lon="1.06761">
        <ele>108.3</ele>
        <time>2022-05-29T11:14:38Z</time>
      </trkpt>
      <trkpt lat="45.00418" lon="1.06767">
        <ele>107.8</ele>
        <time>2022-05-29T11:14:41Z</time>
      </trkpt>
      <trkpt lat="45.00421" lon="1.0677">
        <ele>107.6</ele>
        <time>2022-05-29T11:14:42Z</time>
      </trkpt>
      <trkpt lat="45.00436" lon="1.06786">
        <ele>106.6</ele>
        <time>2022-05-29T11:14:47Z</time>
      </trkpt>
      <trkpt lat="45.00442" lon="1.06792">
        <ele>106.2</ele>
        <time>2022-05-29T11:14:49Z</time>
      </trkpt>
      <trkpt lat="45.00445" lon="1.06795">
        <ele>106.1</ele>
        <time>2022-05-29T11:14:50Z</time>
      </trkpt>
      <trkpt lat="45.00449" lon="1.06799">
        <ele>105.9</ele>
        <time>2022-05-29T11:14:51Z</time>
      </trkpt>
      <trkpt lat="45.00457" lon="1.06807">
        <ele>105.4</ele>
        <time>2022-05-29T11:14:53Z</time>
      </trkpt>
      <trkpt lat="45.0046" lon="1.06813">
        <ele>105.2</ele>
        <time>2022-05-29T11:14:54Z</time>
      </trkpt>
      <trkpt lat="45.0047" lon="1.06828">
        <ele>105.1</ele>
        <time>2022-05-29T11:14:57Z</time>
      </trkpt>
      <trkpt lat="45.00471" lon="1.06831">
        <ele>105.1</ele>
        <time>2022-05-29T11:14:58Z</time>
      </trkpt>
      <trkpt lat="45.00474" lon="1.06836">
        <ele>105.3</ele>
        <time>2022-05-29T11:15:01Z</time>
      </trkpt>
      <trkpt lat="45.00475" lon="1.06844">
        <ele>105.6</ele>
        <time>2022-05-29T11:15:04Z</time>
      </trkpt>
      <trkpt lat="45.00479" lon="1.06859">
        <ele>106.4</ele>
        <time>2022-05-29T11:15:08Z</time>
      </trkpt>
      <trkpt lat="45.00477" lon="1.06873">
        <ele>106.8</ele>
        <time>2022-05-29T11:15:12Z</time>
      </trkpt>
      <trkpt lat="45.00477" lon="1.06878">
        <ele>106.8</ele>
        <time>2022-05-29T11:15:14Z</time>
      </trkpt>
      <trkpt lat="45.00476" lon="1.06882">
        <ele>106.8</ele>
        <time>2022-05-29T11:15:15Z</time>
      </trkpt>
      <trkpt lat="45.00476" lon="1.06888">
        <ele>106.5</ele>
        <time>2022-05-29T11:15:17Z</time>
      </trkpt>
      <trkpt lat="45.00475" lon="1.06891">
        <ele>106.4</ele>
        <time>2022-05-29T11:15:18Z</time>
      </trkpt>
      <trkpt lat="45.00474" lon="1.06903">
        <ele>105.8</ele>
        <time>2022-05-29T11:15:20Z</time>
      </trkpt>
      <trkpt lat="45.00473" lon="1.06911">
        <ele>105.4</ele>
        <time>2022-05-29T11:15:21Z</time>
      </trkpt>
      <trkpt lat="45.0047" lon="1.06935">
        <ele>104.8</ele>
        <time>2022-05-29T11:15:25Z</time>
      </trkpt>
      <trkpt lat="45.0047" lon="1.0696">
        <ele>105</ele>
        <time>2022-05-29T11:15:29Z</time>
      </trkpt>
      <trkpt lat="45.00476" lon="1.06979">
        <ele>106.2</ele>
        <time>2022-05-29T11:15:33Z</time>
      </trkpt>
      <trkpt lat="45.00477" lon="1.06982">
        <ele>106.7</ele>
        <time>2022-05-29T11:15:34Z</time>
      </trkpt>
      <trkpt lat="45.00483" lon="1.06985">
        <ele>107.7</ele>
        <time>2022-05-29T11:15:36Z</time>
      </trkpt>
      <trkpt lat="45.00484" lon="1.06985">
        <ele>107.9</ele>
        <time>2022-05-29T11:15:37Z</time>
      </trkpt>
      <trkpt lat="45.0049" lon="1.06981">
        <ele>109.1</ele>
        <time>2022-05-29T11:15:41Z</time>
      </trkpt>
      <trkpt lat="45.00492" lon="1.0698">
        <ele>109.5</ele>
        <time>2022-05-29T11:15:43Z</time>
      </trkpt>
      <trkpt lat="45.00496" lon="1.06978">
        <ele>110.2</ele>
        <time>2022-05-29T11:15:45Z</time>
      </trkpt>
      <trkpt lat="45.00498" lon="1.06977">
        <ele>110.5</ele>
        <time>2022-05-29T11:15:46Z</time>
      </trkpt>
      <trkpt lat="45.00507" lon="1.06972">
        <ele>112.3</ele>
        <time>2022-05-29T11:15:52Z</time>
      </trkpt>
      <trkpt lat="45.00515" lon="1.06967">
        <ele>114.1</ele>
        <time>2022-05-29T11:15:58Z</time>
      </trkpt>
      <trkpt lat="45.00516" lon="1.06967">
        <ele>114.3</ele>
        <time>2022-05-29T11:15:59Z</time>
      </trkpt>
      <trkpt lat="45.00521" lon="1.06964">
        <ele>115.6</ele>
        <time>2022-05-29T11:16:02Z</time>
      </trkpt>
      <trkpt lat="45.00525" lon="1.06961">
        <ele>116.5</ele>
        <time>2022-05-29T11:16:06Z</time>
      </trkpt>
      <trkpt lat="45.00525" lon="1.06961">
        <ele>116.5</ele>
        <time>2022-05-29T11:16:08Z</time>
      </trkpt>
      <trkpt lat="45.00619" lon="1.06791">
        <ele>140.2</ele>
        <time>2022-05-29T11:18:34Z</time>
      </trkpt>
      <trkpt lat="45.00621" lon="1.06788">
        <ele>140.6</ele>
        <time>2022-05-29T11:18:36Z</time>
      </trkpt>
      <trkpt lat="45.00622" lon="1.06787">
        <ele>140.9</ele>
        <time>2022-05-29T11:18:37Z</time>
      </trkpt>
      <trkpt lat="45.00628" lon="1.06783">
        <ele>142.1</ele>
        <time>2022-05-29T11:18:42Z</time>
      </trkpt>
      <trkpt lat="45.00635" lon="1.06776">
        <ele>143.9</ele>
        <time>2022-05-29T11:18:49Z</time>
      </trkpt>
      <trkpt lat="45.00644" lon="1.06768">
        <ele>146.1</ele>
        <time>2022-05-29T11:18:57Z</time>
      </trkpt>
      <trkpt lat="45.00649" lon="1.06763">
        <ele>147.4</ele>
        <time>2022-05-29T11:19:02Z</time>
      </trkpt>
      <trkpt lat="45.00651" lon="1.06761">
        <ele>147.9</ele>
        <time>2022-05-29T11:19:04Z</time>
      </trkpt>
      <trkpt lat="45.00657" lon="1.06756">
        <ele>149.2</ele>
        <time>2022-05-29T11:19:10Z</time>
      </trkpt>
      <trkpt lat="45.00665" lon="1.06749">
        <ele>151</ele>
        <time>2022-05-29T11:19:18Z</time>
      </trkpt>
      <trkpt lat="45.00671" lon="1.06744">
        <ele>152.4</ele>
        <time>2022-05-29T11:19:24Z</time>
      </trkpt>
      <trkpt lat="45.00672" lon="1.06747">
        <ele>152.6</ele>
        <time>2022-05-29T11:19:25Z</time>
      </trkpt>
      <trkpt lat="45.00677" lon="1.06759">
        <ele>153.6</ele>
        <time>2022-05-29T11:19:33Z</time>
      </trkpt>
      <trkpt lat="45.00679" lon="1.06764">
        <ele>154.1</ele>
        <time>2022-05-29T11:19:37Z</time>
      </trkpt>
      <trkpt lat="45.00681" lon="1.06766">
        <ele>154.3</ele>
        <time>2022-05-29T11:19:39Z</time>
      </trkpt>
      <trkpt lat="45.00681" lon="1.06768">
        <ele>154.4</ele>
        <time>2022-05-29T11:19:40Z</time>
      </trkpt>
      <trkpt lat="45.00689" lon="1.06785">
        <ele>155.5</ele>
        <time>2022-05-29T11:19:51Z</time>
      </trkpt>
      <trkpt lat="45.00697" lon="1.068">
        <ele>156</ele>
        <time>2022-05-29T11:19:59Z</time>
      </trkpt>
      <trkpt lat="45.00706" lon="1.06816">
        <ele>156.2</ele>
        <time>2022-05-29T11:20:08Z</time>
      </trkpt>
      <trkpt lat="45.00706" lon="1.06816">
        <ele>156.2</ele>
        <time>2022-05-29T11:20:10Z</time>
      </trkpt>
      <trkpt lat="45.0071" lon="1.06822">
        <ele>156.2</ele>
        <time>2022-05-29T11:20:52Z</time>
      </trkpt>
      <trkpt lat="45.00711" lon="1.06824">
        <ele>156.3</ele>
        <time>2022-05-29T11:20:53Z</time>
      </trkpt>
      <trkpt lat="45.00722" lon="1.06839">
        <ele>156.5</ele>
        <time>2022-05-29T11:21:00Z</time>
      </trkpt>
      <trkpt lat="45.00727" lon="1.06842">
        <ele>156.6</ele>
        <time>2022-05-29T11:21:03Z</time>
      </trkpt>
      <trkpt lat="45.0073" lon="1.06842">
        <ele>156.7</ele>
        <time>2022-05-29T11:21:05Z</time>
      </trkpt>
      <trkpt lat="45.00739" lon="1.06832">
        <ele>157.4</ele>
        <time>2022-05-29T11:21:11Z</time>
      </trkpt>
      <trkpt lat="45.00741" lon="1.06832">
        <ele>157.5</ele>
        <time>2022-05-29T11:21:12Z</time>
      </trkpt>
      <trkpt lat="45.00747" lon="1.06834">
        <ele>157.9</ele>
        <time>2022-05-29T11:21:15Z</time>
      </trkpt>
      <trkpt lat="45.00747" lon="1.06834">
        <ele>157.9</ele>
        <time>2022-05-29T11:21:16Z</time>
      </trkpt>
      <trkpt lat="45.00747" lon="1.06834">
        <ele>157.9</ele>
        <time>2022-05-29T11:21:19Z</time>
      </trkpt>
      <trkpt lat="45.00747" lon="1.06834">
        <ele>157.9</ele>
        <time>2022-05-29T11:21:26Z</time>
      </trkpt>
      <trkpt lat="45.00747" lon="1.06834">
        <ele>157.9</ele>
        <time>2022-05-29T11:21:32Z</time>
      </trkpt>
      <trkpt lat="45.00794" lon="1.06843">
        <ele>160.4</ele>
        <time>2022-05-29T11:21:39Z</time>
      </trkpt>
      <trkpt lat="45.00808" lon="1.06844">
        <ele>161</ele>
        <time>2022-05-29T11:21:46Z</time>
      </trkpt>
      <trkpt lat="45.00822" lon="1.06844">
        <ele>161.8</ele>
        <time>2022-05-29T11:21:53Z</time>
      </trkpt>
      <trkpt lat="45.00837" lon="1.06846">
        <ele>162.6</ele>
        <time>2022-05-29T11:22:00Z</time>
      </trkpt>
      <trkpt lat="45.00854" lon="1.06849">
        <ele>163.1</ele>
        <time>2022-05-29T11:22:08Z</time>
      </trkpt>
      <trkpt lat="45.00869" lon="1.06853">
        <ele>163.3</ele>
        <time>2022-05-29T11:22:15Z</time>
      </trkpt>
      <trkpt lat="45.00885" lon="1.06858">
        <ele>163.1</ele>
        <time>2022-05-29T11:22:22Z</time>
      </trkpt>
      <trkpt lat="45.00898" lon="1.06864">
        <ele>162.6</ele>
        <time>2022-05-29T11:22:27Z</time>
      </trkpt>
      <trkpt lat="45.00909" lon="1.06866">
        <ele>161.9</ele>
        <time>2022-05-29T11:22:31Z</time>
      </trkpt>
      <trkpt lat="45.0091" lon="1.06866">
        <ele>161.8</ele>
        <time>2022-05-29T11:22:32Z</time>
      </trkpt>
      <trkpt lat="45.00918" lon="1.06861">
        <ele>161.1</ele>
        <time>2022-05-29T11:22:34Z</time>
      </trkpt>
      <trkpt lat="45.00921" lon="1.06859">
        <ele>160.8</ele>
        <time>2022-05-29T11:22:35Z</time>
      </trkpt>
      <trkpt lat="45.00927" lon="1.06857">
        <ele>160.5</ele>
        <time>2022-05-29T11:22:37Z</time>
      </trkpt>
      <trkpt lat="45.00933" lon="1.06849">
        <ele>160.1</ele>
        <time>2022-05-29T11:22:38Z</time>
      </trkpt>
      <trkpt lat="45.00934" lon="1.06848">
        <ele>160</ele>
        <time>2022-05-29T11:22:42Z</time>
      </trkpt>
      <trkpt lat="45.00936" lon="1.06846">
        <ele>160.2</ele>
        <time>2022-05-29T11:22:45Z</time>
      </trkpt>
      <trkpt lat="45.00938" lon="1.06845">
        <ele>160.5</ele>
        <time>2022-05-29T11:22:47Z</time>
      </trkpt>
      <trkpt lat="45.00944" lon="1.0684">
        <ele>161.2</ele>
        <time>2022-05-29T11:22:51Z</time>
      </trkpt>
      <trkpt lat="45.00942" lon="1.06824">
        <ele>162.5</ele>
        <time>2022-05-29T11:22:54Z</time>
      </trkpt>
      <trkpt lat="45.00943" lon="1.06818">
        <ele>163</ele>
        <time>2022-05-29T11:22:56Z</time>
      </trkpt>
      <trkpt lat="45.00944" lon="1.06813">
        <ele>163.5</ele>
        <time>2022-05-29T11:22:58Z</time>
      </trkpt>
      <trkpt lat="45.00946" lon="1.06804">
        <ele>164.4</ele>
        <time>2022-05-29T11:23:01Z</time>
      </trkpt>
      <trkpt lat="45.0095" lon="1.0679">
        <ele>165.7</ele>
        <time>2022-05-29T11:23:07Z</time>
      </trkpt>
      <trkpt lat="45.00953" lon="1.06781">
        <ele>166.7</ele>
        <time>2022-05-29T11:23:11Z</time>
      </trkpt>
      <trkpt lat="45.00954" lon="1.06776">
        <ele>167.2</ele>
        <time>2022-05-29T11:23:13Z</time>
      </trkpt>
      <trkpt lat="45.00956" lon="1.06768">
        <ele>168</ele>
        <time>2022-05-29T11:23:17Z</time>
      </trkpt>
      <trkpt lat="45.00958" lon="1.06765">
        <ele>168.4</ele>
        <time>2022-05-29T11:23:19Z</time>
      </trkpt>
      <trkpt lat="45.00959" lon="1.06761">
        <ele>168.8</ele>
        <time>2022-05-29T11:23:21Z</time>
      </trkpt>
      <trkpt lat="45.0096" lon="1.06757">
        <ele>169.2</ele>
        <time>2022-05-29T11:23:23Z</time>
      </trkpt>
      <trkpt lat="45.00961" lon="1.06755">
        <ele>169.4</ele>
        <time>2022-05-29T11:23:24Z</time>
      </trkpt>
      <trkpt lat="45.00962" lon="1.06748">
        <ele>169.9</ele>
        <time>2022-05-29T11:23:27Z</time>
      </trkpt>
      <trkpt lat="45.00962" lon="1.06744">
        <ele>170.2</ele>
        <time>2022-05-29T11:23:29Z</time>
      </trkpt>
      <trkpt lat="45.00963" lon="1.0674">
        <ele>170.4</ele>
        <time>2022-05-29T11:23:31Z</time>
      </trkpt>
      <trkpt lat="45.00962" lon="1.06739">
        <ele>170.5</ele>
        <time>2022-05-29T11:23:33Z</time>
      </trkpt>
      <trkpt lat="45.00963" lon="1.06737">
        <ele>170.6</ele>
        <time>2022-05-29T11:23:34Z</time>
      </trkpt>
      <trkpt lat="45.00968" lon="1.0673">
        <ele>171</ele>
        <time>2022-05-29T11:23:40Z</time>
      </trkpt>
      <trkpt lat="45.00976" lon="1.06722">
        <ele>171.3</ele>
        <time>2022-05-29T11:23:45Z</time>
      </trkpt>
      <trkpt lat="45.00981" lon="1.06716">
        <ele>171.6</ele>
        <time>2022-05-29T11:23:50Z</time>
      </trkpt>
      <trkpt lat="45.00986" lon="1.06709">
        <ele>172</ele>
        <time>2022-05-29T11:23:55Z</time>
      </trkpt>
      <trkpt lat="45.00987" lon="1.06708">
        <ele>172.1</ele>
        <time>2022-05-29T11:23:56Z</time>
      </trkpt>
      <trkpt lat="45.00991" lon="1.06702">
        <ele>172.6</ele>
        <time>2022-05-29T11:24:01Z</time>
      </trkpt>
      <trkpt lat="45.00995" lon="1.06696">
        <ele>173.2</ele>
        <time>2022-05-29T11:24:04Z</time>
      </trkpt>
      <trkpt lat="45.00998" lon="1.06692">
        <ele>173.7</ele>
        <time>2022-05-29T11:24:06Z</time>
      </trkpt>
      <trkpt lat="45.01003" lon="1.06685">
        <ele>174.7</ele>
        <time>2022-05-29T11:24:11Z</time>
      </trkpt>
      <trkpt lat="45.01007" lon="1.06681">
        <ele>175.4</ele>
        <time>2022-05-29T11:24:15Z</time>
      </trkpt>
      <trkpt lat="45.01011" lon="1.06677">
        <ele>176.1</ele>
        <time>2022-05-29T11:24:18Z</time>
      </trkpt>
      <trkpt lat="45.01015" lon="1.06671">
        <ele>177</ele>
        <time>2022-05-29T11:24:20Z</time>
      </trkpt>
      <trkpt lat="45.01022" lon="1.06662">
        <ele>178.5</ele>
        <time>2022-05-29T11:24:25Z</time>
      </trkpt>
      <trkpt lat="45.0103" lon="1.06652">
        <ele>180.1</ele>
        <time>2022-05-29T11:24:30Z</time>
      </trkpt>
      <trkpt lat="45.01035" lon="1.06648">
        <ele>180.9</ele>
        <time>2022-05-29T11:24:35Z</time>
      </trkpt>
      <trkpt lat="45.0104" lon="1.06644">
        <ele>181.6</ele>
        <time>2022-05-29T11:24:39Z</time>
      </trkpt>
      <trkpt lat="45.01091" lon="1.06621">
        <ele>190.5</ele>
        <time>2022-05-29T11:25:22Z</time>
      </trkpt>
      <trkpt lat="45.01093" lon="1.06621">
        <ele>191</ele>
        <time>2022-05-29T11:25:24Z</time>
      </trkpt>
      <trkpt lat="45.01097" lon="1.06622">
        <ele>191.7</ele>
        <time>2022-05-29T11:25:27Z</time>
      </trkpt>
      <trkpt lat="45.01099" lon="1.06624">
        <ele>192</ele>
        <time>2022-05-29T11:25:28Z</time>
      </trkpt>
      <trkpt lat="45.01104" lon="1.06627">
        <ele>193</ele>
        <time>2022-05-29T11:25:33Z</time>
      </trkpt>
      <trkpt lat="45.01107" lon="1.06627">
        <ele>193.4</ele>
        <time>2022-05-29T11:25:35Z</time>
      </trkpt>
      <trkpt lat="45.0111" lon="1.0663">
        <ele>193.9</ele>
        <time>2022-05-29T11:25:38Z</time>
      </trkpt>
      <trkpt lat="45.01111" lon="1.06632">
        <ele>194</ele>
        <time>2022-05-29T11:25:39Z</time>
      </trkpt>
      <trkpt lat="45.01115" lon="1.06637">
        <ele>194.6</ele>
        <time>2022-05-29T11:25:43Z</time>
      </trkpt>
      <trkpt lat="45.01118" lon="1.06642">
        <ele>195.1</ele>
        <time>2022-05-29T11:25:48Z</time>
      </trkpt>
      <trkpt lat="45.01119" lon="1.06644">
        <ele>195.3</ele>
        <time>2022-05-29T11:25:50Z</time>
      </trkpt>
      <trkpt lat="45.01122" lon="1.0665">
        <ele>195.6</ele>
        <time>2022-05-29T11:25:54Z</time>
      </trkpt>
      <trkpt lat="45.01123" lon="1.06653">
        <ele>195.8</ele>
        <time>2022-05-29T11:25:56Z</time>
      </trkpt>
      <trkpt lat="45.01126" lon="1.06658">
        <ele>196.1</ele>
        <time>2022-05-29T11:25:59Z</time>
      </trkpt>
      <trkpt lat="45.01128" lon="1.06662">
        <ele>196.4</ele>
        <time>2022-05-29T11:26:01Z</time>
      </trkpt>
      <trkpt lat="45.01132" lon="1.06668">
        <ele>196.8</ele>
        <time>2022-05-29T11:26:05Z</time>
      </trkpt>
      <trkpt lat="45.01138" lon="1.06676">
        <ele>197.4</ele>
        <time>2022-05-29T11:26:10Z</time>
      </trkpt>
      <trkpt lat="45.01142" lon="1.06686">
        <ele>197.9</ele>
        <time>2022-05-29T11:26:15Z</time>
      </trkpt>
      <trkpt lat="45.01143" lon="1.06687">
        <ele>198</ele>
        <time>2022-05-29T11:26:16Z</time>
      </trkpt>
      <trkpt lat="45.01145" lon="1.0669">
        <ele>198.2</ele>
        <time>2022-05-29T11:26:18Z</time>
      </trkpt>
      <trkpt lat="45.01146" lon="1.06692">
        <ele>198.3</ele>
        <time>2022-05-29T11:26:19Z</time>
      </trkpt>
      <trkpt lat="45.01148" lon="1.06695">
        <ele>198.5</ele>
        <time>2022-05-29T11:26:21Z</time>
      </trkpt>
      <trkpt lat="45.01151" lon="1.06704">
        <ele>199</ele>
        <time>2022-05-29T11:26:25Z</time>
      </trkpt>
      <trkpt lat="45.01154" lon="1.06708">
        <ele>199.3</ele>
        <time>2022-05-29T11:26:27Z</time>
      </trkpt>
      <trkpt lat="45.01159" lon="1.06722">
        <ele>200.4</ele>
        <time>2022-05-29T11:26:30Z</time>
      </trkpt>
      <trkpt lat="45.01159" lon="1.06722">
        <ele>200.4</ele>
        <time>2022-05-29T11:26:32Z</time>
      </trkpt>
      <trkpt lat="45.0116" lon="1.06722">
        <ele>200.6</ele>
        <time>2022-05-29T11:26:34Z</time>
      </trkpt>
      <trkpt lat="45.01167" lon="1.06727">
        <ele>201.7</ele>
        <time>2022-05-29T11:26:40Z</time>
      </trkpt>
      <trkpt lat="45.01174" lon="1.06732">
        <ele>202.5</ele>
        <time>2022-05-29T11:26:45Z</time>
      </trkpt>
      <trkpt lat="45.0118" lon="1.06739">
        <ele>203.1</ele>
        <time>2022-05-29T11:26:51Z</time>
      </trkpt>
      <trkpt lat="45.01186" lon="1.06749">
        <ele>203.3</ele>
        <time>2022-05-29T11:26:56Z</time>
      </trkpt>
      <trkpt lat="45.0119" lon="1.06759">
        <ele>203.3</ele>
        <time>2022-05-29T11:27:01Z</time>
      </trkpt>
      <trkpt lat="45.01196" lon="1.06772">
        <ele>203.1</ele>
        <time>2022-05-29T11:27:08Z</time>
      </trkpt>
      <trkpt lat="45.01198" lon="1.06776">
        <ele>203.1</ele>
        <time>2022-05-29T11:27:12Z</time>
      </trkpt>
      <trkpt lat="45.01199" lon="1.06779">
        <ele>203</ele>
        <time>2022-05-29T11:27:18Z</time>
      </trkpt>
      <trkpt lat="45.01207" lon="1.06795">
        <ele>202.5</ele>
        <time>2022-05-29T11:27:24Z</time>
      </trkpt>
      <trkpt lat="45.01218" lon="1.06819">
        <ele>201.7</ele>
        <time>2022-05-29T11:27:30Z</time>
      </trkpt>
      <trkpt lat="45.0122" lon="1.06822">
        <ele>201.7</ele>
        <time>2022-05-29T11:27:31Z</time>
      </trkpt>
      <trkpt lat="45.01225" lon="1.06834">
        <ele>201.6</ele>
        <time>2022-05-29T11:27:34Z</time>
      </trkpt>
      <trkpt lat="45.01229" lon="1.06841">
        <ele>201.6</ele>
        <time>2022-05-29T11:27:36Z</time>
      </trkpt>
      <trkpt lat="45.01232" lon="1.06849">
        <ele>201.6</ele>
        <time>2022-05-29T11:27:38Z</time>
      </trkpt>
      <trkpt lat="45.01242" lon="1.06866">
        <ele>202.1</ele>
        <time>2022-05-29T11:27:43Z</time>
      </trkpt>
      <trkpt lat="45.01251" lon="1.06876">
        <ele>202.8</ele>
        <time>2022-05-29T11:27:47Z</time>
      </trkpt>
      <trkpt lat="45.01261" lon="1.06882">
        <ele>203.9</ele>
        <time>2022-05-29T11:27:50Z</time>
      </trkpt>
      <trkpt lat="45.01273" lon="1.06885">
        <ele>205.5</ele>
        <time>2022-05-29T11:27:56Z</time>
      </trkpt>
      <trkpt lat="45.01284" lon="1.06887">
        <ele>206.9</ele>
        <time>2022-05-29T11:28:01Z</time>
      </trkpt>
      <trkpt lat="45.01291" lon="1.06893">
        <ele>208</ele>
        <time>2022-05-29T11:28:06Z</time>
      </trkpt>
      <trkpt lat="45.01297" lon="1.06898">
        <ele>208.9</ele>
        <time>2022-05-29T11:28:11Z</time>
      </trkpt>
      <trkpt lat="45.01306" lon="1.06904">
        <ele>210.2</ele>
        <time>2022-05-29T11:28:17Z</time>
      </trkpt>
      <trkpt lat="45.01314" lon="1.06907">
        <ele>211.2</ele>
        <time>2022-05-29T11:28:23Z</time>
      </trkpt>
      <trkpt lat="45.01315" lon="1.06908">
        <ele>211.4</ele>
        <time>2022-05-29T11:28:25Z</time>
      </trkpt>
      <trkpt lat="45.01318" lon="1.06909">
        <ele>211.7</ele>
        <time>2022-05-29T11:28:27Z</time>
      </trkpt>
      <trkpt lat="45.01319" lon="1.06909">
        <ele>211.9</ele>
        <time>2022-05-29T11:28:28Z</time>
      </trkpt>
      <trkpt lat="45.01323" lon="1.06911">
        <ele>212.3</ele>
        <time>2022-05-29T11:28:32Z</time>
      </trkpt>
      <trkpt lat="45.01335" lon="1.06915">
        <ele>213.8</ele>
        <time>2022-05-29T11:28:38Z</time>
      </trkpt>
      <trkpt lat="45.01341" lon="1.06917">
        <ele>214.6</ele>
        <time>2022-05-29T11:28:43Z</time>
      </trkpt>
      <trkpt lat="45.01351" lon="1.06919">
        <ele>215.9</ele>
        <time>2022-05-29T11:28:49Z</time>
      </trkpt>
      <trkpt lat="45.01357" lon="1.06921">
        <ele>216.7</ele>
        <time>2022-05-29T11:28:54Z</time>
      </trkpt>
      <trkpt lat="45.01359" lon="1.06921">
        <ele>217</ele>
        <time>2022-05-29T11:28:56Z</time>
      </trkpt>
      <trkpt lat="45.01363" lon="1.06922">
        <ele>217.4</ele>
        <time>2022-05-29T11:28:59Z</time>
      </trkpt>
      <trkpt lat="45.01369" lon="1.06924">
        <ele>218.1</ele>
        <time>2022-05-29T11:29:04Z</time>
      </trkpt>
      <trkpt lat="45.01377" lon="1.06926">
        <ele>219.2</ele>
        <time>2022-05-29T11:29:10Z</time>
      </trkpt>
      <trkpt lat="45.01379" lon="1.06927">
        <ele>219.4</ele>
        <time>2022-05-29T11:29:11Z</time>
      </trkpt>
      <trkpt lat="45.01386" lon="1.06929">
        <ele>220.3</ele>
        <time>2022-05-29T11:29:16Z</time>
      </trkpt>
      <trkpt lat="45.01396" lon="1.06932">
        <ele>221.4</ele>
        <time>2022-05-29T11:29:23Z</time>
      </trkpt>
      <trkpt lat="45.014" lon="1.06934">
        <ele>221.8</ele>
        <time>2022-05-29T11:29:26Z</time>
      </trkpt>
      <trkpt lat="45.01402" lon="1.06934">
        <ele>222</ele>
        <time>2022-05-29T11:29:28Z</time>
      </trkpt>
      <trkpt lat="45.01415" lon="1.06938">
        <ele>222.9</ele>
        <time>2022-05-29T11:29:36Z</time>
      </trkpt>
      <trkpt lat="45.01427" lon="1.06942">
        <ele>223.6</ele>
        <time>2022-05-29T11:29:43Z</time>
      </trkpt>
      <trkpt lat="45.01437" lon="1.06945">
        <ele>224.2</ele>
        <time>2022-05-29T11:29:49Z</time>
      </trkpt>
      <trkpt lat="45.01452" lon="1.0695">
        <ele>224.8</ele>
        <time>2022-05-29T11:29:56Z</time>
      </trkpt>
      <trkpt lat="45.01467" lon="1.06955">
        <ele>225.1</ele>
        <time>2022-05-29T11:30:02Z</time>
      </trkpt>
      <trkpt lat="45.01482" lon="1.0696">
        <ele>225.1</ele>
        <time>2022-05-29T11:30:08Z</time>
      </trkpt>
      <trkpt lat="45.01497" lon="1.06965">
        <ele>225.1</ele>
        <time>2022-05-29T11:30:14Z</time>
      </trkpt>
      <trkpt lat="45.01523" lon="1.06974">
        <ele>224.8</ele>
        <time>2022-05-29T11:30:22Z</time>
      </trkpt>
      <trkpt lat="45.01538" lon="1.0698">
        <ele>224.4</ele>
        <time>2022-05-29T11:30:27Z</time>
      </trkpt>
      <trkpt lat="45.01556" lon="1.06986">
        <ele>223.9</ele>
        <time>2022-05-29T11:30:32Z</time>
      </trkpt>
      <trkpt lat="45.01574" lon="1.06994">
        <ele>223.6</ele>
        <time>2022-05-29T11:30:37Z</time>
      </trkpt>
      <trkpt lat="45.01596" lon="1.07011">
        <ele>223.5</ele>
        <time>2022-05-29T11:30:44Z</time>
      </trkpt>
      <trkpt lat="45.0162" lon="1.07027">
        <ele>223.7</ele>
        <time>2022-05-29T11:30:51Z</time>
      </trkpt>
      <trkpt lat="45.01641" lon="1.0704">
        <ele>224</ele>
        <time>2022-05-29T11:30:57Z</time>
      </trkpt>
      <trkpt lat="45.01671" lon="1.07058">
        <ele>224.6</ele>
        <time>2022-05-29T11:31:05Z</time>
      </trkpt>
      <trkpt lat="45.01691" lon="1.07068">
        <ele>225</ele>
        <time>2022-05-29T11:31:11Z</time>
      </trkpt>
      <trkpt lat="45.01698" lon="1.07071">
        <ele>225</ele>
        <time>2022-05-29T11:31:15Z</time>
      </trkpt>
      <trkpt lat="45.01698" lon="1.07071">
        <ele>225</ele>
        <time>2022-05-29T11:31:16Z</time>
      </trkpt>
      <trkpt lat="45.01704" lon="1.07074">
        <ele>225.1</ele>
        <time>2022-05-29T11:39:37Z</time>
      </trkpt>
      <trkpt lat="45.01707" lon="1.07075">
        <ele>225.2</ele>
        <time>2022-05-29T11:39:39Z</time>
      </trkpt>
      <trkpt lat="45.01718" lon="1.0708">
        <ele>225.2</ele>
        <time>2022-05-29T11:39:44Z</time>
      </trkpt>
      <trkpt lat="45.01735" lon="1.07088">
        <ele>224.9</ele>
        <time>2022-05-29T11:39:51Z</time>
      </trkpt>
      <trkpt lat="45.01755" lon="1.07097">
        <ele>224.4</ele>
        <time>2022-05-29T11:39:57Z</time>
      </trkpt>
      <trkpt lat="45.01776" lon="1.07107">
        <ele>223.9</ele>
        <time>2022-05-29T11:40:03Z</time>
      </trkpt>
      <trkpt lat="45.01792" lon="1.07122">
        <ele>223.6</ele>
        <time>2022-05-29T11:40:08Z</time>
      </trkpt>
      <trkpt lat="45.01804" lon="1.07136">
        <ele>223.3</ele>
        <time>2022-05-29T11:40:12Z</time>
      </trkpt>
      <trkpt lat="45.01807" lon="1.0714">
        <ele>223.2</ele>
        <time>2022-05-29T11:40:13Z</time>
      </trkpt>
      <trkpt lat="45.0181" lon="1.07144">
        <ele>223.1</ele>
        <time>2022-05-29T11:40:14Z</time>
      </trkpt>
      <trkpt lat="45.01823" lon="1.07161">
        <ele>222.6</ele>
        <time>2022-05-29T11:40:18Z</time>
      </trkpt>
      <trkpt lat="45.01827" lon="1.07165">
        <ele>222.6</ele>
        <time>2022-05-29T11:40:19Z</time>
      </trkpt>
      <trkpt lat="45.01834" lon="1.07174">
        <ele>222.3</ele>
        <time>2022-05-29T11:40:21Z</time>
      </trkpt>
      <trkpt lat="45.01837" lon="1.07178">
        <ele>222.1</ele>
        <time>2022-05-29T11:40:22Z</time>
      </trkpt>
      <trkpt lat="45.01845" lon="1.07187">
        <ele>221.7</ele>
        <time>2022-05-29T11:40:24Z</time>
      </trkpt>
      <trkpt lat="45.01856" lon="1.07202">
        <ele>221</ele>
        <time>2022-05-29T11:40:27Z</time>
      </trkpt>
      <trkpt lat="45.01864" lon="1.07211">
        <ele>220.5</ele>
        <time>2022-05-29T11:40:29Z</time>
      </trkpt>
      <trkpt lat="45.01874" lon="1.07223">
        <ele>219.8</ele>
        <time>2022-05-29T11:40:31Z</time>
      </trkpt>
      <trkpt lat="45.01883" lon="1.07235">
        <ele>219.4</ele>
        <time>2022-05-29T11:40:33Z</time>
      </trkpt>
      <trkpt lat="45.01891" lon="1.07244">
        <ele>219.1</ele>
        <time>2022-05-29T11:40:35Z</time>
      </trkpt>
      <trkpt lat="45.019" lon="1.07258">
        <ele>218.8</ele>
        <time>2022-05-29T11:40:38Z</time>
      </trkpt>
      <trkpt lat="45.01903" lon="1.07262">
        <ele>218.7</ele>
        <time>2022-05-29T11:40:39Z</time>
      </trkpt>
      <trkpt lat="45.01909" lon="1.07273">
        <ele>218.5</ele>
        <time>2022-05-29T11:40:42Z</time>
      </trkpt>
      <trkpt lat="45.0192" lon="1.0729">
        <ele>218.2</ele>
        <time>2022-05-29T11:40:47Z</time>
      </trkpt>
      <trkpt lat="45.01929" lon="1.07305">
        <ele>217.9</ele>
        <time>2022-05-29T11:40:52Z</time>
      </trkpt>
      <trkpt lat="45.01943" lon="1.07326">
        <ele>217.5</ele>
        <time>2022-05-29T11:40:58Z</time>
      </trkpt>
      <trkpt lat="45.01948" lon="1.07334">
        <ele>217.3</ele>
        <time>2022-05-29T11:41:00Z</time>
      </trkpt>
      <trkpt lat="45.01953" lon="1.07343">
        <ele>217.3</ele>
        <time>2022-05-29T11:41:02Z</time>
      </trkpt>
      <trkpt lat="45.01966" lon="1.07363">
        <ele>217.2</ele>
        <time>2022-05-29T11:41:07Z</time>
      </trkpt>
      <trkpt lat="45.01975" lon="1.07379">
        <ele>217.1</ele>
        <time>2022-05-29T11:41:11Z</time>
      </trkpt>
      <trkpt lat="45.01982" lon="1.0739">
        <ele>217.1</ele>
        <time>2022-05-29T11:41:14Z</time>
      </trkpt>
      <trkpt lat="45.0199" lon="1.07401">
        <ele>217</ele>
        <time>2022-05-29T11:41:18Z</time>
      </trkpt>
      <trkpt lat="45.02002" lon="1.07421">
        <ele>217</ele>
        <time>2022-05-29T11:41:23Z</time>
      </trkpt>
      <trkpt lat="45.02013" lon="1.07439">
        <ele>217.2</ele>
        <time>2022-05-29T11:41:28Z</time>
      </trkpt>
      <trkpt lat="45.02028" lon="1.07462">
        <ele>217.5</ele>
        <time>2022-05-29T11:41:34Z</time>
      </trkpt>
      <trkpt lat="45.02038" lon="1.07479">
        <ele>217.7</ele>
        <time>2022-05-29T11:41:38Z</time>
      </trkpt>
      <trkpt lat="45.02048" lon="1.07495">
        <ele>217.9</ele>
        <time>2022-05-29T11:41:42Z</time>
      </trkpt>
      <trkpt lat="45.02061" lon="1.07516">
        <ele>218.2</ele>
        <time>2022-05-29T11:41:47Z</time>
      </trkpt>
      <trkpt lat="45.02076" lon="1.0754">
        <ele>218.4</ele>
        <time>2022-05-29T11:41:53Z</time>
      </trkpt>
      <trkpt lat="45.02088" lon="1.07558">
        <ele>218.7</ele>
        <time>2022-05-29T11:41:58Z</time>
      </trkpt>
      <trkpt lat="45.02099" lon="1.07574">
        <ele>218.9</ele>
        <time>2022-05-29T11:42:03Z</time>
      </trkpt>
      <trkpt lat="45.02108" lon="1.07586">
        <ele>219.1</ele>
        <time>2022-05-29T11:42:07Z</time>
      </trkpt>
      <trkpt lat="45.02118" lon="1.076">
        <ele>219.4</ele>
        <time>2022-05-29T11:42:11Z</time>
      </trkpt>
      <trkpt lat="45.02133" lon="1.07618">
        <ele>219.8</ele>
        <time>2022-05-29T11:42:16Z</time>
      </trkpt>
      <trkpt lat="45.02147" lon="1.07637">
        <ele>220.3</ele>
        <time>2022-05-29T11:42:21Z</time>
      </trkpt>
      <trkpt lat="45.0216" lon="1.07655">
        <ele>220.8</ele>
        <time>2022-05-29T11:42:26Z</time>
      </trkpt>
      <trkpt lat="45.02166" lon="1.07662">
        <ele>221</ele>
        <time>2022-05-29T11:42:28Z</time>
      </trkpt>
      <trkpt lat="45.02173" lon="1.07672">
        <ele>221.4</ele>
        <time>2022-05-29T11:42:30Z</time>
      </trkpt>
      <trkpt lat="45.02177" lon="1.07677">
        <ele>221.6</ele>
        <time>2022-05-29T11:42:31Z</time>
      </trkpt>
      <trkpt lat="45.02184" lon="1.07686">
        <ele>222</ele>
        <time>2022-05-29T11:42:33Z</time>
      </trkpt>
      <trkpt lat="45.02187" lon="1.0769">
        <ele>222.2</ele>
        <time>2022-05-29T11:42:34Z</time>
      </trkpt>
      <trkpt lat="45.02202" lon="1.0771">
        <ele>223</ele>
        <time>2022-05-29T11:42:39Z</time>
      </trkpt>
      <trkpt lat="45.0221" lon="1.07718">
        <ele>223.5</ele>
        <time>2022-05-29T11:42:41Z</time>
      </trkpt>
      <trkpt lat="45.0222" lon="1.07729">
        <ele>224</ele>
        <time>2022-05-29T11:42:44Z</time>
      </trkpt>
      <trkpt lat="45.02233" lon="1.07743">
        <ele>224.7</ele>
        <time>2022-05-29T11:42:49Z</time>
      </trkpt>
      <trkpt lat="45.02227" lon="1.07813">
        <ele>225.9</ele>
        <time>2022-05-29T11:42:54Z</time>
      </trkpt>
      <trkpt lat="45.02225" lon="1.0782">
        <ele>225.7</ele>
        <time>2022-05-29T11:42:56Z</time>
      </trkpt>
      <trkpt lat="45.02223" lon="1.07827">
        <ele>225.6</ele>
        <time>2022-05-29T11:42:58Z</time>
      </trkpt>
      <trkpt lat="45.02199" lon="1.07891">
        <ele>221.7</ele>
        <time>2022-05-29T11:43:02Z</time>
      </trkpt>
      <trkpt lat="45.02205" lon="1.07898">
        <ele>221</ele>
        <time>2022-05-29T11:43:05Z</time>
      </trkpt>
      <trkpt lat="45.02204" lon="1.07902">
        <ele>220.7</ele>
        <time>2022-05-29T11:43:07Z</time>
      </trkpt>
      <trkpt lat="45.02202" lon="1.07914">
        <ele>219.9</ele>
        <time>2022-05-29T11:43:12Z</time>
      </trkpt>
      <trkpt lat="45.02201" lon="1.07916">
        <ele>219.8</ele>
        <time>2022-05-29T11:43:13Z</time>
      </trkpt>
      <trkpt lat="45.02199" lon="1.07924">
        <ele>219.3</ele>
        <time>2022-05-29T11:43:16Z</time>
      </trkpt>
      <trkpt lat="45.02197" lon="1.07935">
        <ele>218.6</ele>
        <time>2022-05-29T11:43:19Z</time>
      </trkpt>
      <trkpt lat="45.02195" lon="1.07942">
        <ele>218.1</ele>
        <time>2022-05-29T11:43:21Z</time>
      </trkpt>
      <trkpt lat="45.02189" lon="1.07969">
        <ele>216.3</ele>
        <time>2022-05-29T11:43:26Z</time>
      </trkpt>
      <trkpt lat="45.02179" lon="1.08012">
        <ele>213.3</ele>
        <time>2022-05-29T11:43:31Z</time>
      </trkpt>
      <trkpt lat="45.02167" lon="1.08072">
        <ele>208.7</ele>
        <time>2022-05-29T11:43:36Z</time>
      </trkpt>
      <trkpt lat="45.02165" lon="1.08099">
        <ele>206.6</ele>
        <time>2022-05-29T11:43:38Z</time>
      </trkpt>
      <trkpt lat="45.02164" lon="1.08123">
        <ele>204.2</ele>
        <time>2022-05-29T11:43:40Z</time>
      </trkpt>
      <trkpt lat="45.02163" lon="1.08134">
        <ele>203.1</ele>
        <time>2022-05-29T11:43:41Z</time>
      </trkpt>
      <trkpt lat="45.02164" lon="1.08146">
        <ele>201.8</ele>
        <time>2022-05-29T11:43:42Z</time>
      </trkpt>
      <trkpt lat="45.02167" lon="1.08153">
        <ele>200.9</ele>
        <time>2022-05-29T11:43:43Z</time>
      </trkpt>
      <trkpt lat="45.0218" lon="1.08169">
        <ele>198</ele>
        <time>2022-05-29T11:43:46Z</time>
      </trkpt>
      <trkpt lat="45.02189" lon="1.08179">
        <ele>195.8</ele>
        <time>2022-05-29T11:43:48Z</time>
      </trkpt>
      <trkpt lat="45.02197" lon="1.08192">
        <ele>193.5</ele>
        <time>2022-05-29T11:43:50Z</time>
      </trkpt>
      <trkpt lat="45.02204" lon="1.08204">
        <ele>191.7</ele>
        <time>2022-05-29T11:43:52Z</time>
      </trkpt>
      <trkpt lat="45.02203" lon="1.08212">
        <ele>190.8</ele>
        <time>2022-05-29T11:43:53Z</time>
      </trkpt>
      <trkpt lat="45.02202" lon="1.08248">
        <ele>187.4</ele>
        <time>2022-05-29T11:43:57Z</time>
      </trkpt>
      <trkpt lat="45.02192" lon="1.08262">
        <ele>185.7</ele>
        <time>2022-05-29T11:44:00Z</time>
      </trkpt>
      <trkpt lat="45.02187" lon="1.0827">
        <ele>184.8</ele>
        <time>2022-05-29T11:44:02Z</time>
      </trkpt>
      <trkpt lat="45.02184" lon="1.08275">
        <ele>184.3</ele>
        <time>2022-05-29T11:44:03Z</time>
      </trkpt>
      <trkpt lat="45.0217" lon="1.08297">
        <ele>181.9</ele>
        <time>2022-05-29T11:44:07Z</time>
      </trkpt>
      <trkpt lat="45.0215" lon="1.08308">
        <ele>179.1</ele>
        <time>2022-05-29T11:44:10Z</time>
      </trkpt>
      <trkpt lat="45.02137" lon="1.08312">
        <ele>177.2</ele>
        <time>2022-05-29T11:44:12Z</time>
      </trkpt>
      <trkpt lat="45.02125" lon="1.08316">
        <ele>175.4</ele>
        <time>2022-05-29T11:44:14Z</time>
      </trkpt>
      <trkpt lat="45.02119" lon="1.0832">
        <ele>174.3</ele>
        <time>2022-05-29T11:44:15Z</time>
      </trkpt>
      <trkpt lat="45.02109" lon="1.08335">
        <ele>172.4</ele>
        <time>2022-05-29T11:44:17Z</time>
      </trkpt>
      <trkpt lat="45.02103" lon="1.08342">
        <ele>171.6</ele>
        <time>2022-05-29T11:44:18Z</time>
      </trkpt>
      <trkpt lat="45.02083" lon="1.08372">
        <ele>168.8</ele>
        <time>2022-05-29T11:44:22Z</time>
      </trkpt>
      <trkpt lat="45.02068" lon="1.08392">
        <ele>166.6</ele>
        <time>2022-05-29T11:44:25Z</time>
      </trkpt>
      <trkpt lat="45.02063" lon="1.08399">
        <ele>165.7</ele>
        <time>2022-05-29T11:44:26Z</time>
      </trkpt>
      <trkpt lat="45.02058" lon="1.08406">
        <ele>164.8</ele>
        <time>2022-05-29T11:44:27Z</time>
      </trkpt>
      <trkpt lat="45.0205" lon="1.08437">
        <ele>160.9</ele>
        <time>2022-05-29T11:44:30Z</time>
      </trkpt>
      <trkpt lat="45.02046" lon="1.08459">
        <ele>158</ele>
        <time>2022-05-29T11:44:32Z</time>
      </trkpt>
      <trkpt lat="45.02043" lon="1.08481">
        <ele>155.3</ele>
        <time>2022-05-29T11:44:34Z</time>
      </trkpt>
      <trkpt lat="45.02033" lon="1.08542">
        <ele>148.4</ele>
        <time>2022-05-29T11:44:39Z</time>
      </trkpt>
      <trkpt lat="45.02029" lon="1.08565">
        <ele>146.5</ele>
        <time>2022-05-29T11:44:41Z</time>
      </trkpt>
      <trkpt lat="45.0203" lon="1.08593">
        <ele>143</ele>
        <time>2022-05-29T11:44:43Z</time>
      </trkpt>
      <trkpt lat="45.0203" lon="1.08616">
        <ele>142.6</ele>
        <time>2022-05-29T11:44:46Z</time>
      </trkpt>
      <trkpt lat="45.0203" lon="1.08623">
        <ele>142.5</ele>
        <time>2022-05-29T11:44:49Z</time>
      </trkpt>
      <trkpt lat="45.0203" lon="1.08619">
        <ele>142.4</ele>
        <time>2022-05-29T11:44:55Z</time>
      </trkpt>
      <trkpt lat="45.0203" lon="1.0861">
        <ele>142.3</ele>
        <time>2022-05-29T11:46:07Z</time>
      </trkpt>
      <trkpt lat="45.02031" lon="1.08608">
        <ele>142.2</ele>
        <time>2022-05-29T11:46:09Z</time>
      </trkpt>
      <trkpt lat="45.02032" lon="1.08602">
        <ele>142.5</ele>
        <time>2022-05-29T11:46:12Z</time>
      </trkpt>
      <trkpt lat="45.02026" lon="1.08584">
        <ele>144.8</ele>
        <time>2022-05-29T11:46:17Z</time>
      </trkpt>
      <trkpt lat="45.02026" lon="1.08584">
        <ele>144.8</ele>
        <time>2022-05-29T11:46:18Z</time>
      </trkpt>
      <trkpt lat="45.02026" lon="1.08584">
        <ele>144.8</ele>
        <time>2022-05-29T11:46:19Z</time>
      </trkpt>
      <trkpt lat="45.02026" lon="1.0858">
        <ele>145.2</ele>
        <time>2022-05-29T11:46:23Z</time>
      </trkpt>
      <trkpt lat="45.02027" lon="1.08575">
        <ele>145.6</ele>
        <time>2022-05-29T11:46:26Z</time>
      </trkpt>
      <trkpt lat="45.02028" lon="1.08573">
        <ele>145.8</ele>
        <time>2022-05-29T11:46:27Z</time>
      </trkpt>
      <trkpt lat="45.02026" lon="1.08584">
        <ele>146.7</ele>
        <time>2022-05-29T11:46:31Z</time>
      </trkpt>
      <trkpt lat="45.02026" lon="1.08584">
        <ele>146.7</ele>
        <time>2022-05-29T11:46:33Z</time>
      </trkpt>
      <trkpt lat="45.02029" lon="1.08563">
        <ele>148.3</ele>
        <time>2022-05-29T11:46:36Z</time>
      </trkpt>
      <trkpt lat="45.0203" lon="1.08559">
        <ele>148.7</ele>
        <time>2022-05-29T11:46:39Z</time>
      </trkpt>
      <trkpt lat="45.02031" lon="1.08549">
        <ele>149.6</ele>
        <time>2022-05-29T11:46:44Z</time>
      </trkpt>
      <trkpt lat="45.02033" lon="1.0854">
        <ele>150.4</ele>
        <time>2022-05-29T11:46:47Z</time>
      </trkpt>
      <trkpt lat="45.02035" lon="1.08528">
        <ele>151.6</ele>
        <time>2022-05-29T11:46:52Z</time>
      </trkpt>
      <trkpt lat="45.02037" lon="1.08513">
        <ele>153.2</ele>
        <time>2022-05-29T11:46:56Z</time>
      </trkpt>
      <trkpt lat="45.02039" lon="1.08505">
        <ele>154.2</ele>
        <time>2022-05-29T11:46:59Z</time>
      </trkpt>
      <trkpt lat="45.02043" lon="1.08478">
        <ele>157.3</ele>
        <time>2022-05-29T11:47:04Z</time>
      </trkpt>
      <trkpt lat="45.02046" lon="1.0846">
        <ele>159.4</ele>
        <time>2022-05-29T11:47:07Z</time>
      </trkpt>
      <trkpt lat="45.02047" lon="1.08455">
        <ele>160</ele>
        <time>2022-05-29T11:47:08Z</time>
      </trkpt>
      <trkpt lat="45.0205" lon="1.08432">
        <ele>162.8</ele>
        <time>2022-05-29T11:47:12Z</time>
      </trkpt>
      <trkpt lat="45.02052" lon="1.0842">
        <ele>164</ele>
        <time>2022-05-29T11:47:14Z</time>
      </trkpt>
      <trkpt lat="45.02054" lon="1.08413">
        <ele>164.7</ele>
        <time>2022-05-29T11:47:16Z</time>
      </trkpt>
      <trkpt lat="45.02055" lon="1.08411">
        <ele>164.9</ele>
        <time>2022-05-29T11:47:17Z</time>
      </trkpt>
      <trkpt lat="45.02058" lon="1.08407">
        <ele>165.5</ele>
        <time>2022-05-29T11:47:18Z</time>
      </trkpt>
      <trkpt lat="45.02068" lon="1.08393">
        <ele>167</ele>
        <time>2022-05-29T11:47:21Z</time>
      </trkpt>
      <trkpt lat="45.02077" lon="1.0838">
        <ele>168.3</ele>
        <time>2022-05-29T11:47:24Z</time>
      </trkpt>
      <trkpt lat="45.02086" lon="1.08367">
        <ele>169.4</ele>
        <time>2022-05-29T11:47:27Z</time>
      </trkpt>
      <trkpt lat="45.02054" lon="1.08327">
        <ele>160.5</ele>
        <time>2022-05-29T11:47:29Z</time>
      </trkpt>
      <trkpt lat="45.02047" lon="1.08323">
        <ele>154.5</ele>
        <time>2022-05-29T11:47:32Z</time>
      </trkpt>
      <trkpt lat="45.0204" lon="1.08332">
        <ele>153.4</ele>
        <time>2022-05-29T11:47:35Z</time>
      </trkpt>
      <trkpt lat="45.02028" lon="1.08343">
        <ele>151.6</ele>
        <time>2022-05-29T11:47:38Z</time>
      </trkpt>
      <trkpt lat="45.02024" lon="1.08346">
        <ele>150.9</ele>
        <time>2022-05-29T11:47:39Z</time>
      </trkpt>
      <trkpt lat="45.02013" lon="1.08357">
        <ele>149.1</ele>
        <time>2022-05-29T11:47:42Z</time>
      </trkpt>
      <trkpt lat="45.0201" lon="1.08362">
        <ele>148.5</ele>
        <time>2022-05-29T11:47:43Z</time>
      </trkpt>
      <trkpt lat="45.02004" lon="1.08374">
        <ele>147.2</ele>
        <time>2022-05-29T11:47:45Z</time>
      </trkpt>
      <trkpt lat="45.02002" lon="1.08381">
        <ele>146.6</ele>
        <time>2022-05-29T11:47:46Z</time>
      </trkpt>
      <trkpt lat="45.01996" lon="1.08407">
        <ele>144.7</ele>
        <time>2022-05-29T11:47:51Z</time>
      </trkpt>
      <trkpt lat="45.01993" lon="1.08429">
        <ele>143.1</ele>
        <time>2022-05-29T11:47:57Z</time>
      </trkpt>
      <trkpt lat="45.01993" lon="1.08445">
        <ele>142.1</ele>
        <time>2022-05-29T11:48:00Z</time>
      </trkpt>
      <trkpt lat="45.01993" lon="1.08456">
        <ele>141.4</ele>
        <time>2022-05-29T11:48:02Z</time>
      </trkpt>
      <trkpt lat="45.01993" lon="1.08486">
        <ele>140</ele>
        <time>2022-05-29T11:48:07Z</time>
      </trkpt>
      <trkpt lat="45.01995" lon="1.08498">
        <ele>139.3</ele>
        <time>2022-05-29T11:48:09Z</time>
      </trkpt>
      <trkpt lat="45.01998" lon="1.08519">
        <ele>138.3</ele>
        <time>2022-05-29T11:48:12Z</time>
      </trkpt>
      <trkpt lat="45.01996" lon="1.08534">
        <ele>137.5</ele>
        <time>2022-05-29T11:48:14Z</time>
      </trkpt>
      <trkpt lat="45.0199" lon="1.08555">
        <ele>136.4</ele>
        <time>2022-05-29T11:48:16Z</time>
      </trkpt>
      <trkpt lat="45.01986" lon="1.08603">
        <ele>133.9</ele>
        <time>2022-05-29T11:48:21Z</time>
      </trkpt>
      <trkpt lat="45.01985" lon="1.0866">
        <ele>130.9</ele>
        <time>2022-05-29T11:48:27Z</time>
      </trkpt>
      <trkpt lat="45.01982" lon="1.08694">
        <ele>129</ele>
        <time>2022-05-29T11:48:32Z</time>
      </trkpt>
      <trkpt lat="45.0198" lon="1.08697">
        <ele>128.8</ele>
        <time>2022-05-29T11:48:33Z</time>
      </trkpt>
      <trkpt lat="45.01979" lon="1.08697">
        <ele>128.7</ele>
        <time>2022-05-29T11:48:35Z</time>
      </trkpt>
      <trkpt lat="45.01981" lon="1.08695">
        <ele>128.5</ele>
        <time>2022-05-29T11:48:37Z</time>
      </trkpt>
      <trkpt lat="45.01982" lon="1.08689">
        <ele>128.2</ele>
        <time>2022-05-29T11:48:39Z</time>
      </trkpt>
      <trkpt lat="45.01983" lon="1.08673">
        <ele>129.1</ele>
        <time>2022-05-29T11:48:42Z</time>
      </trkpt>
      <trkpt lat="45.01981" lon="1.08665">
        <ele>129.6</ele>
        <time>2022-05-29T11:48:43Z</time>
      </trkpt>
      <trkpt lat="45.01978" lon="1.08648">
        <ele>130.5</ele>
        <time>2022-05-29T11:48:45Z</time>
      </trkpt>
      <trkpt lat="45.01972" lon="1.0862">
        <ele>132</ele>
        <time>2022-05-29T11:48:48Z</time>
      </trkpt>
      <trkpt lat="45.01965" lon="1.08574">
        <ele>134.5</ele>
        <time>2022-05-29T11:48:53Z</time>
      </trkpt>
      <trkpt lat="45.0196" lon="1.08503">
        <ele>138.1</ele>
        <time>2022-05-29T11:49:00Z</time>
      </trkpt>
      <trkpt lat="45.01957" lon="1.08487">
        <ele>137.3</ele>
        <time>2022-05-29T11:49:03Z</time>
      </trkpt>
      <trkpt lat="45.01953" lon="1.0849">
        <ele>131.1</ele>
        <time>2022-05-29T11:49:06Z</time>
      </trkpt>
      <trkpt lat="45.01948" lon="1.08508">
        <ele>131.7</ele>
        <time>2022-05-29T11:49:09Z</time>
      </trkpt>
      <trkpt lat="45.01939" lon="1.08539">
        <ele>124.9</ele>
        <time>2022-05-29T11:49:13Z</time>
      </trkpt>
      <trkpt lat="45.01937" lon="1.08547">
        <ele>124.8</ele>
        <time>2022-05-29T11:49:14Z</time>
      </trkpt>
      <trkpt lat="45.01926" lon="1.08592">
        <ele>119</ele>
        <time>2022-05-29T11:49:19Z</time>
      </trkpt>
      <trkpt lat="45.01923" lon="1.08602">
        <ele>118.3</ele>
        <time>2022-05-29T11:49:20Z</time>
      </trkpt>
      <trkpt lat="45.01913" lon="1.08638">
        <ele>110.9</ele>
        <time>2022-05-29T11:49:24Z</time>
      </trkpt>
      <trkpt lat="45.01907" lon="1.0866">
        <ele>110.2</ele>
        <time>2022-05-29T11:49:27Z</time>
      </trkpt>
      <trkpt lat="45.01904" lon="1.08665">
        <ele>105.1</ele>
        <time>2022-05-29T11:49:28Z</time>
      </trkpt>
      <trkpt lat="45.01897" lon="1.08673">
        <ele>104.8</ele>
        <time>2022-05-29T11:49:30Z</time>
      </trkpt>
      <trkpt lat="45.01893" lon="1.08673">
        <ele>99.9</ele>
        <time>2022-05-29T11:49:31Z</time>
      </trkpt>
      <trkpt lat="45.01888" lon="1.08671">
        <ele>99.6</ele>
        <time>2022-05-29T11:49:32Z</time>
      </trkpt>
      <trkpt lat="45.01885" lon="1.08666">
        <ele>99.3</ele>
        <time>2022-05-29T11:49:34Z</time>
      </trkpt>
      <trkpt lat="45.0189" lon="1.08647">
        <ele>98.6</ele>
        <time>2022-05-29T11:49:39Z</time>
      </trkpt>
      <trkpt lat="45.01883" lon="1.08623">
        <ele>98.2</ele>
        <time>2022-05-29T11:49:45Z</time>
      </trkpt>
      <trkpt lat="45.01889" lon="1.08602">
        <ele>97.6</ele>
        <time>2022-05-29T11:49:51Z</time>
      </trkpt>
      <trkpt lat="45.01891" lon="1.08591">
        <ele>97.3</ele>
        <time>2022-05-29T11:49:54Z</time>
      </trkpt>
      <trkpt lat="45.01891" lon="1.08589">
        <ele>97</ele>
        <time>2022-05-29T11:49:55Z</time>
      </trkpt>
      <trkpt lat="45.01892" lon="1.08584">
        <ele>96.7</ele>
        <time>2022-05-29T11:49:57Z</time>
      </trkpt>
      <trkpt lat="45.01893" lon="1.0858">
        <ele>96.4</ele>
        <time>2022-05-29T11:49:59Z</time>
      </trkpt>
      <trkpt lat="45.01895" lon="1.0857">
        <ele>101.6</ele>
        <time>2022-05-29T11:50:03Z</time>
      </trkpt>
      <trkpt lat="45.01895" lon="1.08567">
        <ele>101.3</ele>
        <time>2022-05-29T11:50:04Z</time>
      </trkpt>
      <trkpt lat="45.01889" lon="1.08565">
        <ele>95.4</ele>
        <time>2022-05-29T11:50:06Z</time>
      </trkpt>
      <trkpt lat="45.01885" lon="1.08564">
        <ele>95.1</ele>
        <time>2022-05-29T11:50:07Z</time>
      </trkpt>
      <trkpt lat="45.01872" lon="1.08555">
        <ele>89.4</ele>
        <time>2022-05-29T11:50:09Z</time>
      </trkpt>
      <trkpt lat="45.01847" lon="1.08527">
        <ele>80.9</ele>
        <time>2022-05-29T11:50:13Z</time>
      </trkpt>
      <trkpt lat="45.01839" lon="1.08522">
        <ele>77.7</ele>
        <time>2022-05-29T11:50:16Z</time>
      </trkpt>
      <trkpt lat="45.01821" lon="1.0852">
        <ele>74.1</ele>
        <time>2022-05-29T11:50:22Z</time>
      </trkpt>
      <trkpt lat="45.01798" lon="1.08511">
        <ele>73</ele>
        <time>2022-05-29T11:50:30Z</time>
      </trkpt>
      <trkpt lat="45.0177" lon="1.08505">
        <ele>72.2</ele>
        <time>2022-05-29T11:50:39Z</time>
      </trkpt>
      <trkpt lat="45.01751" lon="1.085">
        <ele>72</ele>
        <time>2022-05-29T11:50:45Z</time>
      </trkpt>
      <trkpt lat="45.01737" lon="1.08497">
        <ele>71.9</ele>
        <time>2022-05-29T11:50:50Z</time>
      </trkpt>
      <trkpt lat="45.01731" lon="1.0851">
        <ele>72</ele>
        <time>2022-05-29T11:50:52Z</time>
      </trkpt>
      <trkpt lat="45.01728" lon="1.08519">
        <ele>72</ele>
        <time>2022-05-29T11:50:55Z</time>
      </trkpt>
      <trkpt lat="45.01723" lon="1.08534">
        <ele>72</ele>
        <time>2022-05-29T11:51:00Z</time>
      </trkpt>
      <trkpt lat="45.01712" lon="1.08567">
        <ele>72.1</ele>
        <time>2022-05-29T11:51:09Z</time>
      </trkpt>
      <trkpt lat="45.01699" lon="1.08599">
        <ele>72.2</ele>
        <time>2022-05-29T11:51:17Z</time>
      </trkpt>
      <trkpt lat="45.01685" lon="1.08622">
        <ele>72.3</ele>
        <time>2022-05-29T11:51:23Z</time>
      </trkpt>
      <trkpt lat="45.01674" lon="1.08641">
        <ele>72.3</ele>
        <time>2022-05-29T11:51:28Z</time>
      </trkpt>
      <trkpt lat="45.01671" lon="1.08645">
        <ele>72.3</ele>
        <time>2022-05-29T11:51:29Z</time>
      </trkpt>
      <trkpt lat="45.01656" lon="1.08671">
        <ele>72.3</ele>
        <time>2022-05-29T11:51:35Z</time>
      </trkpt>
      <trkpt lat="45.01631" lon="1.08712">
        <ele>72.4</ele>
        <time>2022-05-29T11:51:44Z</time>
      </trkpt>
      <trkpt lat="45.01618" lon="1.08728">
        <ele>72.4</ele>
        <time>2022-05-29T11:51:48Z</time>
      </trkpt>
      <trkpt lat="45.01608" lon="1.08737">
        <ele>72.4</ele>
        <time>2022-05-29T11:51:51Z</time>
      </trkpt>
      <trkpt lat="45.01601" lon="1.08744">
        <ele>72.4</ele>
        <time>2022-05-29T11:51:53Z</time>
      </trkpt>
      <trkpt lat="45.01595" lon="1.0875">
        <ele>72.4</ele>
        <time>2022-05-29T11:51:55Z</time>
      </trkpt>
      <trkpt lat="45.01579" lon="1.08765">
        <ele>72.4</ele>
        <time>2022-05-29T11:51:59Z</time>
      </trkpt>
      <trkpt lat="45.01575" lon="1.08768">
        <ele>72.4</ele>
        <time>2022-05-29T11:52:00Z</time>
      </trkpt>
      <trkpt lat="45.01563" lon="1.0878">
        <ele>72.4</ele>
        <time>2022-05-29T11:52:03Z</time>
      </trkpt>
      <trkpt lat="45.01555" lon="1.08788">
        <ele>72.4</ele>
        <time>2022-05-29T11:52:05Z</time>
      </trkpt>
      <trkpt lat="45.01535" lon="1.08807">
        <ele>72.4</ele>
        <time>2022-05-29T11:52:10Z</time>
      </trkpt>
      <trkpt lat="45.01532" lon="1.0881">
        <ele>72.4</ele>
        <time>2022-05-29T11:52:11Z</time>
      </trkpt>
      <trkpt lat="45.01517" lon="1.08824">
        <ele>72.4</ele>
        <time>2022-05-29T11:52:15Z</time>
      </trkpt>
      <trkpt lat="45.01493" lon="1.08847">
        <ele>72.4</ele>
        <time>2022-05-29T11:52:21Z</time>
      </trkpt>
      <trkpt lat="45.01471" lon="1.08866">
        <ele>72.4</ele>
        <time>2022-05-29T11:52:26Z</time>
      </trkpt>
      <trkpt lat="45.01455" lon="1.08878">
        <ele>72.4</ele>
        <time>2022-05-29T11:52:30Z</time>
      </trkpt>
      <trkpt lat="45.01443" lon="1.08887">
        <ele>72.4</ele>
        <time>2022-05-29T11:52:33Z</time>
      </trkpt>
      <trkpt lat="45.01438" lon="1.08891">
        <ele>72.3</ele>
        <time>2022-05-29T11:52:34Z</time>
      </trkpt>
      <trkpt lat="45.01413" lon="1.0891">
        <ele>72.3</ele>
        <time>2022-05-29T11:52:40Z</time>
      </trkpt>
      <trkpt lat="45.01386" lon="1.08927">
        <ele>72.4</ele>
        <time>2022-05-29T11:52:46Z</time>
      </trkpt>
      <trkpt lat="45.01366" lon="1.0894">
        <ele>72.5</ele>
        <time>2022-05-29T11:52:51Z</time>
      </trkpt>
      <trkpt lat="45.01351" lon="1.08949">
        <ele>72.5</ele>
        <time>2022-05-29T11:52:55Z</time>
      </trkpt>
      <trkpt lat="45.01342" lon="1.08954">
        <ele>72.6</ele>
        <time>2022-05-29T11:53:02Z</time>
      </trkpt>
      <trkpt lat="45.01323" lon="1.08957">
        <ele>72.7</ele>
        <time>2022-05-29T11:53:09Z</time>
      </trkpt>
      <trkpt lat="45.01308" lon="1.08956">
        <ele>72.7</ele>
        <time>2022-05-29T11:53:15Z</time>
      </trkpt>
      <trkpt lat="45.01287" lon="1.08955">
        <ele>72.7</ele>
        <time>2022-05-29T11:53:22Z</time>
      </trkpt>
      <trkpt lat="45.01266" lon="1.08954">
        <ele>72.7</ele>
        <time>2022-05-29T11:53:29Z</time>
      </trkpt>
      <trkpt lat="45.01244" lon="1.08952">
        <ele>72.7</ele>
        <time>2022-05-29T11:53:36Z</time>
      </trkpt>
      <trkpt lat="45.01224" lon="1.08946">
        <ele>72.7</ele>
        <time>2022-05-29T11:53:43Z</time>
      </trkpt>
      <trkpt lat="45.01209" lon="1.08938">
        <ele>72.6</ele>
        <time>2022-05-29T11:53:49Z</time>
      </trkpt>
      <trkpt lat="45.01186" lon="1.08927">
        <ele>72.6</ele>
        <time>2022-05-29T11:53:57Z</time>
      </trkpt>
      <trkpt lat="45.01165" lon="1.0892">
        <ele>72.7</ele>
        <time>2022-05-29T11:54:04Z</time>
      </trkpt>
      <trkpt lat="45.01141" lon="1.08911">
        <ele>72.9</ele>
        <time>2022-05-29T11:54:12Z</time>
      </trkpt>
      <trkpt lat="45.01119" lon="1.08903">
        <ele>73.2</ele>
        <time>2022-05-29T11:54:19Z</time>
      </trkpt>
      <trkpt lat="45.01103" lon="1.08902">
        <ele>73.5</ele>
        <time>2022-05-29T11:54:24Z</time>
      </trkpt>
      <trkpt lat="45.01087" lon="1.089">
        <ele>73.9</ele>
        <time>2022-05-29T11:54:30Z</time>
      </trkpt>
      <trkpt lat="45.01075" lon="1.08921">
        <ele>73.9</ele>
        <time>2022-05-29T11:54:35Z</time>
      </trkpt>
      <trkpt lat="45.01053" lon="1.08942">
        <ele>73.7</ele>
        <time>2022-05-29T11:54:42Z</time>
      </trkpt>
      <trkpt lat="45.01036" lon="1.08949">
        <ele>73.7</ele>
        <time>2022-05-29T11:54:47Z</time>
      </trkpt>
      <trkpt lat="45.01025" lon="1.08966">
        <ele>73.6</ele>
        <time>2022-05-29T11:54:51Z</time>
      </trkpt>
      <trkpt lat="45.01024" lon="1.08971">
        <ele>73.6</ele>
        <time>2022-05-29T11:54:52Z</time>
      </trkpt>
      <trkpt lat="45.0102" lon="1.08994">
        <ele>73.5</ele>
        <time>2022-05-29T11:54:56Z</time>
      </trkpt>
      <trkpt lat="45.01016" lon="1.09021">
        <ele>73.4</ele>
        <time>2022-05-29T11:55:01Z</time>
      </trkpt>
      <trkpt lat="45.01016" lon="1.09028">
        <ele>73.4</ele>
        <time>2022-05-29T11:55:03Z</time>
      </trkpt>
      <trkpt lat="45.01015" lon="1.09035">
        <ele>73.4</ele>
        <time>2022-05-29T11:55:05Z</time>
      </trkpt>
      <trkpt lat="45.01015" lon="1.09045">
        <ele>73.4</ele>
        <time>2022-05-29T11:55:07Z</time>
      </trkpt>
      <trkpt lat="45.01015" lon="1.09049">
        <ele>73.4</ele>
        <time>2022-05-29T11:55:08Z</time>
      </trkpt>
      <trkpt lat="45.01015" lon="1.0907">
        <ele>73.4</ele>
        <time>2022-05-29T11:55:13Z</time>
      </trkpt>
      <trkpt lat="45.01015" lon="1.09074">
        <ele>73.4</ele>
        <time>2022-05-29T11:55:14Z</time>
      </trkpt>
      <trkpt lat="45.01015" lon="1.09078">
        <ele>73.4</ele>
        <time>2022-05-29T11:55:16Z</time>
      </trkpt>
      <trkpt lat="45.01015" lon="1.0908">
        <ele>73.4</ele>
        <time>2022-05-29T11:55:18Z</time>
      </trkpt>
    </trkseg>
  </trk>
</gpx>